<?xml version="1.0" encoding="UTF-8" standalone="no" ?>
<gpx xmlns="http://www.topografix.com/GPX/1/1" xmlns:xsi="http://www.w3.org/2001/XMLSchema-instance" xsi:schemaLocation="http://www.topografix.com/GPX/1/1 http://www.topografix.com/GPX/1/1/gpx.xsd" version="1.1" creator="VisuGPX - https://www.visugpx.com">
  <metadata>
    <name>Mont Peclet</name>
    <desc><![CDATA[Mont Peclet par Cote Brune depuis Méribel Mottaret ]]></desc>
  </metadata>
  <trk>
    <name><![CDATA[2018-12-26 09-24]]></name>
    <trkseg>
      <trkpt lat="45.3722" lon="6.58087">
        <ele>1689.6</ele>
        <time>2018-12-26T08:24:52Z</time>
      </trkpt>
      <trkpt lat="45.3722" lon="6.58087">
        <ele>1691</ele>
        <time>2018-12-26T08:24:57Z</time>
      </trkpt>
      <trkpt lat="45.37219" lon="6.58088">
        <ele>1691.6</ele>
        <time>2018-12-26T08:25:02Z</time>
      </trkpt>
      <trkpt lat="45.37219" lon="6.58088">
        <ele>1691.8</ele>
        <time>2018-12-26T08:25:07Z</time>
      </trkpt>
      <trkpt lat="45.37219" lon="6.58088">
        <ele>1691.8</ele>
        <time>2018-12-26T08:25:12Z</time>
      </trkpt>
      <trkpt lat="45.37219" lon="6.58088">
        <ele>1692</ele>
        <time>2018-12-26T08:25:17Z</time>
      </trkpt>
      <trkpt lat="45.37219" lon="6.58088">
        <ele>1692</ele>
        <time>2018-12-26T08:25:22Z</time>
      </trkpt>
      <trkpt lat="45.37219" lon="6.58088">
        <ele>1692</ele>
        <time>2018-12-26T08:25:27Z</time>
      </trkpt>
      <trkpt lat="45.37219" lon="6.58088">
        <ele>1692</ele>
        <time>2018-12-26T08:25:32Z</time>
      </trkpt>
      <trkpt lat="45.37219" lon="6.58088">
        <ele>1692</ele>
        <time>2018-12-26T08:25:37Z</time>
      </trkpt>
      <trkpt lat="45.37219" lon="6.58088">
        <ele>1692</ele>
        <time>2018-12-26T08:25:42Z</time>
      </trkpt>
      <trkpt lat="45.37219" lon="6.58088">
        <ele>1692</ele>
        <time>2018-12-26T08:25:47Z</time>
      </trkpt>
      <trkpt lat="45.37219" lon="6.58088">
        <ele>1692</ele>
        <time>2018-12-26T08:25:52Z</time>
      </trkpt>
      <trkpt lat="45.37219" lon="6.58088">
        <ele>1692</ele>
        <time>2018-12-26T08:25:57Z</time>
      </trkpt>
      <trkpt lat="45.37219" lon="6.58088">
        <ele>1692</ele>
        <time>2018-12-26T08:26:02Z</time>
      </trkpt>
      <trkpt lat="45.37219" lon="6.58088">
        <ele>1692</ele>
        <time>2018-12-26T08:26:07Z</time>
      </trkpt>
      <trkpt lat="45.37219" lon="6.58088">
        <ele>1692</ele>
        <time>2018-12-26T08:26:12Z</time>
      </trkpt>
      <trkpt lat="45.37219" lon="6.58089">
        <ele>1692</ele>
        <time>2018-12-26T08:26:17Z</time>
      </trkpt>
      <trkpt lat="45.37219" lon="6.58089">
        <ele>1692</ele>
        <time>2018-12-26T08:26:22Z</time>
      </trkpt>
      <trkpt lat="45.37219" lon="6.58089">
        <ele>1692.6</ele>
        <time>2018-12-26T08:26:27Z</time>
      </trkpt>
      <trkpt lat="45.37219" lon="6.58089">
        <ele>1692.6</ele>
        <time>2018-12-26T08:26:32Z</time>
      </trkpt>
      <trkpt lat="45.37219" lon="6.58089">
        <ele>1692.4</ele>
        <time>2018-12-26T08:26:37Z</time>
      </trkpt>
      <trkpt lat="45.37219" lon="6.58089">
        <ele>1692.4</ele>
        <time>2018-12-26T08:26:42Z</time>
      </trkpt>
      <trkpt lat="45.37219" lon="6.58089">
        <ele>1692.6</ele>
        <time>2018-12-26T08:26:47Z</time>
      </trkpt>
      <trkpt lat="45.37219" lon="6.58089">
        <ele>1692.4</ele>
        <time>2018-12-26T08:26:52Z</time>
      </trkpt>
      <trkpt lat="45.37219" lon="6.58089">
        <ele>1689.4</ele>
        <time>2018-12-26T08:26:57Z</time>
      </trkpt>
      <trkpt lat="45.37219" lon="6.58089">
        <ele>1688.4</ele>
        <time>2018-12-26T08:27:02Z</time>
      </trkpt>
      <trkpt lat="45.37217" lon="6.5809">
        <ele>1688.8</ele>
        <time>2018-12-26T08:27:07Z</time>
      </trkpt>
      <trkpt lat="45.37216" lon="6.5809">
        <ele>1689.8</ele>
        <time>2018-12-26T08:27:12Z</time>
      </trkpt>
      <trkpt lat="45.37216" lon="6.5809">
        <ele>1690.6</ele>
        <time>2018-12-26T08:27:17Z</time>
      </trkpt>
      <trkpt lat="45.37216" lon="6.5809">
        <ele>1691.2</ele>
        <time>2018-12-26T08:27:22Z</time>
      </trkpt>
      <trkpt lat="45.37216" lon="6.5809">
        <ele>1691.4</ele>
        <time>2018-12-26T08:27:27Z</time>
      </trkpt>
      <trkpt lat="45.37216" lon="6.5809">
        <ele>1691.8</ele>
        <time>2018-12-26T08:27:32Z</time>
      </trkpt>
      <trkpt lat="45.37214" lon="6.5809">
        <ele>1690.8</ele>
        <time>2018-12-26T08:27:37Z</time>
      </trkpt>
      <trkpt lat="45.37208" lon="6.5809">
        <ele>1692.4</ele>
        <time>2018-12-26T08:27:42Z</time>
      </trkpt>
      <trkpt lat="45.37201" lon="6.5809">
        <ele>1692.4</ele>
        <time>2018-12-26T08:27:47Z</time>
      </trkpt>
      <trkpt lat="45.37194" lon="6.5809">
        <ele>1692.8</ele>
        <time>2018-12-26T08:27:52Z</time>
      </trkpt>
      <trkpt lat="45.37187" lon="6.5809">
        <ele>1689.4</ele>
        <time>2018-12-26T08:27:57Z</time>
      </trkpt>
      <trkpt lat="45.3718" lon="6.58091">
        <ele>1689</ele>
        <time>2018-12-26T08:28:02Z</time>
      </trkpt>
      <trkpt lat="45.37174" lon="6.5809">
        <ele>1691.2</ele>
        <time>2018-12-26T08:28:07Z</time>
      </trkpt>
      <trkpt lat="45.37167" lon="6.58088">
        <ele>1691.2</ele>
        <time>2018-12-26T08:28:12Z</time>
      </trkpt>
      <trkpt lat="45.37161" lon="6.58087">
        <ele>1691.4</ele>
        <time>2018-12-26T08:28:17Z</time>
      </trkpt>
      <trkpt lat="45.37154" lon="6.58088">
        <ele>1691.8</ele>
        <time>2018-12-26T08:28:22Z</time>
      </trkpt>
      <trkpt lat="45.37148" lon="6.58088">
        <ele>1692.8</ele>
        <time>2018-12-26T08:28:27Z</time>
      </trkpt>
      <trkpt lat="45.37142" lon="6.5809">
        <ele>1692</ele>
        <time>2018-12-26T08:28:32Z</time>
      </trkpt>
      <trkpt lat="45.37136" lon="6.58092">
        <ele>1690.8</ele>
        <time>2018-12-26T08:28:37Z</time>
      </trkpt>
      <trkpt lat="45.37129" lon="6.58093">
        <ele>1692</ele>
        <time>2018-12-26T08:28:42Z</time>
      </trkpt>
      <trkpt lat="45.37124" lon="6.58094">
        <ele>1693.2</ele>
        <time>2018-12-26T08:28:47Z</time>
      </trkpt>
      <trkpt lat="45.37117" lon="6.58097">
        <ele>1690.8</ele>
        <time>2018-12-26T08:28:52Z</time>
      </trkpt>
      <trkpt lat="45.37111" lon="6.58101">
        <ele>1690</ele>
        <time>2018-12-26T08:28:57Z</time>
      </trkpt>
      <trkpt lat="45.37106" lon="6.58104">
        <ele>1690.6</ele>
        <time>2018-12-26T08:29:02Z</time>
      </trkpt>
      <trkpt lat="45.371" lon="6.58108">
        <ele>1692.8</ele>
        <time>2018-12-26T08:29:07Z</time>
      </trkpt>
      <trkpt lat="45.37095" lon="6.58111">
        <ele>1692</ele>
        <time>2018-12-26T08:29:12Z</time>
      </trkpt>
      <trkpt lat="45.37089" lon="6.58114">
        <ele>1692.8</ele>
        <time>2018-12-26T08:29:17Z</time>
      </trkpt>
      <trkpt lat="45.37084" lon="6.58117">
        <ele>1693.2</ele>
        <time>2018-12-26T08:29:22Z</time>
      </trkpt>
      <trkpt lat="45.3708" lon="6.5812">
        <ele>1692.2</ele>
        <time>2018-12-26T08:29:27Z</time>
      </trkpt>
      <trkpt lat="45.37076" lon="6.58122">
        <ele>1691.2</ele>
        <time>2018-12-26T08:29:32Z</time>
      </trkpt>
      <trkpt lat="45.37072" lon="6.58125">
        <ele>1695</ele>
        <time>2018-12-26T08:29:37Z</time>
      </trkpt>
      <trkpt lat="45.37068" lon="6.58128">
        <ele>1695.4</ele>
        <time>2018-12-26T08:29:42Z</time>
      </trkpt>
      <trkpt lat="45.37065" lon="6.58132">
        <ele>1695.2</ele>
        <time>2018-12-26T08:29:47Z</time>
      </trkpt>
      <trkpt lat="45.37061" lon="6.58136">
        <ele>1695.4</ele>
        <time>2018-12-26T08:29:52Z</time>
      </trkpt>
      <trkpt lat="45.37057" lon="6.5814">
        <ele>1697.2</ele>
        <time>2018-12-26T08:29:57Z</time>
      </trkpt>
      <trkpt lat="45.37053" lon="6.58143">
        <ele>1697.2</ele>
        <time>2018-12-26T08:30:02Z</time>
      </trkpt>
      <trkpt lat="45.37048" lon="6.58147">
        <ele>1698</ele>
        <time>2018-12-26T08:30:07Z</time>
      </trkpt>
      <trkpt lat="45.37042" lon="6.58151">
        <ele>1697.4</ele>
        <time>2018-12-26T08:30:12Z</time>
      </trkpt>
      <trkpt lat="45.37037" lon="6.58154">
        <ele>1699</ele>
        <time>2018-12-26T08:30:17Z</time>
      </trkpt>
      <trkpt lat="45.37032" lon="6.58157">
        <ele>1700</ele>
        <time>2018-12-26T08:30:23Z</time>
      </trkpt>
      <trkpt lat="45.37028" lon="6.58159">
        <ele>1701.2</ele>
        <time>2018-12-26T08:30:28Z</time>
      </trkpt>
      <trkpt lat="45.37025" lon="6.5816">
        <ele>1700.4</ele>
        <time>2018-12-26T08:30:33Z</time>
      </trkpt>
      <trkpt lat="45.37021" lon="6.58163">
        <ele>1702.4</ele>
        <time>2018-12-26T08:30:38Z</time>
      </trkpt>
      <trkpt lat="45.37017" lon="6.58165">
        <ele>1699</ele>
        <time>2018-12-26T08:30:43Z</time>
      </trkpt>
      <trkpt lat="45.37014" lon="6.58167">
        <ele>1701.4</ele>
        <time>2018-12-26T08:30:48Z</time>
      </trkpt>
      <trkpt lat="45.3701" lon="6.58168">
        <ele>1701.6</ele>
        <time>2018-12-26T08:30:53Z</time>
      </trkpt>
      <trkpt lat="45.37006" lon="6.58168">
        <ele>1702.8</ele>
        <time>2018-12-26T08:30:58Z</time>
      </trkpt>
      <trkpt lat="45.37003" lon="6.58167">
        <ele>1706</ele>
        <time>2018-12-26T08:31:03Z</time>
      </trkpt>
      <trkpt lat="45.37" lon="6.58167">
        <ele>1705.2</ele>
        <time>2018-12-26T08:31:08Z</time>
      </trkpt>
      <trkpt lat="45.36997" lon="6.58167">
        <ele>1706.4</ele>
        <time>2018-12-26T08:31:13Z</time>
      </trkpt>
      <trkpt lat="45.36994" lon="6.58166">
        <ele>1705</ele>
        <time>2018-12-26T08:31:18Z</time>
      </trkpt>
      <trkpt lat="45.36991" lon="6.58165">
        <ele>1707.4</ele>
        <time>2018-12-26T08:31:23Z</time>
      </trkpt>
      <trkpt lat="45.36988" lon="6.58164">
        <ele>1709.2</ele>
        <time>2018-12-26T08:31:28Z</time>
      </trkpt>
      <trkpt lat="45.36985" lon="6.58162">
        <ele>1709.4</ele>
        <time>2018-12-26T08:31:33Z</time>
      </trkpt>
      <trkpt lat="45.36982" lon="6.58161">
        <ele>1712.2</ele>
        <time>2018-12-26T08:31:38Z</time>
      </trkpt>
      <trkpt lat="45.36981" lon="6.58161">
        <ele>1709.4</ele>
        <time>2018-12-26T08:31:43Z</time>
      </trkpt>
      <trkpt lat="45.36981" lon="6.58161">
        <ele>1709.8</ele>
        <time>2018-12-26T08:31:48Z</time>
      </trkpt>
      <trkpt lat="45.36981" lon="6.58161">
        <ele>1710</ele>
        <time>2018-12-26T08:31:53Z</time>
      </trkpt>
      <trkpt lat="45.36981" lon="6.58161">
        <ele>1710.2</ele>
        <time>2018-12-26T08:31:58Z</time>
      </trkpt>
      <trkpt lat="45.36981" lon="6.58161">
        <ele>1710.2</ele>
        <time>2018-12-26T08:32:03Z</time>
      </trkpt>
      <trkpt lat="45.3698" lon="6.5816">
        <ele>1706</ele>
        <time>2018-12-26T08:32:08Z</time>
      </trkpt>
      <trkpt lat="45.36977" lon="6.58159">
        <ele>1709.6</ele>
        <time>2018-12-26T08:32:13Z</time>
      </trkpt>
      <trkpt lat="45.36974" lon="6.58158">
        <ele>1712.6</ele>
        <time>2018-12-26T08:32:18Z</time>
      </trkpt>
      <trkpt lat="45.36972" lon="6.58157">
        <ele>1712.4</ele>
        <time>2018-12-26T08:32:23Z</time>
      </trkpt>
      <trkpt lat="45.36969" lon="6.58156">
        <ele>1714.6</ele>
        <time>2018-12-26T08:32:28Z</time>
      </trkpt>
      <trkpt lat="45.36966" lon="6.58154">
        <ele>1716.2</ele>
        <time>2018-12-26T08:32:33Z</time>
      </trkpt>
      <trkpt lat="45.36963" lon="6.58152">
        <ele>1715.2</ele>
        <time>2018-12-26T08:32:38Z</time>
      </trkpt>
      <trkpt lat="45.3696" lon="6.58151">
        <ele>1717.8</ele>
        <time>2018-12-26T08:32:43Z</time>
      </trkpt>
      <trkpt lat="45.36958" lon="6.58149">
        <ele>1721.4</ele>
        <time>2018-12-26T08:32:48Z</time>
      </trkpt>
      <trkpt lat="45.36955" lon="6.58148">
        <ele>1721.4</ele>
        <time>2018-12-26T08:32:53Z</time>
      </trkpt>
      <trkpt lat="45.36952" lon="6.58146">
        <ele>1720.4</ele>
        <time>2018-12-26T08:32:58Z</time>
      </trkpt>
      <trkpt lat="45.36949" lon="6.58144">
        <ele>1720.6</ele>
        <time>2018-12-26T08:33:03Z</time>
      </trkpt>
      <trkpt lat="45.36946" lon="6.58142">
        <ele>1723.6</ele>
        <time>2018-12-26T08:33:08Z</time>
      </trkpt>
      <trkpt lat="45.36943" lon="6.5814">
        <ele>1723</ele>
        <time>2018-12-26T08:33:13Z</time>
      </trkpt>
      <trkpt lat="45.36939" lon="6.58137">
        <ele>1722.8</ele>
        <time>2018-12-26T08:33:18Z</time>
      </trkpt>
      <trkpt lat="45.36936" lon="6.58134">
        <ele>1724.2</ele>
        <time>2018-12-26T08:33:23Z</time>
      </trkpt>
      <trkpt lat="45.36933" lon="6.58132">
        <ele>1725.6</ele>
        <time>2018-12-26T08:33:28Z</time>
      </trkpt>
      <trkpt lat="45.3693" lon="6.5813">
        <ele>1724</ele>
        <time>2018-12-26T08:33:33Z</time>
      </trkpt>
      <trkpt lat="45.36927" lon="6.58128">
        <ele>1727.2</ele>
        <time>2018-12-26T08:33:38Z</time>
      </trkpt>
      <trkpt lat="45.36924" lon="6.58126">
        <ele>1729.8</ele>
        <time>2018-12-26T08:33:43Z</time>
      </trkpt>
      <trkpt lat="45.36921" lon="6.58124">
        <ele>1727</ele>
        <time>2018-12-26T08:33:48Z</time>
      </trkpt>
      <trkpt lat="45.36918" lon="6.58122">
        <ele>1730.6</ele>
        <time>2018-12-26T08:33:53Z</time>
      </trkpt>
      <trkpt lat="45.36915" lon="6.58121">
        <ele>1728</ele>
        <time>2018-12-26T08:33:58Z</time>
      </trkpt>
      <trkpt lat="45.36912" lon="6.58119">
        <ele>1728.8</ele>
        <time>2018-12-26T08:34:03Z</time>
      </trkpt>
      <trkpt lat="45.36907" lon="6.58118">
        <ele>1733.8</ele>
        <time>2018-12-26T08:34:08Z</time>
      </trkpt>
      <trkpt lat="45.36903" lon="6.58118">
        <ele>1732.2</ele>
        <time>2018-12-26T08:34:13Z</time>
      </trkpt>
      <trkpt lat="45.36898" lon="6.58118">
        <ele>1733.4</ele>
        <time>2018-12-26T08:34:18Z</time>
      </trkpt>
      <trkpt lat="45.36894" lon="6.58118">
        <ele>1734.4</ele>
        <time>2018-12-26T08:34:23Z</time>
      </trkpt>
      <trkpt lat="45.36889" lon="6.58119">
        <ele>1731.4</ele>
        <time>2018-12-26T08:34:28Z</time>
      </trkpt>
      <trkpt lat="45.36885" lon="6.58119">
        <ele>1732</ele>
        <time>2018-12-26T08:34:33Z</time>
      </trkpt>
      <trkpt lat="45.36881" lon="6.5812">
        <ele>1732.4</ele>
        <time>2018-12-26T08:34:38Z</time>
      </trkpt>
      <trkpt lat="45.36875" lon="6.58121">
        <ele>1734.4</ele>
        <time>2018-12-26T08:34:44Z</time>
      </trkpt>
      <trkpt lat="45.36871" lon="6.58122">
        <ele>1735.8</ele>
        <time>2018-12-26T08:34:49Z</time>
      </trkpt>
      <trkpt lat="45.36867" lon="6.58123">
        <ele>1735.4</ele>
        <time>2018-12-26T08:34:54Z</time>
      </trkpt>
      <trkpt lat="45.36863" lon="6.58125">
        <ele>1737.4</ele>
        <time>2018-12-26T08:34:59Z</time>
      </trkpt>
      <trkpt lat="45.36859" lon="6.58125">
        <ele>1735.4</ele>
        <time>2018-12-26T08:35:04Z</time>
      </trkpt>
      <trkpt lat="45.36855" lon="6.58126">
        <ele>1737.2</ele>
        <time>2018-12-26T08:35:09Z</time>
      </trkpt>
      <trkpt lat="45.36852" lon="6.58127">
        <ele>1739</ele>
        <time>2018-12-26T08:35:14Z</time>
      </trkpt>
      <trkpt lat="45.36848" lon="6.58128">
        <ele>1736.2</ele>
        <time>2018-12-26T08:35:19Z</time>
      </trkpt>
      <trkpt lat="45.36843" lon="6.58129">
        <ele>1738.2</ele>
        <time>2018-12-26T08:35:24Z</time>
      </trkpt>
      <trkpt lat="45.36839" lon="6.5813">
        <ele>1739.8</ele>
        <time>2018-12-26T08:35:29Z</time>
      </trkpt>
      <trkpt lat="45.36836" lon="6.58131">
        <ele>1741.2</ele>
        <time>2018-12-26T08:35:34Z</time>
      </trkpt>
      <trkpt lat="45.36832" lon="6.58131">
        <ele>1737.6</ele>
        <time>2018-12-26T08:35:39Z</time>
      </trkpt>
      <trkpt lat="45.36828" lon="6.58132">
        <ele>1742.8</ele>
        <time>2018-12-26T08:35:44Z</time>
      </trkpt>
      <trkpt lat="45.36825" lon="6.58132">
        <ele>1740.8</ele>
        <time>2018-12-26T08:35:49Z</time>
      </trkpt>
      <trkpt lat="45.36822" lon="6.58133">
        <ele>1744.2</ele>
        <time>2018-12-26T08:35:54Z</time>
      </trkpt>
      <trkpt lat="45.36818" lon="6.58134">
        <ele>1742.2</ele>
        <time>2018-12-26T08:35:59Z</time>
      </trkpt>
      <trkpt lat="45.36816" lon="6.58135">
        <ele>1741.4</ele>
        <time>2018-12-26T08:36:04Z</time>
      </trkpt>
      <trkpt lat="45.36812" lon="6.58136">
        <ele>1746.6</ele>
        <time>2018-12-26T08:36:09Z</time>
      </trkpt>
      <trkpt lat="45.3681" lon="6.58136">
        <ele>1745.2</ele>
        <time>2018-12-26T08:36:14Z</time>
      </trkpt>
      <trkpt lat="45.36806" lon="6.58136">
        <ele>1749</ele>
        <time>2018-12-26T08:36:19Z</time>
      </trkpt>
      <trkpt lat="45.36802" lon="6.58138">
        <ele>1752.2</ele>
        <time>2018-12-26T08:36:24Z</time>
      </trkpt>
      <trkpt lat="45.36798" lon="6.58139">
        <ele>1755</ele>
        <time>2018-12-26T08:36:29Z</time>
      </trkpt>
      <trkpt lat="45.36794" lon="6.58142">
        <ele>1754.2</ele>
        <time>2018-12-26T08:36:34Z</time>
      </trkpt>
      <trkpt lat="45.36791" lon="6.58144">
        <ele>1754.2</ele>
        <time>2018-12-26T08:36:39Z</time>
      </trkpt>
      <trkpt lat="45.36788" lon="6.58145">
        <ele>1754.6</ele>
        <time>2018-12-26T08:36:44Z</time>
      </trkpt>
      <trkpt lat="45.36785" lon="6.58146">
        <ele>1755.8</ele>
        <time>2018-12-26T08:36:49Z</time>
      </trkpt>
      <trkpt lat="45.36783" lon="6.58146">
        <ele>1757.6</ele>
        <time>2018-12-26T08:36:54Z</time>
      </trkpt>
      <trkpt lat="45.3678" lon="6.58147">
        <ele>1757.8</ele>
        <time>2018-12-26T08:36:59Z</time>
      </trkpt>
      <trkpt lat="45.36778" lon="6.58147">
        <ele>1761</ele>
        <time>2018-12-26T08:37:04Z</time>
      </trkpt>
      <trkpt lat="45.36775" lon="6.58148">
        <ele>1758.4</ele>
        <time>2018-12-26T08:37:09Z</time>
      </trkpt>
      <trkpt lat="45.36771" lon="6.58148">
        <ele>1760.8</ele>
        <time>2018-12-26T08:37:14Z</time>
      </trkpt>
      <trkpt lat="45.36767" lon="6.58148">
        <ele>1762.4</ele>
        <time>2018-12-26T08:37:19Z</time>
      </trkpt>
      <trkpt lat="45.36763" lon="6.58147">
        <ele>1761.6</ele>
        <time>2018-12-26T08:37:24Z</time>
      </trkpt>
      <trkpt lat="45.3676" lon="6.58146">
        <ele>1765.2</ele>
        <time>2018-12-26T08:37:29Z</time>
      </trkpt>
      <trkpt lat="45.36757" lon="6.58146">
        <ele>1765.6</ele>
        <time>2018-12-26T08:37:34Z</time>
      </trkpt>
      <trkpt lat="45.36754" lon="6.58145">
        <ele>1768.2</ele>
        <time>2018-12-26T08:37:39Z</time>
      </trkpt>
      <trkpt lat="45.3675" lon="6.58145">
        <ele>1767.4</ele>
        <time>2018-12-26T08:37:44Z</time>
      </trkpt>
      <trkpt lat="45.36747" lon="6.58143">
        <ele>1765.4</ele>
        <time>2018-12-26T08:37:49Z</time>
      </trkpt>
      <trkpt lat="45.36744" lon="6.58142">
        <ele>1768.2</ele>
        <time>2018-12-26T08:37:54Z</time>
      </trkpt>
      <trkpt lat="45.36742" lon="6.58141">
        <ele>1766.4</ele>
        <time>2018-12-26T08:37:59Z</time>
      </trkpt>
      <trkpt lat="45.36738" lon="6.5814">
        <ele>1768.2</ele>
        <time>2018-12-26T08:38:04Z</time>
      </trkpt>
      <trkpt lat="45.36733" lon="6.5814">
        <ele>1767.2</ele>
        <time>2018-12-26T08:38:09Z</time>
      </trkpt>
      <trkpt lat="45.3673" lon="6.58142">
        <ele>1767.2</ele>
        <time>2018-12-26T08:38:14Z</time>
      </trkpt>
      <trkpt lat="45.36727" lon="6.58144">
        <ele>1767</ele>
        <time>2018-12-26T08:38:19Z</time>
      </trkpt>
      <trkpt lat="45.36724" lon="6.58147">
        <ele>1767.6</ele>
        <time>2018-12-26T08:38:24Z</time>
      </trkpt>
      <trkpt lat="45.3672" lon="6.58149">
        <ele>1762.8</ele>
        <time>2018-12-26T08:38:29Z</time>
      </trkpt>
      <trkpt lat="45.36717" lon="6.58152">
        <ele>1766.8</ele>
        <time>2018-12-26T08:38:34Z</time>
      </trkpt>
      <trkpt lat="45.36713" lon="6.58156">
        <ele>1763.8</ele>
        <time>2018-12-26T08:38:39Z</time>
      </trkpt>
      <trkpt lat="45.36708" lon="6.58158">
        <ele>1766.8</ele>
        <time>2018-12-26T08:38:44Z</time>
      </trkpt>
      <trkpt lat="45.36703" lon="6.58159">
        <ele>1765.4</ele>
        <time>2018-12-26T08:38:49Z</time>
      </trkpt>
      <trkpt lat="45.36698" lon="6.5816">
        <ele>1765.6</ele>
        <time>2018-12-26T08:38:54Z</time>
      </trkpt>
      <trkpt lat="45.36693" lon="6.58161">
        <ele>1764.8</ele>
        <time>2018-12-26T08:38:59Z</time>
      </trkpt>
      <trkpt lat="45.36688" lon="6.58162">
        <ele>1766.2</ele>
        <time>2018-12-26T08:39:04Z</time>
      </trkpt>
      <trkpt lat="45.36683" lon="6.58162">
        <ele>1767</ele>
        <time>2018-12-26T08:39:09Z</time>
      </trkpt>
      <trkpt lat="45.36677" lon="6.58162">
        <ele>1768</ele>
        <time>2018-12-26T08:39:14Z</time>
      </trkpt>
      <trkpt lat="45.36672" lon="6.58162">
        <ele>1764.8</ele>
        <time>2018-12-26T08:39:19Z</time>
      </trkpt>
      <trkpt lat="45.36666" lon="6.58163">
        <ele>1766</ele>
        <time>2018-12-26T08:39:24Z</time>
      </trkpt>
      <trkpt lat="45.3666" lon="6.58163">
        <ele>1765.6</ele>
        <time>2018-12-26T08:39:29Z</time>
      </trkpt>
      <trkpt lat="45.36654" lon="6.58164">
        <ele>1764.4</ele>
        <time>2018-12-26T08:39:34Z</time>
      </trkpt>
      <trkpt lat="45.36649" lon="6.58166">
        <ele>1766.6</ele>
        <time>2018-12-26T08:39:39Z</time>
      </trkpt>
      <trkpt lat="45.36644" lon="6.5817">
        <ele>1765</ele>
        <time>2018-12-26T08:39:44Z</time>
      </trkpt>
      <trkpt lat="45.3664" lon="6.58174">
        <ele>1765.8</ele>
        <time>2018-12-26T08:39:49Z</time>
      </trkpt>
      <trkpt lat="45.36636" lon="6.58179">
        <ele>1765.8</ele>
        <time>2018-12-26T08:39:54Z</time>
      </trkpt>
      <trkpt lat="45.36633" lon="6.58183">
        <ele>1764</ele>
        <time>2018-12-26T08:39:59Z</time>
      </trkpt>
      <trkpt lat="45.3663" lon="6.58188">
        <ele>1766.4</ele>
        <time>2018-12-26T08:40:04Z</time>
      </trkpt>
      <trkpt lat="45.36627" lon="6.58192">
        <ele>1766.4</ele>
        <time>2018-12-26T08:40:09Z</time>
      </trkpt>
      <trkpt lat="45.36624" lon="6.58196">
        <ele>1767</ele>
        <time>2018-12-26T08:40:14Z</time>
      </trkpt>
      <trkpt lat="45.36619" lon="6.58198">
        <ele>1765.6</ele>
        <time>2018-12-26T08:40:19Z</time>
      </trkpt>
      <trkpt lat="45.36615" lon="6.58202">
        <ele>1765.8</ele>
        <time>2018-12-26T08:40:24Z</time>
      </trkpt>
      <trkpt lat="45.36611" lon="6.58205">
        <ele>1768</ele>
        <time>2018-12-26T08:40:29Z</time>
      </trkpt>
      <trkpt lat="45.36607" lon="6.5821">
        <ele>1770.4</ele>
        <time>2018-12-26T08:40:34Z</time>
      </trkpt>
      <trkpt lat="45.36604" lon="6.58214">
        <ele>1770</ele>
        <time>2018-12-26T08:40:39Z</time>
      </trkpt>
      <trkpt lat="45.366" lon="6.58219">
        <ele>1770.8</ele>
        <time>2018-12-26T08:40:44Z</time>
      </trkpt>
      <trkpt lat="45.36597" lon="6.58223">
        <ele>1770.8</ele>
        <time>2018-12-26T08:40:49Z</time>
      </trkpt>
      <trkpt lat="45.36593" lon="6.58227">
        <ele>1771.4</ele>
        <time>2018-12-26T08:40:54Z</time>
      </trkpt>
      <trkpt lat="45.36589" lon="6.58231">
        <ele>1773.6</ele>
        <time>2018-12-26T08:40:59Z</time>
      </trkpt>
      <trkpt lat="45.36585" lon="6.58235">
        <ele>1772.2</ele>
        <time>2018-12-26T08:41:04Z</time>
      </trkpt>
      <trkpt lat="45.3658" lon="6.58237">
        <ele>1772.8</ele>
        <time>2018-12-26T08:41:09Z</time>
      </trkpt>
      <trkpt lat="45.36576" lon="6.58241">
        <ele>1772.6</ele>
        <time>2018-12-26T08:41:14Z</time>
      </trkpt>
      <trkpt lat="45.36571" lon="6.58244">
        <ele>1770.6</ele>
        <time>2018-12-26T08:41:19Z</time>
      </trkpt>
      <trkpt lat="45.36567" lon="6.58248">
        <ele>1771</ele>
        <time>2018-12-26T08:41:24Z</time>
      </trkpt>
      <trkpt lat="45.36562" lon="6.58251">
        <ele>1771.4</ele>
        <time>2018-12-26T08:41:29Z</time>
      </trkpt>
      <trkpt lat="45.36558" lon="6.58255">
        <ele>1769.8</ele>
        <time>2018-12-26T08:41:34Z</time>
      </trkpt>
      <trkpt lat="45.36555" lon="6.58261">
        <ele>1773.8</ele>
        <time>2018-12-26T08:41:39Z</time>
      </trkpt>
      <trkpt lat="45.36551" lon="6.58264">
        <ele>1773.6</ele>
        <time>2018-12-26T08:41:44Z</time>
      </trkpt>
      <trkpt lat="45.36547" lon="6.58269">
        <ele>1771.2</ele>
        <time>2018-12-26T08:41:49Z</time>
      </trkpt>
      <trkpt lat="45.36544" lon="6.58273">
        <ele>1774.8</ele>
        <time>2018-12-26T08:41:54Z</time>
      </trkpt>
      <trkpt lat="45.36539" lon="6.58278">
        <ele>1773</ele>
        <time>2018-12-26T08:41:59Z</time>
      </trkpt>
      <trkpt lat="45.36534" lon="6.58281">
        <ele>1775.2</ele>
        <time>2018-12-26T08:42:04Z</time>
      </trkpt>
      <trkpt lat="45.3653" lon="6.58285">
        <ele>1776</ele>
        <time>2018-12-26T08:42:09Z</time>
      </trkpt>
      <trkpt lat="45.36525" lon="6.58289">
        <ele>1775.4</ele>
        <time>2018-12-26T08:42:14Z</time>
      </trkpt>
      <trkpt lat="45.3652" lon="6.58291">
        <ele>1776.2</ele>
        <time>2018-12-26T08:42:19Z</time>
      </trkpt>
      <trkpt lat="45.36514" lon="6.58293">
        <ele>1774.2</ele>
        <time>2018-12-26T08:42:24Z</time>
      </trkpt>
      <trkpt lat="45.36509" lon="6.58294">
        <ele>1774.6</ele>
        <time>2018-12-26T08:42:29Z</time>
      </trkpt>
      <trkpt lat="45.36504" lon="6.58295">
        <ele>1775.2</ele>
        <time>2018-12-26T08:42:34Z</time>
      </trkpt>
      <trkpt lat="45.36499" lon="6.58296">
        <ele>1773.6</ele>
        <time>2018-12-26T08:42:39Z</time>
      </trkpt>
      <trkpt lat="45.36494" lon="6.58298">
        <ele>1776.2</ele>
        <time>2018-12-26T08:42:44Z</time>
      </trkpt>
      <trkpt lat="45.36489" lon="6.58298">
        <ele>1773.6</ele>
        <time>2018-12-26T08:42:49Z</time>
      </trkpt>
      <trkpt lat="45.36487" lon="6.58298">
        <ele>1774.2</ele>
        <time>2018-12-26T08:42:54Z</time>
      </trkpt>
      <trkpt lat="45.36487" lon="6.58298">
        <ele>1774.4</ele>
        <time>2018-12-26T08:42:59Z</time>
      </trkpt>
      <trkpt lat="45.36483" lon="6.58298">
        <ele>1778</ele>
        <time>2018-12-26T08:43:04Z</time>
      </trkpt>
      <trkpt lat="45.36478" lon="6.58298">
        <ele>1773.6</ele>
        <time>2018-12-26T08:43:09Z</time>
      </trkpt>
      <trkpt lat="45.36474" lon="6.58297">
        <ele>1775.2</ele>
        <time>2018-12-26T08:43:14Z</time>
      </trkpt>
      <trkpt lat="45.3647" lon="6.58297">
        <ele>1776.4</ele>
        <time>2018-12-26T08:43:19Z</time>
      </trkpt>
      <trkpt lat="45.36465" lon="6.58297">
        <ele>1779.6</ele>
        <time>2018-12-26T08:43:24Z</time>
      </trkpt>
      <trkpt lat="45.36461" lon="6.58298">
        <ele>1777.6</ele>
        <time>2018-12-26T08:43:29Z</time>
      </trkpt>
      <trkpt lat="45.36456" lon="6.58298">
        <ele>1777</ele>
        <time>2018-12-26T08:43:34Z</time>
      </trkpt>
      <trkpt lat="45.36451" lon="6.583">
        <ele>1776.2</ele>
        <time>2018-12-26T08:43:39Z</time>
      </trkpt>
      <trkpt lat="45.36447" lon="6.583">
        <ele>1777.6</ele>
        <time>2018-12-26T08:43:44Z</time>
      </trkpt>
      <trkpt lat="45.36442" lon="6.583">
        <ele>1779.4</ele>
        <time>2018-12-26T08:43:49Z</time>
      </trkpt>
      <trkpt lat="45.36438" lon="6.58301">
        <ele>1778.8</ele>
        <time>2018-12-26T08:43:54Z</time>
      </trkpt>
      <trkpt lat="45.36433" lon="6.58302">
        <ele>1778.4</ele>
        <time>2018-12-26T08:43:59Z</time>
      </trkpt>
      <trkpt lat="45.36428" lon="6.58303">
        <ele>1778.4</ele>
        <time>2018-12-26T08:44:04Z</time>
      </trkpt>
      <trkpt lat="45.36427" lon="6.583">
        <ele>1777.8</ele>
        <time>2018-12-26T08:44:24Z</time>
      </trkpt>
      <trkpt lat="45.36429" lon="6.58294">
        <ele>1774.4</ele>
        <time>2018-12-26T08:44:29Z</time>
      </trkpt>
      <trkpt lat="45.36428" lon="6.58291">
        <ele>1777.4</ele>
        <time>2018-12-26T08:44:34Z</time>
      </trkpt>
      <trkpt lat="45.36428" lon="6.5829">
        <ele>1777.2</ele>
        <time>2018-12-26T08:44:39Z</time>
      </trkpt>
      <trkpt lat="45.36428" lon="6.5829">
        <ele>1777.2</ele>
        <time>2018-12-26T08:44:44Z</time>
      </trkpt>
      <trkpt lat="45.36428" lon="6.5829">
        <ele>1777</ele>
        <time>2018-12-26T08:44:49Z</time>
      </trkpt>
      <trkpt lat="45.36428" lon="6.5829">
        <ele>1777</ele>
        <time>2018-12-26T08:44:54Z</time>
      </trkpt>
      <trkpt lat="45.36427" lon="6.5829">
        <ele>1777</ele>
        <time>2018-12-26T08:44:59Z</time>
      </trkpt>
      <trkpt lat="45.36427" lon="6.5829">
        <ele>1777.6</ele>
        <time>2018-12-26T08:45:04Z</time>
      </trkpt>
      <trkpt lat="45.36428" lon="6.5829">
        <ele>1777.4</ele>
        <time>2018-12-26T08:45:09Z</time>
      </trkpt>
      <trkpt lat="45.36425" lon="6.58297">
        <ele>1774.6</ele>
        <time>2018-12-26T08:45:14Z</time>
      </trkpt>
      <trkpt lat="45.36419" lon="6.58302">
        <ele>1778.8</ele>
        <time>2018-12-26T08:45:19Z</time>
      </trkpt>
      <trkpt lat="45.36415" lon="6.58306">
        <ele>1777</ele>
        <time>2018-12-26T08:45:24Z</time>
      </trkpt>
      <trkpt lat="45.36411" lon="6.58307">
        <ele>1777.2</ele>
        <time>2018-12-26T08:45:29Z</time>
      </trkpt>
      <trkpt lat="45.36407" lon="6.58308">
        <ele>1780.6</ele>
        <time>2018-12-26T08:45:34Z</time>
      </trkpt>
      <trkpt lat="45.36403" lon="6.58308">
        <ele>1777.4</ele>
        <time>2018-12-26T08:45:39Z</time>
      </trkpt>
      <trkpt lat="45.36398" lon="6.58306">
        <ele>1780.2</ele>
        <time>2018-12-26T08:45:44Z</time>
      </trkpt>
      <trkpt lat="45.36393" lon="6.58304">
        <ele>1781.4</ele>
        <time>2018-12-26T08:45:49Z</time>
      </trkpt>
      <trkpt lat="45.36389" lon="6.58302">
        <ele>1780.6</ele>
        <time>2018-12-26T08:45:54Z</time>
      </trkpt>
      <trkpt lat="45.36384" lon="6.58299">
        <ele>1778.8</ele>
        <time>2018-12-26T08:45:59Z</time>
      </trkpt>
      <trkpt lat="45.36379" lon="6.58297">
        <ele>1778.8</ele>
        <time>2018-12-26T08:46:04Z</time>
      </trkpt>
      <trkpt lat="45.36374" lon="6.58295">
        <ele>1782.6</ele>
        <time>2018-12-26T08:46:09Z</time>
      </trkpt>
      <trkpt lat="45.3637" lon="6.58293">
        <ele>1781.8</ele>
        <time>2018-12-26T08:46:14Z</time>
      </trkpt>
      <trkpt lat="45.36366" lon="6.5829">
        <ele>1782.2</ele>
        <time>2018-12-26T08:46:19Z</time>
      </trkpt>
      <trkpt lat="45.36362" lon="6.58287">
        <ele>1781.8</ele>
        <time>2018-12-26T08:46:24Z</time>
      </trkpt>
      <trkpt lat="45.36357" lon="6.58283">
        <ele>1781.4</ele>
        <time>2018-12-26T08:46:29Z</time>
      </trkpt>
      <trkpt lat="45.36353" lon="6.5828">
        <ele>1785.2</ele>
        <time>2018-12-26T08:46:34Z</time>
      </trkpt>
      <trkpt lat="45.36349" lon="6.58277">
        <ele>1778.2</ele>
        <time>2018-12-26T08:46:39Z</time>
      </trkpt>
      <trkpt lat="45.36345" lon="6.58273">
        <ele>1781.2</ele>
        <time>2018-12-26T08:46:44Z</time>
      </trkpt>
      <trkpt lat="45.36341" lon="6.5827">
        <ele>1784.6</ele>
        <time>2018-12-26T08:46:49Z</time>
      </trkpt>
      <trkpt lat="45.36337" lon="6.58267">
        <ele>1783.4</ele>
        <time>2018-12-26T08:46:54Z</time>
      </trkpt>
      <trkpt lat="45.36333" lon="6.58264">
        <ele>1785.2</ele>
        <time>2018-12-26T08:46:59Z</time>
      </trkpt>
      <trkpt lat="45.36328" lon="6.58264">
        <ele>1785.4</ele>
        <time>2018-12-26T08:47:04Z</time>
      </trkpt>
      <trkpt lat="45.36324" lon="6.58263">
        <ele>1782</ele>
        <time>2018-12-26T08:47:09Z</time>
      </trkpt>
      <trkpt lat="45.3632" lon="6.58264">
        <ele>1784.8</ele>
        <time>2018-12-26T08:47:14Z</time>
      </trkpt>
      <trkpt lat="45.36316" lon="6.58265">
        <ele>1787.4</ele>
        <time>2018-12-26T08:47:19Z</time>
      </trkpt>
      <trkpt lat="45.36312" lon="6.58267">
        <ele>1785.2</ele>
        <time>2018-12-26T08:47:24Z</time>
      </trkpt>
      <trkpt lat="45.36307" lon="6.58269">
        <ele>1786.2</ele>
        <time>2018-12-26T08:47:29Z</time>
      </trkpt>
      <trkpt lat="45.36303" lon="6.5827">
        <ele>1785.6</ele>
        <time>2018-12-26T08:47:34Z</time>
      </trkpt>
      <trkpt lat="45.36298" lon="6.58271">
        <ele>1787.2</ele>
        <time>2018-12-26T08:47:39Z</time>
      </trkpt>
      <trkpt lat="45.36294" lon="6.58273">
        <ele>1782.6</ele>
        <time>2018-12-26T08:47:44Z</time>
      </trkpt>
      <trkpt lat="45.3629" lon="6.58274">
        <ele>1787.2</ele>
        <time>2018-12-26T08:47:49Z</time>
      </trkpt>
      <trkpt lat="45.36286" lon="6.58275">
        <ele>1783.8</ele>
        <time>2018-12-26T08:47:54Z</time>
      </trkpt>
      <trkpt lat="45.36281" lon="6.58275">
        <ele>1783.2</ele>
        <time>2018-12-26T08:47:59Z</time>
      </trkpt>
      <trkpt lat="45.36277" lon="6.58276">
        <ele>1783.6</ele>
        <time>2018-12-26T08:48:04Z</time>
      </trkpt>
      <trkpt lat="45.36273" lon="6.58276">
        <ele>1788.4</ele>
        <time>2018-12-26T08:48:09Z</time>
      </trkpt>
      <trkpt lat="45.36269" lon="6.58277">
        <ele>1787.6</ele>
        <time>2018-12-26T08:48:14Z</time>
      </trkpt>
      <trkpt lat="45.36265" lon="6.58278">
        <ele>1784.6</ele>
        <time>2018-12-26T08:48:19Z</time>
      </trkpt>
      <trkpt lat="45.36261" lon="6.58278">
        <ele>1787</ele>
        <time>2018-12-26T08:48:24Z</time>
      </trkpt>
      <trkpt lat="45.36258" lon="6.58278">
        <ele>1786.2</ele>
        <time>2018-12-26T08:48:29Z</time>
      </trkpt>
      <trkpt lat="45.36254" lon="6.58279">
        <ele>1785.8</ele>
        <time>2018-12-26T08:48:34Z</time>
      </trkpt>
      <trkpt lat="45.3625" lon="6.58281">
        <ele>1791.2</ele>
        <time>2018-12-26T08:48:39Z</time>
      </trkpt>
      <trkpt lat="45.36247" lon="6.58283">
        <ele>1786.8</ele>
        <time>2018-12-26T08:48:44Z</time>
      </trkpt>
      <trkpt lat="45.36242" lon="6.58286">
        <ele>1787</ele>
        <time>2018-12-26T08:48:49Z</time>
      </trkpt>
      <trkpt lat="45.36238" lon="6.58289">
        <ele>1785.8</ele>
        <time>2018-12-26T08:48:54Z</time>
      </trkpt>
      <trkpt lat="45.36234" lon="6.58292">
        <ele>1790</ele>
        <time>2018-12-26T08:48:59Z</time>
      </trkpt>
      <trkpt lat="45.36231" lon="6.58295">
        <ele>1788.6</ele>
        <time>2018-12-26T08:49:04Z</time>
      </trkpt>
      <trkpt lat="45.36227" lon="6.58297">
        <ele>1790.4</ele>
        <time>2018-12-26T08:49:09Z</time>
      </trkpt>
      <trkpt lat="45.36222" lon="6.58299">
        <ele>1789.2</ele>
        <time>2018-12-26T08:49:14Z</time>
      </trkpt>
      <trkpt lat="45.36219" lon="6.58302">
        <ele>1790.6</ele>
        <time>2018-12-26T08:49:19Z</time>
      </trkpt>
      <trkpt lat="45.36214" lon="6.58304">
        <ele>1793</ele>
        <time>2018-12-26T08:49:24Z</time>
      </trkpt>
      <trkpt lat="45.3621" lon="6.58306">
        <ele>1791.2</ele>
        <time>2018-12-26T08:49:29Z</time>
      </trkpt>
      <trkpt lat="45.36205" lon="6.58309">
        <ele>1791.2</ele>
        <time>2018-12-26T08:49:34Z</time>
      </trkpt>
      <trkpt lat="45.362" lon="6.58311">
        <ele>1795.6</ele>
        <time>2018-12-26T08:49:39Z</time>
      </trkpt>
      <trkpt lat="45.36196" lon="6.58314">
        <ele>1791.4</ele>
        <time>2018-12-26T08:49:44Z</time>
      </trkpt>
      <trkpt lat="45.36191" lon="6.58318">
        <ele>1789.4</ele>
        <time>2018-12-26T08:49:49Z</time>
      </trkpt>
      <trkpt lat="45.36187" lon="6.58323">
        <ele>1793.2</ele>
        <time>2018-12-26T08:49:54Z</time>
      </trkpt>
      <trkpt lat="45.36183" lon="6.58326">
        <ele>1793.8</ele>
        <time>2018-12-26T08:49:59Z</time>
      </trkpt>
      <trkpt lat="45.36179" lon="6.5833">
        <ele>1792</ele>
        <time>2018-12-26T08:50:04Z</time>
      </trkpt>
      <trkpt lat="45.36175" lon="6.58334">
        <ele>1795.6</ele>
        <time>2018-12-26T08:50:09Z</time>
      </trkpt>
      <trkpt lat="45.36171" lon="6.58337">
        <ele>1796.6</ele>
        <time>2018-12-26T08:50:14Z</time>
      </trkpt>
      <trkpt lat="45.36167" lon="6.58341">
        <ele>1792.4</ele>
        <time>2018-12-26T08:50:19Z</time>
      </trkpt>
      <trkpt lat="45.36162" lon="6.58344">
        <ele>1796</ele>
        <time>2018-12-26T08:50:24Z</time>
      </trkpt>
      <trkpt lat="45.36158" lon="6.58348">
        <ele>1796.6</ele>
        <time>2018-12-26T08:50:29Z</time>
      </trkpt>
      <trkpt lat="45.36154" lon="6.58351">
        <ele>1791.4</ele>
        <time>2018-12-26T08:50:34Z</time>
      </trkpt>
      <trkpt lat="45.36149" lon="6.58355">
        <ele>1796</ele>
        <time>2018-12-26T08:50:39Z</time>
      </trkpt>
      <trkpt lat="45.36145" lon="6.58356">
        <ele>1796.4</ele>
        <time>2018-12-26T08:50:44Z</time>
      </trkpt>
      <trkpt lat="45.3614" lon="6.58359">
        <ele>1797.4</ele>
        <time>2018-12-26T08:50:49Z</time>
      </trkpt>
      <trkpt lat="45.36135" lon="6.5836">
        <ele>1797.4</ele>
        <time>2018-12-26T08:50:54Z</time>
      </trkpt>
      <trkpt lat="45.3613" lon="6.58362">
        <ele>1795.6</ele>
        <time>2018-12-26T08:50:59Z</time>
      </trkpt>
      <trkpt lat="45.36126" lon="6.58365">
        <ele>1796</ele>
        <time>2018-12-26T08:51:04Z</time>
      </trkpt>
      <trkpt lat="45.36121" lon="6.58367">
        <ele>1795.2</ele>
        <time>2018-12-26T08:51:09Z</time>
      </trkpt>
      <trkpt lat="45.36116" lon="6.58371">
        <ele>1796.6</ele>
        <time>2018-12-26T08:51:14Z</time>
      </trkpt>
      <trkpt lat="45.36112" lon="6.58374">
        <ele>1796.8</ele>
        <time>2018-12-26T08:51:19Z</time>
      </trkpt>
      <trkpt lat="45.36108" lon="6.58378">
        <ele>1797.2</ele>
        <time>2018-12-26T08:51:24Z</time>
      </trkpt>
      <trkpt lat="45.36103" lon="6.58382">
        <ele>1795.6</ele>
        <time>2018-12-26T08:51:29Z</time>
      </trkpt>
      <trkpt lat="45.361" lon="6.58387">
        <ele>1798</ele>
        <time>2018-12-26T08:51:34Z</time>
      </trkpt>
      <trkpt lat="45.36097" lon="6.58393">
        <ele>1798</ele>
        <time>2018-12-26T08:51:39Z</time>
      </trkpt>
      <trkpt lat="45.36094" lon="6.58399">
        <ele>1797.8</ele>
        <time>2018-12-26T08:51:44Z</time>
      </trkpt>
      <trkpt lat="45.36092" lon="6.58406">
        <ele>1800.2</ele>
        <time>2018-12-26T08:51:49Z</time>
      </trkpt>
      <trkpt lat="45.36089" lon="6.58412">
        <ele>1800</ele>
        <time>2018-12-26T08:51:54Z</time>
      </trkpt>
      <trkpt lat="45.36087" lon="6.58418">
        <ele>1800.4</ele>
        <time>2018-12-26T08:51:59Z</time>
      </trkpt>
      <trkpt lat="45.36085" lon="6.58424">
        <ele>1797.8</ele>
        <time>2018-12-26T08:52:04Z</time>
      </trkpt>
      <trkpt lat="45.36083" lon="6.5843">
        <ele>1798.6</ele>
        <time>2018-12-26T08:52:09Z</time>
      </trkpt>
      <trkpt lat="45.3608" lon="6.58435">
        <ele>1802</ele>
        <time>2018-12-26T08:52:14Z</time>
      </trkpt>
      <trkpt lat="45.36077" lon="6.5844">
        <ele>1801.4</ele>
        <time>2018-12-26T08:52:19Z</time>
      </trkpt>
      <trkpt lat="45.36076" lon="6.58443">
        <ele>1800.2</ele>
        <time>2018-12-26T08:52:24Z</time>
      </trkpt>
      <trkpt lat="45.36075" lon="6.58444">
        <ele>1801.4</ele>
        <time>2018-12-26T08:52:29Z</time>
      </trkpt>
      <trkpt lat="45.36071" lon="6.58449">
        <ele>1800</ele>
        <time>2018-12-26T08:52:34Z</time>
      </trkpt>
      <trkpt lat="45.36067" lon="6.58453">
        <ele>1798</ele>
        <time>2018-12-26T08:52:39Z</time>
      </trkpt>
      <trkpt lat="45.36064" lon="6.58458">
        <ele>1800</ele>
        <time>2018-12-26T08:52:44Z</time>
      </trkpt>
      <trkpt lat="45.3606" lon="6.58462">
        <ele>1797</ele>
        <time>2018-12-26T08:52:49Z</time>
      </trkpt>
      <trkpt lat="45.36057" lon="6.58468">
        <ele>1801.4</ele>
        <time>2018-12-26T08:52:54Z</time>
      </trkpt>
      <trkpt lat="45.36054" lon="6.58473">
        <ele>1801.2</ele>
        <time>2018-12-26T08:52:59Z</time>
      </trkpt>
      <trkpt lat="45.3605" lon="6.58479">
        <ele>1799</ele>
        <time>2018-12-26T08:53:04Z</time>
      </trkpt>
      <trkpt lat="45.36047" lon="6.58484">
        <ele>1802.4</ele>
        <time>2018-12-26T08:53:09Z</time>
      </trkpt>
      <trkpt lat="45.36043" lon="6.58488">
        <ele>1801</ele>
        <time>2018-12-26T08:53:14Z</time>
      </trkpt>
      <trkpt lat="45.36039" lon="6.58493">
        <ele>1805.6</ele>
        <time>2018-12-26T08:53:19Z</time>
      </trkpt>
      <trkpt lat="45.36034" lon="6.58496">
        <ele>1803.2</ele>
        <time>2018-12-26T08:53:24Z</time>
      </trkpt>
      <trkpt lat="45.36029" lon="6.58499">
        <ele>1804.2</ele>
        <time>2018-12-26T08:53:29Z</time>
      </trkpt>
      <trkpt lat="45.36025" lon="6.58501">
        <ele>1802.8</ele>
        <time>2018-12-26T08:53:34Z</time>
      </trkpt>
      <trkpt lat="45.36021" lon="6.58503">
        <ele>1806.8</ele>
        <time>2018-12-26T08:53:39Z</time>
      </trkpt>
      <trkpt lat="45.36016" lon="6.58504">
        <ele>1804.8</ele>
        <time>2018-12-26T08:53:44Z</time>
      </trkpt>
      <trkpt lat="45.36011" lon="6.58505">
        <ele>1800.2</ele>
        <time>2018-12-26T08:53:49Z</time>
      </trkpt>
      <trkpt lat="45.36007" lon="6.58506">
        <ele>1801</ele>
        <time>2018-12-26T08:53:54Z</time>
      </trkpt>
      <trkpt lat="45.36002" lon="6.58507">
        <ele>1802.2</ele>
        <time>2018-12-26T08:53:59Z</time>
      </trkpt>
      <trkpt lat="45.35997" lon="6.58508">
        <ele>1803.4</ele>
        <time>2018-12-26T08:54:04Z</time>
      </trkpt>
      <trkpt lat="45.35992" lon="6.58509">
        <ele>1807.2</ele>
        <time>2018-12-26T08:54:09Z</time>
      </trkpt>
      <trkpt lat="45.35987" lon="6.5851">
        <ele>1805.4</ele>
        <time>2018-12-26T08:54:14Z</time>
      </trkpt>
      <trkpt lat="45.35983" lon="6.58511">
        <ele>1800.6</ele>
        <time>2018-12-26T08:54:19Z</time>
      </trkpt>
      <trkpt lat="45.35978" lon="6.58513">
        <ele>1802.2</ele>
        <time>2018-12-26T08:54:24Z</time>
      </trkpt>
      <trkpt lat="45.35974" lon="6.58514">
        <ele>1804.2</ele>
        <time>2018-12-26T08:54:29Z</time>
      </trkpt>
      <trkpt lat="45.35969" lon="6.58516">
        <ele>1805.6</ele>
        <time>2018-12-26T08:54:34Z</time>
      </trkpt>
      <trkpt lat="45.35964" lon="6.58518">
        <ele>1806.2</ele>
        <time>2018-12-26T08:54:39Z</time>
      </trkpt>
      <trkpt lat="45.3596" lon="6.58519">
        <ele>1804.6</ele>
        <time>2018-12-26T08:54:44Z</time>
      </trkpt>
      <trkpt lat="45.35955" lon="6.58521">
        <ele>1802.2</ele>
        <time>2018-12-26T08:54:49Z</time>
      </trkpt>
      <trkpt lat="45.3595" lon="6.58522">
        <ele>1804.4</ele>
        <time>2018-12-26T08:54:54Z</time>
      </trkpt>
      <trkpt lat="45.35946" lon="6.58524">
        <ele>1806.8</ele>
        <time>2018-12-26T08:54:59Z</time>
      </trkpt>
      <trkpt lat="45.35942" lon="6.58525">
        <ele>1806</ele>
        <time>2018-12-26T08:55:04Z</time>
      </trkpt>
      <trkpt lat="45.35939" lon="6.58526">
        <ele>1806.6</ele>
        <time>2018-12-26T08:55:09Z</time>
      </trkpt>
      <trkpt lat="45.35935" lon="6.58527">
        <ele>1807.2</ele>
        <time>2018-12-26T08:55:14Z</time>
      </trkpt>
      <trkpt lat="45.3593" lon="6.58528">
        <ele>1807.4</ele>
        <time>2018-12-26T08:55:19Z</time>
      </trkpt>
      <trkpt lat="45.35926" lon="6.5853">
        <ele>1808.4</ele>
        <time>2018-12-26T08:55:24Z</time>
      </trkpt>
      <trkpt lat="45.35922" lon="6.58532">
        <ele>1807.8</ele>
        <time>2018-12-26T08:55:29Z</time>
      </trkpt>
      <trkpt lat="45.35918" lon="6.58535">
        <ele>1807.2</ele>
        <time>2018-12-26T08:55:34Z</time>
      </trkpt>
      <trkpt lat="45.35915" lon="6.58538">
        <ele>1807.2</ele>
        <time>2018-12-26T08:55:39Z</time>
      </trkpt>
      <trkpt lat="45.35911" lon="6.58541">
        <ele>1807</ele>
        <time>2018-12-26T08:55:44Z</time>
      </trkpt>
      <trkpt lat="45.35907" lon="6.58544">
        <ele>1810</ele>
        <time>2018-12-26T08:55:49Z</time>
      </trkpt>
      <trkpt lat="45.35903" lon="6.58548">
        <ele>1807.6</ele>
        <time>2018-12-26T08:55:54Z</time>
      </trkpt>
      <trkpt lat="45.35899" lon="6.58551">
        <ele>1810.2</ele>
        <time>2018-12-26T08:55:59Z</time>
      </trkpt>
      <trkpt lat="45.35895" lon="6.58554">
        <ele>1808.4</ele>
        <time>2018-12-26T08:56:04Z</time>
      </trkpt>
      <trkpt lat="45.35891" lon="6.58557">
        <ele>1808.6</ele>
        <time>2018-12-26T08:56:09Z</time>
      </trkpt>
      <trkpt lat="45.35887" lon="6.5856">
        <ele>1812.8</ele>
        <time>2018-12-26T08:56:14Z</time>
      </trkpt>
      <trkpt lat="45.35883" lon="6.58562">
        <ele>1811</ele>
        <time>2018-12-26T08:56:19Z</time>
      </trkpt>
      <trkpt lat="45.35879" lon="6.58565">
        <ele>1811.4</ele>
        <time>2018-12-26T08:56:24Z</time>
      </trkpt>
      <trkpt lat="45.35875" lon="6.58568">
        <ele>1813.4</ele>
        <time>2018-12-26T08:56:29Z</time>
      </trkpt>
      <trkpt lat="45.3587" lon="6.5857">
        <ele>1814.4</ele>
        <time>2018-12-26T08:56:34Z</time>
      </trkpt>
      <trkpt lat="45.35865" lon="6.58573">
        <ele>1816.2</ele>
        <time>2018-12-26T08:56:39Z</time>
      </trkpt>
      <trkpt lat="45.35861" lon="6.58576">
        <ele>1813.2</ele>
        <time>2018-12-26T08:56:44Z</time>
      </trkpt>
      <trkpt lat="45.35857" lon="6.58579">
        <ele>1812</ele>
        <time>2018-12-26T08:56:49Z</time>
      </trkpt>
      <trkpt lat="45.35853" lon="6.58583">
        <ele>1814.4</ele>
        <time>2018-12-26T08:56:54Z</time>
      </trkpt>
      <trkpt lat="45.3585" lon="6.58587">
        <ele>1814.8</ele>
        <time>2018-12-26T08:56:59Z</time>
      </trkpt>
      <trkpt lat="45.35848" lon="6.5859">
        <ele>1814.6</ele>
        <time>2018-12-26T08:57:04Z</time>
      </trkpt>
      <trkpt lat="45.35844" lon="6.58594">
        <ele>1815.4</ele>
        <time>2018-12-26T08:57:09Z</time>
      </trkpt>
      <trkpt lat="45.35841" lon="6.58596">
        <ele>1815.4</ele>
        <time>2018-12-26T08:57:14Z</time>
      </trkpt>
      <trkpt lat="45.35838" lon="6.586">
        <ele>1815.4</ele>
        <time>2018-12-26T08:57:19Z</time>
      </trkpt>
      <trkpt lat="45.35834" lon="6.58602">
        <ele>1817.2</ele>
        <time>2018-12-26T08:57:24Z</time>
      </trkpt>
      <trkpt lat="45.3583" lon="6.58604">
        <ele>1814.6</ele>
        <time>2018-12-26T08:57:29Z</time>
      </trkpt>
      <trkpt lat="45.35825" lon="6.58606">
        <ele>1816.8</ele>
        <time>2018-12-26T08:57:34Z</time>
      </trkpt>
      <trkpt lat="45.35821" lon="6.58607">
        <ele>1817</ele>
        <time>2018-12-26T08:57:39Z</time>
      </trkpt>
      <trkpt lat="45.35817" lon="6.58608">
        <ele>1816.2</ele>
        <time>2018-12-26T08:57:44Z</time>
      </trkpt>
      <trkpt lat="45.35813" lon="6.5861">
        <ele>1817.6</ele>
        <time>2018-12-26T08:57:49Z</time>
      </trkpt>
      <trkpt lat="45.35809" lon="6.58613">
        <ele>1818.2</ele>
        <time>2018-12-26T08:57:54Z</time>
      </trkpt>
      <trkpt lat="45.35805" lon="6.58617">
        <ele>1818</ele>
        <time>2018-12-26T08:57:59Z</time>
      </trkpt>
      <trkpt lat="45.35801" lon="6.58619">
        <ele>1818.6</ele>
        <time>2018-12-26T08:58:04Z</time>
      </trkpt>
      <trkpt lat="45.35797" lon="6.58623">
        <ele>1817.2</ele>
        <time>2018-12-26T08:58:09Z</time>
      </trkpt>
      <trkpt lat="45.35793" lon="6.58627">
        <ele>1820</ele>
        <time>2018-12-26T08:58:14Z</time>
      </trkpt>
      <trkpt lat="45.35789" lon="6.5863">
        <ele>1821.8</ele>
        <time>2018-12-26T08:58:19Z</time>
      </trkpt>
      <trkpt lat="45.35785" lon="6.58633">
        <ele>1819.4</ele>
        <time>2018-12-26T08:58:24Z</time>
      </trkpt>
      <trkpt lat="45.35781" lon="6.58636">
        <ele>1820.8</ele>
        <time>2018-12-26T08:58:29Z</time>
      </trkpt>
      <trkpt lat="45.35777" lon="6.58639">
        <ele>1820</ele>
        <time>2018-12-26T08:58:34Z</time>
      </trkpt>
      <trkpt lat="45.35773" lon="6.58642">
        <ele>1821.4</ele>
        <time>2018-12-26T08:58:39Z</time>
      </trkpt>
      <trkpt lat="45.35769" lon="6.58644">
        <ele>1821.6</ele>
        <time>2018-12-26T08:58:44Z</time>
      </trkpt>
      <trkpt lat="45.35765" lon="6.58647">
        <ele>1821.8</ele>
        <time>2018-12-26T08:58:49Z</time>
      </trkpt>
      <trkpt lat="45.35762" lon="6.5865">
        <ele>1820.8</ele>
        <time>2018-12-26T08:58:54Z</time>
      </trkpt>
      <trkpt lat="45.35758" lon="6.58652">
        <ele>1820</ele>
        <time>2018-12-26T08:58:59Z</time>
      </trkpt>
      <trkpt lat="45.35755" lon="6.58654">
        <ele>1822.4</ele>
        <time>2018-12-26T08:59:04Z</time>
      </trkpt>
      <trkpt lat="45.35751" lon="6.58658">
        <ele>1823</ele>
        <time>2018-12-26T08:59:09Z</time>
      </trkpt>
      <trkpt lat="45.35748" lon="6.58662">
        <ele>1823.8</ele>
        <time>2018-12-26T08:59:14Z</time>
      </trkpt>
      <trkpt lat="45.35745" lon="6.58665">
        <ele>1821.6</ele>
        <time>2018-12-26T08:59:19Z</time>
      </trkpt>
      <trkpt lat="45.35742" lon="6.58669">
        <ele>1821.2</ele>
        <time>2018-12-26T08:59:24Z</time>
      </trkpt>
      <trkpt lat="45.35738" lon="6.58673">
        <ele>1822.8</ele>
        <time>2018-12-26T08:59:29Z</time>
      </trkpt>
      <trkpt lat="45.35735" lon="6.58676">
        <ele>1823.2</ele>
        <time>2018-12-26T08:59:34Z</time>
      </trkpt>
      <trkpt lat="45.35731" lon="6.58679">
        <ele>1825</ele>
        <time>2018-12-26T08:59:39Z</time>
      </trkpt>
      <trkpt lat="45.35726" lon="6.5868">
        <ele>1823.6</ele>
        <time>2018-12-26T08:59:44Z</time>
      </trkpt>
      <trkpt lat="45.35723" lon="6.58681">
        <ele>1827.4</ele>
        <time>2018-12-26T08:59:49Z</time>
      </trkpt>
      <trkpt lat="45.35719" lon="6.58683">
        <ele>1829.4</ele>
        <time>2018-12-26T08:59:54Z</time>
      </trkpt>
      <trkpt lat="45.35715" lon="6.58684">
        <ele>1826.6</ele>
        <time>2018-12-26T08:59:59Z</time>
      </trkpt>
      <trkpt lat="45.35711" lon="6.58686">
        <ele>1826.4</ele>
        <time>2018-12-26T09:00:04Z</time>
      </trkpt>
      <trkpt lat="45.35707" lon="6.58688">
        <ele>1827.2</ele>
        <time>2018-12-26T09:00:09Z</time>
      </trkpt>
      <trkpt lat="45.35703" lon="6.5869">
        <ele>1829.8</ele>
        <time>2018-12-26T09:00:14Z</time>
      </trkpt>
      <trkpt lat="45.35699" lon="6.58692">
        <ele>1828</ele>
        <time>2018-12-26T09:00:19Z</time>
      </trkpt>
      <trkpt lat="45.35696" lon="6.58695">
        <ele>1828.4</ele>
        <time>2018-12-26T09:00:24Z</time>
      </trkpt>
      <trkpt lat="45.35694" lon="6.58698">
        <ele>1828.6</ele>
        <time>2018-12-26T09:00:29Z</time>
      </trkpt>
      <trkpt lat="45.35691" lon="6.58701">
        <ele>1830.2</ele>
        <time>2018-12-26T09:00:34Z</time>
      </trkpt>
      <trkpt lat="45.35688" lon="6.58703">
        <ele>1832</ele>
        <time>2018-12-26T09:00:39Z</time>
      </trkpt>
      <trkpt lat="45.35685" lon="6.58707">
        <ele>1831.4</ele>
        <time>2018-12-26T09:00:44Z</time>
      </trkpt>
      <trkpt lat="45.35682" lon="6.5871">
        <ele>1832.4</ele>
        <time>2018-12-26T09:00:49Z</time>
      </trkpt>
      <trkpt lat="45.35678" lon="6.58713">
        <ele>1830.6</ele>
        <time>2018-12-26T09:00:54Z</time>
      </trkpt>
      <trkpt lat="45.35674" lon="6.58716">
        <ele>1832.6</ele>
        <time>2018-12-26T09:00:59Z</time>
      </trkpt>
      <trkpt lat="45.35671" lon="6.58719">
        <ele>1831</ele>
        <time>2018-12-26T09:01:04Z</time>
      </trkpt>
      <trkpt lat="45.35667" lon="6.58721">
        <ele>1834</ele>
        <time>2018-12-26T09:01:09Z</time>
      </trkpt>
      <trkpt lat="45.35664" lon="6.58724">
        <ele>1836.4</ele>
        <time>2018-12-26T09:01:14Z</time>
      </trkpt>
      <trkpt lat="45.3566" lon="6.58726">
        <ele>1837.8</ele>
        <time>2018-12-26T09:01:19Z</time>
      </trkpt>
      <trkpt lat="45.35656" lon="6.58729">
        <ele>1835.2</ele>
        <time>2018-12-26T09:01:24Z</time>
      </trkpt>
      <trkpt lat="45.35652" lon="6.58731">
        <ele>1835</ele>
        <time>2018-12-26T09:01:29Z</time>
      </trkpt>
      <trkpt lat="45.35648" lon="6.58733">
        <ele>1835.6</ele>
        <time>2018-12-26T09:01:34Z</time>
      </trkpt>
      <trkpt lat="45.35643" lon="6.58734">
        <ele>1837.2</ele>
        <time>2018-12-26T09:01:39Z</time>
      </trkpt>
      <trkpt lat="45.35639" lon="6.58735">
        <ele>1835.4</ele>
        <time>2018-12-26T09:01:44Z</time>
      </trkpt>
      <trkpt lat="45.35634" lon="6.58737">
        <ele>1840.2</ele>
        <time>2018-12-26T09:01:49Z</time>
      </trkpt>
      <trkpt lat="45.35631" lon="6.58738">
        <ele>1839.6</ele>
        <time>2018-12-26T09:01:54Z</time>
      </trkpt>
      <trkpt lat="45.35627" lon="6.58741">
        <ele>1837.6</ele>
        <time>2018-12-26T09:01:59Z</time>
      </trkpt>
      <trkpt lat="45.35625" lon="6.58744">
        <ele>1842</ele>
        <time>2018-12-26T09:02:04Z</time>
      </trkpt>
      <trkpt lat="45.35621" lon="6.58747">
        <ele>1839</ele>
        <time>2018-12-26T09:02:09Z</time>
      </trkpt>
      <trkpt lat="45.35618" lon="6.58749">
        <ele>1841</ele>
        <time>2018-12-26T09:02:14Z</time>
      </trkpt>
      <trkpt lat="45.35614" lon="6.58752">
        <ele>1844.2</ele>
        <time>2018-12-26T09:02:19Z</time>
      </trkpt>
      <trkpt lat="45.35611" lon="6.58755">
        <ele>1841.6</ele>
        <time>2018-12-26T09:02:24Z</time>
      </trkpt>
      <trkpt lat="45.35608" lon="6.58758">
        <ele>1843.4</ele>
        <time>2018-12-26T09:02:29Z</time>
      </trkpt>
      <trkpt lat="45.35605" lon="6.58762">
        <ele>1841.6</ele>
        <time>2018-12-26T09:02:34Z</time>
      </trkpt>
      <trkpt lat="45.35601" lon="6.58764">
        <ele>1839.4</ele>
        <time>2018-12-26T09:02:39Z</time>
      </trkpt>
      <trkpt lat="45.35599" lon="6.58768">
        <ele>1842</ele>
        <time>2018-12-26T09:02:44Z</time>
      </trkpt>
      <trkpt lat="45.35596" lon="6.5877">
        <ele>1844.8</ele>
        <time>2018-12-26T09:02:49Z</time>
      </trkpt>
      <trkpt lat="45.35593" lon="6.58774">
        <ele>1843.6</ele>
        <time>2018-12-26T09:02:54Z</time>
      </trkpt>
      <trkpt lat="45.3559" lon="6.58776">
        <ele>1844.8</ele>
        <time>2018-12-26T09:02:59Z</time>
      </trkpt>
      <trkpt lat="45.35587" lon="6.58779">
        <ele>1844.8</ele>
        <time>2018-12-26T09:03:04Z</time>
      </trkpt>
      <trkpt lat="45.35584" lon="6.58782">
        <ele>1843.6</ele>
        <time>2018-12-26T09:03:09Z</time>
      </trkpt>
      <trkpt lat="45.35581" lon="6.58784">
        <ele>1846.2</ele>
        <time>2018-12-26T09:03:14Z</time>
      </trkpt>
      <trkpt lat="45.35577" lon="6.58787">
        <ele>1844.4</ele>
        <time>2018-12-26T09:03:19Z</time>
      </trkpt>
      <trkpt lat="45.35574" lon="6.5879">
        <ele>1848.6</ele>
        <time>2018-12-26T09:03:24Z</time>
      </trkpt>
      <trkpt lat="45.3557" lon="6.58793">
        <ele>1845.6</ele>
        <time>2018-12-26T09:03:29Z</time>
      </trkpt>
      <trkpt lat="45.35567" lon="6.58796">
        <ele>1847.2</ele>
        <time>2018-12-26T09:03:34Z</time>
      </trkpt>
      <trkpt lat="45.35564" lon="6.588">
        <ele>1850.2</ele>
        <time>2018-12-26T09:03:39Z</time>
      </trkpt>
      <trkpt lat="45.35561" lon="6.58803">
        <ele>1848.6</ele>
        <time>2018-12-26T09:03:44Z</time>
      </trkpt>
      <trkpt lat="45.35558" lon="6.58806">
        <ele>1848.8</ele>
        <time>2018-12-26T09:03:49Z</time>
      </trkpt>
      <trkpt lat="45.35555" lon="6.58809">
        <ele>1848.6</ele>
        <time>2018-12-26T09:03:54Z</time>
      </trkpt>
      <trkpt lat="45.35552" lon="6.58812">
        <ele>1849.2</ele>
        <time>2018-12-26T09:03:59Z</time>
      </trkpt>
      <trkpt lat="45.35549" lon="6.58815">
        <ele>1849</ele>
        <time>2018-12-26T09:04:04Z</time>
      </trkpt>
      <trkpt lat="45.35545" lon="6.58818">
        <ele>1849.4</ele>
        <time>2018-12-26T09:04:09Z</time>
      </trkpt>
      <trkpt lat="45.35542" lon="6.58822">
        <ele>1852</ele>
        <time>2018-12-26T09:04:14Z</time>
      </trkpt>
      <trkpt lat="45.35539" lon="6.58825">
        <ele>1849.6</ele>
        <time>2018-12-26T09:04:19Z</time>
      </trkpt>
      <trkpt lat="45.35536" lon="6.58828">
        <ele>1851.4</ele>
        <time>2018-12-26T09:04:24Z</time>
      </trkpt>
      <trkpt lat="45.35532" lon="6.58831">
        <ele>1851.6</ele>
        <time>2018-12-26T09:04:29Z</time>
      </trkpt>
      <trkpt lat="45.35529" lon="6.58834">
        <ele>1854.2</ele>
        <time>2018-12-26T09:04:34Z</time>
      </trkpt>
      <trkpt lat="45.35526" lon="6.58837">
        <ele>1853.2</ele>
        <time>2018-12-26T09:04:39Z</time>
      </trkpt>
      <trkpt lat="45.35522" lon="6.58839">
        <ele>1850.2</ele>
        <time>2018-12-26T09:04:44Z</time>
      </trkpt>
      <trkpt lat="45.35519" lon="6.58841">
        <ele>1851.6</ele>
        <time>2018-12-26T09:04:49Z</time>
      </trkpt>
      <trkpt lat="45.35515" lon="6.58843">
        <ele>1853</ele>
        <time>2018-12-26T09:04:54Z</time>
      </trkpt>
      <trkpt lat="45.35511" lon="6.58845">
        <ele>1853.2</ele>
        <time>2018-12-26T09:04:59Z</time>
      </trkpt>
      <trkpt lat="45.35507" lon="6.58847">
        <ele>1852.2</ele>
        <time>2018-12-26T09:05:04Z</time>
      </trkpt>
      <trkpt lat="45.35503" lon="6.58849">
        <ele>1854.2</ele>
        <time>2018-12-26T09:05:09Z</time>
      </trkpt>
      <trkpt lat="45.355" lon="6.58851">
        <ele>1853.8</ele>
        <time>2018-12-26T09:05:14Z</time>
      </trkpt>
      <trkpt lat="45.35496" lon="6.58852">
        <ele>1856</ele>
        <time>2018-12-26T09:05:19Z</time>
      </trkpt>
      <trkpt lat="45.35492" lon="6.58853">
        <ele>1856.2</ele>
        <time>2018-12-26T09:05:24Z</time>
      </trkpt>
      <trkpt lat="45.35488" lon="6.58854">
        <ele>1857.4</ele>
        <time>2018-12-26T09:05:29Z</time>
      </trkpt>
      <trkpt lat="45.35484" lon="6.58856">
        <ele>1856</ele>
        <time>2018-12-26T09:05:34Z</time>
      </trkpt>
      <trkpt lat="45.3548" lon="6.58857">
        <ele>1858.2</ele>
        <time>2018-12-26T09:05:39Z</time>
      </trkpt>
      <trkpt lat="45.35476" lon="6.58859">
        <ele>1860</ele>
        <time>2018-12-26T09:05:44Z</time>
      </trkpt>
      <trkpt lat="45.35472" lon="6.58861">
        <ele>1857.2</ele>
        <time>2018-12-26T09:05:49Z</time>
      </trkpt>
      <trkpt lat="45.35468" lon="6.58864">
        <ele>1858.8</ele>
        <time>2018-12-26T09:05:54Z</time>
      </trkpt>
      <trkpt lat="45.35465" lon="6.58866">
        <ele>1863.4</ele>
        <time>2018-12-26T09:05:59Z</time>
      </trkpt>
      <trkpt lat="45.35462" lon="6.58869">
        <ele>1864.4</ele>
        <time>2018-12-26T09:06:04Z</time>
      </trkpt>
      <trkpt lat="45.35459" lon="6.58871">
        <ele>1861.6</ele>
        <time>2018-12-26T09:06:09Z</time>
      </trkpt>
      <trkpt lat="45.35455" lon="6.58874">
        <ele>1862</ele>
        <time>2018-12-26T09:06:14Z</time>
      </trkpt>
      <trkpt lat="45.35452" lon="6.58878">
        <ele>1865.2</ele>
        <time>2018-12-26T09:06:19Z</time>
      </trkpt>
      <trkpt lat="45.35449" lon="6.58881">
        <ele>1864.8</ele>
        <time>2018-12-26T09:06:24Z</time>
      </trkpt>
      <trkpt lat="45.35445" lon="6.58884">
        <ele>1863.8</ele>
        <time>2018-12-26T09:06:29Z</time>
      </trkpt>
      <trkpt lat="45.35442" lon="6.58887">
        <ele>1866</ele>
        <time>2018-12-26T09:06:34Z</time>
      </trkpt>
      <trkpt lat="45.35439" lon="6.58891">
        <ele>1862.6</ele>
        <time>2018-12-26T09:06:39Z</time>
      </trkpt>
      <trkpt lat="45.35436" lon="6.58895">
        <ele>1864.4</ele>
        <time>2018-12-26T09:06:44Z</time>
      </trkpt>
      <trkpt lat="45.35433" lon="6.58898">
        <ele>1865.4</ele>
        <time>2018-12-26T09:06:49Z</time>
      </trkpt>
      <trkpt lat="45.35431" lon="6.58902">
        <ele>1866.6</ele>
        <time>2018-12-26T09:06:54Z</time>
      </trkpt>
      <trkpt lat="45.35428" lon="6.58907">
        <ele>1865.6</ele>
        <time>2018-12-26T09:06:59Z</time>
      </trkpt>
      <trkpt lat="45.35426" lon="6.58911">
        <ele>1866</ele>
        <time>2018-12-26T09:07:04Z</time>
      </trkpt>
      <trkpt lat="45.35423" lon="6.58915">
        <ele>1864.4</ele>
        <time>2018-12-26T09:07:09Z</time>
      </trkpt>
      <trkpt lat="45.35421" lon="6.5892">
        <ele>1866.2</ele>
        <time>2018-12-26T09:07:14Z</time>
      </trkpt>
      <trkpt lat="45.35418" lon="6.58924">
        <ele>1868.2</ele>
        <time>2018-12-26T09:07:19Z</time>
      </trkpt>
      <trkpt lat="45.35416" lon="6.58929">
        <ele>1868.2</ele>
        <time>2018-12-26T09:07:24Z</time>
      </trkpt>
      <trkpt lat="45.35414" lon="6.58933">
        <ele>1869.6</ele>
        <time>2018-12-26T09:07:29Z</time>
      </trkpt>
      <trkpt lat="45.35412" lon="6.58938">
        <ele>1868.6</ele>
        <time>2018-12-26T09:07:34Z</time>
      </trkpt>
      <trkpt lat="45.35409" lon="6.58942">
        <ele>1871</ele>
        <time>2018-12-26T09:07:39Z</time>
      </trkpt>
      <trkpt lat="45.35407" lon="6.58947">
        <ele>1868.6</ele>
        <time>2018-12-26T09:07:44Z</time>
      </trkpt>
      <trkpt lat="45.35403" lon="6.58951">
        <ele>1870.6</ele>
        <time>2018-12-26T09:07:49Z</time>
      </trkpt>
      <trkpt lat="45.35401" lon="6.58955">
        <ele>1871.4</ele>
        <time>2018-12-26T09:07:54Z</time>
      </trkpt>
      <trkpt lat="45.35398" lon="6.58959">
        <ele>1871</ele>
        <time>2018-12-26T09:07:59Z</time>
      </trkpt>
      <trkpt lat="45.35393" lon="6.58963">
        <ele>1874.2</ele>
        <time>2018-12-26T09:08:05Z</time>
      </trkpt>
      <trkpt lat="45.3539" lon="6.58967">
        <ele>1872.8</ele>
        <time>2018-12-26T09:08:10Z</time>
      </trkpt>
      <trkpt lat="45.35387" lon="6.5897">
        <ele>1873.4</ele>
        <time>2018-12-26T09:08:15Z</time>
      </trkpt>
      <trkpt lat="45.35384" lon="6.58974">
        <ele>1875.4</ele>
        <time>2018-12-26T09:08:20Z</time>
      </trkpt>
      <trkpt lat="45.3538" lon="6.58977">
        <ele>1877.6</ele>
        <time>2018-12-26T09:08:25Z</time>
      </trkpt>
      <trkpt lat="45.35377" lon="6.5898">
        <ele>1875.2</ele>
        <time>2018-12-26T09:08:30Z</time>
      </trkpt>
      <trkpt lat="45.35374" lon="6.58983">
        <ele>1876.4</ele>
        <time>2018-12-26T09:08:35Z</time>
      </trkpt>
      <trkpt lat="45.35371" lon="6.58987">
        <ele>1876.6</ele>
        <time>2018-12-26T09:08:40Z</time>
      </trkpt>
      <trkpt lat="45.35367" lon="6.58991">
        <ele>1874.4</ele>
        <time>2018-12-26T09:08:45Z</time>
      </trkpt>
      <trkpt lat="45.35364" lon="6.58994">
        <ele>1876.4</ele>
        <time>2018-12-26T09:08:50Z</time>
      </trkpt>
      <trkpt lat="45.3536" lon="6.58998">
        <ele>1876.4</ele>
        <time>2018-12-26T09:08:55Z</time>
      </trkpt>
      <trkpt lat="45.35357" lon="6.59002">
        <ele>1879.8</ele>
        <time>2018-12-26T09:09:00Z</time>
      </trkpt>
      <trkpt lat="45.35353" lon="6.59006">
        <ele>1880.2</ele>
        <time>2018-12-26T09:09:05Z</time>
      </trkpt>
      <trkpt lat="45.3535" lon="6.59009">
        <ele>1881.6</ele>
        <time>2018-12-26T09:09:10Z</time>
      </trkpt>
      <trkpt lat="45.35347" lon="6.59012">
        <ele>1883.4</ele>
        <time>2018-12-26T09:09:15Z</time>
      </trkpt>
      <trkpt lat="45.35343" lon="6.59015">
        <ele>1882.4</ele>
        <time>2018-12-26T09:09:20Z</time>
      </trkpt>
      <trkpt lat="45.3534" lon="6.59017">
        <ele>1882.6</ele>
        <time>2018-12-26T09:09:25Z</time>
      </trkpt>
      <trkpt lat="45.35337" lon="6.5902">
        <ele>1881.8</ele>
        <time>2018-12-26T09:09:30Z</time>
      </trkpt>
      <trkpt lat="45.35334" lon="6.59022">
        <ele>1881</ele>
        <time>2018-12-26T09:09:35Z</time>
      </trkpt>
      <trkpt lat="45.3533" lon="6.59024">
        <ele>1883.4</ele>
        <time>2018-12-26T09:09:40Z</time>
      </trkpt>
      <trkpt lat="45.35326" lon="6.59026">
        <ele>1883.4</ele>
        <time>2018-12-26T09:09:45Z</time>
      </trkpt>
      <trkpt lat="45.35322" lon="6.59028">
        <ele>1881.8</ele>
        <time>2018-12-26T09:09:50Z</time>
      </trkpt>
      <trkpt lat="45.35318" lon="6.5903">
        <ele>1884.8</ele>
        <time>2018-12-26T09:09:55Z</time>
      </trkpt>
      <trkpt lat="45.35313" lon="6.59032">
        <ele>1884</ele>
        <time>2018-12-26T09:10:00Z</time>
      </trkpt>
      <trkpt lat="45.35308" lon="6.59034">
        <ele>1884.8</ele>
        <time>2018-12-26T09:10:05Z</time>
      </trkpt>
      <trkpt lat="45.35304" lon="6.59036">
        <ele>1886</ele>
        <time>2018-12-26T09:10:10Z</time>
      </trkpt>
      <trkpt lat="45.353" lon="6.59037">
        <ele>1885.8</ele>
        <time>2018-12-26T09:10:15Z</time>
      </trkpt>
      <trkpt lat="45.35296" lon="6.59039">
        <ele>1885</ele>
        <time>2018-12-26T09:10:20Z</time>
      </trkpt>
      <trkpt lat="45.35293" lon="6.59041">
        <ele>1887</ele>
        <time>2018-12-26T09:10:25Z</time>
      </trkpt>
      <trkpt lat="45.35289" lon="6.59043">
        <ele>1886.4</ele>
        <time>2018-12-26T09:10:30Z</time>
      </trkpt>
      <trkpt lat="45.35286" lon="6.59046">
        <ele>1888.2</ele>
        <time>2018-12-26T09:10:35Z</time>
      </trkpt>
      <trkpt lat="45.35282" lon="6.59049">
        <ele>1889</ele>
        <time>2018-12-26T09:10:40Z</time>
      </trkpt>
      <trkpt lat="45.35278" lon="6.59052">
        <ele>1888.8</ele>
        <time>2018-12-26T09:10:45Z</time>
      </trkpt>
      <trkpt lat="45.35275" lon="6.59055">
        <ele>1889.2</ele>
        <time>2018-12-26T09:10:50Z</time>
      </trkpt>
      <trkpt lat="45.35271" lon="6.59058">
        <ele>1890.2</ele>
        <time>2018-12-26T09:10:55Z</time>
      </trkpt>
      <trkpt lat="45.35268" lon="6.59061">
        <ele>1889.8</ele>
        <time>2018-12-26T09:11:00Z</time>
      </trkpt>
      <trkpt lat="45.35264" lon="6.59064">
        <ele>1893.6</ele>
        <time>2018-12-26T09:11:05Z</time>
      </trkpt>
      <trkpt lat="45.3526" lon="6.59067">
        <ele>1891.2</ele>
        <time>2018-12-26T09:11:10Z</time>
      </trkpt>
      <trkpt lat="45.35256" lon="6.5907">
        <ele>1890.2</ele>
        <time>2018-12-26T09:11:15Z</time>
      </trkpt>
      <trkpt lat="45.35253" lon="6.59073">
        <ele>1891</ele>
        <time>2018-12-26T09:11:20Z</time>
      </trkpt>
      <trkpt lat="45.3525" lon="6.59077">
        <ele>1889.8</ele>
        <time>2018-12-26T09:11:25Z</time>
      </trkpt>
      <trkpt lat="45.35246" lon="6.5908">
        <ele>1890.6</ele>
        <time>2018-12-26T09:11:30Z</time>
      </trkpt>
      <trkpt lat="45.35243" lon="6.59083">
        <ele>1894.2</ele>
        <time>2018-12-26T09:11:35Z</time>
      </trkpt>
      <trkpt lat="45.35239" lon="6.59085">
        <ele>1895.6</ele>
        <time>2018-12-26T09:11:40Z</time>
      </trkpt>
      <trkpt lat="45.35235" lon="6.59088">
        <ele>1895.2</ele>
        <time>2018-12-26T09:11:45Z</time>
      </trkpt>
      <trkpt lat="45.35232" lon="6.59091">
        <ele>1895</ele>
        <time>2018-12-26T09:11:50Z</time>
      </trkpt>
      <trkpt lat="45.35228" lon="6.59094">
        <ele>1896.4</ele>
        <time>2018-12-26T09:11:55Z</time>
      </trkpt>
      <trkpt lat="45.35225" lon="6.59097">
        <ele>1892.8</ele>
        <time>2018-12-26T09:12:00Z</time>
      </trkpt>
      <trkpt lat="45.35221" lon="6.591">
        <ele>1896.6</ele>
        <time>2018-12-26T09:12:05Z</time>
      </trkpt>
      <trkpt lat="45.35218" lon="6.59102">
        <ele>1896.2</ele>
        <time>2018-12-26T09:12:10Z</time>
      </trkpt>
      <trkpt lat="45.35214" lon="6.59105">
        <ele>1896.6</ele>
        <time>2018-12-26T09:12:15Z</time>
      </trkpt>
      <trkpt lat="45.35211" lon="6.59107">
        <ele>1895.8</ele>
        <time>2018-12-26T09:12:20Z</time>
      </trkpt>
      <trkpt lat="45.35208" lon="6.5911">
        <ele>1895.8</ele>
        <time>2018-12-26T09:12:25Z</time>
      </trkpt>
      <trkpt lat="45.35204" lon="6.59112">
        <ele>1896.6</ele>
        <time>2018-12-26T09:12:30Z</time>
      </trkpt>
      <trkpt lat="45.352" lon="6.59114">
        <ele>1900.6</ele>
        <time>2018-12-26T09:12:35Z</time>
      </trkpt>
      <trkpt lat="45.35196" lon="6.59116">
        <ele>1899.4</ele>
        <time>2018-12-26T09:12:40Z</time>
      </trkpt>
      <trkpt lat="45.35193" lon="6.59118">
        <ele>1901.6</ele>
        <time>2018-12-26T09:12:45Z</time>
      </trkpt>
      <trkpt lat="45.35188" lon="6.59121">
        <ele>1900.4</ele>
        <time>2018-12-26T09:12:51Z</time>
      </trkpt>
      <trkpt lat="45.35185" lon="6.59123">
        <ele>1898.6</ele>
        <time>2018-12-26T09:12:56Z</time>
      </trkpt>
      <trkpt lat="45.35182" lon="6.59124">
        <ele>1900.6</ele>
        <time>2018-12-26T09:13:01Z</time>
      </trkpt>
      <trkpt lat="45.35178" lon="6.59125">
        <ele>1901.4</ele>
        <time>2018-12-26T09:13:06Z</time>
      </trkpt>
      <trkpt lat="45.35177" lon="6.59126">
        <ele>1902.4</ele>
        <time>2018-12-26T09:13:11Z</time>
      </trkpt>
      <trkpt lat="45.35177" lon="6.59126">
        <ele>1902.2</ele>
        <time>2018-12-26T09:13:16Z</time>
      </trkpt>
      <trkpt lat="45.35177" lon="6.59126">
        <ele>1902.2</ele>
        <time>2018-12-26T09:13:21Z</time>
      </trkpt>
      <trkpt lat="45.35177" lon="6.59126">
        <ele>1902</ele>
        <time>2018-12-26T09:13:26Z</time>
      </trkpt>
      <trkpt lat="45.35173" lon="6.59127">
        <ele>1901.8</ele>
        <time>2018-12-26T09:13:31Z</time>
      </trkpt>
      <trkpt lat="45.3517" lon="6.59128">
        <ele>1903.2</ele>
        <time>2018-12-26T09:13:36Z</time>
      </trkpt>
      <trkpt lat="45.35167" lon="6.59129">
        <ele>1903</ele>
        <time>2018-12-26T09:13:41Z</time>
      </trkpt>
      <trkpt lat="45.35164" lon="6.5913">
        <ele>1905.2</ele>
        <time>2018-12-26T09:13:46Z</time>
      </trkpt>
      <trkpt lat="45.35161" lon="6.5913">
        <ele>1905.4</ele>
        <time>2018-12-26T09:13:51Z</time>
      </trkpt>
      <trkpt lat="45.35157" lon="6.59131">
        <ele>1906.6</ele>
        <time>2018-12-26T09:13:56Z</time>
      </trkpt>
      <trkpt lat="45.35154" lon="6.59132">
        <ele>1906.2</ele>
        <time>2018-12-26T09:14:01Z</time>
      </trkpt>
      <trkpt lat="45.35153" lon="6.59132">
        <ele>1906.6</ele>
        <time>2018-12-26T09:14:06Z</time>
      </trkpt>
      <trkpt lat="45.35149" lon="6.59133">
        <ele>1907.2</ele>
        <time>2018-12-26T09:14:11Z</time>
      </trkpt>
      <trkpt lat="45.35145" lon="6.59134">
        <ele>1907.6</ele>
        <time>2018-12-26T09:14:16Z</time>
      </trkpt>
      <trkpt lat="45.35142" lon="6.59135">
        <ele>1912</ele>
        <time>2018-12-26T09:14:21Z</time>
      </trkpt>
      <trkpt lat="45.35138" lon="6.59135">
        <ele>1910</ele>
        <time>2018-12-26T09:14:26Z</time>
      </trkpt>
      <trkpt lat="45.35134" lon="6.59136">
        <ele>1911.8</ele>
        <time>2018-12-26T09:14:31Z</time>
      </trkpt>
      <trkpt lat="45.3513" lon="6.59135">
        <ele>1908</ele>
        <time>2018-12-26T09:14:36Z</time>
      </trkpt>
      <trkpt lat="45.35125" lon="6.59132">
        <ele>1909.8</ele>
        <time>2018-12-26T09:14:41Z</time>
      </trkpt>
      <trkpt lat="45.35121" lon="6.5913">
        <ele>1913.6</ele>
        <time>2018-12-26T09:14:46Z</time>
      </trkpt>
      <trkpt lat="45.35117" lon="6.59127">
        <ele>1910.6</ele>
        <time>2018-12-26T09:14:51Z</time>
      </trkpt>
      <trkpt lat="45.35113" lon="6.59125">
        <ele>1914</ele>
        <time>2018-12-26T09:14:56Z</time>
      </trkpt>
      <trkpt lat="45.35109" lon="6.59122">
        <ele>1913.2</ele>
        <time>2018-12-26T09:15:01Z</time>
      </trkpt>
      <trkpt lat="45.35106" lon="6.59121">
        <ele>1913.2</ele>
        <time>2018-12-26T09:15:06Z</time>
      </trkpt>
      <trkpt lat="45.35102" lon="6.5912">
        <ele>1912.8</ele>
        <time>2018-12-26T09:15:11Z</time>
      </trkpt>
      <trkpt lat="45.35098" lon="6.59119">
        <ele>1914</ele>
        <time>2018-12-26T09:15:16Z</time>
      </trkpt>
      <trkpt lat="45.35094" lon="6.59117">
        <ele>1915.2</ele>
        <time>2018-12-26T09:15:21Z</time>
      </trkpt>
      <trkpt lat="45.3509" lon="6.59115">
        <ele>1917</ele>
        <time>2018-12-26T09:15:26Z</time>
      </trkpt>
      <trkpt lat="45.35087" lon="6.59112">
        <ele>1917.2</ele>
        <time>2018-12-26T09:15:31Z</time>
      </trkpt>
      <trkpt lat="45.35083" lon="6.5911">
        <ele>1918</ele>
        <time>2018-12-26T09:15:36Z</time>
      </trkpt>
      <trkpt lat="45.35079" lon="6.59108">
        <ele>1915.6</ele>
        <time>2018-12-26T09:15:41Z</time>
      </trkpt>
      <trkpt lat="45.35076" lon="6.59105">
        <ele>1918.2</ele>
        <time>2018-12-26T09:15:46Z</time>
      </trkpt>
      <trkpt lat="45.35072" lon="6.59103">
        <ele>1916.8</ele>
        <time>2018-12-26T09:15:51Z</time>
      </trkpt>
      <trkpt lat="45.35072" lon="6.59102">
        <ele>1920</ele>
        <time>2018-12-26T09:15:56Z</time>
      </trkpt>
      <trkpt lat="45.35069" lon="6.59101">
        <ele>1921.4</ele>
        <time>2018-12-26T09:16:01Z</time>
      </trkpt>
      <trkpt lat="45.35066" lon="6.59099">
        <ele>1923</ele>
        <time>2018-12-26T09:16:06Z</time>
      </trkpt>
      <trkpt lat="45.35063" lon="6.59097">
        <ele>1923</ele>
        <time>2018-12-26T09:16:11Z</time>
      </trkpt>
      <trkpt lat="45.3506" lon="6.59096">
        <ele>1922.2</ele>
        <time>2018-12-26T09:16:16Z</time>
      </trkpt>
      <trkpt lat="45.35056" lon="6.59094">
        <ele>1925.6</ele>
        <time>2018-12-26T09:16:21Z</time>
      </trkpt>
      <trkpt lat="45.35054" lon="6.59092">
        <ele>1924.4</ele>
        <time>2018-12-26T09:16:26Z</time>
      </trkpt>
      <trkpt lat="45.35051" lon="6.5909">
        <ele>1925.4</ele>
        <time>2018-12-26T09:16:31Z</time>
      </trkpt>
      <trkpt lat="45.35048" lon="6.59087">
        <ele>1926.2</ele>
        <time>2018-12-26T09:16:36Z</time>
      </trkpt>
      <trkpt lat="45.35045" lon="6.59085">
        <ele>1926.8</ele>
        <time>2018-12-26T09:16:41Z</time>
      </trkpt>
      <trkpt lat="45.35042" lon="6.59083">
        <ele>1927.2</ele>
        <time>2018-12-26T09:16:46Z</time>
      </trkpt>
      <trkpt lat="45.35039" lon="6.59081">
        <ele>1925.2</ele>
        <time>2018-12-26T09:16:51Z</time>
      </trkpt>
      <trkpt lat="45.35035" lon="6.59079">
        <ele>1928</ele>
        <time>2018-12-26T09:16:56Z</time>
      </trkpt>
      <trkpt lat="45.35032" lon="6.59078">
        <ele>1927.8</ele>
        <time>2018-12-26T09:17:01Z</time>
      </trkpt>
      <trkpt lat="45.3503" lon="6.59077">
        <ele>1928.4</ele>
        <time>2018-12-26T09:17:06Z</time>
      </trkpt>
      <trkpt lat="45.35026" lon="6.59075">
        <ele>1928.2</ele>
        <time>2018-12-26T09:17:11Z</time>
      </trkpt>
      <trkpt lat="45.35023" lon="6.59074">
        <ele>1928.8</ele>
        <time>2018-12-26T09:17:16Z</time>
      </trkpt>
      <trkpt lat="45.3502" lon="6.59072">
        <ele>1929.8</ele>
        <time>2018-12-26T09:17:21Z</time>
      </trkpt>
      <trkpt lat="45.35018" lon="6.59071">
        <ele>1928.6</ele>
        <time>2018-12-26T09:17:26Z</time>
      </trkpt>
      <trkpt lat="45.35015" lon="6.5907">
        <ele>1933.2</ele>
        <time>2018-12-26T09:17:31Z</time>
      </trkpt>
      <trkpt lat="45.35012" lon="6.59068">
        <ele>1929.8</ele>
        <time>2018-12-26T09:17:36Z</time>
      </trkpt>
      <trkpt lat="45.3501" lon="6.59066">
        <ele>1933</ele>
        <time>2018-12-26T09:17:41Z</time>
      </trkpt>
      <trkpt lat="45.35007" lon="6.59064">
        <ele>1933.8</ele>
        <time>2018-12-26T09:17:46Z</time>
      </trkpt>
      <trkpt lat="45.35005" lon="6.59062">
        <ele>1929</ele>
        <time>2018-12-26T09:17:51Z</time>
      </trkpt>
      <trkpt lat="45.35003" lon="6.5906">
        <ele>1933</ele>
        <time>2018-12-26T09:17:56Z</time>
      </trkpt>
      <trkpt lat="45.35" lon="6.59057">
        <ele>1936.8</ele>
        <time>2018-12-26T09:18:01Z</time>
      </trkpt>
      <trkpt lat="45.34998" lon="6.59055">
        <ele>1935.8</ele>
        <time>2018-12-26T09:18:06Z</time>
      </trkpt>
      <trkpt lat="45.34995" lon="6.59053">
        <ele>1937.6</ele>
        <time>2018-12-26T09:18:11Z</time>
      </trkpt>
      <trkpt lat="45.34993" lon="6.59052">
        <ele>1936.4</ele>
        <time>2018-12-26T09:18:16Z</time>
      </trkpt>
      <trkpt lat="45.34991" lon="6.59051">
        <ele>1935.8</ele>
        <time>2018-12-26T09:18:21Z</time>
      </trkpt>
      <trkpt lat="45.34988" lon="6.5905">
        <ele>1939.4</ele>
        <time>2018-12-26T09:18:26Z</time>
      </trkpt>
      <trkpt lat="45.34986" lon="6.59049">
        <ele>1941.6</ele>
        <time>2018-12-26T09:18:31Z</time>
      </trkpt>
      <trkpt lat="45.34984" lon="6.59049">
        <ele>1941.8</ele>
        <time>2018-12-26T09:18:36Z</time>
      </trkpt>
      <trkpt lat="45.34982" lon="6.59048">
        <ele>1944.8</ele>
        <time>2018-12-26T09:18:41Z</time>
      </trkpt>
      <trkpt lat="45.3498" lon="6.59048">
        <ele>1943.2</ele>
        <time>2018-12-26T09:18:46Z</time>
      </trkpt>
      <trkpt lat="45.34977" lon="6.59048">
        <ele>1941</ele>
        <time>2018-12-26T09:18:51Z</time>
      </trkpt>
      <trkpt lat="45.34975" lon="6.59047">
        <ele>1946.2</ele>
        <time>2018-12-26T09:18:56Z</time>
      </trkpt>
      <trkpt lat="45.34972" lon="6.59047">
        <ele>1943.8</ele>
        <time>2018-12-26T09:19:01Z</time>
      </trkpt>
      <trkpt lat="45.3497" lon="6.59048">
        <ele>1944.4</ele>
        <time>2018-12-26T09:19:06Z</time>
      </trkpt>
      <trkpt lat="45.34967" lon="6.59048">
        <ele>1947.2</ele>
        <time>2018-12-26T09:19:11Z</time>
      </trkpt>
      <trkpt lat="45.34965" lon="6.59048">
        <ele>1949.6</ele>
        <time>2018-12-26T09:19:16Z</time>
      </trkpt>
      <trkpt lat="45.34962" lon="6.59047">
        <ele>1948</ele>
        <time>2018-12-26T09:19:21Z</time>
      </trkpt>
      <trkpt lat="45.3496" lon="6.59047">
        <ele>1948.8</ele>
        <time>2018-12-26T09:19:26Z</time>
      </trkpt>
      <trkpt lat="45.34957" lon="6.59047">
        <ele>1947.6</ele>
        <time>2018-12-26T09:19:31Z</time>
      </trkpt>
      <trkpt lat="45.34955" lon="6.59047">
        <ele>1952</ele>
        <time>2018-12-26T09:19:36Z</time>
      </trkpt>
      <trkpt lat="45.34952" lon="6.59046">
        <ele>1949.4</ele>
        <time>2018-12-26T09:19:41Z</time>
      </trkpt>
      <trkpt lat="45.3495" lon="6.59044">
        <ele>1951.4</ele>
        <time>2018-12-26T09:19:46Z</time>
      </trkpt>
      <trkpt lat="45.34948" lon="6.59041">
        <ele>1949.2</ele>
        <time>2018-12-26T09:19:51Z</time>
      </trkpt>
      <trkpt lat="45.34946" lon="6.59039">
        <ele>1952.8</ele>
        <time>2018-12-26T09:19:56Z</time>
      </trkpt>
      <trkpt lat="45.34945" lon="6.59035">
        <ele>1952.6</ele>
        <time>2018-12-26T09:20:01Z</time>
      </trkpt>
      <trkpt lat="45.34944" lon="6.59031">
        <ele>1955.2</ele>
        <time>2018-12-26T09:20:06Z</time>
      </trkpt>
      <trkpt lat="45.34945" lon="6.59027">
        <ele>1953.8</ele>
        <time>2018-12-26T09:20:11Z</time>
      </trkpt>
      <trkpt lat="45.34945" lon="6.59024">
        <ele>1953.6</ele>
        <time>2018-12-26T09:20:16Z</time>
      </trkpt>
      <trkpt lat="45.34946" lon="6.5902">
        <ele>1955.4</ele>
        <time>2018-12-26T09:20:21Z</time>
      </trkpt>
      <trkpt lat="45.34946" lon="6.59017">
        <ele>1954.8</ele>
        <time>2018-12-26T09:20:26Z</time>
      </trkpt>
      <trkpt lat="45.34948" lon="6.59013">
        <ele>1956.8</ele>
        <time>2018-12-26T09:20:31Z</time>
      </trkpt>
      <trkpt lat="45.3495" lon="6.59009">
        <ele>1958.8</ele>
        <time>2018-12-26T09:20:36Z</time>
      </trkpt>
      <trkpt lat="45.34952" lon="6.59005">
        <ele>1957.4</ele>
        <time>2018-12-26T09:20:41Z</time>
      </trkpt>
      <trkpt lat="45.34954" lon="6.59002">
        <ele>1955.2</ele>
        <time>2018-12-26T09:20:46Z</time>
      </trkpt>
      <trkpt lat="45.34956" lon="6.58999">
        <ele>1956.6</ele>
        <time>2018-12-26T09:20:51Z</time>
      </trkpt>
      <trkpt lat="45.34959" lon="6.58996">
        <ele>1957.6</ele>
        <time>2018-12-26T09:20:56Z</time>
      </trkpt>
      <trkpt lat="45.34961" lon="6.58993">
        <ele>1960.8</ele>
        <time>2018-12-26T09:21:01Z</time>
      </trkpt>
      <trkpt lat="45.34964" lon="6.58991">
        <ele>1956.2</ele>
        <time>2018-12-26T09:21:06Z</time>
      </trkpt>
      <trkpt lat="45.34966" lon="6.58988">
        <ele>1959.8</ele>
        <time>2018-12-26T09:21:11Z</time>
      </trkpt>
      <trkpt lat="45.34969" lon="6.58985">
        <ele>1959.8</ele>
        <time>2018-12-26T09:21:16Z</time>
      </trkpt>
      <trkpt lat="45.34972" lon="6.58983">
        <ele>1959.4</ele>
        <time>2018-12-26T09:21:21Z</time>
      </trkpt>
      <trkpt lat="45.34975" lon="6.58981">
        <ele>1960.4</ele>
        <time>2018-12-26T09:21:26Z</time>
      </trkpt>
      <trkpt lat="45.34978" lon="6.5898">
        <ele>1958.4</ele>
        <time>2018-12-26T09:21:31Z</time>
      </trkpt>
      <trkpt lat="45.3498" lon="6.58978">
        <ele>1961.6</ele>
        <time>2018-12-26T09:21:36Z</time>
      </trkpt>
      <trkpt lat="45.34983" lon="6.58977">
        <ele>1963.2</ele>
        <time>2018-12-26T09:21:41Z</time>
      </trkpt>
      <trkpt lat="45.34986" lon="6.58975">
        <ele>1963.6</ele>
        <time>2018-12-26T09:21:46Z</time>
      </trkpt>
      <trkpt lat="45.34989" lon="6.58974">
        <ele>1962.4</ele>
        <time>2018-12-26T09:21:51Z</time>
      </trkpt>
      <trkpt lat="45.34992" lon="6.58972">
        <ele>1963.8</ele>
        <time>2018-12-26T09:21:56Z</time>
      </trkpt>
      <trkpt lat="45.34995" lon="6.58971">
        <ele>1961.4</ele>
        <time>2018-12-26T09:22:01Z</time>
      </trkpt>
      <trkpt lat="45.34998" lon="6.58971">
        <ele>1963.2</ele>
        <time>2018-12-26T09:22:06Z</time>
      </trkpt>
      <trkpt lat="45.35001" lon="6.5897">
        <ele>1962.8</ele>
        <time>2018-12-26T09:22:11Z</time>
      </trkpt>
      <trkpt lat="45.35004" lon="6.58969">
        <ele>1959</ele>
        <time>2018-12-26T09:22:16Z</time>
      </trkpt>
      <trkpt lat="45.35008" lon="6.58968">
        <ele>1965.4</ele>
        <time>2018-12-26T09:22:21Z</time>
      </trkpt>
      <trkpt lat="45.35011" lon="6.58968">
        <ele>1965.8</ele>
        <time>2018-12-26T09:22:26Z</time>
      </trkpt>
      <trkpt lat="45.35014" lon="6.58967">
        <ele>1964.6</ele>
        <time>2018-12-26T09:22:31Z</time>
      </trkpt>
      <trkpt lat="45.35018" lon="6.58967">
        <ele>1965.8</ele>
        <time>2018-12-26T09:22:36Z</time>
      </trkpt>
      <trkpt lat="45.35021" lon="6.58966">
        <ele>1964.4</ele>
        <time>2018-12-26T09:22:41Z</time>
      </trkpt>
      <trkpt lat="45.35025" lon="6.58967">
        <ele>1965.6</ele>
        <time>2018-12-26T09:22:46Z</time>
      </trkpt>
      <trkpt lat="45.35029" lon="6.58968">
        <ele>1967.6</ele>
        <time>2018-12-26T09:22:51Z</time>
      </trkpt>
      <trkpt lat="45.3503" lon="6.58968">
        <ele>1969.4</ele>
        <time>2018-12-26T09:22:56Z</time>
      </trkpt>
      <trkpt lat="45.35031" lon="6.58969">
        <ele>1970</ele>
        <time>2018-12-26T09:23:01Z</time>
      </trkpt>
      <trkpt lat="45.35034" lon="6.5897">
        <ele>1972</ele>
        <time>2018-12-26T09:23:06Z</time>
      </trkpt>
      <trkpt lat="45.35038" lon="6.5897">
        <ele>1967.4</ele>
        <time>2018-12-26T09:23:11Z</time>
      </trkpt>
      <trkpt lat="45.35042" lon="6.5897">
        <ele>1971.4</ele>
        <time>2018-12-26T09:23:16Z</time>
      </trkpt>
      <trkpt lat="45.35045" lon="6.5897">
        <ele>1969</ele>
        <time>2018-12-26T09:23:21Z</time>
      </trkpt>
      <trkpt lat="45.35049" lon="6.58971">
        <ele>1970</ele>
        <time>2018-12-26T09:23:26Z</time>
      </trkpt>
      <trkpt lat="45.35053" lon="6.5897">
        <ele>1973.4</ele>
        <time>2018-12-26T09:23:31Z</time>
      </trkpt>
      <trkpt lat="45.35056" lon="6.58969">
        <ele>1971</ele>
        <time>2018-12-26T09:23:36Z</time>
      </trkpt>
      <trkpt lat="45.3506" lon="6.58968">
        <ele>1969</ele>
        <time>2018-12-26T09:23:41Z</time>
      </trkpt>
      <trkpt lat="45.35064" lon="6.58966">
        <ele>1970</ele>
        <time>2018-12-26T09:23:46Z</time>
      </trkpt>
      <trkpt lat="45.35068" lon="6.58966">
        <ele>1975.4</ele>
        <time>2018-12-26T09:23:51Z</time>
      </trkpt>
      <trkpt lat="45.35071" lon="6.58965">
        <ele>1975</ele>
        <time>2018-12-26T09:23:56Z</time>
      </trkpt>
      <trkpt lat="45.35075" lon="6.58963">
        <ele>1975.8</ele>
        <time>2018-12-26T09:24:01Z</time>
      </trkpt>
      <trkpt lat="45.35078" lon="6.58962">
        <ele>1973</ele>
        <time>2018-12-26T09:24:06Z</time>
      </trkpt>
      <trkpt lat="45.35081" lon="6.5896">
        <ele>1974</ele>
        <time>2018-12-26T09:24:11Z</time>
      </trkpt>
      <trkpt lat="45.35085" lon="6.58959">
        <ele>1975.6</ele>
        <time>2018-12-26T09:24:16Z</time>
      </trkpt>
      <trkpt lat="45.35088" lon="6.58957">
        <ele>1976.4</ele>
        <time>2018-12-26T09:24:21Z</time>
      </trkpt>
      <trkpt lat="45.35091" lon="6.58956">
        <ele>1974.4</ele>
        <time>2018-12-26T09:24:26Z</time>
      </trkpt>
      <trkpt lat="45.35095" lon="6.58955">
        <ele>1974</ele>
        <time>2018-12-26T09:24:31Z</time>
      </trkpt>
      <trkpt lat="45.35095" lon="6.58954">
        <ele>1974.2</ele>
        <time>2018-12-26T09:24:36Z</time>
      </trkpt>
      <trkpt lat="45.35099" lon="6.58953">
        <ele>1975.2</ele>
        <time>2018-12-26T09:24:41Z</time>
      </trkpt>
      <trkpt lat="45.35103" lon="6.58952">
        <ele>1976</ele>
        <time>2018-12-26T09:24:46Z</time>
      </trkpt>
      <trkpt lat="45.35107" lon="6.5895">
        <ele>1978</ele>
        <time>2018-12-26T09:24:51Z</time>
      </trkpt>
      <trkpt lat="45.35111" lon="6.58949">
        <ele>1976.4</ele>
        <time>2018-12-26T09:24:56Z</time>
      </trkpt>
      <trkpt lat="45.35115" lon="6.58948">
        <ele>1976.2</ele>
        <time>2018-12-26T09:25:01Z</time>
      </trkpt>
      <trkpt lat="45.35119" lon="6.58947">
        <ele>1978.6</ele>
        <time>2018-12-26T09:25:06Z</time>
      </trkpt>
      <trkpt lat="45.35123" lon="6.58945">
        <ele>1980</ele>
        <time>2018-12-26T09:25:11Z</time>
      </trkpt>
      <trkpt lat="45.35127" lon="6.58943">
        <ele>1983</ele>
        <time>2018-12-26T09:25:16Z</time>
      </trkpt>
      <trkpt lat="45.35131" lon="6.58942">
        <ele>1979.8</ele>
        <time>2018-12-26T09:25:21Z</time>
      </trkpt>
      <trkpt lat="45.35135" lon="6.5894">
        <ele>1982.8</ele>
        <time>2018-12-26T09:25:26Z</time>
      </trkpt>
      <trkpt lat="45.35139" lon="6.58938">
        <ele>1981</ele>
        <time>2018-12-26T09:25:31Z</time>
      </trkpt>
      <trkpt lat="45.35143" lon="6.58936">
        <ele>1983.6</ele>
        <time>2018-12-26T09:25:36Z</time>
      </trkpt>
      <trkpt lat="45.35147" lon="6.58935">
        <ele>1983.6</ele>
        <time>2018-12-26T09:25:41Z</time>
      </trkpt>
      <trkpt lat="45.35151" lon="6.58933">
        <ele>1981.6</ele>
        <time>2018-12-26T09:25:46Z</time>
      </trkpt>
      <trkpt lat="45.35156" lon="6.58933">
        <ele>1983</ele>
        <time>2018-12-26T09:25:51Z</time>
      </trkpt>
      <trkpt lat="45.3516" lon="6.58932">
        <ele>1981.6</ele>
        <time>2018-12-26T09:25:56Z</time>
      </trkpt>
      <trkpt lat="45.35164" lon="6.58932">
        <ele>1985.4</ele>
        <time>2018-12-26T09:26:01Z</time>
      </trkpt>
      <trkpt lat="45.35169" lon="6.58932">
        <ele>1983</ele>
        <time>2018-12-26T09:26:06Z</time>
      </trkpt>
      <trkpt lat="45.35174" lon="6.58932">
        <ele>1983.6</ele>
        <time>2018-12-26T09:26:11Z</time>
      </trkpt>
      <trkpt lat="45.35179" lon="6.58931">
        <ele>1985.8</ele>
        <time>2018-12-26T09:26:16Z</time>
      </trkpt>
      <trkpt lat="45.35183" lon="6.58929">
        <ele>1987.2</ele>
        <time>2018-12-26T09:26:21Z</time>
      </trkpt>
      <trkpt lat="45.35187" lon="6.58926">
        <ele>1984.2</ele>
        <time>2018-12-26T09:26:26Z</time>
      </trkpt>
      <trkpt lat="45.35188" lon="6.58926">
        <ele>1985.8</ele>
        <time>2018-12-26T09:26:31Z</time>
      </trkpt>
      <trkpt lat="45.35188" lon="6.58926">
        <ele>1988.4</ele>
        <time>2018-12-26T09:26:36Z</time>
      </trkpt>
      <trkpt lat="45.35188" lon="6.58926">
        <ele>1987</ele>
        <time>2018-12-26T09:26:41Z</time>
      </trkpt>
      <trkpt lat="45.35188" lon="6.58926">
        <ele>1987.4</ele>
        <time>2018-12-26T09:26:46Z</time>
      </trkpt>
      <trkpt lat="45.35188" lon="6.58927">
        <ele>1987.4</ele>
        <time>2018-12-26T09:26:51Z</time>
      </trkpt>
      <trkpt lat="45.35188" lon="6.58927">
        <ele>1987.6</ele>
        <time>2018-12-26T09:26:56Z</time>
      </trkpt>
      <trkpt lat="45.35188" lon="6.58928">
        <ele>1987.6</ele>
        <time>2018-12-26T09:27:01Z</time>
      </trkpt>
      <trkpt lat="45.35189" lon="6.58927">
        <ele>1987.6</ele>
        <time>2018-12-26T09:27:06Z</time>
      </trkpt>
      <trkpt lat="45.35189" lon="6.58927">
        <ele>1987.6</ele>
        <time>2018-12-26T09:27:11Z</time>
      </trkpt>
      <trkpt lat="45.35188" lon="6.58927">
        <ele>1987.4</ele>
        <time>2018-12-26T09:27:16Z</time>
      </trkpt>
      <trkpt lat="45.35188" lon="6.58927">
        <ele>1987.4</ele>
        <time>2018-12-26T09:27:21Z</time>
      </trkpt>
      <trkpt lat="45.35187" lon="6.58928">
        <ele>1988</ele>
        <time>2018-12-26T09:27:26Z</time>
      </trkpt>
      <trkpt lat="45.35187" lon="6.58928">
        <ele>1988</ele>
        <time>2018-12-26T09:27:31Z</time>
      </trkpt>
      <trkpt lat="45.35187" lon="6.58928">
        <ele>1988</ele>
        <time>2018-12-26T09:27:36Z</time>
      </trkpt>
      <trkpt lat="45.35187" lon="6.58928">
        <ele>1988</ele>
        <time>2018-12-26T09:27:41Z</time>
      </trkpt>
      <trkpt lat="45.35186" lon="6.58928">
        <ele>1988</ele>
        <time>2018-12-26T09:27:46Z</time>
      </trkpt>
      <trkpt lat="45.35186" lon="6.58928">
        <ele>1987.8</ele>
        <time>2018-12-26T09:27:51Z</time>
      </trkpt>
      <trkpt lat="45.35186" lon="6.58928">
        <ele>1987.8</ele>
        <time>2018-12-26T09:27:56Z</time>
      </trkpt>
      <trkpt lat="45.35186" lon="6.58928">
        <ele>1987.8</ele>
        <time>2018-12-26T09:28:01Z</time>
      </trkpt>
      <trkpt lat="45.35186" lon="6.58928">
        <ele>1987.8</ele>
        <time>2018-12-26T09:28:06Z</time>
      </trkpt>
      <trkpt lat="45.35186" lon="6.58928">
        <ele>1987.6</ele>
        <time>2018-12-26T09:28:11Z</time>
      </trkpt>
      <trkpt lat="45.35186" lon="6.58928">
        <ele>1987.6</ele>
        <time>2018-12-26T09:28:16Z</time>
      </trkpt>
      <trkpt lat="45.35186" lon="6.58928">
        <ele>1987.6</ele>
        <time>2018-12-26T09:28:21Z</time>
      </trkpt>
      <trkpt lat="45.35186" lon="6.58928">
        <ele>1987.6</ele>
        <time>2018-12-26T09:28:26Z</time>
      </trkpt>
      <trkpt lat="45.35186" lon="6.58928">
        <ele>1987.6</ele>
        <time>2018-12-26T09:28:31Z</time>
      </trkpt>
      <trkpt lat="45.35186" lon="6.58928">
        <ele>1987.6</ele>
        <time>2018-12-26T09:28:36Z</time>
      </trkpt>
      <trkpt lat="45.35187" lon="6.58928">
        <ele>1987.6</ele>
        <time>2018-12-26T09:28:41Z</time>
      </trkpt>
      <trkpt lat="45.35187" lon="6.58928">
        <ele>1987.6</ele>
        <time>2018-12-26T09:28:46Z</time>
      </trkpt>
      <trkpt lat="45.35187" lon="6.58928">
        <ele>1987.6</ele>
        <time>2018-12-26T09:28:51Z</time>
      </trkpt>
      <trkpt lat="45.35187" lon="6.58929">
        <ele>1987.6</ele>
        <time>2018-12-26T09:28:56Z</time>
      </trkpt>
      <trkpt lat="45.35187" lon="6.58928">
        <ele>1987.6</ele>
        <time>2018-12-26T09:29:01Z</time>
      </trkpt>
      <trkpt lat="45.35187" lon="6.58928">
        <ele>1987.6</ele>
        <time>2018-12-26T09:29:06Z</time>
      </trkpt>
      <trkpt lat="45.35188" lon="6.58928">
        <ele>1986.2</ele>
        <time>2018-12-26T09:29:12Z</time>
      </trkpt>
      <trkpt lat="45.35192" lon="6.58925">
        <ele>1985.8</ele>
        <time>2018-12-26T09:29:17Z</time>
      </trkpt>
      <trkpt lat="45.35197" lon="6.58922">
        <ele>1987</ele>
        <time>2018-12-26T09:29:22Z</time>
      </trkpt>
      <trkpt lat="45.35201" lon="6.58918">
        <ele>1987.6</ele>
        <time>2018-12-26T09:29:27Z</time>
      </trkpt>
      <trkpt lat="45.35205" lon="6.58914">
        <ele>1988.8</ele>
        <time>2018-12-26T09:29:32Z</time>
      </trkpt>
      <trkpt lat="45.35209" lon="6.5891">
        <ele>1990.2</ele>
        <time>2018-12-26T09:29:37Z</time>
      </trkpt>
      <trkpt lat="45.35213" lon="6.58905">
        <ele>1989.2</ele>
        <time>2018-12-26T09:29:42Z</time>
      </trkpt>
      <trkpt lat="45.35217" lon="6.589">
        <ele>1990.6</ele>
        <time>2018-12-26T09:29:47Z</time>
      </trkpt>
      <trkpt lat="45.3522" lon="6.58895">
        <ele>1992.6</ele>
        <time>2018-12-26T09:29:52Z</time>
      </trkpt>
      <trkpt lat="45.35224" lon="6.5889">
        <ele>1989.2</ele>
        <time>2018-12-26T09:29:57Z</time>
      </trkpt>
      <trkpt lat="45.35228" lon="6.58885">
        <ele>1990.6</ele>
        <time>2018-12-26T09:30:02Z</time>
      </trkpt>
      <trkpt lat="45.35231" lon="6.58879">
        <ele>1990.2</ele>
        <time>2018-12-26T09:30:07Z</time>
      </trkpt>
      <trkpt lat="45.35235" lon="6.58874">
        <ele>1990.2</ele>
        <time>2018-12-26T09:30:12Z</time>
      </trkpt>
      <trkpt lat="45.35239" lon="6.58869">
        <ele>1993.2</ele>
        <time>2018-12-26T09:30:17Z</time>
      </trkpt>
      <trkpt lat="45.35243" lon="6.58864">
        <ele>1992.2</ele>
        <time>2018-12-26T09:30:22Z</time>
      </trkpt>
      <trkpt lat="45.35246" lon="6.58859">
        <ele>1993.4</ele>
        <time>2018-12-26T09:30:27Z</time>
      </trkpt>
      <trkpt lat="45.35249" lon="6.58854">
        <ele>1992.8</ele>
        <time>2018-12-26T09:30:32Z</time>
      </trkpt>
      <trkpt lat="45.35253" lon="6.58849">
        <ele>1991.2</ele>
        <time>2018-12-26T09:30:37Z</time>
      </trkpt>
      <trkpt lat="45.35257" lon="6.58845">
        <ele>1995</ele>
        <time>2018-12-26T09:30:42Z</time>
      </trkpt>
      <trkpt lat="45.3526" lon="6.5884">
        <ele>1993.4</ele>
        <time>2018-12-26T09:30:47Z</time>
      </trkpt>
      <trkpt lat="45.35264" lon="6.58836">
        <ele>1992.8</ele>
        <time>2018-12-26T09:30:52Z</time>
      </trkpt>
      <trkpt lat="45.35268" lon="6.5883">
        <ele>1995.6</ele>
        <time>2018-12-26T09:30:57Z</time>
      </trkpt>
      <trkpt lat="45.35271" lon="6.58824">
        <ele>1992.8</ele>
        <time>2018-12-26T09:31:02Z</time>
      </trkpt>
      <trkpt lat="45.35275" lon="6.58819">
        <ele>1995.2</ele>
        <time>2018-12-26T09:31:07Z</time>
      </trkpt>
      <trkpt lat="45.35276" lon="6.58814">
        <ele>1994.2</ele>
        <time>2018-12-26T09:31:12Z</time>
      </trkpt>
      <trkpt lat="45.35276" lon="6.58807">
        <ele>1995.2</ele>
        <time>2018-12-26T09:31:17Z</time>
      </trkpt>
      <trkpt lat="45.35277" lon="6.588">
        <ele>1994.6</ele>
        <time>2018-12-26T09:31:22Z</time>
      </trkpt>
      <trkpt lat="45.35277" lon="6.58793">
        <ele>1997.8</ele>
        <time>2018-12-26T09:31:27Z</time>
      </trkpt>
      <trkpt lat="45.35277" lon="6.58786">
        <ele>1996.4</ele>
        <time>2018-12-26T09:31:32Z</time>
      </trkpt>
      <trkpt lat="45.35277" lon="6.58778">
        <ele>1998.6</ele>
        <time>2018-12-26T09:31:37Z</time>
      </trkpt>
      <trkpt lat="45.35277" lon="6.58771">
        <ele>1996.8</ele>
        <time>2018-12-26T09:31:42Z</time>
      </trkpt>
      <trkpt lat="45.35278" lon="6.58764">
        <ele>1996.2</ele>
        <time>2018-12-26T09:31:47Z</time>
      </trkpt>
      <trkpt lat="45.35278" lon="6.58756">
        <ele>1998.8</ele>
        <time>2018-12-26T09:31:52Z</time>
      </trkpt>
      <trkpt lat="45.35279" lon="6.58749">
        <ele>1998</ele>
        <time>2018-12-26T09:31:57Z</time>
      </trkpt>
      <trkpt lat="45.35279" lon="6.58742">
        <ele>2000.8</ele>
        <time>2018-12-26T09:32:02Z</time>
      </trkpt>
      <trkpt lat="45.35279" lon="6.58735">
        <ele>2001</ele>
        <time>2018-12-26T09:32:07Z</time>
      </trkpt>
      <trkpt lat="45.35279" lon="6.58728">
        <ele>1998.6</ele>
        <time>2018-12-26T09:32:12Z</time>
      </trkpt>
      <trkpt lat="45.3528" lon="6.58721">
        <ele>2001.2</ele>
        <time>2018-12-26T09:32:17Z</time>
      </trkpt>
      <trkpt lat="45.3528" lon="6.58714">
        <ele>1999.8</ele>
        <time>2018-12-26T09:32:22Z</time>
      </trkpt>
      <trkpt lat="45.35281" lon="6.58707">
        <ele>1998.8</ele>
        <time>2018-12-26T09:32:27Z</time>
      </trkpt>
      <trkpt lat="45.35282" lon="6.58701">
        <ele>2002.6</ele>
        <time>2018-12-26T09:32:32Z</time>
      </trkpt>
      <trkpt lat="45.35286" lon="6.58699">
        <ele>2000.4</ele>
        <time>2018-12-26T09:32:37Z</time>
      </trkpt>
      <trkpt lat="45.35287" lon="6.58697">
        <ele>2000.2</ele>
        <time>2018-12-26T09:32:42Z</time>
      </trkpt>
      <trkpt lat="45.35285" lon="6.58692">
        <ele>1998</ele>
        <time>2018-12-26T09:32:47Z</time>
      </trkpt>
      <trkpt lat="45.3528" lon="6.58695">
        <ele>1998.2</ele>
        <time>2018-12-26T09:32:52Z</time>
      </trkpt>
      <trkpt lat="45.35277" lon="6.58701">
        <ele>2000</ele>
        <time>2018-12-26T09:32:57Z</time>
      </trkpt>
      <trkpt lat="45.35275" lon="6.58707">
        <ele>2002.8</ele>
        <time>2018-12-26T09:33:02Z</time>
      </trkpt>
      <trkpt lat="45.35273" lon="6.58712">
        <ele>2001.8</ele>
        <time>2018-12-26T09:33:07Z</time>
      </trkpt>
      <trkpt lat="45.35272" lon="6.58717">
        <ele>2002.2</ele>
        <time>2018-12-26T09:33:12Z</time>
      </trkpt>
      <trkpt lat="45.35271" lon="6.58723">
        <ele>2001.4</ele>
        <time>2018-12-26T09:33:17Z</time>
      </trkpt>
      <trkpt lat="45.3527" lon="6.58729">
        <ele>2001.2</ele>
        <time>2018-12-26T09:33:22Z</time>
      </trkpt>
      <trkpt lat="45.35269" lon="6.58734">
        <ele>2004</ele>
        <time>2018-12-26T09:33:27Z</time>
      </trkpt>
      <trkpt lat="45.35267" lon="6.5874">
        <ele>2005.6</ele>
        <time>2018-12-26T09:33:32Z</time>
      </trkpt>
      <trkpt lat="45.35266" lon="6.58746">
        <ele>2001.8</ele>
        <time>2018-12-26T09:33:37Z</time>
      </trkpt>
      <trkpt lat="45.35265" lon="6.58751">
        <ele>2004.8</ele>
        <time>2018-12-26T09:33:42Z</time>
      </trkpt>
      <trkpt lat="45.35264" lon="6.58756">
        <ele>2007</ele>
        <time>2018-12-26T09:33:47Z</time>
      </trkpt>
      <trkpt lat="45.35263" lon="6.58762">
        <ele>2007.8</ele>
        <time>2018-12-26T09:33:52Z</time>
      </trkpt>
      <trkpt lat="45.35262" lon="6.58768">
        <ele>2005.2</ele>
        <time>2018-12-26T09:33:57Z</time>
      </trkpt>
      <trkpt lat="45.35261" lon="6.58774">
        <ele>2005.4</ele>
        <time>2018-12-26T09:34:02Z</time>
      </trkpt>
      <trkpt lat="45.3526" lon="6.58779">
        <ele>2004.6</ele>
        <time>2018-12-26T09:34:07Z</time>
      </trkpt>
      <trkpt lat="45.35259" lon="6.58785">
        <ele>2009.2</ele>
        <time>2018-12-26T09:34:12Z</time>
      </trkpt>
      <trkpt lat="45.35258" lon="6.5879">
        <ele>2008.2</ele>
        <time>2018-12-26T09:34:17Z</time>
      </trkpt>
      <trkpt lat="45.35256" lon="6.58796">
        <ele>2007.6</ele>
        <time>2018-12-26T09:34:22Z</time>
      </trkpt>
      <trkpt lat="45.35254" lon="6.58802">
        <ele>2011.4</ele>
        <time>2018-12-26T09:34:27Z</time>
      </trkpt>
      <trkpt lat="45.35252" lon="6.58807">
        <ele>2007.8</ele>
        <time>2018-12-26T09:34:32Z</time>
      </trkpt>
      <trkpt lat="45.35249" lon="6.58812">
        <ele>2011.8</ele>
        <time>2018-12-26T09:34:37Z</time>
      </trkpt>
      <trkpt lat="45.35245" lon="6.58817">
        <ele>2010</ele>
        <time>2018-12-26T09:34:42Z</time>
      </trkpt>
      <trkpt lat="45.35242" lon="6.58821">
        <ele>2010.8</ele>
        <time>2018-12-26T09:34:47Z</time>
      </trkpt>
      <trkpt lat="45.35238" lon="6.58825">
        <ele>2008</ele>
        <time>2018-12-26T09:34:52Z</time>
      </trkpt>
      <trkpt lat="45.35234" lon="6.58828">
        <ele>2013</ele>
        <time>2018-12-26T09:34:57Z</time>
      </trkpt>
      <trkpt lat="45.35231" lon="6.5883">
        <ele>2011</ele>
        <time>2018-12-26T09:35:02Z</time>
      </trkpt>
      <trkpt lat="45.35227" lon="6.58833">
        <ele>2013.2</ele>
        <time>2018-12-26T09:35:07Z</time>
      </trkpt>
      <trkpt lat="45.35223" lon="6.58836">
        <ele>2011</ele>
        <time>2018-12-26T09:35:12Z</time>
      </trkpt>
      <trkpt lat="45.35219" lon="6.58838">
        <ele>2012</ele>
        <time>2018-12-26T09:35:17Z</time>
      </trkpt>
      <trkpt lat="45.35215" lon="6.58841">
        <ele>2012.6</ele>
        <time>2018-12-26T09:35:22Z</time>
      </trkpt>
      <trkpt lat="45.35212" lon="6.58845">
        <ele>2013</ele>
        <time>2018-12-26T09:35:27Z</time>
      </trkpt>
      <trkpt lat="45.35208" lon="6.58849">
        <ele>2010.6</ele>
        <time>2018-12-26T09:35:32Z</time>
      </trkpt>
      <trkpt lat="45.35205" lon="6.58852">
        <ele>2012</ele>
        <time>2018-12-26T09:35:37Z</time>
      </trkpt>
      <trkpt lat="45.35202" lon="6.58856">
        <ele>2013.8</ele>
        <time>2018-12-26T09:35:42Z</time>
      </trkpt>
      <trkpt lat="45.35198" lon="6.58861">
        <ele>2015.4</ele>
        <time>2018-12-26T09:35:47Z</time>
      </trkpt>
      <trkpt lat="45.35194" lon="6.58866">
        <ele>2014.2</ele>
        <time>2018-12-26T09:35:52Z</time>
      </trkpt>
      <trkpt lat="45.35189" lon="6.58871">
        <ele>2010.8</ele>
        <time>2018-12-26T09:35:57Z</time>
      </trkpt>
      <trkpt lat="45.35184" lon="6.58877">
        <ele>2010.6</ele>
        <time>2018-12-26T09:36:02Z</time>
      </trkpt>
      <trkpt lat="45.35179" lon="6.58881">
        <ele>2010.4</ele>
        <time>2018-12-26T09:36:07Z</time>
      </trkpt>
      <trkpt lat="45.35173" lon="6.58886">
        <ele>2013.2</ele>
        <time>2018-12-26T09:36:12Z</time>
      </trkpt>
      <trkpt lat="45.35167" lon="6.5889">
        <ele>2012.2</ele>
        <time>2018-12-26T09:36:17Z</time>
      </trkpt>
      <trkpt lat="45.35161" lon="6.58894">
        <ele>2013.2</ele>
        <time>2018-12-26T09:36:22Z</time>
      </trkpt>
      <trkpt lat="45.35155" lon="6.58896">
        <ele>2014.4</ele>
        <time>2018-12-26T09:36:27Z</time>
      </trkpt>
      <trkpt lat="45.35148" lon="6.58898">
        <ele>2014</ele>
        <time>2018-12-26T09:36:32Z</time>
      </trkpt>
      <trkpt lat="45.35142" lon="6.58899">
        <ele>2014.8</ele>
        <time>2018-12-26T09:36:37Z</time>
      </trkpt>
      <trkpt lat="45.35136" lon="6.58898">
        <ele>2015.8</ele>
        <time>2018-12-26T09:36:42Z</time>
      </trkpt>
      <trkpt lat="45.3513" lon="6.58898">
        <ele>2013</ele>
        <time>2018-12-26T09:36:47Z</time>
      </trkpt>
      <trkpt lat="45.35124" lon="6.58896">
        <ele>2015</ele>
        <time>2018-12-26T09:36:52Z</time>
      </trkpt>
      <trkpt lat="45.35116" lon="6.58894">
        <ele>2013.8</ele>
        <time>2018-12-26T09:36:57Z</time>
      </trkpt>
      <trkpt lat="45.35108" lon="6.58892">
        <ele>2011.2</ele>
        <time>2018-12-26T09:37:02Z</time>
      </trkpt>
      <trkpt lat="45.351" lon="6.58891">
        <ele>2013</ele>
        <time>2018-12-26T09:37:07Z</time>
      </trkpt>
      <trkpt lat="45.35092" lon="6.58891">
        <ele>2012.8</ele>
        <time>2018-12-26T09:37:12Z</time>
      </trkpt>
      <trkpt lat="45.35084" lon="6.58893">
        <ele>2009.2</ele>
        <time>2018-12-26T09:37:17Z</time>
      </trkpt>
      <trkpt lat="45.35074" lon="6.58896">
        <ele>2007</ele>
        <time>2018-12-26T09:37:22Z</time>
      </trkpt>
      <trkpt lat="45.35066" lon="6.58898">
        <ele>2008</ele>
        <time>2018-12-26T09:37:27Z</time>
      </trkpt>
      <trkpt lat="45.35056" lon="6.58897">
        <ele>2004</ele>
        <time>2018-12-26T09:37:32Z</time>
      </trkpt>
      <trkpt lat="45.35046" lon="6.58895">
        <ele>2004.6</ele>
        <time>2018-12-26T09:37:37Z</time>
      </trkpt>
      <trkpt lat="45.3504" lon="6.58893">
        <ele>2005</ele>
        <time>2018-12-26T09:37:42Z</time>
      </trkpt>
      <trkpt lat="45.35036" lon="6.5889">
        <ele>2005.4</ele>
        <time>2018-12-26T09:37:48Z</time>
      </trkpt>
      <trkpt lat="45.35033" lon="6.58888">
        <ele>2006.4</ele>
        <time>2018-12-26T09:37:53Z</time>
      </trkpt>
      <trkpt lat="45.35029" lon="6.58885">
        <ele>2004.6</ele>
        <time>2018-12-26T09:37:58Z</time>
      </trkpt>
      <trkpt lat="45.35026" lon="6.58883">
        <ele>2004.4</ele>
        <time>2018-12-26T09:38:03Z</time>
      </trkpt>
      <trkpt lat="45.35023" lon="6.5888">
        <ele>2007</ele>
        <time>2018-12-26T09:38:08Z</time>
      </trkpt>
      <trkpt lat="45.35019" lon="6.58877">
        <ele>2005.4</ele>
        <time>2018-12-26T09:38:13Z</time>
      </trkpt>
      <trkpt lat="45.35016" lon="6.58874">
        <ele>2007.2</ele>
        <time>2018-12-26T09:38:18Z</time>
      </trkpt>
      <trkpt lat="45.35013" lon="6.58872">
        <ele>2007.4</ele>
        <time>2018-12-26T09:38:23Z</time>
      </trkpt>
      <trkpt lat="45.3501" lon="6.58869">
        <ele>2007.8</ele>
        <time>2018-12-26T09:38:28Z</time>
      </trkpt>
      <trkpt lat="45.35006" lon="6.58867">
        <ele>2008.8</ele>
        <time>2018-12-26T09:38:33Z</time>
      </trkpt>
      <trkpt lat="45.35003" lon="6.58865">
        <ele>2010.4</ele>
        <time>2018-12-26T09:38:38Z</time>
      </trkpt>
      <trkpt lat="45.35" lon="6.58863">
        <ele>2008.6</ele>
        <time>2018-12-26T09:38:43Z</time>
      </trkpt>
      <trkpt lat="45.34997" lon="6.58861">
        <ele>2009</ele>
        <time>2018-12-26T09:38:48Z</time>
      </trkpt>
      <trkpt lat="45.34993" lon="6.58859">
        <ele>2013.8</ele>
        <time>2018-12-26T09:38:53Z</time>
      </trkpt>
      <trkpt lat="45.34989" lon="6.58857">
        <ele>2009.4</ele>
        <time>2018-12-26T09:38:58Z</time>
      </trkpt>
      <trkpt lat="45.34985" lon="6.58855">
        <ele>2011.6</ele>
        <time>2018-12-26T09:39:03Z</time>
      </trkpt>
      <trkpt lat="45.34981" lon="6.58853">
        <ele>2009.4</ele>
        <time>2018-12-26T09:39:08Z</time>
      </trkpt>
      <trkpt lat="45.34977" lon="6.58852">
        <ele>2012.4</ele>
        <time>2018-12-26T09:39:13Z</time>
      </trkpt>
      <trkpt lat="45.34973" lon="6.58851">
        <ele>2013</ele>
        <time>2018-12-26T09:39:18Z</time>
      </trkpt>
      <trkpt lat="45.34969" lon="6.5885">
        <ele>2012.4</ele>
        <time>2018-12-26T09:39:23Z</time>
      </trkpt>
      <trkpt lat="45.34964" lon="6.58849">
        <ele>2010</ele>
        <time>2018-12-26T09:39:28Z</time>
      </trkpt>
      <trkpt lat="45.34961" lon="6.58848">
        <ele>2010.8</ele>
        <time>2018-12-26T09:39:33Z</time>
      </trkpt>
      <trkpt lat="45.34957" lon="6.58848">
        <ele>2013.2</ele>
        <time>2018-12-26T09:39:38Z</time>
      </trkpt>
      <trkpt lat="45.34954" lon="6.58848">
        <ele>2012.6</ele>
        <time>2018-12-26T09:39:43Z</time>
      </trkpt>
      <trkpt lat="45.3495" lon="6.58848">
        <ele>2013.6</ele>
        <time>2018-12-26T09:39:48Z</time>
      </trkpt>
      <trkpt lat="45.34947" lon="6.58848">
        <ele>2017.6</ele>
        <time>2018-12-26T09:39:53Z</time>
      </trkpt>
      <trkpt lat="45.34943" lon="6.58849">
        <ele>2017.4</ele>
        <time>2018-12-26T09:39:58Z</time>
      </trkpt>
      <trkpt lat="45.3494" lon="6.58849">
        <ele>2014.2</ele>
        <time>2018-12-26T09:40:03Z</time>
      </trkpt>
      <trkpt lat="45.34937" lon="6.5885">
        <ele>2016.4</ele>
        <time>2018-12-26T09:40:08Z</time>
      </trkpt>
      <trkpt lat="45.34933" lon="6.5885">
        <ele>2018.8</ele>
        <time>2018-12-26T09:40:13Z</time>
      </trkpt>
      <trkpt lat="45.3493" lon="6.58851">
        <ele>2018</ele>
        <time>2018-12-26T09:40:18Z</time>
      </trkpt>
      <trkpt lat="45.34927" lon="6.58851">
        <ele>2019.2</ele>
        <time>2018-12-26T09:40:23Z</time>
      </trkpt>
      <trkpt lat="45.34923" lon="6.58852">
        <ele>2017.4</ele>
        <time>2018-12-26T09:40:28Z</time>
      </trkpt>
      <trkpt lat="45.3492" lon="6.58853">
        <ele>2020.2</ele>
        <time>2018-12-26T09:40:33Z</time>
      </trkpt>
      <trkpt lat="45.34917" lon="6.58854">
        <ele>2020.2</ele>
        <time>2018-12-26T09:40:38Z</time>
      </trkpt>
      <trkpt lat="45.34913" lon="6.58855">
        <ele>2022</ele>
        <time>2018-12-26T09:40:43Z</time>
      </trkpt>
      <trkpt lat="45.3491" lon="6.58855">
        <ele>2022.6</ele>
        <time>2018-12-26T09:40:48Z</time>
      </trkpt>
      <trkpt lat="45.34907" lon="6.58856">
        <ele>2021.4</ele>
        <time>2018-12-26T09:40:53Z</time>
      </trkpt>
      <trkpt lat="45.34903" lon="6.58856">
        <ele>2024.8</ele>
        <time>2018-12-26T09:40:58Z</time>
      </trkpt>
      <trkpt lat="45.34899" lon="6.58856">
        <ele>2024.6</ele>
        <time>2018-12-26T09:41:03Z</time>
      </trkpt>
      <trkpt lat="45.34896" lon="6.58856">
        <ele>2026.8</ele>
        <time>2018-12-26T09:41:08Z</time>
      </trkpt>
      <trkpt lat="45.34893" lon="6.58856">
        <ele>2025</ele>
        <time>2018-12-26T09:41:13Z</time>
      </trkpt>
      <trkpt lat="45.34889" lon="6.58857">
        <ele>2024.8</ele>
        <time>2018-12-26T09:41:18Z</time>
      </trkpt>
      <trkpt lat="45.34887" lon="6.58858">
        <ele>2023.4</ele>
        <time>2018-12-26T09:41:23Z</time>
      </trkpt>
      <trkpt lat="45.34884" lon="6.58858">
        <ele>2023.4</ele>
        <time>2018-12-26T09:41:28Z</time>
      </trkpt>
      <trkpt lat="45.34881" lon="6.58859">
        <ele>2026.2</ele>
        <time>2018-12-26T09:41:33Z</time>
      </trkpt>
      <trkpt lat="45.34878" lon="6.58861">
        <ele>2028.8</ele>
        <time>2018-12-26T09:41:38Z</time>
      </trkpt>
      <trkpt lat="45.34876" lon="6.58863">
        <ele>2026</ele>
        <time>2018-12-26T09:41:43Z</time>
      </trkpt>
      <trkpt lat="45.34873" lon="6.58864">
        <ele>2029</ele>
        <time>2018-12-26T09:41:48Z</time>
      </trkpt>
      <trkpt lat="45.3487" lon="6.58865">
        <ele>2030.6</ele>
        <time>2018-12-26T09:41:53Z</time>
      </trkpt>
      <trkpt lat="45.34867" lon="6.58867">
        <ele>2031.4</ele>
        <time>2018-12-26T09:41:58Z</time>
      </trkpt>
      <trkpt lat="45.34865" lon="6.58868">
        <ele>2030.8</ele>
        <time>2018-12-26T09:42:03Z</time>
      </trkpt>
      <trkpt lat="45.34862" lon="6.5887">
        <ele>2032.4</ele>
        <time>2018-12-26T09:42:08Z</time>
      </trkpt>
      <trkpt lat="45.34858" lon="6.58871">
        <ele>2033.4</ele>
        <time>2018-12-26T09:42:13Z</time>
      </trkpt>
      <trkpt lat="45.34855" lon="6.58873">
        <ele>2034.2</ele>
        <time>2018-12-26T09:42:18Z</time>
      </trkpt>
      <trkpt lat="45.34851" lon="6.58875">
        <ele>2033</ele>
        <time>2018-12-26T09:42:23Z</time>
      </trkpt>
      <trkpt lat="45.34848" lon="6.58877">
        <ele>2035.4</ele>
        <time>2018-12-26T09:42:28Z</time>
      </trkpt>
      <trkpt lat="45.34844" lon="6.58879">
        <ele>2035.4</ele>
        <time>2018-12-26T09:42:33Z</time>
      </trkpt>
      <trkpt lat="45.3484" lon="6.5888">
        <ele>2034</ele>
        <time>2018-12-26T09:42:38Z</time>
      </trkpt>
      <trkpt lat="45.34837" lon="6.58882">
        <ele>2033.8</ele>
        <time>2018-12-26T09:42:43Z</time>
      </trkpt>
      <trkpt lat="45.34833" lon="6.58884">
        <ele>2035.2</ele>
        <time>2018-12-26T09:42:48Z</time>
      </trkpt>
      <trkpt lat="45.34829" lon="6.58886">
        <ele>2034.8</ele>
        <time>2018-12-26T09:42:53Z</time>
      </trkpt>
      <trkpt lat="45.34826" lon="6.58887">
        <ele>2036.8</ele>
        <time>2018-12-26T09:42:58Z</time>
      </trkpt>
      <trkpt lat="45.34822" lon="6.58889">
        <ele>2037</ele>
        <time>2018-12-26T09:43:03Z</time>
      </trkpt>
      <trkpt lat="45.34818" lon="6.5889">
        <ele>2038</ele>
        <time>2018-12-26T09:43:08Z</time>
      </trkpt>
      <trkpt lat="45.34815" lon="6.58892">
        <ele>2036.6</ele>
        <time>2018-12-26T09:43:13Z</time>
      </trkpt>
      <trkpt lat="45.34811" lon="6.58893">
        <ele>2040.2</ele>
        <time>2018-12-26T09:43:18Z</time>
      </trkpt>
      <trkpt lat="45.34807" lon="6.58894">
        <ele>2039.2</ele>
        <time>2018-12-26T09:43:23Z</time>
      </trkpt>
      <trkpt lat="45.34804" lon="6.58894">
        <ele>2041.4</ele>
        <time>2018-12-26T09:43:28Z</time>
      </trkpt>
      <trkpt lat="45.348" lon="6.58894">
        <ele>2040.2</ele>
        <time>2018-12-26T09:43:33Z</time>
      </trkpt>
      <trkpt lat="45.34797" lon="6.58895">
        <ele>2041.2</ele>
        <time>2018-12-26T09:43:38Z</time>
      </trkpt>
      <trkpt lat="45.34793" lon="6.58895">
        <ele>2042.8</ele>
        <time>2018-12-26T09:43:43Z</time>
      </trkpt>
      <trkpt lat="45.3479" lon="6.58896">
        <ele>2041.8</ele>
        <time>2018-12-26T09:43:48Z</time>
      </trkpt>
      <trkpt lat="45.34786" lon="6.58896">
        <ele>2043.8</ele>
        <time>2018-12-26T09:43:53Z</time>
      </trkpt>
      <trkpt lat="45.34782" lon="6.58897">
        <ele>2043.2</ele>
        <time>2018-12-26T09:43:58Z</time>
      </trkpt>
      <trkpt lat="45.34779" lon="6.58898">
        <ele>2046</ele>
        <time>2018-12-26T09:44:03Z</time>
      </trkpt>
      <trkpt lat="45.34776" lon="6.58899">
        <ele>2042.8</ele>
        <time>2018-12-26T09:44:08Z</time>
      </trkpt>
      <trkpt lat="45.34773" lon="6.589">
        <ele>2045.6</ele>
        <time>2018-12-26T09:44:13Z</time>
      </trkpt>
      <trkpt lat="45.3477" lon="6.58902">
        <ele>2049.6</ele>
        <time>2018-12-26T09:44:18Z</time>
      </trkpt>
      <trkpt lat="45.34767" lon="6.58903">
        <ele>2049</ele>
        <time>2018-12-26T09:44:23Z</time>
      </trkpt>
      <trkpt lat="45.34764" lon="6.58905">
        <ele>2047.4</ele>
        <time>2018-12-26T09:44:28Z</time>
      </trkpt>
      <trkpt lat="45.34761" lon="6.58906">
        <ele>2047.4</ele>
        <time>2018-12-26T09:44:33Z</time>
      </trkpt>
      <trkpt lat="45.34758" lon="6.58907">
        <ele>2049.2</ele>
        <time>2018-12-26T09:44:38Z</time>
      </trkpt>
      <trkpt lat="45.34755" lon="6.58909">
        <ele>2050.4</ele>
        <time>2018-12-26T09:44:43Z</time>
      </trkpt>
      <trkpt lat="45.34753" lon="6.5891">
        <ele>2051.2</ele>
        <time>2018-12-26T09:44:48Z</time>
      </trkpt>
      <trkpt lat="45.34749" lon="6.58911">
        <ele>2049.2</ele>
        <time>2018-12-26T09:44:53Z</time>
      </trkpt>
      <trkpt lat="45.34746" lon="6.58912">
        <ele>2051.8</ele>
        <time>2018-12-26T09:44:58Z</time>
      </trkpt>
      <trkpt lat="45.34743" lon="6.58913">
        <ele>2050.4</ele>
        <time>2018-12-26T09:45:03Z</time>
      </trkpt>
      <trkpt lat="45.3474" lon="6.58913">
        <ele>2052</ele>
        <time>2018-12-26T09:45:08Z</time>
      </trkpt>
      <trkpt lat="45.34737" lon="6.58914">
        <ele>2051</ele>
        <time>2018-12-26T09:45:13Z</time>
      </trkpt>
      <trkpt lat="45.34734" lon="6.58915">
        <ele>2052.4</ele>
        <time>2018-12-26T09:45:18Z</time>
      </trkpt>
      <trkpt lat="45.34732" lon="6.58915">
        <ele>2054.6</ele>
        <time>2018-12-26T09:45:23Z</time>
      </trkpt>
      <trkpt lat="45.34729" lon="6.58916">
        <ele>2054</ele>
        <time>2018-12-26T09:45:28Z</time>
      </trkpt>
      <trkpt lat="45.34726" lon="6.58917">
        <ele>2054</ele>
        <time>2018-12-26T09:45:33Z</time>
      </trkpt>
      <trkpt lat="45.34723" lon="6.58917">
        <ele>2054.6</ele>
        <time>2018-12-26T09:45:38Z</time>
      </trkpt>
      <trkpt lat="45.3472" lon="6.58918">
        <ele>2054.4</ele>
        <time>2018-12-26T09:45:43Z</time>
      </trkpt>
      <trkpt lat="45.34717" lon="6.58918">
        <ele>2056.8</ele>
        <time>2018-12-26T09:45:48Z</time>
      </trkpt>
      <trkpt lat="45.34713" lon="6.58918">
        <ele>2057</ele>
        <time>2018-12-26T09:45:53Z</time>
      </trkpt>
      <trkpt lat="45.34709" lon="6.58918">
        <ele>2056</ele>
        <time>2018-12-26T09:45:58Z</time>
      </trkpt>
      <trkpt lat="45.34705" lon="6.58918">
        <ele>2057.4</ele>
        <time>2018-12-26T09:46:03Z</time>
      </trkpt>
      <trkpt lat="45.34702" lon="6.58918">
        <ele>2056</ele>
        <time>2018-12-26T09:46:08Z</time>
      </trkpt>
      <trkpt lat="45.34698" lon="6.58918">
        <ele>2058.4</ele>
        <time>2018-12-26T09:46:13Z</time>
      </trkpt>
      <trkpt lat="45.34694" lon="6.58918">
        <ele>2056.6</ele>
        <time>2018-12-26T09:46:18Z</time>
      </trkpt>
      <trkpt lat="45.3469" lon="6.58919">
        <ele>2059.6</ele>
        <time>2018-12-26T09:46:23Z</time>
      </trkpt>
      <trkpt lat="45.34686" lon="6.58919">
        <ele>2059.6</ele>
        <time>2018-12-26T09:46:28Z</time>
      </trkpt>
      <trkpt lat="45.34682" lon="6.5892">
        <ele>2060.6</ele>
        <time>2018-12-26T09:46:33Z</time>
      </trkpt>
      <trkpt lat="45.34678" lon="6.58921">
        <ele>2058</ele>
        <time>2018-12-26T09:46:38Z</time>
      </trkpt>
      <trkpt lat="45.34674" lon="6.58922">
        <ele>2062.2</ele>
        <time>2018-12-26T09:46:43Z</time>
      </trkpt>
      <trkpt lat="45.34671" lon="6.58923">
        <ele>2063.4</ele>
        <time>2018-12-26T09:46:48Z</time>
      </trkpt>
      <trkpt lat="45.34667" lon="6.58923">
        <ele>2061.2</ele>
        <time>2018-12-26T09:46:53Z</time>
      </trkpt>
      <trkpt lat="45.34663" lon="6.58924">
        <ele>2063.8</ele>
        <time>2018-12-26T09:46:58Z</time>
      </trkpt>
      <trkpt lat="45.34659" lon="6.58925">
        <ele>2063.2</ele>
        <time>2018-12-26T09:47:03Z</time>
      </trkpt>
      <trkpt lat="45.34655" lon="6.58925">
        <ele>2065</ele>
        <time>2018-12-26T09:47:08Z</time>
      </trkpt>
      <trkpt lat="45.34652" lon="6.58925">
        <ele>2065.6</ele>
        <time>2018-12-26T09:47:13Z</time>
      </trkpt>
      <trkpt lat="45.34649" lon="6.58926">
        <ele>2062.4</ele>
        <time>2018-12-26T09:47:18Z</time>
      </trkpt>
      <trkpt lat="45.34646" lon="6.58925">
        <ele>2067.8</ele>
        <time>2018-12-26T09:47:23Z</time>
      </trkpt>
      <trkpt lat="45.34643" lon="6.58925">
        <ele>2064.4</ele>
        <time>2018-12-26T09:47:28Z</time>
      </trkpt>
      <trkpt lat="45.3464" lon="6.58924">
        <ele>2066.2</ele>
        <time>2018-12-26T09:47:33Z</time>
      </trkpt>
      <trkpt lat="45.34638" lon="6.58923">
        <ele>2065.6</ele>
        <time>2018-12-26T09:47:38Z</time>
      </trkpt>
      <trkpt lat="45.34635" lon="6.58922">
        <ele>2070</ele>
        <time>2018-12-26T09:47:43Z</time>
      </trkpt>
      <trkpt lat="45.34633" lon="6.58922">
        <ele>2068.6</ele>
        <time>2018-12-26T09:47:48Z</time>
      </trkpt>
      <trkpt lat="45.34631" lon="6.58921">
        <ele>2068.8</ele>
        <time>2018-12-26T09:47:53Z</time>
      </trkpt>
      <trkpt lat="45.34628" lon="6.58919">
        <ele>2067.6</ele>
        <time>2018-12-26T09:47:58Z</time>
      </trkpt>
      <trkpt lat="45.34625" lon="6.58918">
        <ele>2072</ele>
        <time>2018-12-26T09:48:03Z</time>
      </trkpt>
      <trkpt lat="45.34623" lon="6.58917">
        <ele>2068.4</ele>
        <time>2018-12-26T09:48:08Z</time>
      </trkpt>
      <trkpt lat="45.3462" lon="6.58915">
        <ele>2074.2</ele>
        <time>2018-12-26T09:48:13Z</time>
      </trkpt>
      <trkpt lat="45.34617" lon="6.58914">
        <ele>2074.2</ele>
        <time>2018-12-26T09:48:18Z</time>
      </trkpt>
      <trkpt lat="45.34614" lon="6.58912">
        <ele>2073.2</ele>
        <time>2018-12-26T09:48:23Z</time>
      </trkpt>
      <trkpt lat="45.34611" lon="6.5891">
        <ele>2072.2</ele>
        <time>2018-12-26T09:48:28Z</time>
      </trkpt>
      <trkpt lat="45.34609" lon="6.58909">
        <ele>2074.8</ele>
        <time>2018-12-26T09:48:33Z</time>
      </trkpt>
      <trkpt lat="45.34606" lon="6.58907">
        <ele>2073.8</ele>
        <time>2018-12-26T09:48:38Z</time>
      </trkpt>
      <trkpt lat="45.34603" lon="6.58905">
        <ele>2074.6</ele>
        <time>2018-12-26T09:48:43Z</time>
      </trkpt>
      <trkpt lat="45.346" lon="6.58903">
        <ele>2074.6</ele>
        <time>2018-12-26T09:48:48Z</time>
      </trkpt>
      <trkpt lat="45.34597" lon="6.58902">
        <ele>2075</ele>
        <time>2018-12-26T09:48:53Z</time>
      </trkpt>
      <trkpt lat="45.34595" lon="6.589">
        <ele>2076.2</ele>
        <time>2018-12-26T09:48:58Z</time>
      </trkpt>
      <trkpt lat="45.34592" lon="6.58898">
        <ele>2075.4</ele>
        <time>2018-12-26T09:49:03Z</time>
      </trkpt>
      <trkpt lat="45.34589" lon="6.58896">
        <ele>2076.6</ele>
        <time>2018-12-26T09:49:08Z</time>
      </trkpt>
      <trkpt lat="45.34586" lon="6.58895">
        <ele>2076</ele>
        <time>2018-12-26T09:49:13Z</time>
      </trkpt>
      <trkpt lat="45.34583" lon="6.58893">
        <ele>2079.2</ele>
        <time>2018-12-26T09:49:18Z</time>
      </trkpt>
      <trkpt lat="45.3458" lon="6.58891">
        <ele>2079</ele>
        <time>2018-12-26T09:49:23Z</time>
      </trkpt>
      <trkpt lat="45.34577" lon="6.58889">
        <ele>2078.6</ele>
        <time>2018-12-26T09:49:28Z</time>
      </trkpt>
      <trkpt lat="45.34575" lon="6.58888">
        <ele>2080.4</ele>
        <time>2018-12-26T09:49:33Z</time>
      </trkpt>
      <trkpt lat="45.34572" lon="6.58887">
        <ele>2078.2</ele>
        <time>2018-12-26T09:49:38Z</time>
      </trkpt>
      <trkpt lat="45.3457" lon="6.58886">
        <ele>2078.6</ele>
        <time>2018-12-26T09:49:43Z</time>
      </trkpt>
      <trkpt lat="45.34567" lon="6.58885">
        <ele>2082.6</ele>
        <time>2018-12-26T09:49:48Z</time>
      </trkpt>
      <trkpt lat="45.34564" lon="6.58883">
        <ele>2081</ele>
        <time>2018-12-26T09:49:53Z</time>
      </trkpt>
      <trkpt lat="45.34562" lon="6.58882">
        <ele>2081.2</ele>
        <time>2018-12-26T09:49:58Z</time>
      </trkpt>
      <trkpt lat="45.34559" lon="6.5888">
        <ele>2081.2</ele>
        <time>2018-12-26T09:50:03Z</time>
      </trkpt>
      <trkpt lat="45.34557" lon="6.58879">
        <ele>2083.8</ele>
        <time>2018-12-26T09:50:08Z</time>
      </trkpt>
      <trkpt lat="45.34554" lon="6.58877">
        <ele>2082.6</ele>
        <time>2018-12-26T09:50:13Z</time>
      </trkpt>
      <trkpt lat="45.34551" lon="6.58876">
        <ele>2084.6</ele>
        <time>2018-12-26T09:50:18Z</time>
      </trkpt>
      <trkpt lat="45.34548" lon="6.58875">
        <ele>2085</ele>
        <time>2018-12-26T09:50:23Z</time>
      </trkpt>
      <trkpt lat="45.34546" lon="6.58874">
        <ele>2087</ele>
        <time>2018-12-26T09:50:28Z</time>
      </trkpt>
      <trkpt lat="45.34543" lon="6.58873">
        <ele>2087.8</ele>
        <time>2018-12-26T09:50:33Z</time>
      </trkpt>
      <trkpt lat="45.34541" lon="6.58872">
        <ele>2088</ele>
        <time>2018-12-26T09:50:38Z</time>
      </trkpt>
      <trkpt lat="45.34538" lon="6.58871">
        <ele>2088.6</ele>
        <time>2018-12-26T09:50:43Z</time>
      </trkpt>
      <trkpt lat="45.34536" lon="6.5887">
        <ele>2087.2</ele>
        <time>2018-12-26T09:50:48Z</time>
      </trkpt>
      <trkpt lat="45.34532" lon="6.58869">
        <ele>2085.4</ele>
        <time>2018-12-26T09:50:53Z</time>
      </trkpt>
      <trkpt lat="45.3453" lon="6.58867">
        <ele>2091</ele>
        <time>2018-12-26T09:50:58Z</time>
      </trkpt>
      <trkpt lat="45.34527" lon="6.58866">
        <ele>2091.4</ele>
        <time>2018-12-26T09:51:03Z</time>
      </trkpt>
      <trkpt lat="45.34524" lon="6.58865">
        <ele>2090.4</ele>
        <time>2018-12-26T09:51:08Z</time>
      </trkpt>
      <trkpt lat="45.34521" lon="6.58864">
        <ele>2091.4</ele>
        <time>2018-12-26T09:51:13Z</time>
      </trkpt>
      <trkpt lat="45.34518" lon="6.58862">
        <ele>2089.4</ele>
        <time>2018-12-26T09:51:18Z</time>
      </trkpt>
      <trkpt lat="45.34515" lon="6.5886">
        <ele>2088.4</ele>
        <time>2018-12-26T09:51:23Z</time>
      </trkpt>
      <trkpt lat="45.34511" lon="6.58858">
        <ele>2092</ele>
        <time>2018-12-26T09:51:28Z</time>
      </trkpt>
      <trkpt lat="45.34508" lon="6.58856">
        <ele>2093</ele>
        <time>2018-12-26T09:51:33Z</time>
      </trkpt>
      <trkpt lat="45.34505" lon="6.58852">
        <ele>2092.6</ele>
        <time>2018-12-26T09:51:38Z</time>
      </trkpt>
      <trkpt lat="45.34502" lon="6.58849">
        <ele>2095.8</ele>
        <time>2018-12-26T09:51:43Z</time>
      </trkpt>
      <trkpt lat="45.34499" lon="6.58845">
        <ele>2094</ele>
        <time>2018-12-26T09:51:48Z</time>
      </trkpt>
      <trkpt lat="45.34497" lon="6.58841">
        <ele>2095.8</ele>
        <time>2018-12-26T09:51:53Z</time>
      </trkpt>
      <trkpt lat="45.34495" lon="6.58836">
        <ele>2097.8</ele>
        <time>2018-12-26T09:51:58Z</time>
      </trkpt>
      <trkpt lat="45.34492" lon="6.5883">
        <ele>2097.6</ele>
        <time>2018-12-26T09:52:03Z</time>
      </trkpt>
      <trkpt lat="45.3449" lon="6.58824">
        <ele>2095</ele>
        <time>2018-12-26T09:52:08Z</time>
      </trkpt>
      <trkpt lat="45.34487" lon="6.58819">
        <ele>2096.8</ele>
        <time>2018-12-26T09:52:13Z</time>
      </trkpt>
      <trkpt lat="45.34482" lon="6.58815">
        <ele>2096.6</ele>
        <time>2018-12-26T09:52:18Z</time>
      </trkpt>
      <trkpt lat="45.34479" lon="6.58812">
        <ele>2097.6</ele>
        <time>2018-12-26T09:52:23Z</time>
      </trkpt>
      <trkpt lat="45.34475" lon="6.58809">
        <ele>2098.2</ele>
        <time>2018-12-26T09:52:28Z</time>
      </trkpt>
      <trkpt lat="45.34472" lon="6.58807">
        <ele>2097.8</ele>
        <time>2018-12-26T09:52:33Z</time>
      </trkpt>
      <trkpt lat="45.34469" lon="6.58804">
        <ele>2098.4</ele>
        <time>2018-12-26T09:52:38Z</time>
      </trkpt>
      <trkpt lat="45.34466" lon="6.58801">
        <ele>2099.2</ele>
        <time>2018-12-26T09:52:43Z</time>
      </trkpt>
      <trkpt lat="45.34462" lon="6.58798">
        <ele>2099.4</ele>
        <time>2018-12-26T09:52:48Z</time>
      </trkpt>
      <trkpt lat="45.34458" lon="6.58796">
        <ele>2101.8</ele>
        <time>2018-12-26T09:52:53Z</time>
      </trkpt>
      <trkpt lat="45.34455" lon="6.58793">
        <ele>2097.4</ele>
        <time>2018-12-26T09:52:58Z</time>
      </trkpt>
      <trkpt lat="45.3445" lon="6.5879">
        <ele>2101.8</ele>
        <time>2018-12-26T09:53:03Z</time>
      </trkpt>
      <trkpt lat="45.34446" lon="6.58787">
        <ele>2100.4</ele>
        <time>2018-12-26T09:53:08Z</time>
      </trkpt>
      <trkpt lat="45.34442" lon="6.58784">
        <ele>2099.2</ele>
        <time>2018-12-26T09:53:13Z</time>
      </trkpt>
      <trkpt lat="45.34438" lon="6.58782">
        <ele>2099.4</ele>
        <time>2018-12-26T09:53:18Z</time>
      </trkpt>
      <trkpt lat="45.34434" lon="6.58779">
        <ele>2099.8</ele>
        <time>2018-12-26T09:53:23Z</time>
      </trkpt>
      <trkpt lat="45.3443" lon="6.58776">
        <ele>2101.6</ele>
        <time>2018-12-26T09:53:28Z</time>
      </trkpt>
      <trkpt lat="45.34426" lon="6.58772">
        <ele>2099.6</ele>
        <time>2018-12-26T09:53:33Z</time>
      </trkpt>
      <trkpt lat="45.34421" lon="6.58769">
        <ele>2101.2</ele>
        <time>2018-12-26T09:53:38Z</time>
      </trkpt>
      <trkpt lat="45.34417" lon="6.58766">
        <ele>2099.8</ele>
        <time>2018-12-26T09:53:43Z</time>
      </trkpt>
      <trkpt lat="45.34414" lon="6.58764">
        <ele>2101</ele>
        <time>2018-12-26T09:53:48Z</time>
      </trkpt>
      <trkpt lat="45.3441" lon="6.58762">
        <ele>2103.8</ele>
        <time>2018-12-26T09:53:53Z</time>
      </trkpt>
      <trkpt lat="45.34406" lon="6.5876">
        <ele>2101.4</ele>
        <time>2018-12-26T09:53:58Z</time>
      </trkpt>
      <trkpt lat="45.34403" lon="6.58757">
        <ele>2100</ele>
        <time>2018-12-26T09:54:03Z</time>
      </trkpt>
      <trkpt lat="45.34399" lon="6.58754">
        <ele>2103.2</ele>
        <time>2018-12-26T09:54:08Z</time>
      </trkpt>
      <trkpt lat="45.34396" lon="6.58752">
        <ele>2103</ele>
        <time>2018-12-26T09:54:13Z</time>
      </trkpt>
      <trkpt lat="45.34392" lon="6.5875">
        <ele>2106.8</ele>
        <time>2018-12-26T09:54:18Z</time>
      </trkpt>
      <trkpt lat="45.34389" lon="6.58748">
        <ele>2102.2</ele>
        <time>2018-12-26T09:54:23Z</time>
      </trkpt>
      <trkpt lat="45.34385" lon="6.58745">
        <ele>2103.2</ele>
        <time>2018-12-26T09:54:28Z</time>
      </trkpt>
      <trkpt lat="45.34381" lon="6.58743">
        <ele>2104.4</ele>
        <time>2018-12-26T09:54:33Z</time>
      </trkpt>
      <trkpt lat="45.34377" lon="6.58741">
        <ele>2101.2</ele>
        <time>2018-12-26T09:54:38Z</time>
      </trkpt>
      <trkpt lat="45.34373" lon="6.58739">
        <ele>2104.6</ele>
        <time>2018-12-26T09:54:43Z</time>
      </trkpt>
      <trkpt lat="45.3437" lon="6.58737">
        <ele>2103.4</ele>
        <time>2018-12-26T09:54:48Z</time>
      </trkpt>
      <trkpt lat="45.34366" lon="6.58736">
        <ele>2106</ele>
        <time>2018-12-26T09:54:53Z</time>
      </trkpt>
      <trkpt lat="45.34362" lon="6.58734">
        <ele>2106</ele>
        <time>2018-12-26T09:54:58Z</time>
      </trkpt>
      <trkpt lat="45.34359" lon="6.5873">
        <ele>2104.2</ele>
        <time>2018-12-26T09:55:03Z</time>
      </trkpt>
      <trkpt lat="45.34356" lon="6.58726">
        <ele>2107</ele>
        <time>2018-12-26T09:55:08Z</time>
      </trkpt>
      <trkpt lat="45.34352" lon="6.58723">
        <ele>2108.6</ele>
        <time>2018-12-26T09:55:13Z</time>
      </trkpt>
      <trkpt lat="45.34349" lon="6.58721">
        <ele>2106.8</ele>
        <time>2018-12-26T09:55:18Z</time>
      </trkpt>
      <trkpt lat="45.34347" lon="6.58719">
        <ele>2108.2</ele>
        <time>2018-12-26T09:55:23Z</time>
      </trkpt>
      <trkpt lat="45.34344" lon="6.58717">
        <ele>2107.4</ele>
        <time>2018-12-26T09:55:28Z</time>
      </trkpt>
      <trkpt lat="45.34342" lon="6.58715">
        <ele>2108</ele>
        <time>2018-12-26T09:55:33Z</time>
      </trkpt>
      <trkpt lat="45.3434" lon="6.58713">
        <ele>2110</ele>
        <time>2018-12-26T09:55:38Z</time>
      </trkpt>
      <trkpt lat="45.34338" lon="6.58711">
        <ele>2110</ele>
        <time>2018-12-26T09:55:43Z</time>
      </trkpt>
      <trkpt lat="45.34336" lon="6.58709">
        <ele>2113.2</ele>
        <time>2018-12-26T09:55:48Z</time>
      </trkpt>
      <trkpt lat="45.34335" lon="6.58706">
        <ele>2110.4</ele>
        <time>2018-12-26T09:55:53Z</time>
      </trkpt>
      <trkpt lat="45.34332" lon="6.58704">
        <ele>2111.6</ele>
        <time>2018-12-26T09:55:58Z</time>
      </trkpt>
      <trkpt lat="45.3433" lon="6.58702">
        <ele>2109.6</ele>
        <time>2018-12-26T09:56:03Z</time>
      </trkpt>
      <trkpt lat="45.34329" lon="6.58699">
        <ele>2111</ele>
        <time>2018-12-26T09:56:08Z</time>
      </trkpt>
      <trkpt lat="45.34328" lon="6.58695">
        <ele>2115.6</ele>
        <time>2018-12-26T09:56:13Z</time>
      </trkpt>
      <trkpt lat="45.34329" lon="6.58693">
        <ele>2117.2</ele>
        <time>2018-12-26T09:56:18Z</time>
      </trkpt>
      <trkpt lat="45.34328" lon="6.58689">
        <ele>2113</ele>
        <time>2018-12-26T09:56:23Z</time>
      </trkpt>
      <trkpt lat="45.34328" lon="6.58687">
        <ele>2114</ele>
        <time>2018-12-26T09:56:28Z</time>
      </trkpt>
      <trkpt lat="45.34327" lon="6.58684">
        <ele>2110.6</ele>
        <time>2018-12-26T09:56:33Z</time>
      </trkpt>
      <trkpt lat="45.34324" lon="6.58683">
        <ele>2111.4</ele>
        <time>2018-12-26T09:56:38Z</time>
      </trkpt>
      <trkpt lat="45.34321" lon="6.58682">
        <ele>2118.2</ele>
        <time>2018-12-26T09:56:43Z</time>
      </trkpt>
      <trkpt lat="45.34319" lon="6.58682">
        <ele>2115.8</ele>
        <time>2018-12-26T09:56:48Z</time>
      </trkpt>
      <trkpt lat="45.34316" lon="6.58683">
        <ele>2117</ele>
        <time>2018-12-26T09:56:53Z</time>
      </trkpt>
      <trkpt lat="45.34313" lon="6.58685">
        <ele>2119</ele>
        <time>2018-12-26T09:56:58Z</time>
      </trkpt>
      <trkpt lat="45.34311" lon="6.58687">
        <ele>2118</ele>
        <time>2018-12-26T09:57:03Z</time>
      </trkpt>
      <trkpt lat="45.34308" lon="6.58689">
        <ele>2122.2</ele>
        <time>2018-12-26T09:57:08Z</time>
      </trkpt>
      <trkpt lat="45.34305" lon="6.5869">
        <ele>2117.4</ele>
        <time>2018-12-26T09:57:13Z</time>
      </trkpt>
      <trkpt lat="45.34302" lon="6.58691">
        <ele>2118.8</ele>
        <time>2018-12-26T09:57:18Z</time>
      </trkpt>
      <trkpt lat="45.34299" lon="6.58691">
        <ele>2118.4</ele>
        <time>2018-12-26T09:57:23Z</time>
      </trkpt>
      <trkpt lat="45.34296" lon="6.58691">
        <ele>2121</ele>
        <time>2018-12-26T09:57:28Z</time>
      </trkpt>
      <trkpt lat="45.34294" lon="6.5869">
        <ele>2122.8</ele>
        <time>2018-12-26T09:57:33Z</time>
      </trkpt>
      <trkpt lat="45.34291" lon="6.5869">
        <ele>2120.2</ele>
        <time>2018-12-26T09:57:38Z</time>
      </trkpt>
      <trkpt lat="45.34289" lon="6.58689">
        <ele>2121.6</ele>
        <time>2018-12-26T09:57:43Z</time>
      </trkpt>
      <trkpt lat="45.34285" lon="6.58688">
        <ele>2121.8</ele>
        <time>2018-12-26T09:57:48Z</time>
      </trkpt>
      <trkpt lat="45.34283" lon="6.58688">
        <ele>2124</ele>
        <time>2018-12-26T09:57:53Z</time>
      </trkpt>
      <trkpt lat="45.3428" lon="6.58688">
        <ele>2124</ele>
        <time>2018-12-26T09:57:58Z</time>
      </trkpt>
      <trkpt lat="45.34278" lon="6.58688">
        <ele>2128</ele>
        <time>2018-12-26T09:58:03Z</time>
      </trkpt>
      <trkpt lat="45.34275" lon="6.58688">
        <ele>2126.4</ele>
        <time>2018-12-26T09:58:08Z</time>
      </trkpt>
      <trkpt lat="45.34272" lon="6.58688">
        <ele>2128.6</ele>
        <time>2018-12-26T09:58:13Z</time>
      </trkpt>
      <trkpt lat="45.3427" lon="6.58687">
        <ele>2125</ele>
        <time>2018-12-26T09:58:18Z</time>
      </trkpt>
      <trkpt lat="45.34268" lon="6.58687">
        <ele>2129.8</ele>
        <time>2018-12-26T09:58:23Z</time>
      </trkpt>
      <trkpt lat="45.34265" lon="6.58687">
        <ele>2128.8</ele>
        <time>2018-12-26T09:58:28Z</time>
      </trkpt>
      <trkpt lat="45.34262" lon="6.58688">
        <ele>2130</ele>
        <time>2018-12-26T09:58:33Z</time>
      </trkpt>
      <trkpt lat="45.34259" lon="6.58689">
        <ele>2129.2</ele>
        <time>2018-12-26T09:58:38Z</time>
      </trkpt>
      <trkpt lat="45.34256" lon="6.58689">
        <ele>2128.4</ele>
        <time>2018-12-26T09:58:43Z</time>
      </trkpt>
      <trkpt lat="45.34253" lon="6.5869">
        <ele>2132.8</ele>
        <time>2018-12-26T09:58:48Z</time>
      </trkpt>
      <trkpt lat="45.3425" lon="6.5869">
        <ele>2130.4</ele>
        <time>2018-12-26T09:58:53Z</time>
      </trkpt>
      <trkpt lat="45.34247" lon="6.5869">
        <ele>2131.4</ele>
        <time>2018-12-26T09:58:58Z</time>
      </trkpt>
      <trkpt lat="45.34245" lon="6.5869">
        <ele>2130.4</ele>
        <time>2018-12-26T09:59:03Z</time>
      </trkpt>
      <trkpt lat="45.34241" lon="6.5869">
        <ele>2133</ele>
        <time>2018-12-26T09:59:08Z</time>
      </trkpt>
      <trkpt lat="45.34238" lon="6.58689">
        <ele>2133.8</ele>
        <time>2018-12-26T09:59:13Z</time>
      </trkpt>
      <trkpt lat="45.34235" lon="6.58689">
        <ele>2135</ele>
        <time>2018-12-26T09:59:18Z</time>
      </trkpt>
      <trkpt lat="45.34232" lon="6.58689">
        <ele>2133.8</ele>
        <time>2018-12-26T09:59:23Z</time>
      </trkpt>
      <trkpt lat="45.34229" lon="6.58688">
        <ele>2133.4</ele>
        <time>2018-12-26T09:59:28Z</time>
      </trkpt>
      <trkpt lat="45.34226" lon="6.58688">
        <ele>2133.6</ele>
        <time>2018-12-26T09:59:33Z</time>
      </trkpt>
      <trkpt lat="45.34222" lon="6.58689">
        <ele>2136.8</ele>
        <time>2018-12-26T09:59:38Z</time>
      </trkpt>
      <trkpt lat="45.3422" lon="6.58689">
        <ele>2138.6</ele>
        <time>2018-12-26T09:59:43Z</time>
      </trkpt>
      <trkpt lat="45.34218" lon="6.58688">
        <ele>2142.6</ele>
        <time>2018-12-26T09:59:48Z</time>
      </trkpt>
      <trkpt lat="45.34215" lon="6.58687">
        <ele>2141.4</ele>
        <time>2018-12-26T09:59:53Z</time>
      </trkpt>
      <trkpt lat="45.34213" lon="6.58687">
        <ele>2141.6</ele>
        <time>2018-12-26T09:59:58Z</time>
      </trkpt>
      <trkpt lat="45.34211" lon="6.58686">
        <ele>2138.2</ele>
        <time>2018-12-26T10:00:03Z</time>
      </trkpt>
      <trkpt lat="45.34208" lon="6.58686">
        <ele>2138.8</ele>
        <time>2018-12-26T10:00:08Z</time>
      </trkpt>
      <trkpt lat="45.34205" lon="6.58685">
        <ele>2140.8</ele>
        <time>2018-12-26T10:00:13Z</time>
      </trkpt>
      <trkpt lat="45.34203" lon="6.58684">
        <ele>2140.4</ele>
        <time>2018-12-26T10:00:18Z</time>
      </trkpt>
      <trkpt lat="45.342" lon="6.58684">
        <ele>2142.2</ele>
        <time>2018-12-26T10:00:23Z</time>
      </trkpt>
      <trkpt lat="45.34197" lon="6.58683">
        <ele>2141</ele>
        <time>2018-12-26T10:00:28Z</time>
      </trkpt>
      <trkpt lat="45.34194" lon="6.58682">
        <ele>2141.4</ele>
        <time>2018-12-26T10:00:33Z</time>
      </trkpt>
      <trkpt lat="45.34191" lon="6.58681">
        <ele>2140.6</ele>
        <time>2018-12-26T10:00:38Z</time>
      </trkpt>
      <trkpt lat="45.34188" lon="6.58681">
        <ele>2141.2</ele>
        <time>2018-12-26T10:00:43Z</time>
      </trkpt>
      <trkpt lat="45.34185" lon="6.58679">
        <ele>2144.2</ele>
        <time>2018-12-26T10:00:49Z</time>
      </trkpt>
      <trkpt lat="45.34182" lon="6.58679">
        <ele>2144.8</ele>
        <time>2018-12-26T10:00:54Z</time>
      </trkpt>
      <trkpt lat="45.34179" lon="6.58678">
        <ele>2144.6</ele>
        <time>2018-12-26T10:00:59Z</time>
      </trkpt>
      <trkpt lat="45.34176" lon="6.58678">
        <ele>2145</ele>
        <time>2018-12-26T10:01:04Z</time>
      </trkpt>
      <trkpt lat="45.34174" lon="6.58677">
        <ele>2143</ele>
        <time>2018-12-26T10:01:09Z</time>
      </trkpt>
      <trkpt lat="45.34172" lon="6.58676">
        <ele>2145.6</ele>
        <time>2018-12-26T10:01:14Z</time>
      </trkpt>
      <trkpt lat="45.3417" lon="6.58675">
        <ele>2147.4</ele>
        <time>2018-12-26T10:01:19Z</time>
      </trkpt>
      <trkpt lat="45.3417" lon="6.58674">
        <ele>2146.8</ele>
        <time>2018-12-26T10:01:25Z</time>
      </trkpt>
      <trkpt lat="45.34167" lon="6.58673">
        <ele>2150.4</ele>
        <time>2018-12-26T10:01:30Z</time>
      </trkpt>
      <trkpt lat="45.34165" lon="6.58671">
        <ele>2148</ele>
        <time>2018-12-26T10:01:35Z</time>
      </trkpt>
      <trkpt lat="45.34163" lon="6.5867">
        <ele>2146.2</ele>
        <time>2018-12-26T10:01:40Z</time>
      </trkpt>
      <trkpt lat="45.34161" lon="6.58669">
        <ele>2145.8</ele>
        <time>2018-12-26T10:01:45Z</time>
      </trkpt>
      <trkpt lat="45.34159" lon="6.58667">
        <ele>2148.2</ele>
        <time>2018-12-26T10:01:50Z</time>
      </trkpt>
      <trkpt lat="45.34157" lon="6.58665">
        <ele>2148</ele>
        <time>2018-12-26T10:01:55Z</time>
      </trkpt>
      <trkpt lat="45.34158" lon="6.58662">
        <ele>2149.2</ele>
        <time>2018-12-26T10:02:00Z</time>
      </trkpt>
      <trkpt lat="45.34159" lon="6.5866">
        <ele>2148.8</ele>
        <time>2018-12-26T10:02:05Z</time>
      </trkpt>
      <trkpt lat="45.34161" lon="6.58658">
        <ele>2153.8</ele>
        <time>2018-12-26T10:02:10Z</time>
      </trkpt>
      <trkpt lat="45.34162" lon="6.58655">
        <ele>2153.2</ele>
        <time>2018-12-26T10:02:15Z</time>
      </trkpt>
      <trkpt lat="45.34162" lon="6.58651">
        <ele>2152.4</ele>
        <time>2018-12-26T10:02:20Z</time>
      </trkpt>
      <trkpt lat="45.34162" lon="6.5865">
        <ele>2152.8</ele>
        <time>2018-12-26T10:02:25Z</time>
      </trkpt>
      <trkpt lat="45.34163" lon="6.58648">
        <ele>2153.2</ele>
        <time>2018-12-26T10:02:30Z</time>
      </trkpt>
      <trkpt lat="45.34164" lon="6.58646">
        <ele>2151</ele>
        <time>2018-12-26T10:02:35Z</time>
      </trkpt>
      <trkpt lat="45.34165" lon="6.58645">
        <ele>2152.4</ele>
        <time>2018-12-26T10:02:40Z</time>
      </trkpt>
      <trkpt lat="45.34163" lon="6.58646">
        <ele>2154.4</ele>
        <time>2018-12-26T10:02:45Z</time>
      </trkpt>
      <trkpt lat="45.3416" lon="6.58646">
        <ele>2153.4</ele>
        <time>2018-12-26T10:02:50Z</time>
      </trkpt>
      <trkpt lat="45.34158" lon="6.58646">
        <ele>2154.6</ele>
        <time>2018-12-26T10:02:55Z</time>
      </trkpt>
      <trkpt lat="45.34156" lon="6.58646">
        <ele>2155.4</ele>
        <time>2018-12-26T10:03:00Z</time>
      </trkpt>
      <trkpt lat="45.34154" lon="6.58645">
        <ele>2158.4</ele>
        <time>2018-12-26T10:03:05Z</time>
      </trkpt>
      <trkpt lat="45.34151" lon="6.58644">
        <ele>2158</ele>
        <time>2018-12-26T10:03:10Z</time>
      </trkpt>
      <trkpt lat="45.34148" lon="6.58645">
        <ele>2158.2</ele>
        <time>2018-12-26T10:03:15Z</time>
      </trkpt>
      <trkpt lat="45.34146" lon="6.58645">
        <ele>2161.6</ele>
        <time>2018-12-26T10:03:20Z</time>
      </trkpt>
      <trkpt lat="45.34143" lon="6.58645">
        <ele>2159.2</ele>
        <time>2018-12-26T10:03:25Z</time>
      </trkpt>
      <trkpt lat="45.34141" lon="6.58645">
        <ele>2159.6</ele>
        <time>2018-12-26T10:03:30Z</time>
      </trkpt>
      <trkpt lat="45.34138" lon="6.58644">
        <ele>2161</ele>
        <time>2018-12-26T10:03:35Z</time>
      </trkpt>
      <trkpt lat="45.34135" lon="6.58643">
        <ele>2160.4</ele>
        <time>2018-12-26T10:03:40Z</time>
      </trkpt>
      <trkpt lat="45.34133" lon="6.58642">
        <ele>2162</ele>
        <time>2018-12-26T10:03:45Z</time>
      </trkpt>
      <trkpt lat="45.34132" lon="6.58641">
        <ele>2161.8</ele>
        <time>2018-12-26T10:03:50Z</time>
      </trkpt>
      <trkpt lat="45.3413" lon="6.5864">
        <ele>2162.2</ele>
        <time>2018-12-26T10:03:55Z</time>
      </trkpt>
      <trkpt lat="45.34127" lon="6.58638">
        <ele>2166.6</ele>
        <time>2018-12-26T10:04:00Z</time>
      </trkpt>
      <trkpt lat="45.34124" lon="6.58637">
        <ele>2163.6</ele>
        <time>2018-12-26T10:04:05Z</time>
      </trkpt>
      <trkpt lat="45.34122" lon="6.58635">
        <ele>2163.4</ele>
        <time>2018-12-26T10:04:10Z</time>
      </trkpt>
      <trkpt lat="45.3412" lon="6.58633">
        <ele>2161.6</ele>
        <time>2018-12-26T10:04:15Z</time>
      </trkpt>
      <trkpt lat="45.34117" lon="6.58631">
        <ele>2163.8</ele>
        <time>2018-12-26T10:04:20Z</time>
      </trkpt>
      <trkpt lat="45.34115" lon="6.58631">
        <ele>2165.8</ele>
        <time>2018-12-26T10:04:25Z</time>
      </trkpt>
      <trkpt lat="45.34111" lon="6.5863">
        <ele>2166.6</ele>
        <time>2018-12-26T10:04:30Z</time>
      </trkpt>
      <trkpt lat="45.34108" lon="6.58628">
        <ele>2165.4</ele>
        <time>2018-12-26T10:04:35Z</time>
      </trkpt>
      <trkpt lat="45.34105" lon="6.58627">
        <ele>2168.6</ele>
        <time>2018-12-26T10:04:40Z</time>
      </trkpt>
      <trkpt lat="45.34103" lon="6.58624">
        <ele>2167</ele>
        <time>2018-12-26T10:04:45Z</time>
      </trkpt>
      <trkpt lat="45.34101" lon="6.58619">
        <ele>2170</ele>
        <time>2018-12-26T10:04:50Z</time>
      </trkpt>
      <trkpt lat="45.34098" lon="6.58616">
        <ele>2165.6</ele>
        <time>2018-12-26T10:04:55Z</time>
      </trkpt>
      <trkpt lat="45.34095" lon="6.58614">
        <ele>2166.2</ele>
        <time>2018-12-26T10:05:00Z</time>
      </trkpt>
      <trkpt lat="45.34092" lon="6.58612">
        <ele>2166.4</ele>
        <time>2018-12-26T10:05:05Z</time>
      </trkpt>
      <trkpt lat="45.34089" lon="6.58611">
        <ele>2167</ele>
        <time>2018-12-26T10:05:10Z</time>
      </trkpt>
      <trkpt lat="45.34086" lon="6.58611">
        <ele>2167</ele>
        <time>2018-12-26T10:05:15Z</time>
      </trkpt>
      <trkpt lat="45.34083" lon="6.58611">
        <ele>2168.2</ele>
        <time>2018-12-26T10:05:20Z</time>
      </trkpt>
      <trkpt lat="45.34079" lon="6.5861">
        <ele>2168</ele>
        <time>2018-12-26T10:05:25Z</time>
      </trkpt>
      <trkpt lat="45.34076" lon="6.58609">
        <ele>2169.2</ele>
        <time>2018-12-26T10:05:30Z</time>
      </trkpt>
      <trkpt lat="45.34075" lon="6.58608">
        <ele>2168.4</ele>
        <time>2018-12-26T10:05:35Z</time>
      </trkpt>
      <trkpt lat="45.34074" lon="6.58608">
        <ele>2169.4</ele>
        <time>2018-12-26T10:05:40Z</time>
      </trkpt>
      <trkpt lat="45.34074" lon="6.58608">
        <ele>2169.2</ele>
        <time>2018-12-26T10:05:45Z</time>
      </trkpt>
      <trkpt lat="45.34074" lon="6.58608">
        <ele>2169</ele>
        <time>2018-12-26T10:05:50Z</time>
      </trkpt>
      <trkpt lat="45.34074" lon="6.58608">
        <ele>2169</ele>
        <time>2018-12-26T10:05:55Z</time>
      </trkpt>
      <trkpt lat="45.3407" lon="6.58607">
        <ele>2168.6</ele>
        <time>2018-12-26T10:14:27Z</time>
      </trkpt>
      <trkpt lat="45.34067" lon="6.58608">
        <ele>2165</ele>
        <time>2018-12-26T10:14:32Z</time>
      </trkpt>
      <trkpt lat="45.34064" lon="6.58608">
        <ele>2167.4</ele>
        <time>2018-12-26T10:14:37Z</time>
      </trkpt>
      <trkpt lat="45.3406" lon="6.58608">
        <ele>2167</ele>
        <time>2018-12-26T10:14:42Z</time>
      </trkpt>
      <trkpt lat="45.34057" lon="6.58608">
        <ele>2171.4</ele>
        <time>2018-12-26T10:14:47Z</time>
      </trkpt>
      <trkpt lat="45.34054" lon="6.58608">
        <ele>2170.6</ele>
        <time>2018-12-26T10:14:52Z</time>
      </trkpt>
      <trkpt lat="45.3405" lon="6.58608">
        <ele>2172.2</ele>
        <time>2018-12-26T10:14:57Z</time>
      </trkpt>
      <trkpt lat="45.34047" lon="6.58608">
        <ele>2172</ele>
        <time>2018-12-26T10:15:02Z</time>
      </trkpt>
      <trkpt lat="45.34044" lon="6.58608">
        <ele>2171.6</ele>
        <time>2018-12-26T10:15:07Z</time>
      </trkpt>
      <trkpt lat="45.34041" lon="6.58608">
        <ele>2174.6</ele>
        <time>2018-12-26T10:15:12Z</time>
      </trkpt>
      <trkpt lat="45.34037" lon="6.58608">
        <ele>2175.2</ele>
        <time>2018-12-26T10:15:17Z</time>
      </trkpt>
      <trkpt lat="45.34034" lon="6.58608">
        <ele>2176.4</ele>
        <time>2018-12-26T10:15:22Z</time>
      </trkpt>
      <trkpt lat="45.34031" lon="6.58607">
        <ele>2174</ele>
        <time>2018-12-26T10:15:27Z</time>
      </trkpt>
      <trkpt lat="45.34027" lon="6.58606">
        <ele>2178.4</ele>
        <time>2018-12-26T10:15:32Z</time>
      </trkpt>
      <trkpt lat="45.34023" lon="6.58605">
        <ele>2177</ele>
        <time>2018-12-26T10:15:37Z</time>
      </trkpt>
      <trkpt lat="45.3402" lon="6.58603">
        <ele>2180.4</ele>
        <time>2018-12-26T10:15:42Z</time>
      </trkpt>
      <trkpt lat="45.34017" lon="6.58602">
        <ele>2179.4</ele>
        <time>2018-12-26T10:15:47Z</time>
      </trkpt>
      <trkpt lat="45.34013" lon="6.586">
        <ele>2178.8</ele>
        <time>2018-12-26T10:15:52Z</time>
      </trkpt>
      <trkpt lat="45.3401" lon="6.58599">
        <ele>2177.8</ele>
        <time>2018-12-26T10:15:57Z</time>
      </trkpt>
      <trkpt lat="45.34007" lon="6.58597">
        <ele>2179.2</ele>
        <time>2018-12-26T10:16:02Z</time>
      </trkpt>
      <trkpt lat="45.34003" lon="6.58595">
        <ele>2182.6</ele>
        <time>2018-12-26T10:16:07Z</time>
      </trkpt>
      <trkpt lat="45.34" lon="6.58592">
        <ele>2182.6</ele>
        <time>2018-12-26T10:16:12Z</time>
      </trkpt>
      <trkpt lat="45.33997" lon="6.58589">
        <ele>2181.6</ele>
        <time>2018-12-26T10:16:17Z</time>
      </trkpt>
      <trkpt lat="45.33994" lon="6.58587">
        <ele>2183.6</ele>
        <time>2018-12-26T10:16:22Z</time>
      </trkpt>
      <trkpt lat="45.33991" lon="6.58585">
        <ele>2183.4</ele>
        <time>2018-12-26T10:16:27Z</time>
      </trkpt>
      <trkpt lat="45.33989" lon="6.58583">
        <ele>2185</ele>
        <time>2018-12-26T10:16:32Z</time>
      </trkpt>
      <trkpt lat="45.33986" lon="6.58581">
        <ele>2184.6</ele>
        <time>2018-12-26T10:16:37Z</time>
      </trkpt>
      <trkpt lat="45.33983" lon="6.58579">
        <ele>2185.4</ele>
        <time>2018-12-26T10:16:42Z</time>
      </trkpt>
      <trkpt lat="45.33981" lon="6.58576">
        <ele>2185.4</ele>
        <time>2018-12-26T10:16:47Z</time>
      </trkpt>
      <trkpt lat="45.33977" lon="6.58574">
        <ele>2187.6</ele>
        <time>2018-12-26T10:16:53Z</time>
      </trkpt>
      <trkpt lat="45.33974" lon="6.58572">
        <ele>2189.2</ele>
        <time>2018-12-26T10:16:58Z</time>
      </trkpt>
      <trkpt lat="45.33971" lon="6.5857">
        <ele>2188.4</ele>
        <time>2018-12-26T10:17:03Z</time>
      </trkpt>
      <trkpt lat="45.33968" lon="6.58567">
        <ele>2187.2</ele>
        <time>2018-12-26T10:17:08Z</time>
      </trkpt>
      <trkpt lat="45.33965" lon="6.58564">
        <ele>2190</ele>
        <time>2018-12-26T10:17:13Z</time>
      </trkpt>
      <trkpt lat="45.33961" lon="6.58562">
        <ele>2190.8</ele>
        <time>2018-12-26T10:17:18Z</time>
      </trkpt>
      <trkpt lat="45.33958" lon="6.58559">
        <ele>2190</ele>
        <time>2018-12-26T10:17:23Z</time>
      </trkpt>
      <trkpt lat="45.33955" lon="6.58556">
        <ele>2190.2</ele>
        <time>2018-12-26T10:17:28Z</time>
      </trkpt>
      <trkpt lat="45.33951" lon="6.58553">
        <ele>2195.2</ele>
        <time>2018-12-26T10:17:33Z</time>
      </trkpt>
      <trkpt lat="45.33948" lon="6.5855">
        <ele>2191.8</ele>
        <time>2018-12-26T10:17:38Z</time>
      </trkpt>
      <trkpt lat="45.33945" lon="6.58547">
        <ele>2191.6</ele>
        <time>2018-12-26T10:17:43Z</time>
      </trkpt>
      <trkpt lat="45.33942" lon="6.58545">
        <ele>2194</ele>
        <time>2018-12-26T10:17:48Z</time>
      </trkpt>
      <trkpt lat="45.33939" lon="6.58542">
        <ele>2195.8</ele>
        <time>2018-12-26T10:17:53Z</time>
      </trkpt>
      <trkpt lat="45.33936" lon="6.58539">
        <ele>2195.6</ele>
        <time>2018-12-26T10:17:58Z</time>
      </trkpt>
      <trkpt lat="45.33933" lon="6.58536">
        <ele>2195.8</ele>
        <time>2018-12-26T10:18:03Z</time>
      </trkpt>
      <trkpt lat="45.33931" lon="6.58533">
        <ele>2195.8</ele>
        <time>2018-12-26T10:18:08Z</time>
      </trkpt>
      <trkpt lat="45.33928" lon="6.5853">
        <ele>2197.6</ele>
        <time>2018-12-26T10:18:13Z</time>
      </trkpt>
      <trkpt lat="45.33925" lon="6.58528">
        <ele>2196.4</ele>
        <time>2018-12-26T10:18:18Z</time>
      </trkpt>
      <trkpt lat="45.33921" lon="6.58525">
        <ele>2200.8</ele>
        <time>2018-12-26T10:18:23Z</time>
      </trkpt>
      <trkpt lat="45.33918" lon="6.58523">
        <ele>2199.4</ele>
        <time>2018-12-26T10:18:28Z</time>
      </trkpt>
      <trkpt lat="45.33916" lon="6.58521">
        <ele>2201.4</ele>
        <time>2018-12-26T10:18:33Z</time>
      </trkpt>
      <trkpt lat="45.33911" lon="6.5852">
        <ele>2200</ele>
        <time>2018-12-26T10:18:38Z</time>
      </trkpt>
      <trkpt lat="45.33904" lon="6.5852">
        <ele>2202.4</ele>
        <time>2018-12-26T10:18:43Z</time>
      </trkpt>
      <trkpt lat="45.33898" lon="6.58521">
        <ele>2201.8</ele>
        <time>2018-12-26T10:18:48Z</time>
      </trkpt>
      <trkpt lat="45.33893" lon="6.58522">
        <ele>2202.4</ele>
        <time>2018-12-26T10:18:53Z</time>
      </trkpt>
      <trkpt lat="45.33888" lon="6.58524">
        <ele>2199</ele>
        <time>2018-12-26T10:18:58Z</time>
      </trkpt>
      <trkpt lat="45.33884" lon="6.58524">
        <ele>2202.8</ele>
        <time>2018-12-26T10:19:03Z</time>
      </trkpt>
      <trkpt lat="45.3388" lon="6.58524">
        <ele>2204</ele>
        <time>2018-12-26T10:19:08Z</time>
      </trkpt>
      <trkpt lat="45.33876" lon="6.58524">
        <ele>2206.4</ele>
        <time>2018-12-26T10:19:13Z</time>
      </trkpt>
      <trkpt lat="45.33873" lon="6.58524">
        <ele>2205.8</ele>
        <time>2018-12-26T10:19:18Z</time>
      </trkpt>
      <trkpt lat="45.33872" lon="6.58524">
        <ele>2205.4</ele>
        <time>2018-12-26T10:19:23Z</time>
      </trkpt>
      <trkpt lat="45.3387" lon="6.58523">
        <ele>2206.8</ele>
        <time>2018-12-26T10:19:28Z</time>
      </trkpt>
      <trkpt lat="45.33867" lon="6.58522">
        <ele>2204</ele>
        <time>2018-12-26T10:19:33Z</time>
      </trkpt>
      <trkpt lat="45.33863" lon="6.5852">
        <ele>2208</ele>
        <time>2018-12-26T10:19:38Z</time>
      </trkpt>
      <trkpt lat="45.3386" lon="6.58519">
        <ele>2206.2</ele>
        <time>2018-12-26T10:19:43Z</time>
      </trkpt>
      <trkpt lat="45.33857" lon="6.58517">
        <ele>2210</ele>
        <time>2018-12-26T10:19:48Z</time>
      </trkpt>
      <trkpt lat="45.33855" lon="6.58514">
        <ele>2209.2</ele>
        <time>2018-12-26T10:19:53Z</time>
      </trkpt>
      <trkpt lat="45.33852" lon="6.58512">
        <ele>2206.6</ele>
        <time>2018-12-26T10:19:58Z</time>
      </trkpt>
      <trkpt lat="45.3385" lon="6.58509">
        <ele>2208.4</ele>
        <time>2018-12-26T10:20:03Z</time>
      </trkpt>
      <trkpt lat="45.33847" lon="6.58507">
        <ele>2211.2</ele>
        <time>2018-12-26T10:20:08Z</time>
      </trkpt>
      <trkpt lat="45.33845" lon="6.58504">
        <ele>2210.8</ele>
        <time>2018-12-26T10:20:13Z</time>
      </trkpt>
      <trkpt lat="45.33842" lon="6.58501">
        <ele>2212.4</ele>
        <time>2018-12-26T10:20:18Z</time>
      </trkpt>
      <trkpt lat="45.33839" lon="6.58499">
        <ele>2213</ele>
        <time>2018-12-26T10:20:23Z</time>
      </trkpt>
      <trkpt lat="45.33836" lon="6.58496">
        <ele>2214.6</ele>
        <time>2018-12-26T10:20:28Z</time>
      </trkpt>
      <trkpt lat="45.33833" lon="6.58493">
        <ele>2215.6</ele>
        <time>2018-12-26T10:20:33Z</time>
      </trkpt>
      <trkpt lat="45.33831" lon="6.5849">
        <ele>2214.4</ele>
        <time>2018-12-26T10:20:38Z</time>
      </trkpt>
      <trkpt lat="45.33828" lon="6.58488">
        <ele>2213.8</ele>
        <time>2018-12-26T10:20:43Z</time>
      </trkpt>
      <trkpt lat="45.33825" lon="6.58485">
        <ele>2215</ele>
        <time>2018-12-26T10:20:48Z</time>
      </trkpt>
      <trkpt lat="45.33822" lon="6.58482">
        <ele>2215.2</ele>
        <time>2018-12-26T10:20:53Z</time>
      </trkpt>
      <trkpt lat="45.3382" lon="6.58479">
        <ele>2215.4</ele>
        <time>2018-12-26T10:20:58Z</time>
      </trkpt>
      <trkpt lat="45.33817" lon="6.58476">
        <ele>2216.4</ele>
        <time>2018-12-26T10:21:03Z</time>
      </trkpt>
      <trkpt lat="45.33815" lon="6.58473">
        <ele>2220.2</ele>
        <time>2018-12-26T10:21:08Z</time>
      </trkpt>
      <trkpt lat="45.33812" lon="6.58471">
        <ele>2219</ele>
        <time>2018-12-26T10:21:13Z</time>
      </trkpt>
      <trkpt lat="45.3381" lon="6.58468">
        <ele>2216.8</ele>
        <time>2018-12-26T10:21:18Z</time>
      </trkpt>
      <trkpt lat="45.33807" lon="6.58465">
        <ele>2222.2</ele>
        <time>2018-12-26T10:21:23Z</time>
      </trkpt>
      <trkpt lat="45.33805" lon="6.58462">
        <ele>2221</ele>
        <time>2018-12-26T10:21:28Z</time>
      </trkpt>
      <trkpt lat="45.33803" lon="6.58458">
        <ele>2221.6</ele>
        <time>2018-12-26T10:21:33Z</time>
      </trkpt>
      <trkpt lat="45.338" lon="6.58455">
        <ele>2222.8</ele>
        <time>2018-12-26T10:21:38Z</time>
      </trkpt>
      <trkpt lat="45.33798" lon="6.58451">
        <ele>2223</ele>
        <time>2018-12-26T10:21:43Z</time>
      </trkpt>
      <trkpt lat="45.33796" lon="6.58447">
        <ele>2225.4</ele>
        <time>2018-12-26T10:21:48Z</time>
      </trkpt>
      <trkpt lat="45.33794" lon="6.58444">
        <ele>2222.6</ele>
        <time>2018-12-26T10:21:53Z</time>
      </trkpt>
      <trkpt lat="45.33792" lon="6.5844">
        <ele>2227</ele>
        <time>2018-12-26T10:21:58Z</time>
      </trkpt>
      <trkpt lat="45.33791" lon="6.58436">
        <ele>2226.4</ele>
        <time>2018-12-26T10:22:03Z</time>
      </trkpt>
      <trkpt lat="45.33789" lon="6.58432">
        <ele>2224.6</ele>
        <time>2018-12-26T10:22:08Z</time>
      </trkpt>
      <trkpt lat="45.33788" lon="6.58428">
        <ele>2225.2</ele>
        <time>2018-12-26T10:22:13Z</time>
      </trkpt>
      <trkpt lat="45.33786" lon="6.58424">
        <ele>2228.2</ele>
        <time>2018-12-26T10:22:18Z</time>
      </trkpt>
      <trkpt lat="45.33786" lon="6.58419">
        <ele>2228.4</ele>
        <time>2018-12-26T10:22:23Z</time>
      </trkpt>
      <trkpt lat="45.33785" lon="6.58416">
        <ele>2228.2</ele>
        <time>2018-12-26T10:22:28Z</time>
      </trkpt>
      <trkpt lat="45.33785" lon="6.58411">
        <ele>2229.6</ele>
        <time>2018-12-26T10:22:33Z</time>
      </trkpt>
      <trkpt lat="45.33784" lon="6.58407">
        <ele>2229.8</ele>
        <time>2018-12-26T10:22:38Z</time>
      </trkpt>
      <trkpt lat="45.33784" lon="6.58403">
        <ele>2229.4</ele>
        <time>2018-12-26T10:22:43Z</time>
      </trkpt>
      <trkpt lat="45.33784" lon="6.58398">
        <ele>2230.8</ele>
        <time>2018-12-26T10:22:48Z</time>
      </trkpt>
      <trkpt lat="45.33784" lon="6.58393">
        <ele>2233</ele>
        <time>2018-12-26T10:22:53Z</time>
      </trkpt>
      <trkpt lat="45.33784" lon="6.58388">
        <ele>2231.4</ele>
        <time>2018-12-26T10:22:58Z</time>
      </trkpt>
      <trkpt lat="45.33783" lon="6.58382">
        <ele>2233</ele>
        <time>2018-12-26T10:23:04Z</time>
      </trkpt>
      <trkpt lat="45.33783" lon="6.58377">
        <ele>2235.2</ele>
        <time>2018-12-26T10:23:09Z</time>
      </trkpt>
      <trkpt lat="45.33783" lon="6.58372">
        <ele>2235.6</ele>
        <time>2018-12-26T10:23:14Z</time>
      </trkpt>
      <trkpt lat="45.33782" lon="6.58367">
        <ele>2236.6</ele>
        <time>2018-12-26T10:23:19Z</time>
      </trkpt>
      <trkpt lat="45.33783" lon="6.58362">
        <ele>2236.6</ele>
        <time>2018-12-26T10:23:24Z</time>
      </trkpt>
      <trkpt lat="45.33783" lon="6.58357">
        <ele>2236.8</ele>
        <time>2018-12-26T10:23:29Z</time>
      </trkpt>
      <trkpt lat="45.33783" lon="6.58353">
        <ele>2237.4</ele>
        <time>2018-12-26T10:23:34Z</time>
      </trkpt>
      <trkpt lat="45.33784" lon="6.58348">
        <ele>2238</ele>
        <time>2018-12-26T10:23:39Z</time>
      </trkpt>
      <trkpt lat="45.33785" lon="6.58343">
        <ele>2238.6</ele>
        <time>2018-12-26T10:23:44Z</time>
      </trkpt>
      <trkpt lat="45.33785" lon="6.58339">
        <ele>2240.8</ele>
        <time>2018-12-26T10:23:49Z</time>
      </trkpt>
      <trkpt lat="45.33785" lon="6.58336">
        <ele>2240.6</ele>
        <time>2018-12-26T10:23:54Z</time>
      </trkpt>
      <trkpt lat="45.33785" lon="6.58332">
        <ele>2242.4</ele>
        <time>2018-12-26T10:23:59Z</time>
      </trkpt>
      <trkpt lat="45.33785" lon="6.58329">
        <ele>2245.4</ele>
        <time>2018-12-26T10:24:04Z</time>
      </trkpt>
      <trkpt lat="45.33785" lon="6.58325">
        <ele>2243.2</ele>
        <time>2018-12-26T10:24:09Z</time>
      </trkpt>
      <trkpt lat="45.33785" lon="6.58321">
        <ele>2245.6</ele>
        <time>2018-12-26T10:24:14Z</time>
      </trkpt>
      <trkpt lat="45.33787" lon="6.5832">
        <ele>2244.8</ele>
        <time>2018-12-26T10:24:19Z</time>
      </trkpt>
      <trkpt lat="45.33788" lon="6.5832">
        <ele>2245.8</ele>
        <time>2018-12-26T10:24:24Z</time>
      </trkpt>
      <trkpt lat="45.33789" lon="6.58322">
        <ele>2246.2</ele>
        <time>2018-12-26T10:25:54Z</time>
      </trkpt>
      <trkpt lat="45.3379" lon="6.58322">
        <ele>2246.4</ele>
        <time>2018-12-26T10:25:59Z</time>
      </trkpt>
      <trkpt lat="45.33791" lon="6.58324">
        <ele>2247</ele>
        <time>2018-12-26T10:26:04Z</time>
      </trkpt>
      <trkpt lat="45.33794" lon="6.58325">
        <ele>2247.6</ele>
        <time>2018-12-26T10:26:09Z</time>
      </trkpt>
      <trkpt lat="45.33796" lon="6.58325">
        <ele>2246.8</ele>
        <time>2018-12-26T10:26:14Z</time>
      </trkpt>
      <trkpt lat="45.33798" lon="6.58325">
        <ele>2250.4</ele>
        <time>2018-12-26T10:26:19Z</time>
      </trkpt>
      <trkpt lat="45.338" lon="6.58325">
        <ele>2247</ele>
        <time>2018-12-26T10:26:24Z</time>
      </trkpt>
      <trkpt lat="45.33802" lon="6.58325">
        <ele>2249.4</ele>
        <time>2018-12-26T10:26:29Z</time>
      </trkpt>
      <trkpt lat="45.33804" lon="6.58324">
        <ele>2251.4</ele>
        <time>2018-12-26T10:26:34Z</time>
      </trkpt>
      <trkpt lat="45.33806" lon="6.58324">
        <ele>2252.4</ele>
        <time>2018-12-26T10:26:39Z</time>
      </trkpt>
      <trkpt lat="45.33807" lon="6.58322">
        <ele>2252.2</ele>
        <time>2018-12-26T10:26:44Z</time>
      </trkpt>
      <trkpt lat="45.33808" lon="6.5832">
        <ele>2253</ele>
        <time>2018-12-26T10:26:49Z</time>
      </trkpt>
      <trkpt lat="45.33807" lon="6.58317">
        <ele>2250.8</ele>
        <time>2018-12-26T10:26:54Z</time>
      </trkpt>
      <trkpt lat="45.33806" lon="6.58313">
        <ele>2252.2</ele>
        <time>2018-12-26T10:27:00Z</time>
      </trkpt>
      <trkpt lat="45.33806" lon="6.5831">
        <ele>2251</ele>
        <time>2018-12-26T10:27:05Z</time>
      </trkpt>
      <trkpt lat="45.33805" lon="6.58306">
        <ele>2253.2</ele>
        <time>2018-12-26T10:27:11Z</time>
      </trkpt>
      <trkpt lat="45.33804" lon="6.58303">
        <ele>2252.2</ele>
        <time>2018-12-26T10:27:16Z</time>
      </trkpt>
      <trkpt lat="45.33803" lon="6.58298">
        <ele>2258</ele>
        <time>2018-12-26T10:27:21Z</time>
      </trkpt>
      <trkpt lat="45.33802" lon="6.58293">
        <ele>2254.8</ele>
        <time>2018-12-26T10:27:26Z</time>
      </trkpt>
      <trkpt lat="45.33801" lon="6.58288">
        <ele>2257</ele>
        <time>2018-12-26T10:27:31Z</time>
      </trkpt>
      <trkpt lat="45.338" lon="6.58283">
        <ele>2258.4</ele>
        <time>2018-12-26T10:27:36Z</time>
      </trkpt>
      <trkpt lat="45.33799" lon="6.58278">
        <ele>2258.2</ele>
        <time>2018-12-26T10:27:41Z</time>
      </trkpt>
      <trkpt lat="45.33799" lon="6.58275">
        <ele>2259.2</ele>
        <time>2018-12-26T10:27:46Z</time>
      </trkpt>
      <trkpt lat="45.33798" lon="6.58272">
        <ele>2262.2</ele>
        <time>2018-12-26T10:27:51Z</time>
      </trkpt>
      <trkpt lat="45.33797" lon="6.58269">
        <ele>2259.8</ele>
        <time>2018-12-26T10:27:56Z</time>
      </trkpt>
      <trkpt lat="45.33796" lon="6.58267">
        <ele>2258.6</ele>
        <time>2018-12-26T10:28:01Z</time>
      </trkpt>
      <trkpt lat="45.33794" lon="6.58264">
        <ele>2259.2</ele>
        <time>2018-12-26T10:28:06Z</time>
      </trkpt>
      <trkpt lat="45.33793" lon="6.58262">
        <ele>2262.4</ele>
        <time>2018-12-26T10:28:11Z</time>
      </trkpt>
      <trkpt lat="45.33791" lon="6.58259">
        <ele>2261.8</ele>
        <time>2018-12-26T10:28:16Z</time>
      </trkpt>
      <trkpt lat="45.3379" lon="6.58257">
        <ele>2262.2</ele>
        <time>2018-12-26T10:28:21Z</time>
      </trkpt>
      <trkpt lat="45.33789" lon="6.58254">
        <ele>2265.8</ele>
        <time>2018-12-26T10:28:26Z</time>
      </trkpt>
      <trkpt lat="45.33787" lon="6.5825">
        <ele>2263.6</ele>
        <time>2018-12-26T10:28:31Z</time>
      </trkpt>
      <trkpt lat="45.33786" lon="6.58247">
        <ele>2264.2</ele>
        <time>2018-12-26T10:28:36Z</time>
      </trkpt>
      <trkpt lat="45.33784" lon="6.58244">
        <ele>2266.6</ele>
        <time>2018-12-26T10:28:41Z</time>
      </trkpt>
      <trkpt lat="45.33783" lon="6.58241">
        <ele>2267.6</ele>
        <time>2018-12-26T10:28:46Z</time>
      </trkpt>
      <trkpt lat="45.33781" lon="6.58238">
        <ele>2266.4</ele>
        <time>2018-12-26T10:28:51Z</time>
      </trkpt>
      <trkpt lat="45.3378" lon="6.58235">
        <ele>2268.6</ele>
        <time>2018-12-26T10:28:56Z</time>
      </trkpt>
      <trkpt lat="45.33779" lon="6.58232">
        <ele>2268</ele>
        <time>2018-12-26T10:29:01Z</time>
      </trkpt>
      <trkpt lat="45.33777" lon="6.5823">
        <ele>2270.4</ele>
        <time>2018-12-26T10:29:06Z</time>
      </trkpt>
      <trkpt lat="45.33776" lon="6.58227">
        <ele>2269</ele>
        <time>2018-12-26T10:29:11Z</time>
      </trkpt>
      <trkpt lat="45.33774" lon="6.58225">
        <ele>2269.8</ele>
        <time>2018-12-26T10:29:16Z</time>
      </trkpt>
      <trkpt lat="45.33772" lon="6.58222">
        <ele>2269.8</ele>
        <time>2018-12-26T10:29:21Z</time>
      </trkpt>
      <trkpt lat="45.33769" lon="6.5822">
        <ele>2271.8</ele>
        <time>2018-12-26T10:29:26Z</time>
      </trkpt>
      <trkpt lat="45.33767" lon="6.58218">
        <ele>2273.4</ele>
        <time>2018-12-26T10:29:31Z</time>
      </trkpt>
      <trkpt lat="45.33765" lon="6.58216">
        <ele>2274</ele>
        <time>2018-12-26T10:29:36Z</time>
      </trkpt>
      <trkpt lat="45.33763" lon="6.58214">
        <ele>2274.8</ele>
        <time>2018-12-26T10:29:41Z</time>
      </trkpt>
      <trkpt lat="45.33761" lon="6.58212">
        <ele>2273.4</ele>
        <time>2018-12-26T10:29:46Z</time>
      </trkpt>
      <trkpt lat="45.33759" lon="6.5821">
        <ele>2276</ele>
        <time>2018-12-26T10:29:51Z</time>
      </trkpt>
      <trkpt lat="45.33758" lon="6.58208">
        <ele>2276.8</ele>
        <time>2018-12-26T10:29:56Z</time>
      </trkpt>
      <trkpt lat="45.33756" lon="6.58205">
        <ele>2276.4</ele>
        <time>2018-12-26T10:30:01Z</time>
      </trkpt>
      <trkpt lat="45.33754" lon="6.58203">
        <ele>2276.4</ele>
        <time>2018-12-26T10:30:06Z</time>
      </trkpt>
      <trkpt lat="45.33752" lon="6.58201">
        <ele>2277.4</ele>
        <time>2018-12-26T10:30:11Z</time>
      </trkpt>
      <trkpt lat="45.33751" lon="6.58199">
        <ele>2277.2</ele>
        <time>2018-12-26T10:30:16Z</time>
      </trkpt>
      <trkpt lat="45.33748" lon="6.58196">
        <ele>2280</ele>
        <time>2018-12-26T10:30:21Z</time>
      </trkpt>
      <trkpt lat="45.33746" lon="6.58193">
        <ele>2282.4</ele>
        <time>2018-12-26T10:30:26Z</time>
      </trkpt>
      <trkpt lat="45.33744" lon="6.5819">
        <ele>2281</ele>
        <time>2018-12-26T10:30:31Z</time>
      </trkpt>
      <trkpt lat="45.33742" lon="6.58187">
        <ele>2282.4</ele>
        <time>2018-12-26T10:30:36Z</time>
      </trkpt>
      <trkpt lat="45.33739" lon="6.58184">
        <ele>2284.6</ele>
        <time>2018-12-26T10:30:41Z</time>
      </trkpt>
      <trkpt lat="45.33737" lon="6.58181">
        <ele>2284.4</ele>
        <time>2018-12-26T10:30:46Z</time>
      </trkpt>
      <trkpt lat="45.33734" lon="6.58179">
        <ele>2282.6</ele>
        <time>2018-12-26T10:30:51Z</time>
      </trkpt>
      <trkpt lat="45.33732" lon="6.58177">
        <ele>2284.2</ele>
        <time>2018-12-26T10:30:56Z</time>
      </trkpt>
      <trkpt lat="45.3373" lon="6.58174">
        <ele>2286</ele>
        <time>2018-12-26T10:31:01Z</time>
      </trkpt>
      <trkpt lat="45.33728" lon="6.58173">
        <ele>2283</ele>
        <time>2018-12-26T10:31:06Z</time>
      </trkpt>
      <trkpt lat="45.33725" lon="6.58173">
        <ele>2286.2</ele>
        <time>2018-12-26T10:31:11Z</time>
      </trkpt>
      <trkpt lat="45.33723" lon="6.58173">
        <ele>2287</ele>
        <time>2018-12-26T10:31:16Z</time>
      </trkpt>
      <trkpt lat="45.3372" lon="6.58173">
        <ele>2288.6</ele>
        <time>2018-12-26T10:31:22Z</time>
      </trkpt>
      <trkpt lat="45.33718" lon="6.58173">
        <ele>2287.4</ele>
        <time>2018-12-26T10:31:27Z</time>
      </trkpt>
      <trkpt lat="45.33716" lon="6.58172">
        <ele>2288.2</ele>
        <time>2018-12-26T10:31:32Z</time>
      </trkpt>
      <trkpt lat="45.33714" lon="6.58172">
        <ele>2290.8</ele>
        <time>2018-12-26T10:31:37Z</time>
      </trkpt>
      <trkpt lat="45.33712" lon="6.58171">
        <ele>2291.2</ele>
        <time>2018-12-26T10:31:42Z</time>
      </trkpt>
      <trkpt lat="45.33709" lon="6.58171">
        <ele>2293.8</ele>
        <time>2018-12-26T10:31:47Z</time>
      </trkpt>
      <trkpt lat="45.33706" lon="6.5817">
        <ele>2290.8</ele>
        <time>2018-12-26T10:31:52Z</time>
      </trkpt>
      <trkpt lat="45.33703" lon="6.58169">
        <ele>2293.6</ele>
        <time>2018-12-26T10:31:57Z</time>
      </trkpt>
      <trkpt lat="45.337" lon="6.58168">
        <ele>2294</ele>
        <time>2018-12-26T10:32:02Z</time>
      </trkpt>
      <trkpt lat="45.33698" lon="6.58169">
        <ele>2293.2</ele>
        <time>2018-12-26T10:32:07Z</time>
      </trkpt>
      <trkpt lat="45.33695" lon="6.5817">
        <ele>2297</ele>
        <time>2018-12-26T10:32:12Z</time>
      </trkpt>
      <trkpt lat="45.33693" lon="6.5817">
        <ele>2296.4</ele>
        <time>2018-12-26T10:32:17Z</time>
      </trkpt>
      <trkpt lat="45.33689" lon="6.5817">
        <ele>2299</ele>
        <time>2018-12-26T10:32:22Z</time>
      </trkpt>
      <trkpt lat="45.33686" lon="6.58171">
        <ele>2298.2</ele>
        <time>2018-12-26T10:32:27Z</time>
      </trkpt>
      <trkpt lat="45.33683" lon="6.58172">
        <ele>2296.4</ele>
        <time>2018-12-26T10:32:32Z</time>
      </trkpt>
      <trkpt lat="45.3368" lon="6.58173">
        <ele>2300.4</ele>
        <time>2018-12-26T10:32:37Z</time>
      </trkpt>
      <trkpt lat="45.33678" lon="6.58173">
        <ele>2299.2</ele>
        <time>2018-12-26T10:32:42Z</time>
      </trkpt>
      <trkpt lat="45.33676" lon="6.58174">
        <ele>2301</ele>
        <time>2018-12-26T10:32:47Z</time>
      </trkpt>
      <trkpt lat="45.33674" lon="6.58173">
        <ele>2302</ele>
        <time>2018-12-26T10:32:52Z</time>
      </trkpt>
      <trkpt lat="45.33672" lon="6.58173">
        <ele>2299.6</ele>
        <time>2018-12-26T10:32:57Z</time>
      </trkpt>
      <trkpt lat="45.33669" lon="6.58173">
        <ele>2298.8</ele>
        <time>2018-12-26T10:33:02Z</time>
      </trkpt>
      <trkpt lat="45.33667" lon="6.58173">
        <ele>2304.8</ele>
        <time>2018-12-26T10:33:07Z</time>
      </trkpt>
      <trkpt lat="45.33664" lon="6.58172">
        <ele>2304.8</ele>
        <time>2018-12-26T10:33:12Z</time>
      </trkpt>
      <trkpt lat="45.33662" lon="6.58171">
        <ele>2303.8</ele>
        <time>2018-12-26T10:33:17Z</time>
      </trkpt>
      <trkpt lat="45.3366" lon="6.58171">
        <ele>2306.4</ele>
        <time>2018-12-26T10:33:22Z</time>
      </trkpt>
      <trkpt lat="45.33658" lon="6.58171">
        <ele>2305</ele>
        <time>2018-12-26T10:33:27Z</time>
      </trkpt>
      <trkpt lat="45.33655" lon="6.5817">
        <ele>2307.2</ele>
        <time>2018-12-26T10:33:32Z</time>
      </trkpt>
      <trkpt lat="45.33652" lon="6.58169">
        <ele>2306.8</ele>
        <time>2018-12-26T10:33:37Z</time>
      </trkpt>
      <trkpt lat="45.33651" lon="6.58169">
        <ele>2306.6</ele>
        <time>2018-12-26T10:33:42Z</time>
      </trkpt>
      <trkpt lat="45.3365" lon="6.58168">
        <ele>2308</ele>
        <time>2018-12-26T10:33:47Z</time>
      </trkpt>
      <trkpt lat="45.33646" lon="6.58166">
        <ele>2309.6</ele>
        <time>2018-12-26T10:33:52Z</time>
      </trkpt>
      <trkpt lat="45.33643" lon="6.58164">
        <ele>2307.4</ele>
        <time>2018-12-26T10:33:57Z</time>
      </trkpt>
      <trkpt lat="45.33639" lon="6.58161">
        <ele>2306.8</ele>
        <time>2018-12-26T10:34:02Z</time>
      </trkpt>
      <trkpt lat="45.33634" lon="6.58159">
        <ele>2309</ele>
        <time>2018-12-26T10:34:07Z</time>
      </trkpt>
      <trkpt lat="45.3363" lon="6.58157">
        <ele>2310</ele>
        <time>2018-12-26T10:34:12Z</time>
      </trkpt>
      <trkpt lat="45.33624" lon="6.58158">
        <ele>2309</ele>
        <time>2018-12-26T10:34:17Z</time>
      </trkpt>
      <trkpt lat="45.33619" lon="6.58156">
        <ele>2306.4</ele>
        <time>2018-12-26T10:34:22Z</time>
      </trkpt>
      <trkpt lat="45.33614" lon="6.5815">
        <ele>2306.2</ele>
        <time>2018-12-26T10:34:27Z</time>
      </trkpt>
      <trkpt lat="45.33609" lon="6.58147">
        <ele>2307.4</ele>
        <time>2018-12-26T10:34:32Z</time>
      </trkpt>
      <trkpt lat="45.33606" lon="6.58146">
        <ele>2309.2</ele>
        <time>2018-12-26T10:34:37Z</time>
      </trkpt>
      <trkpt lat="45.33604" lon="6.58147">
        <ele>2311</ele>
        <time>2018-12-26T10:40:53Z</time>
      </trkpt>
      <trkpt lat="45.336" lon="6.58146">
        <ele>2308.8</ele>
        <time>2018-12-26T10:40:58Z</time>
      </trkpt>
      <trkpt lat="45.33595" lon="6.58147">
        <ele>2310.6</ele>
        <time>2018-12-26T10:41:03Z</time>
      </trkpt>
      <trkpt lat="45.3359" lon="6.58147">
        <ele>2310</ele>
        <time>2018-12-26T10:41:08Z</time>
      </trkpt>
      <trkpt lat="45.33586" lon="6.58147">
        <ele>2311</ele>
        <time>2018-12-26T10:41:13Z</time>
      </trkpt>
      <trkpt lat="45.33581" lon="6.58146">
        <ele>2312.8</ele>
        <time>2018-12-26T10:41:18Z</time>
      </trkpt>
      <trkpt lat="45.33577" lon="6.58146">
        <ele>2311.8</ele>
        <time>2018-12-26T10:41:23Z</time>
      </trkpt>
      <trkpt lat="45.33573" lon="6.58145">
        <ele>2312.4</ele>
        <time>2018-12-26T10:41:28Z</time>
      </trkpt>
      <trkpt lat="45.33569" lon="6.58145">
        <ele>2312.2</ele>
        <time>2018-12-26T10:41:33Z</time>
      </trkpt>
      <trkpt lat="45.33566" lon="6.58144">
        <ele>2312</ele>
        <time>2018-12-26T10:41:38Z</time>
      </trkpt>
      <trkpt lat="45.33562" lon="6.58143">
        <ele>2314.4</ele>
        <time>2018-12-26T10:41:43Z</time>
      </trkpt>
      <trkpt lat="45.33559" lon="6.58142">
        <ele>2313.2</ele>
        <time>2018-12-26T10:41:48Z</time>
      </trkpt>
      <trkpt lat="45.33558" lon="6.58142">
        <ele>2313.2</ele>
        <time>2018-12-26T10:41:53Z</time>
      </trkpt>
      <trkpt lat="45.33556" lon="6.58141">
        <ele>2314.8</ele>
        <time>2018-12-26T10:41:58Z</time>
      </trkpt>
      <trkpt lat="45.33552" lon="6.5814">
        <ele>2315.8</ele>
        <time>2018-12-26T10:42:03Z</time>
      </trkpt>
      <trkpt lat="45.33548" lon="6.5814">
        <ele>2315.8</ele>
        <time>2018-12-26T10:42:08Z</time>
      </trkpt>
      <trkpt lat="45.33545" lon="6.5814">
        <ele>2317.2</ele>
        <time>2018-12-26T10:42:13Z</time>
      </trkpt>
      <trkpt lat="45.33542" lon="6.58139">
        <ele>2314.6</ele>
        <time>2018-12-26T10:42:18Z</time>
      </trkpt>
      <trkpt lat="45.33538" lon="6.58139">
        <ele>2316</ele>
        <time>2018-12-26T10:42:23Z</time>
      </trkpt>
      <trkpt lat="45.33536" lon="6.58139">
        <ele>2317</ele>
        <time>2018-12-26T10:42:28Z</time>
      </trkpt>
      <trkpt lat="45.33533" lon="6.58139">
        <ele>2318.6</ele>
        <time>2018-12-26T10:42:33Z</time>
      </trkpt>
      <trkpt lat="45.3353" lon="6.58138">
        <ele>2321.8</ele>
        <time>2018-12-26T10:42:38Z</time>
      </trkpt>
      <trkpt lat="45.33528" lon="6.58138">
        <ele>2322.4</ele>
        <time>2018-12-26T10:42:43Z</time>
      </trkpt>
      <trkpt lat="45.33526" lon="6.58137">
        <ele>2319.6</ele>
        <time>2018-12-26T10:42:48Z</time>
      </trkpt>
      <trkpt lat="45.33524" lon="6.58136">
        <ele>2322.8</ele>
        <time>2018-12-26T10:42:53Z</time>
      </trkpt>
      <trkpt lat="45.33522" lon="6.58135">
        <ele>2322.8</ele>
        <time>2018-12-26T10:42:58Z</time>
      </trkpt>
      <trkpt lat="45.3352" lon="6.58134">
        <ele>2322.8</ele>
        <time>2018-12-26T10:43:03Z</time>
      </trkpt>
      <trkpt lat="45.33518" lon="6.58135">
        <ele>2320.6</ele>
        <time>2018-12-26T10:43:08Z</time>
      </trkpt>
      <trkpt lat="45.33516" lon="6.58134">
        <ele>2323</ele>
        <time>2018-12-26T10:43:13Z</time>
      </trkpt>
      <trkpt lat="45.33514" lon="6.58134">
        <ele>2323.2</ele>
        <time>2018-12-26T10:43:18Z</time>
      </trkpt>
      <trkpt lat="45.33512" lon="6.58134">
        <ele>2324.4</ele>
        <time>2018-12-26T10:43:23Z</time>
      </trkpt>
      <trkpt lat="45.3351" lon="6.58135">
        <ele>2326.2</ele>
        <time>2018-12-26T10:43:28Z</time>
      </trkpt>
      <trkpt lat="45.33509" lon="6.58136">
        <ele>2323</ele>
        <time>2018-12-26T10:43:33Z</time>
      </trkpt>
      <trkpt lat="45.33507" lon="6.58139">
        <ele>2326.6</ele>
        <time>2018-12-26T10:43:38Z</time>
      </trkpt>
      <trkpt lat="45.33504" lon="6.5814">
        <ele>2329.8</ele>
        <time>2018-12-26T10:43:43Z</time>
      </trkpt>
      <trkpt lat="45.33502" lon="6.58138">
        <ele>2330</ele>
        <time>2018-12-26T10:43:48Z</time>
      </trkpt>
      <trkpt lat="45.335" lon="6.58135">
        <ele>2328.6</ele>
        <time>2018-12-26T10:43:53Z</time>
      </trkpt>
      <trkpt lat="45.33498" lon="6.58133">
        <ele>2332</ele>
        <time>2018-12-26T10:43:58Z</time>
      </trkpt>
      <trkpt lat="45.33496" lon="6.58131">
        <ele>2334.2</ele>
        <time>2018-12-26T10:44:03Z</time>
      </trkpt>
      <trkpt lat="45.33494" lon="6.58129">
        <ele>2331.6</ele>
        <time>2018-12-26T10:44:08Z</time>
      </trkpt>
      <trkpt lat="45.33492" lon="6.58129">
        <ele>2333.8</ele>
        <time>2018-12-26T10:44:13Z</time>
      </trkpt>
      <trkpt lat="45.33489" lon="6.58129">
        <ele>2334.8</ele>
        <time>2018-12-26T10:44:18Z</time>
      </trkpt>
      <trkpt lat="45.33487" lon="6.5813">
        <ele>2334.6</ele>
        <time>2018-12-26T10:44:23Z</time>
      </trkpt>
      <trkpt lat="45.33484" lon="6.5813">
        <ele>2334.6</ele>
        <time>2018-12-26T10:44:28Z</time>
      </trkpt>
      <trkpt lat="45.33482" lon="6.58127">
        <ele>2335.8</ele>
        <time>2018-12-26T10:44:33Z</time>
      </trkpt>
      <trkpt lat="45.3348" lon="6.58125">
        <ele>2336</ele>
        <time>2018-12-26T10:44:38Z</time>
      </trkpt>
      <trkpt lat="45.33478" lon="6.58124">
        <ele>2336</ele>
        <time>2018-12-26T10:44:43Z</time>
      </trkpt>
      <trkpt lat="45.33476" lon="6.58123">
        <ele>2337</ele>
        <time>2018-12-26T10:44:48Z</time>
      </trkpt>
      <trkpt lat="45.33473" lon="6.58123">
        <ele>2340</ele>
        <time>2018-12-26T10:44:54Z</time>
      </trkpt>
      <trkpt lat="45.33471" lon="6.58123">
        <ele>2339.6</ele>
        <time>2018-12-26T10:44:59Z</time>
      </trkpt>
      <trkpt lat="45.33469" lon="6.58122">
        <ele>2339.8</ele>
        <time>2018-12-26T10:45:04Z</time>
      </trkpt>
      <trkpt lat="45.33466" lon="6.58122">
        <ele>2341</ele>
        <time>2018-12-26T10:45:09Z</time>
      </trkpt>
      <trkpt lat="45.33464" lon="6.5812">
        <ele>2340.4</ele>
        <time>2018-12-26T10:45:14Z</time>
      </trkpt>
      <trkpt lat="45.33463" lon="6.58118">
        <ele>2343</ele>
        <time>2018-12-26T10:45:19Z</time>
      </trkpt>
      <trkpt lat="45.33461" lon="6.58117">
        <ele>2344.2</ele>
        <time>2018-12-26T10:45:24Z</time>
      </trkpt>
      <trkpt lat="45.33459" lon="6.58116">
        <ele>2342.4</ele>
        <time>2018-12-26T10:45:29Z</time>
      </trkpt>
      <trkpt lat="45.33456" lon="6.58115">
        <ele>2344</ele>
        <time>2018-12-26T10:45:34Z</time>
      </trkpt>
      <trkpt lat="45.33454" lon="6.58114">
        <ele>2345.4</ele>
        <time>2018-12-26T10:45:39Z</time>
      </trkpt>
      <trkpt lat="45.33452" lon="6.58112">
        <ele>2342.4</ele>
        <time>2018-12-26T10:45:44Z</time>
      </trkpt>
      <trkpt lat="45.33449" lon="6.58111">
        <ele>2346.8</ele>
        <time>2018-12-26T10:45:49Z</time>
      </trkpt>
      <trkpt lat="45.33447" lon="6.58109">
        <ele>2346.2</ele>
        <time>2018-12-26T10:45:54Z</time>
      </trkpt>
      <trkpt lat="45.33444" lon="6.58108">
        <ele>2345.8</ele>
        <time>2018-12-26T10:45:59Z</time>
      </trkpt>
      <trkpt lat="45.33441" lon="6.58106">
        <ele>2346.8</ele>
        <time>2018-12-26T10:46:04Z</time>
      </trkpt>
      <trkpt lat="45.33439" lon="6.58104">
        <ele>2347.4</ele>
        <time>2018-12-26T10:46:09Z</time>
      </trkpt>
      <trkpt lat="45.33437" lon="6.58101">
        <ele>2344.6</ele>
        <time>2018-12-26T10:46:14Z</time>
      </trkpt>
      <trkpt lat="45.33434" lon="6.581">
        <ele>2348.4</ele>
        <time>2018-12-26T10:46:19Z</time>
      </trkpt>
      <trkpt lat="45.33431" lon="6.58101">
        <ele>2349.6</ele>
        <time>2018-12-26T10:46:24Z</time>
      </trkpt>
      <trkpt lat="45.33427" lon="6.58102">
        <ele>2351.4</ele>
        <time>2018-12-26T10:46:29Z</time>
      </trkpt>
      <trkpt lat="45.33423" lon="6.58105">
        <ele>2352.4</ele>
        <time>2018-12-26T10:46:34Z</time>
      </trkpt>
      <trkpt lat="45.33419" lon="6.58107">
        <ele>2351.4</ele>
        <time>2018-12-26T10:46:39Z</time>
      </trkpt>
      <trkpt lat="45.33417" lon="6.58109">
        <ele>2353.4</ele>
        <time>2018-12-26T10:46:44Z</time>
      </trkpt>
      <trkpt lat="45.33414" lon="6.58111">
        <ele>2352.6</ele>
        <time>2018-12-26T10:46:49Z</time>
      </trkpt>
      <trkpt lat="45.3341" lon="6.58112">
        <ele>2354</ele>
        <time>2018-12-26T10:46:54Z</time>
      </trkpt>
      <trkpt lat="45.33407" lon="6.58114">
        <ele>2354.8</ele>
        <time>2018-12-26T10:46:59Z</time>
      </trkpt>
      <trkpt lat="45.33404" lon="6.58114">
        <ele>2352.6</ele>
        <time>2018-12-26T10:47:04Z</time>
      </trkpt>
      <trkpt lat="45.33401" lon="6.58114">
        <ele>2356.6</ele>
        <time>2018-12-26T10:47:09Z</time>
      </trkpt>
      <trkpt lat="45.33399" lon="6.58114">
        <ele>2352.6</ele>
        <time>2018-12-26T10:47:14Z</time>
      </trkpt>
      <trkpt lat="45.33398" lon="6.58114">
        <ele>2353.4</ele>
        <time>2018-12-26T10:47:19Z</time>
      </trkpt>
      <trkpt lat="45.33394" lon="6.58115">
        <ele>2353.8</ele>
        <time>2018-12-26T10:47:24Z</time>
      </trkpt>
      <trkpt lat="45.3339" lon="6.58115">
        <ele>2354.2</ele>
        <time>2018-12-26T10:47:29Z</time>
      </trkpt>
      <trkpt lat="45.33385" lon="6.58116">
        <ele>2352</ele>
        <time>2018-12-26T10:47:34Z</time>
      </trkpt>
      <trkpt lat="45.33381" lon="6.58117">
        <ele>2353.4</ele>
        <time>2018-12-26T10:47:39Z</time>
      </trkpt>
      <trkpt lat="45.33376" lon="6.58117">
        <ele>2355.6</ele>
        <time>2018-12-26T10:47:44Z</time>
      </trkpt>
      <trkpt lat="45.33372" lon="6.58118">
        <ele>2356.4</ele>
        <time>2018-12-26T10:47:49Z</time>
      </trkpt>
      <trkpt lat="45.33368" lon="6.58121">
        <ele>2356.6</ele>
        <time>2018-12-26T10:47:54Z</time>
      </trkpt>
      <trkpt lat="45.33364" lon="6.58123">
        <ele>2359</ele>
        <time>2018-12-26T10:47:59Z</time>
      </trkpt>
      <trkpt lat="45.3336" lon="6.58125">
        <ele>2359.8</ele>
        <time>2018-12-26T10:48:04Z</time>
      </trkpt>
      <trkpt lat="45.33357" lon="6.58128">
        <ele>2357</ele>
        <time>2018-12-26T10:48:09Z</time>
      </trkpt>
      <trkpt lat="45.33354" lon="6.5813">
        <ele>2357.6</ele>
        <time>2018-12-26T10:48:14Z</time>
      </trkpt>
      <trkpt lat="45.3335" lon="6.58133">
        <ele>2359.4</ele>
        <time>2018-12-26T10:48:19Z</time>
      </trkpt>
      <trkpt lat="45.33345" lon="6.58135">
        <ele>2360.8</ele>
        <time>2018-12-26T10:48:24Z</time>
      </trkpt>
      <trkpt lat="45.33341" lon="6.58137">
        <ele>2359.6</ele>
        <time>2018-12-26T10:48:29Z</time>
      </trkpt>
      <trkpt lat="45.33337" lon="6.58139">
        <ele>2360.8</ele>
        <time>2018-12-26T10:48:34Z</time>
      </trkpt>
      <trkpt lat="45.33333" lon="6.58141">
        <ele>2361.6</ele>
        <time>2018-12-26T10:48:39Z</time>
      </trkpt>
      <trkpt lat="45.3333" lon="6.58143">
        <ele>2363.2</ele>
        <time>2018-12-26T10:48:44Z</time>
      </trkpt>
      <trkpt lat="45.33325" lon="6.58145">
        <ele>2361.6</ele>
        <time>2018-12-26T10:48:49Z</time>
      </trkpt>
      <trkpt lat="45.33322" lon="6.58146">
        <ele>2361.2</ele>
        <time>2018-12-26T10:48:54Z</time>
      </trkpt>
      <trkpt lat="45.33319" lon="6.58146">
        <ele>2361.6</ele>
        <time>2018-12-26T10:48:59Z</time>
      </trkpt>
      <trkpt lat="45.33316" lon="6.58148">
        <ele>2364</ele>
        <time>2018-12-26T10:49:04Z</time>
      </trkpt>
      <trkpt lat="45.33313" lon="6.5815">
        <ele>2364.2</ele>
        <time>2018-12-26T10:49:09Z</time>
      </trkpt>
      <trkpt lat="45.3331" lon="6.58152">
        <ele>2365.6</ele>
        <time>2018-12-26T10:49:14Z</time>
      </trkpt>
      <trkpt lat="45.33306" lon="6.58155">
        <ele>2365.6</ele>
        <time>2018-12-26T10:49:19Z</time>
      </trkpt>
      <trkpt lat="45.33303" lon="6.5816">
        <ele>2365.2</ele>
        <time>2018-12-26T10:49:24Z</time>
      </trkpt>
      <trkpt lat="45.33299" lon="6.58164">
        <ele>2367</ele>
        <time>2018-12-26T10:49:29Z</time>
      </trkpt>
      <trkpt lat="45.33294" lon="6.58169">
        <ele>2366.4</ele>
        <time>2018-12-26T10:49:34Z</time>
      </trkpt>
      <trkpt lat="45.33289" lon="6.58171">
        <ele>2364.8</ele>
        <time>2018-12-26T10:49:40Z</time>
      </trkpt>
      <trkpt lat="45.33284" lon="6.58173">
        <ele>2367.6</ele>
        <time>2018-12-26T10:49:45Z</time>
      </trkpt>
      <trkpt lat="45.33278" lon="6.58175">
        <ele>2366.8</ele>
        <time>2018-12-26T10:49:51Z</time>
      </trkpt>
      <trkpt lat="45.33273" lon="6.58176">
        <ele>2367.4</ele>
        <time>2018-12-26T10:49:56Z</time>
      </trkpt>
      <trkpt lat="45.33268" lon="6.58181">
        <ele>2369.8</ele>
        <time>2018-12-26T10:50:01Z</time>
      </trkpt>
      <trkpt lat="45.33264" lon="6.58189">
        <ele>2369.4</ele>
        <time>2018-12-26T10:50:06Z</time>
      </trkpt>
      <trkpt lat="45.33259" lon="6.5819">
        <ele>2370.2</ele>
        <time>2018-12-26T10:50:11Z</time>
      </trkpt>
      <trkpt lat="45.33254" lon="6.58191">
        <ele>2367.8</ele>
        <time>2018-12-26T10:50:16Z</time>
      </trkpt>
      <trkpt lat="45.33249" lon="6.58191">
        <ele>2368.6</ele>
        <time>2018-12-26T10:50:21Z</time>
      </trkpt>
      <trkpt lat="45.33244" lon="6.58191">
        <ele>2371</ele>
        <time>2018-12-26T10:50:26Z</time>
      </trkpt>
      <trkpt lat="45.33239" lon="6.58192">
        <ele>2370.6</ele>
        <time>2018-12-26T10:50:31Z</time>
      </trkpt>
      <trkpt lat="45.33234" lon="6.58192">
        <ele>2368.6</ele>
        <time>2018-12-26T10:50:36Z</time>
      </trkpt>
      <trkpt lat="45.3323" lon="6.58194">
        <ele>2371.4</ele>
        <time>2018-12-26T10:50:41Z</time>
      </trkpt>
      <trkpt lat="45.33225" lon="6.58196">
        <ele>2372.6</ele>
        <time>2018-12-26T10:50:46Z</time>
      </trkpt>
      <trkpt lat="45.3322" lon="6.58196">
        <ele>2373</ele>
        <time>2018-12-26T10:50:51Z</time>
      </trkpt>
      <trkpt lat="45.33214" lon="6.58196">
        <ele>2374</ele>
        <time>2018-12-26T10:50:56Z</time>
      </trkpt>
      <trkpt lat="45.33208" lon="6.58197">
        <ele>2373</ele>
        <time>2018-12-26T10:51:01Z</time>
      </trkpt>
      <trkpt lat="45.33203" lon="6.58197">
        <ele>2373</ele>
        <time>2018-12-26T10:51:06Z</time>
      </trkpt>
      <trkpt lat="45.33197" lon="6.58197">
        <ele>2375.6</ele>
        <time>2018-12-26T10:51:11Z</time>
      </trkpt>
      <trkpt lat="45.33193" lon="6.58196">
        <ele>2374</ele>
        <time>2018-12-26T10:51:16Z</time>
      </trkpt>
      <trkpt lat="45.33189" lon="6.58196">
        <ele>2377.6</ele>
        <time>2018-12-26T10:51:21Z</time>
      </trkpt>
      <trkpt lat="45.33185" lon="6.58196">
        <ele>2374.4</ele>
        <time>2018-12-26T10:51:26Z</time>
      </trkpt>
      <trkpt lat="45.33181" lon="6.58196">
        <ele>2377.4</ele>
        <time>2018-12-26T10:51:31Z</time>
      </trkpt>
      <trkpt lat="45.33177" lon="6.58196">
        <ele>2375</ele>
        <time>2018-12-26T10:51:36Z</time>
      </trkpt>
      <trkpt lat="45.33173" lon="6.58196">
        <ele>2378</ele>
        <time>2018-12-26T10:51:41Z</time>
      </trkpt>
      <trkpt lat="45.33169" lon="6.58196">
        <ele>2376</ele>
        <time>2018-12-26T10:51:46Z</time>
      </trkpt>
      <trkpt lat="45.33165" lon="6.58196">
        <ele>2377.2</ele>
        <time>2018-12-26T10:51:51Z</time>
      </trkpt>
      <trkpt lat="45.33165" lon="6.58196">
        <ele>2377</ele>
        <time>2018-12-26T10:51:56Z</time>
      </trkpt>
      <trkpt lat="45.33165" lon="6.58196">
        <ele>2376.8</ele>
        <time>2018-12-26T10:52:01Z</time>
      </trkpt>
      <trkpt lat="45.33165" lon="6.58196">
        <ele>2376.6</ele>
        <time>2018-12-26T10:52:06Z</time>
      </trkpt>
      <trkpt lat="45.33165" lon="6.58196">
        <ele>2376.6</ele>
        <time>2018-12-26T10:52:11Z</time>
      </trkpt>
      <trkpt lat="45.33165" lon="6.58196">
        <ele>2376.6</ele>
        <time>2018-12-26T10:52:16Z</time>
      </trkpt>
      <trkpt lat="45.33165" lon="6.58196">
        <ele>2374.2</ele>
        <time>2018-12-26T10:52:21Z</time>
      </trkpt>
      <trkpt lat="45.33162" lon="6.58195">
        <ele>2375.4</ele>
        <time>2018-12-26T10:52:26Z</time>
      </trkpt>
      <trkpt lat="45.33158" lon="6.58195">
        <ele>2378.6</ele>
        <time>2018-12-26T10:52:31Z</time>
      </trkpt>
      <trkpt lat="45.33155" lon="6.58194">
        <ele>2377.4</ele>
        <time>2018-12-26T10:52:36Z</time>
      </trkpt>
      <trkpt lat="45.33151" lon="6.58193">
        <ele>2376.6</ele>
        <time>2018-12-26T10:52:41Z</time>
      </trkpt>
      <trkpt lat="45.33147" lon="6.58194">
        <ele>2376.6</ele>
        <time>2018-12-26T10:52:46Z</time>
      </trkpt>
      <trkpt lat="45.33143" lon="6.58192">
        <ele>2377.4</ele>
        <time>2018-12-26T10:52:51Z</time>
      </trkpt>
      <trkpt lat="45.3314" lon="6.58191">
        <ele>2376.4</ele>
        <time>2018-12-26T10:52:56Z</time>
      </trkpt>
      <trkpt lat="45.33136" lon="6.5819">
        <ele>2378.6</ele>
        <time>2018-12-26T10:53:01Z</time>
      </trkpt>
      <trkpt lat="45.33133" lon="6.58189">
        <ele>2377.8</ele>
        <time>2018-12-26T10:53:06Z</time>
      </trkpt>
      <trkpt lat="45.3313" lon="6.58189">
        <ele>2380.6</ele>
        <time>2018-12-26T10:53:11Z</time>
      </trkpt>
      <trkpt lat="45.33126" lon="6.58188">
        <ele>2378.2</ele>
        <time>2018-12-26T10:53:16Z</time>
      </trkpt>
      <trkpt lat="45.33123" lon="6.58188">
        <ele>2379</ele>
        <time>2018-12-26T10:53:21Z</time>
      </trkpt>
      <trkpt lat="45.33119" lon="6.58187">
        <ele>2376.2</ele>
        <time>2018-12-26T10:53:26Z</time>
      </trkpt>
      <trkpt lat="45.33115" lon="6.58187">
        <ele>2374</ele>
        <time>2018-12-26T10:53:31Z</time>
      </trkpt>
      <trkpt lat="45.33112" lon="6.58186">
        <ele>2377.8</ele>
        <time>2018-12-26T10:53:36Z</time>
      </trkpt>
      <trkpt lat="45.33109" lon="6.58185">
        <ele>2378</ele>
        <time>2018-12-26T10:53:41Z</time>
      </trkpt>
      <trkpt lat="45.33105" lon="6.58186">
        <ele>2376.6</ele>
        <time>2018-12-26T10:53:46Z</time>
      </trkpt>
      <trkpt lat="45.33102" lon="6.58186">
        <ele>2377</ele>
        <time>2018-12-26T10:53:51Z</time>
      </trkpt>
      <trkpt lat="45.33099" lon="6.58185">
        <ele>2379.2</ele>
        <time>2018-12-26T10:53:56Z</time>
      </trkpt>
      <trkpt lat="45.33098" lon="6.58185">
        <ele>2380.8</ele>
        <time>2018-12-26T10:54:01Z</time>
      </trkpt>
      <trkpt lat="45.33098" lon="6.58185">
        <ele>2380.2</ele>
        <time>2018-12-26T10:54:06Z</time>
      </trkpt>
      <trkpt lat="45.33098" lon="6.58185">
        <ele>2379.8</ele>
        <time>2018-12-26T10:54:11Z</time>
      </trkpt>
      <trkpt lat="45.33098" lon="6.58185">
        <ele>2379.6</ele>
        <time>2018-12-26T10:54:16Z</time>
      </trkpt>
      <trkpt lat="45.33098" lon="6.58185">
        <ele>2379.4</ele>
        <time>2018-12-26T10:54:21Z</time>
      </trkpt>
      <trkpt lat="45.33098" lon="6.58185">
        <ele>2379.4</ele>
        <time>2018-12-26T10:54:26Z</time>
      </trkpt>
      <trkpt lat="45.33098" lon="6.58186">
        <ele>2379.2</ele>
        <time>2018-12-26T10:54:31Z</time>
      </trkpt>
      <trkpt lat="45.33097" lon="6.58188">
        <ele>2379.2</ele>
        <time>2018-12-26T10:54:36Z</time>
      </trkpt>
      <trkpt lat="45.33097" lon="6.58188">
        <ele>2379</ele>
        <time>2018-12-26T10:54:41Z</time>
      </trkpt>
      <trkpt lat="45.33097" lon="6.58189">
        <ele>2378.8</ele>
        <time>2018-12-26T10:54:46Z</time>
      </trkpt>
      <trkpt lat="45.33095" lon="6.58188">
        <ele>2382.2</ele>
        <time>2018-12-26T11:01:42Z</time>
      </trkpt>
      <trkpt lat="45.33091" lon="6.58187">
        <ele>2382.6</ele>
        <time>2018-12-26T11:01:47Z</time>
      </trkpt>
      <trkpt lat="45.33087" lon="6.58185">
        <ele>2384.6</ele>
        <time>2018-12-26T11:01:52Z</time>
      </trkpt>
      <trkpt lat="45.33083" lon="6.58183">
        <ele>2384</ele>
        <time>2018-12-26T11:01:57Z</time>
      </trkpt>
      <trkpt lat="45.33079" lon="6.58182">
        <ele>2386.2</ele>
        <time>2018-12-26T11:02:02Z</time>
      </trkpt>
      <trkpt lat="45.33075" lon="6.58181">
        <ele>2387.4</ele>
        <time>2018-12-26T11:02:07Z</time>
      </trkpt>
      <trkpt lat="45.33072" lon="6.5818">
        <ele>2389.8</ele>
        <time>2018-12-26T11:02:12Z</time>
      </trkpt>
      <trkpt lat="45.33068" lon="6.58178">
        <ele>2389.6</ele>
        <time>2018-12-26T11:02:17Z</time>
      </trkpt>
      <trkpt lat="45.33065" lon="6.58177">
        <ele>2390</ele>
        <time>2018-12-26T11:02:22Z</time>
      </trkpt>
      <trkpt lat="45.33062" lon="6.58177">
        <ele>2394.2</ele>
        <time>2018-12-26T11:02:27Z</time>
      </trkpt>
      <trkpt lat="45.33059" lon="6.58176">
        <ele>2396.2</ele>
        <time>2018-12-26T11:02:32Z</time>
      </trkpt>
      <trkpt lat="45.33055" lon="6.58175">
        <ele>2395.4</ele>
        <time>2018-12-26T11:02:37Z</time>
      </trkpt>
      <trkpt lat="45.33052" lon="6.58175">
        <ele>2395.2</ele>
        <time>2018-12-26T11:02:42Z</time>
      </trkpt>
      <trkpt lat="45.33049" lon="6.58174">
        <ele>2394.4</ele>
        <time>2018-12-26T11:02:47Z</time>
      </trkpt>
      <trkpt lat="45.33045" lon="6.58173">
        <ele>2393.6</ele>
        <time>2018-12-26T11:02:52Z</time>
      </trkpt>
      <trkpt lat="45.33042" lon="6.58172">
        <ele>2395.8</ele>
        <time>2018-12-26T11:02:57Z</time>
      </trkpt>
      <trkpt lat="45.33038" lon="6.58172">
        <ele>2398</ele>
        <time>2018-12-26T11:03:02Z</time>
      </trkpt>
      <trkpt lat="45.33034" lon="6.58171">
        <ele>2399</ele>
        <time>2018-12-26T11:03:07Z</time>
      </trkpt>
      <trkpt lat="45.3303" lon="6.5817">
        <ele>2397</ele>
        <time>2018-12-26T11:03:12Z</time>
      </trkpt>
      <trkpt lat="45.33026" lon="6.58171">
        <ele>2400</ele>
        <time>2018-12-26T11:03:17Z</time>
      </trkpt>
      <trkpt lat="45.33022" lon="6.58171">
        <ele>2396.8</ele>
        <time>2018-12-26T11:03:22Z</time>
      </trkpt>
      <trkpt lat="45.33019" lon="6.58171">
        <ele>2399.6</ele>
        <time>2018-12-26T11:03:27Z</time>
      </trkpt>
      <trkpt lat="45.33014" lon="6.58171">
        <ele>2402.8</ele>
        <time>2018-12-26T11:03:33Z</time>
      </trkpt>
      <trkpt lat="45.33011" lon="6.58171">
        <ele>2403.2</ele>
        <time>2018-12-26T11:03:38Z</time>
      </trkpt>
      <trkpt lat="45.33007" lon="6.5817">
        <ele>2401.8</ele>
        <time>2018-12-26T11:03:43Z</time>
      </trkpt>
      <trkpt lat="45.33004" lon="6.5817">
        <ele>2401</ele>
        <time>2018-12-26T11:03:48Z</time>
      </trkpt>
      <trkpt lat="45.33" lon="6.5817">
        <ele>2401.2</ele>
        <time>2018-12-26T11:03:53Z</time>
      </trkpt>
      <trkpt lat="45.32997" lon="6.5817">
        <ele>2403.4</ele>
        <time>2018-12-26T11:03:58Z</time>
      </trkpt>
      <trkpt lat="45.32994" lon="6.58171">
        <ele>2404.2</ele>
        <time>2018-12-26T11:04:03Z</time>
      </trkpt>
      <trkpt lat="45.32994" lon="6.58171">
        <ele>2404</ele>
        <time>2018-12-26T11:04:08Z</time>
      </trkpt>
      <trkpt lat="45.32993" lon="6.58172">
        <ele>2403.4</ele>
        <time>2018-12-26T11:04:13Z</time>
      </trkpt>
      <trkpt lat="45.3299" lon="6.58173">
        <ele>2404.2</ele>
        <time>2018-12-26T11:04:18Z</time>
      </trkpt>
      <trkpt lat="45.32988" lon="6.58173">
        <ele>2403</ele>
        <time>2018-12-26T11:04:23Z</time>
      </trkpt>
      <trkpt lat="45.32985" lon="6.58173">
        <ele>2408.4</ele>
        <time>2018-12-26T11:04:28Z</time>
      </trkpt>
      <trkpt lat="45.32982" lon="6.58175">
        <ele>2409.2</ele>
        <time>2018-12-26T11:04:33Z</time>
      </trkpt>
      <trkpt lat="45.3298" lon="6.58175">
        <ele>2408.2</ele>
        <time>2018-12-26T11:04:38Z</time>
      </trkpt>
      <trkpt lat="45.32977" lon="6.58176">
        <ele>2408.4</ele>
        <time>2018-12-26T11:04:43Z</time>
      </trkpt>
      <trkpt lat="45.32975" lon="6.58177">
        <ele>2407.2</ele>
        <time>2018-12-26T11:04:48Z</time>
      </trkpt>
      <trkpt lat="45.32972" lon="6.58178">
        <ele>2409</ele>
        <time>2018-12-26T11:04:53Z</time>
      </trkpt>
      <trkpt lat="45.32969" lon="6.58179">
        <ele>2410.6</ele>
        <time>2018-12-26T11:04:58Z</time>
      </trkpt>
      <trkpt lat="45.32966" lon="6.58179">
        <ele>2409.2</ele>
        <time>2018-12-26T11:05:03Z</time>
      </trkpt>
      <trkpt lat="45.32963" lon="6.58179">
        <ele>2410.4</ele>
        <time>2018-12-26T11:05:08Z</time>
      </trkpt>
      <trkpt lat="45.3296" lon="6.58179">
        <ele>2410.8</ele>
        <time>2018-12-26T11:05:13Z</time>
      </trkpt>
      <trkpt lat="45.32958" lon="6.58178">
        <ele>2411.4</ele>
        <time>2018-12-26T11:05:18Z</time>
      </trkpt>
      <trkpt lat="45.32955" lon="6.58179">
        <ele>2411.6</ele>
        <time>2018-12-26T11:05:23Z</time>
      </trkpt>
      <trkpt lat="45.32952" lon="6.58179">
        <ele>2412</ele>
        <time>2018-12-26T11:05:28Z</time>
      </trkpt>
      <trkpt lat="45.3295" lon="6.5818">
        <ele>2412.2</ele>
        <time>2018-12-26T11:05:33Z</time>
      </trkpt>
      <trkpt lat="45.32947" lon="6.58181">
        <ele>2413.4</ele>
        <time>2018-12-26T11:05:38Z</time>
      </trkpt>
      <trkpt lat="45.32945" lon="6.58182">
        <ele>2413.6</ele>
        <time>2018-12-26T11:05:43Z</time>
      </trkpt>
      <trkpt lat="45.32943" lon="6.58183">
        <ele>2414.4</ele>
        <time>2018-12-26T11:05:48Z</time>
      </trkpt>
      <trkpt lat="45.32941" lon="6.58184">
        <ele>2415.6</ele>
        <time>2018-12-26T11:05:53Z</time>
      </trkpt>
      <trkpt lat="45.32938" lon="6.58185">
        <ele>2419.6</ele>
        <time>2018-12-26T11:05:58Z</time>
      </trkpt>
      <trkpt lat="45.32936" lon="6.58186">
        <ele>2420</ele>
        <time>2018-12-26T11:06:03Z</time>
      </trkpt>
      <trkpt lat="45.32933" lon="6.58187">
        <ele>2417.4</ele>
        <time>2018-12-26T11:06:08Z</time>
      </trkpt>
      <trkpt lat="45.32931" lon="6.58189">
        <ele>2415.6</ele>
        <time>2018-12-26T11:06:13Z</time>
      </trkpt>
      <trkpt lat="45.32929" lon="6.5819">
        <ele>2417.8</ele>
        <time>2018-12-26T11:06:18Z</time>
      </trkpt>
      <trkpt lat="45.32927" lon="6.58192">
        <ele>2419.6</ele>
        <time>2018-12-26T11:06:23Z</time>
      </trkpt>
      <trkpt lat="45.32925" lon="6.58192">
        <ele>2419.4</ele>
        <time>2018-12-26T11:06:28Z</time>
      </trkpt>
      <trkpt lat="45.32924" lon="6.58193">
        <ele>2421</ele>
        <time>2018-12-26T11:06:33Z</time>
      </trkpt>
      <trkpt lat="45.32922" lon="6.58194">
        <ele>2423.4</ele>
        <time>2018-12-26T11:06:38Z</time>
      </trkpt>
      <trkpt lat="45.3292" lon="6.58195">
        <ele>2424.6</ele>
        <time>2018-12-26T11:06:43Z</time>
      </trkpt>
      <trkpt lat="45.32918" lon="6.58196">
        <ele>2424.2</ele>
        <time>2018-12-26T11:06:48Z</time>
      </trkpt>
      <trkpt lat="45.32915" lon="6.58196">
        <ele>2423.8</ele>
        <time>2018-12-26T11:06:53Z</time>
      </trkpt>
      <trkpt lat="45.32913" lon="6.58197">
        <ele>2427</ele>
        <time>2018-12-26T11:06:58Z</time>
      </trkpt>
      <trkpt lat="45.3291" lon="6.58197">
        <ele>2427.6</ele>
        <time>2018-12-26T11:07:03Z</time>
      </trkpt>
      <trkpt lat="45.32908" lon="6.58197">
        <ele>2428.6</ele>
        <time>2018-12-26T11:07:08Z</time>
      </trkpt>
      <trkpt lat="45.32905" lon="6.58197">
        <ele>2428.4</ele>
        <time>2018-12-26T11:07:13Z</time>
      </trkpt>
      <trkpt lat="45.32903" lon="6.58198">
        <ele>2432</ele>
        <time>2018-12-26T11:07:18Z</time>
      </trkpt>
      <trkpt lat="45.329" lon="6.58198">
        <ele>2429.4</ele>
        <time>2018-12-26T11:07:23Z</time>
      </trkpt>
      <trkpt lat="45.32898" lon="6.58198">
        <ele>2431.6</ele>
        <time>2018-12-26T11:07:28Z</time>
      </trkpt>
      <trkpt lat="45.32895" lon="6.58198">
        <ele>2429.6</ele>
        <time>2018-12-26T11:07:33Z</time>
      </trkpt>
      <trkpt lat="45.32893" lon="6.58198">
        <ele>2431</ele>
        <time>2018-12-26T11:07:38Z</time>
      </trkpt>
      <trkpt lat="45.3289" lon="6.58199">
        <ele>2433.4</ele>
        <time>2018-12-26T11:07:43Z</time>
      </trkpt>
      <trkpt lat="45.32888" lon="6.58199">
        <ele>2434.4</ele>
        <time>2018-12-26T11:07:48Z</time>
      </trkpt>
      <trkpt lat="45.32885" lon="6.58199">
        <ele>2436</ele>
        <time>2018-12-26T11:07:53Z</time>
      </trkpt>
      <trkpt lat="45.32883" lon="6.58199">
        <ele>2433</ele>
        <time>2018-12-26T11:07:58Z</time>
      </trkpt>
      <trkpt lat="45.3288" lon="6.58199">
        <ele>2430.6</ele>
        <time>2018-12-26T11:08:03Z</time>
      </trkpt>
      <trkpt lat="45.32878" lon="6.58198">
        <ele>2436</ele>
        <time>2018-12-26T11:08:08Z</time>
      </trkpt>
      <trkpt lat="45.32875" lon="6.58198">
        <ele>2434.4</ele>
        <time>2018-12-26T11:08:13Z</time>
      </trkpt>
      <trkpt lat="45.32872" lon="6.58197">
        <ele>2436.4</ele>
        <time>2018-12-26T11:08:18Z</time>
      </trkpt>
      <trkpt lat="45.3287" lon="6.58197">
        <ele>2438.4</ele>
        <time>2018-12-26T11:08:23Z</time>
      </trkpt>
      <trkpt lat="45.32867" lon="6.58197">
        <ele>2438.8</ele>
        <time>2018-12-26T11:08:29Z</time>
      </trkpt>
      <trkpt lat="45.32864" lon="6.58198">
        <ele>2437.8</ele>
        <time>2018-12-26T11:08:34Z</time>
      </trkpt>
      <trkpt lat="45.32862" lon="6.58198">
        <ele>2440.8</ele>
        <time>2018-12-26T11:08:39Z</time>
      </trkpt>
      <trkpt lat="45.3286" lon="6.58199">
        <ele>2440.2</ele>
        <time>2018-12-26T11:08:44Z</time>
      </trkpt>
      <trkpt lat="45.32858" lon="6.58201">
        <ele>2441.4</ele>
        <time>2018-12-26T11:08:49Z</time>
      </trkpt>
      <trkpt lat="45.32856" lon="6.58202">
        <ele>2444</ele>
        <time>2018-12-26T11:08:54Z</time>
      </trkpt>
      <trkpt lat="45.32854" lon="6.58203">
        <ele>2445.4</ele>
        <time>2018-12-26T11:08:59Z</time>
      </trkpt>
      <trkpt lat="45.32852" lon="6.58205">
        <ele>2443.2</ele>
        <time>2018-12-26T11:09:04Z</time>
      </trkpt>
      <trkpt lat="45.3285" lon="6.58206">
        <ele>2443</ele>
        <time>2018-12-26T11:09:09Z</time>
      </trkpt>
      <trkpt lat="45.32848" lon="6.58207">
        <ele>2445.6</ele>
        <time>2018-12-26T11:09:14Z</time>
      </trkpt>
      <trkpt lat="45.32846" lon="6.58208">
        <ele>2444.4</ele>
        <time>2018-12-26T11:09:19Z</time>
      </trkpt>
      <trkpt lat="45.32844" lon="6.5821">
        <ele>2447</ele>
        <time>2018-12-26T11:09:24Z</time>
      </trkpt>
      <trkpt lat="45.32843" lon="6.58211">
        <ele>2446.2</ele>
        <time>2018-12-26T11:09:29Z</time>
      </trkpt>
      <trkpt lat="45.32841" lon="6.58213">
        <ele>2447.6</ele>
        <time>2018-12-26T11:09:34Z</time>
      </trkpt>
      <trkpt lat="45.3284" lon="6.58215">
        <ele>2446</ele>
        <time>2018-12-26T11:09:39Z</time>
      </trkpt>
      <trkpt lat="45.32838" lon="6.58217">
        <ele>2446.6</ele>
        <time>2018-12-26T11:09:44Z</time>
      </trkpt>
      <trkpt lat="45.32837" lon="6.58219">
        <ele>2448.4</ele>
        <time>2018-12-26T11:09:49Z</time>
      </trkpt>
      <trkpt lat="45.32835" lon="6.58219">
        <ele>2448.2</ele>
        <time>2018-12-26T11:09:54Z</time>
      </trkpt>
      <trkpt lat="45.32833" lon="6.58217">
        <ele>2449.2</ele>
        <time>2018-12-26T11:09:59Z</time>
      </trkpt>
      <trkpt lat="45.32832" lon="6.58215">
        <ele>2447.4</ele>
        <time>2018-12-26T11:10:04Z</time>
      </trkpt>
      <trkpt lat="45.32831" lon="6.58213">
        <ele>2447.4</ele>
        <time>2018-12-26T11:10:09Z</time>
      </trkpt>
      <trkpt lat="45.3283" lon="6.5821">
        <ele>2447.2</ele>
        <time>2018-12-26T11:10:14Z</time>
      </trkpt>
      <trkpt lat="45.32829" lon="6.58208">
        <ele>2447.6</ele>
        <time>2018-12-26T11:10:19Z</time>
      </trkpt>
      <trkpt lat="45.32827" lon="6.58205">
        <ele>2447.6</ele>
        <time>2018-12-26T11:10:24Z</time>
      </trkpt>
      <trkpt lat="45.32826" lon="6.58202">
        <ele>2449.6</ele>
        <time>2018-12-26T11:10:29Z</time>
      </trkpt>
      <trkpt lat="45.32824" lon="6.58199">
        <ele>2450</ele>
        <time>2018-12-26T11:10:34Z</time>
      </trkpt>
      <trkpt lat="45.32823" lon="6.58197">
        <ele>2451</ele>
        <time>2018-12-26T11:10:39Z</time>
      </trkpt>
      <trkpt lat="45.32822" lon="6.58194">
        <ele>2452.2</ele>
        <time>2018-12-26T11:10:44Z</time>
      </trkpt>
      <trkpt lat="45.32821" lon="6.58192">
        <ele>2452.4</ele>
        <time>2018-12-26T11:10:49Z</time>
      </trkpt>
      <trkpt lat="45.3282" lon="6.58189">
        <ele>2453.6</ele>
        <time>2018-12-26T11:10:54Z</time>
      </trkpt>
      <trkpt lat="45.32818" lon="6.58187">
        <ele>2452.8</ele>
        <time>2018-12-26T11:10:59Z</time>
      </trkpt>
      <trkpt lat="45.32817" lon="6.58184">
        <ele>2455</ele>
        <time>2018-12-26T11:11:04Z</time>
      </trkpt>
      <trkpt lat="45.32816" lon="6.58181">
        <ele>2454.2</ele>
        <time>2018-12-26T11:11:09Z</time>
      </trkpt>
      <trkpt lat="45.32815" lon="6.58179">
        <ele>2453.6</ele>
        <time>2018-12-26T11:11:14Z</time>
      </trkpt>
      <trkpt lat="45.32815" lon="6.58176">
        <ele>2456.6</ele>
        <time>2018-12-26T11:11:19Z</time>
      </trkpt>
      <trkpt lat="45.32814" lon="6.58173">
        <ele>2457.2</ele>
        <time>2018-12-26T11:11:24Z</time>
      </trkpt>
      <trkpt lat="45.32813" lon="6.5817">
        <ele>2458.2</ele>
        <time>2018-12-26T11:11:29Z</time>
      </trkpt>
      <trkpt lat="45.32813" lon="6.58166">
        <ele>2456.6</ele>
        <time>2018-12-26T11:11:34Z</time>
      </trkpt>
      <trkpt lat="45.32812" lon="6.58163">
        <ele>2458.8</ele>
        <time>2018-12-26T11:11:39Z</time>
      </trkpt>
      <trkpt lat="45.32811" lon="6.58159">
        <ele>2459.2</ele>
        <time>2018-12-26T11:11:44Z</time>
      </trkpt>
      <trkpt lat="45.32811" lon="6.58155">
        <ele>2460</ele>
        <time>2018-12-26T11:11:49Z</time>
      </trkpt>
      <trkpt lat="45.32809" lon="6.58152">
        <ele>2463</ele>
        <time>2018-12-26T11:11:54Z</time>
      </trkpt>
      <trkpt lat="45.32808" lon="6.58148">
        <ele>2462.2</ele>
        <time>2018-12-26T11:11:59Z</time>
      </trkpt>
      <trkpt lat="45.32807" lon="6.58145">
        <ele>2462.8</ele>
        <time>2018-12-26T11:12:04Z</time>
      </trkpt>
      <trkpt lat="45.32805" lon="6.58142">
        <ele>2462.6</ele>
        <time>2018-12-26T11:12:09Z</time>
      </trkpt>
      <trkpt lat="45.32803" lon="6.58139">
        <ele>2463.4</ele>
        <time>2018-12-26T11:12:14Z</time>
      </trkpt>
      <trkpt lat="45.32801" lon="6.58137">
        <ele>2464.8</ele>
        <time>2018-12-26T11:12:19Z</time>
      </trkpt>
      <trkpt lat="45.32799" lon="6.58134">
        <ele>2465.4</ele>
        <time>2018-12-26T11:12:24Z</time>
      </trkpt>
      <trkpt lat="45.32797" lon="6.58133">
        <ele>2463.2</ele>
        <time>2018-12-26T11:12:29Z</time>
      </trkpt>
      <trkpt lat="45.32795" lon="6.58131">
        <ele>2467</ele>
        <time>2018-12-26T11:12:34Z</time>
      </trkpt>
      <trkpt lat="45.32792" lon="6.5813">
        <ele>2466.6</ele>
        <time>2018-12-26T11:12:39Z</time>
      </trkpt>
      <trkpt lat="45.3279" lon="6.58128">
        <ele>2464.4</ele>
        <time>2018-12-26T11:12:44Z</time>
      </trkpt>
      <trkpt lat="45.32787" lon="6.58127">
        <ele>2468.6</ele>
        <time>2018-12-26T11:12:49Z</time>
      </trkpt>
      <trkpt lat="45.32785" lon="6.58126">
        <ele>2466.4</ele>
        <time>2018-12-26T11:12:54Z</time>
      </trkpt>
      <trkpt lat="45.32783" lon="6.58125">
        <ele>2468.4</ele>
        <time>2018-12-26T11:12:59Z</time>
      </trkpt>
      <trkpt lat="45.32781" lon="6.58124">
        <ele>2470.2</ele>
        <time>2018-12-26T11:13:04Z</time>
      </trkpt>
      <trkpt lat="45.32779" lon="6.58123">
        <ele>2470.4</ele>
        <time>2018-12-26T11:13:09Z</time>
      </trkpt>
      <trkpt lat="45.32776" lon="6.58123">
        <ele>2473.8</ele>
        <time>2018-12-26T11:13:14Z</time>
      </trkpt>
      <trkpt lat="45.32773" lon="6.58122">
        <ele>2472.2</ele>
        <time>2018-12-26T11:13:19Z</time>
      </trkpt>
      <trkpt lat="45.32771" lon="6.58123">
        <ele>2475</ele>
        <time>2018-12-26T11:13:24Z</time>
      </trkpt>
      <trkpt lat="45.32769" lon="6.58127">
        <ele>2475.2</ele>
        <time>2018-12-26T11:13:29Z</time>
      </trkpt>
      <trkpt lat="45.32767" lon="6.58132">
        <ele>2474.6</ele>
        <time>2018-12-26T11:13:35Z</time>
      </trkpt>
      <trkpt lat="45.32766" lon="6.58136">
        <ele>2474.4</ele>
        <time>2018-12-26T11:13:40Z</time>
      </trkpt>
      <trkpt lat="45.32764" lon="6.5814">
        <ele>2475.4</ele>
        <time>2018-12-26T11:13:45Z</time>
      </trkpt>
      <trkpt lat="45.32763" lon="6.58143">
        <ele>2475.8</ele>
        <time>2018-12-26T11:13:50Z</time>
      </trkpt>
      <trkpt lat="45.32762" lon="6.58145">
        <ele>2479</ele>
        <time>2018-12-26T11:17:20Z</time>
      </trkpt>
      <trkpt lat="45.3276" lon="6.58148">
        <ele>2477.6</ele>
        <time>2018-12-26T11:17:25Z</time>
      </trkpt>
      <trkpt lat="45.32758" lon="6.5815">
        <ele>2477</ele>
        <time>2018-12-26T11:17:30Z</time>
      </trkpt>
      <trkpt lat="45.32756" lon="6.58154">
        <ele>2479.8</ele>
        <time>2018-12-26T11:17:35Z</time>
      </trkpt>
      <trkpt lat="45.32753" lon="6.58158">
        <ele>2480.8</ele>
        <time>2018-12-26T11:17:40Z</time>
      </trkpt>
      <trkpt lat="45.32751" lon="6.58161">
        <ele>2479.6</ele>
        <time>2018-12-26T11:17:45Z</time>
      </trkpt>
      <trkpt lat="45.32749" lon="6.58165">
        <ele>2478.6</ele>
        <time>2018-12-26T11:17:50Z</time>
      </trkpt>
      <trkpt lat="45.32747" lon="6.58168">
        <ele>2480.6</ele>
        <time>2018-12-26T11:17:55Z</time>
      </trkpt>
      <trkpt lat="45.32745" lon="6.58171">
        <ele>2484.6</ele>
        <time>2018-12-26T11:18:00Z</time>
      </trkpt>
      <trkpt lat="45.32744" lon="6.58173">
        <ele>2482.2</ele>
        <time>2018-12-26T11:18:05Z</time>
      </trkpt>
      <trkpt lat="45.32742" lon="6.58176">
        <ele>2485.2</ele>
        <time>2018-12-26T11:18:10Z</time>
      </trkpt>
      <trkpt lat="45.32741" lon="6.58179">
        <ele>2484.2</ele>
        <time>2018-12-26T11:18:15Z</time>
      </trkpt>
      <trkpt lat="45.32741" lon="6.58182">
        <ele>2484.2</ele>
        <time>2018-12-26T11:18:20Z</time>
      </trkpt>
      <trkpt lat="45.32741" lon="6.58186">
        <ele>2486.2</ele>
        <time>2018-12-26T11:18:25Z</time>
      </trkpt>
      <trkpt lat="45.3274" lon="6.5819">
        <ele>2488</ele>
        <time>2018-12-26T11:18:30Z</time>
      </trkpt>
      <trkpt lat="45.32739" lon="6.58194">
        <ele>2488.2</ele>
        <time>2018-12-26T11:18:35Z</time>
      </trkpt>
      <trkpt lat="45.32737" lon="6.58197">
        <ele>2489.8</ele>
        <time>2018-12-26T11:18:40Z</time>
      </trkpt>
      <trkpt lat="45.32735" lon="6.582">
        <ele>2487.6</ele>
        <time>2018-12-26T11:18:45Z</time>
      </trkpt>
      <trkpt lat="45.32733" lon="6.58203">
        <ele>2490</ele>
        <time>2018-12-26T11:18:50Z</time>
      </trkpt>
      <trkpt lat="45.3273" lon="6.58205">
        <ele>2489.6</ele>
        <time>2018-12-26T11:18:55Z</time>
      </trkpt>
      <trkpt lat="45.32728" lon="6.58207">
        <ele>2488.8</ele>
        <time>2018-12-26T11:19:00Z</time>
      </trkpt>
      <trkpt lat="45.32727" lon="6.58209">
        <ele>2490.8</ele>
        <time>2018-12-26T11:19:05Z</time>
      </trkpt>
      <trkpt lat="45.32726" lon="6.5821">
        <ele>2492.8</ele>
        <time>2018-12-26T11:19:10Z</time>
      </trkpt>
      <trkpt lat="45.32724" lon="6.58212">
        <ele>2492.8</ele>
        <time>2018-12-26T11:19:15Z</time>
      </trkpt>
      <trkpt lat="45.32722" lon="6.58213">
        <ele>2489.8</ele>
        <time>2018-12-26T11:19:21Z</time>
      </trkpt>
      <trkpt lat="45.32721" lon="6.58215">
        <ele>2490.6</ele>
        <time>2018-12-26T11:19:26Z</time>
      </trkpt>
      <trkpt lat="45.32719" lon="6.58216">
        <ele>2495.4</ele>
        <time>2018-12-26T11:19:31Z</time>
      </trkpt>
      <trkpt lat="45.32717" lon="6.58218">
        <ele>2497.8</ele>
        <time>2018-12-26T11:19:36Z</time>
      </trkpt>
      <trkpt lat="45.32716" lon="6.5822">
        <ele>2498</ele>
        <time>2018-12-26T11:19:41Z</time>
      </trkpt>
      <trkpt lat="45.32714" lon="6.58222">
        <ele>2498.6</ele>
        <time>2018-12-26T11:19:46Z</time>
      </trkpt>
      <trkpt lat="45.32712" lon="6.58223">
        <ele>2500</ele>
        <time>2018-12-26T11:19:51Z</time>
      </trkpt>
      <trkpt lat="45.3271" lon="6.58225">
        <ele>2498</ele>
        <time>2018-12-26T11:19:56Z</time>
      </trkpt>
      <trkpt lat="45.32709" lon="6.58227">
        <ele>2498.4</ele>
        <time>2018-12-26T11:20:01Z</time>
      </trkpt>
      <trkpt lat="45.32708" lon="6.58229">
        <ele>2499.8</ele>
        <time>2018-12-26T11:20:06Z</time>
      </trkpt>
      <trkpt lat="45.32706" lon="6.58231">
        <ele>2500.4</ele>
        <time>2018-12-26T11:20:11Z</time>
      </trkpt>
      <trkpt lat="45.32704" lon="6.58233">
        <ele>2499</ele>
        <time>2018-12-26T11:20:16Z</time>
      </trkpt>
      <trkpt lat="45.32702" lon="6.58236">
        <ele>2499</ele>
        <time>2018-12-26T11:20:21Z</time>
      </trkpt>
      <trkpt lat="45.32701" lon="6.58238">
        <ele>2501.2</ele>
        <time>2018-12-26T11:20:26Z</time>
      </trkpt>
      <trkpt lat="45.327" lon="6.5824">
        <ele>2504</ele>
        <time>2018-12-26T11:20:31Z</time>
      </trkpt>
      <trkpt lat="45.32698" lon="6.58243">
        <ele>2499.8</ele>
        <time>2018-12-26T11:20:36Z</time>
      </trkpt>
      <trkpt lat="45.32696" lon="6.58245">
        <ele>2501</ele>
        <time>2018-12-26T11:20:41Z</time>
      </trkpt>
      <trkpt lat="45.32695" lon="6.58249">
        <ele>2506</ele>
        <time>2018-12-26T11:20:46Z</time>
      </trkpt>
      <trkpt lat="45.32694" lon="6.58252">
        <ele>2508</ele>
        <time>2018-12-26T11:20:51Z</time>
      </trkpt>
      <trkpt lat="45.32695" lon="6.58255">
        <ele>2506</ele>
        <time>2018-12-26T11:20:56Z</time>
      </trkpt>
      <trkpt lat="45.32695" lon="6.58258">
        <ele>2506.2</ele>
        <time>2018-12-26T11:21:01Z</time>
      </trkpt>
      <trkpt lat="45.32695" lon="6.58262">
        <ele>2508.8</ele>
        <time>2018-12-26T11:21:06Z</time>
      </trkpt>
      <trkpt lat="45.32697" lon="6.58265">
        <ele>2509.8</ele>
        <time>2018-12-26T11:21:11Z</time>
      </trkpt>
      <trkpt lat="45.32698" lon="6.58268">
        <ele>2509.6</ele>
        <time>2018-12-26T11:21:16Z</time>
      </trkpt>
      <trkpt lat="45.327" lon="6.58271">
        <ele>2509.8</ele>
        <time>2018-12-26T11:21:21Z</time>
      </trkpt>
      <trkpt lat="45.32701" lon="6.58275">
        <ele>2508.8</ele>
        <time>2018-12-26T11:21:26Z</time>
      </trkpt>
      <trkpt lat="45.32701" lon="6.58279">
        <ele>2510.6</ele>
        <time>2018-12-26T11:21:31Z</time>
      </trkpt>
      <trkpt lat="45.32701" lon="6.58283">
        <ele>2516.6</ele>
        <time>2018-12-26T11:21:36Z</time>
      </trkpt>
      <trkpt lat="45.327" lon="6.58286">
        <ele>2515.6</ele>
        <time>2018-12-26T11:21:41Z</time>
      </trkpt>
      <trkpt lat="45.32698" lon="6.58288">
        <ele>2515.2</ele>
        <time>2018-12-26T11:21:46Z</time>
      </trkpt>
      <trkpt lat="45.32696" lon="6.5829">
        <ele>2513</ele>
        <time>2018-12-26T11:21:51Z</time>
      </trkpt>
      <trkpt lat="45.32693" lon="6.58292">
        <ele>2515.6</ele>
        <time>2018-12-26T11:21:56Z</time>
      </trkpt>
      <trkpt lat="45.32691" lon="6.58293">
        <ele>2517.8</ele>
        <time>2018-12-26T11:22:01Z</time>
      </trkpt>
      <trkpt lat="45.3269" lon="6.58296">
        <ele>2517.2</ele>
        <time>2018-12-26T11:22:06Z</time>
      </trkpt>
      <trkpt lat="45.32689" lon="6.58299">
        <ele>2518.4</ele>
        <time>2018-12-26T11:22:11Z</time>
      </trkpt>
      <trkpt lat="45.32688" lon="6.58302">
        <ele>2519.2</ele>
        <time>2018-12-26T11:22:16Z</time>
      </trkpt>
      <trkpt lat="45.32687" lon="6.58304">
        <ele>2519.4</ele>
        <time>2018-12-26T11:22:21Z</time>
      </trkpt>
      <trkpt lat="45.32685" lon="6.58305">
        <ele>2522.6</ele>
        <time>2018-12-26T11:22:26Z</time>
      </trkpt>
      <trkpt lat="45.32683" lon="6.58305">
        <ele>2521.8</ele>
        <time>2018-12-26T11:22:31Z</time>
      </trkpt>
      <trkpt lat="45.32681" lon="6.58305">
        <ele>2520.8</ele>
        <time>2018-12-26T11:22:36Z</time>
      </trkpt>
      <trkpt lat="45.32679" lon="6.58303">
        <ele>2524.8</ele>
        <time>2018-12-26T11:22:41Z</time>
      </trkpt>
      <trkpt lat="45.32677" lon="6.58303">
        <ele>2523.2</ele>
        <time>2018-12-26T11:22:46Z</time>
      </trkpt>
      <trkpt lat="45.32675" lon="6.58302">
        <ele>2522.6</ele>
        <time>2018-12-26T11:22:51Z</time>
      </trkpt>
      <trkpt lat="45.32672" lon="6.58302">
        <ele>2521.8</ele>
        <time>2018-12-26T11:22:56Z</time>
      </trkpt>
      <trkpt lat="45.3267" lon="6.58302">
        <ele>2524.4</ele>
        <time>2018-12-26T11:23:01Z</time>
      </trkpt>
      <trkpt lat="45.32668" lon="6.58302">
        <ele>2523.2</ele>
        <time>2018-12-26T11:23:06Z</time>
      </trkpt>
      <trkpt lat="45.32666" lon="6.58302">
        <ele>2526.2</ele>
        <time>2018-12-26T11:23:11Z</time>
      </trkpt>
      <trkpt lat="45.32663" lon="6.58301">
        <ele>2523.8</ele>
        <time>2018-12-26T11:23:16Z</time>
      </trkpt>
      <trkpt lat="45.32661" lon="6.58301">
        <ele>2527</ele>
        <time>2018-12-26T11:23:21Z</time>
      </trkpt>
      <trkpt lat="45.32658" lon="6.583">
        <ele>2527.6</ele>
        <time>2018-12-26T11:23:26Z</time>
      </trkpt>
      <trkpt lat="45.32656" lon="6.583">
        <ele>2527.8</ele>
        <time>2018-12-26T11:23:31Z</time>
      </trkpt>
      <trkpt lat="45.32653" lon="6.58299">
        <ele>2528</ele>
        <time>2018-12-26T11:23:36Z</time>
      </trkpt>
      <trkpt lat="45.32651" lon="6.58299">
        <ele>2529.2</ele>
        <time>2018-12-26T11:23:41Z</time>
      </trkpt>
      <trkpt lat="45.32648" lon="6.58298">
        <ele>2531.8</ele>
        <time>2018-12-26T11:23:47Z</time>
      </trkpt>
      <trkpt lat="45.32645" lon="6.58298">
        <ele>2529</ele>
        <time>2018-12-26T11:23:52Z</time>
      </trkpt>
      <trkpt lat="45.32643" lon="6.58298">
        <ele>2529.6</ele>
        <time>2018-12-26T11:23:57Z</time>
      </trkpt>
      <trkpt lat="45.32641" lon="6.58298">
        <ele>2530.2</ele>
        <time>2018-12-26T11:24:02Z</time>
      </trkpt>
      <trkpt lat="45.32638" lon="6.58298">
        <ele>2534.8</ele>
        <time>2018-12-26T11:24:07Z</time>
      </trkpt>
      <trkpt lat="45.32636" lon="6.58298">
        <ele>2534.4</ele>
        <time>2018-12-26T11:24:12Z</time>
      </trkpt>
      <trkpt lat="45.32633" lon="6.58298">
        <ele>2533.6</ele>
        <time>2018-12-26T11:24:17Z</time>
      </trkpt>
      <trkpt lat="45.3263" lon="6.58298">
        <ele>2534.4</ele>
        <time>2018-12-26T11:24:22Z</time>
      </trkpt>
      <trkpt lat="45.32627" lon="6.58299">
        <ele>2536.8</ele>
        <time>2018-12-26T11:24:27Z</time>
      </trkpt>
      <trkpt lat="45.32624" lon="6.58299">
        <ele>2536.8</ele>
        <time>2018-12-26T11:24:32Z</time>
      </trkpt>
      <trkpt lat="45.32622" lon="6.583">
        <ele>2536.8</ele>
        <time>2018-12-26T11:24:37Z</time>
      </trkpt>
      <trkpt lat="45.32619" lon="6.583">
        <ele>2535.8</ele>
        <time>2018-12-26T11:24:42Z</time>
      </trkpt>
      <trkpt lat="45.32617" lon="6.583">
        <ele>2536.8</ele>
        <time>2018-12-26T11:24:47Z</time>
      </trkpt>
      <trkpt lat="45.32614" lon="6.583">
        <ele>2535.4</ele>
        <time>2018-12-26T11:24:52Z</time>
      </trkpt>
      <trkpt lat="45.32612" lon="6.58301">
        <ele>2535.8</ele>
        <time>2018-12-26T11:24:57Z</time>
      </trkpt>
      <trkpt lat="45.32609" lon="6.58301">
        <ele>2540.4</ele>
        <time>2018-12-26T11:25:02Z</time>
      </trkpt>
      <trkpt lat="45.32606" lon="6.58302">
        <ele>2539.8</ele>
        <time>2018-12-26T11:25:07Z</time>
      </trkpt>
      <trkpt lat="45.32603" lon="6.58302">
        <ele>2540.4</ele>
        <time>2018-12-26T11:25:12Z</time>
      </trkpt>
      <trkpt lat="45.32601" lon="6.58302">
        <ele>2541.6</ele>
        <time>2018-12-26T11:25:17Z</time>
      </trkpt>
      <trkpt lat="45.32598" lon="6.58302">
        <ele>2540</ele>
        <time>2018-12-26T11:25:22Z</time>
      </trkpt>
      <trkpt lat="45.32595" lon="6.58302">
        <ele>2539.8</ele>
        <time>2018-12-26T11:25:27Z</time>
      </trkpt>
      <trkpt lat="45.32592" lon="6.58302">
        <ele>2542.8</ele>
        <time>2018-12-26T11:25:32Z</time>
      </trkpt>
      <trkpt lat="45.3259" lon="6.58303">
        <ele>2542.2</ele>
        <time>2018-12-26T11:25:37Z</time>
      </trkpt>
      <trkpt lat="45.32587" lon="6.58303">
        <ele>2545</ele>
        <time>2018-12-26T11:25:42Z</time>
      </trkpt>
      <trkpt lat="45.32585" lon="6.58303">
        <ele>2546.4</ele>
        <time>2018-12-26T11:25:47Z</time>
      </trkpt>
      <trkpt lat="45.32583" lon="6.58304">
        <ele>2544.8</ele>
        <time>2018-12-26T11:25:52Z</time>
      </trkpt>
      <trkpt lat="45.3258" lon="6.58304">
        <ele>2545.8</ele>
        <time>2018-12-26T11:25:57Z</time>
      </trkpt>
      <trkpt lat="45.32577" lon="6.58304">
        <ele>2547.2</ele>
        <time>2018-12-26T11:26:02Z</time>
      </trkpt>
      <trkpt lat="45.32574" lon="6.58303">
        <ele>2545.8</ele>
        <time>2018-12-26T11:26:07Z</time>
      </trkpt>
      <trkpt lat="45.3257" lon="6.58302">
        <ele>2549</ele>
        <time>2018-12-26T11:26:12Z</time>
      </trkpt>
      <trkpt lat="45.32568" lon="6.58301">
        <ele>2548</ele>
        <time>2018-12-26T11:26:17Z</time>
      </trkpt>
      <trkpt lat="45.32566" lon="6.583">
        <ele>2548</ele>
        <time>2018-12-26T11:26:22Z</time>
      </trkpt>
      <trkpt lat="45.32563" lon="6.58299">
        <ele>2550.6</ele>
        <time>2018-12-26T11:26:27Z</time>
      </trkpt>
      <trkpt lat="45.32561" lon="6.58297">
        <ele>2551</ele>
        <time>2018-12-26T11:26:32Z</time>
      </trkpt>
      <trkpt lat="45.32559" lon="6.58295">
        <ele>2553</ele>
        <time>2018-12-26T11:26:37Z</time>
      </trkpt>
      <trkpt lat="45.32556" lon="6.58294">
        <ele>2550.8</ele>
        <time>2018-12-26T11:26:42Z</time>
      </trkpt>
      <trkpt lat="45.32553" lon="6.58293">
        <ele>2552</ele>
        <time>2018-12-26T11:26:47Z</time>
      </trkpt>
      <trkpt lat="45.32548" lon="6.58292">
        <ele>2553</ele>
        <time>2018-12-26T11:26:52Z</time>
      </trkpt>
      <trkpt lat="45.32544" lon="6.58291">
        <ele>2551.2</ele>
        <time>2018-12-26T11:26:57Z</time>
      </trkpt>
      <trkpt lat="45.32541" lon="6.5829">
        <ele>2551.6</ele>
        <time>2018-12-26T11:27:02Z</time>
      </trkpt>
      <trkpt lat="45.32538" lon="6.5829">
        <ele>2554.4</ele>
        <time>2018-12-26T11:27:07Z</time>
      </trkpt>
      <trkpt lat="45.32536" lon="6.58291">
        <ele>2553</ele>
        <time>2018-12-26T11:27:12Z</time>
      </trkpt>
      <trkpt lat="45.32534" lon="6.58292">
        <ele>2553.8</ele>
        <time>2018-12-26T11:27:17Z</time>
      </trkpt>
      <trkpt lat="45.32532" lon="6.5829">
        <ele>2554.2</ele>
        <time>2018-12-26T11:27:22Z</time>
      </trkpt>
      <trkpt lat="45.32531" lon="6.58287">
        <ele>2556.2</ele>
        <time>2018-12-26T11:27:27Z</time>
      </trkpt>
      <trkpt lat="45.32529" lon="6.58285">
        <ele>2556</ele>
        <time>2018-12-26T11:27:32Z</time>
      </trkpt>
      <trkpt lat="45.32527" lon="6.58284">
        <ele>2554.8</ele>
        <time>2018-12-26T11:27:37Z</time>
      </trkpt>
      <trkpt lat="45.32524" lon="6.58284">
        <ele>2557.4</ele>
        <time>2018-12-26T11:27:42Z</time>
      </trkpt>
      <trkpt lat="45.32522" lon="6.58284">
        <ele>2559</ele>
        <time>2018-12-26T11:27:47Z</time>
      </trkpt>
      <trkpt lat="45.3252" lon="6.58284">
        <ele>2558.6</ele>
        <time>2018-12-26T11:27:52Z</time>
      </trkpt>
      <trkpt lat="45.32518" lon="6.58286">
        <ele>2561.6</ele>
        <time>2018-12-26T11:27:57Z</time>
      </trkpt>
      <trkpt lat="45.32517" lon="6.58288">
        <ele>2561.6</ele>
        <time>2018-12-26T11:28:02Z</time>
      </trkpt>
      <trkpt lat="45.32515" lon="6.58291">
        <ele>2560.2</ele>
        <time>2018-12-26T11:28:07Z</time>
      </trkpt>
      <trkpt lat="45.32513" lon="6.58293">
        <ele>2561</ele>
        <time>2018-12-26T11:28:12Z</time>
      </trkpt>
      <trkpt lat="45.32511" lon="6.58295">
        <ele>2564</ele>
        <time>2018-12-26T11:28:17Z</time>
      </trkpt>
      <trkpt lat="45.32508" lon="6.58296">
        <ele>2563.4</ele>
        <time>2018-12-26T11:28:22Z</time>
      </trkpt>
      <trkpt lat="45.32505" lon="6.58298">
        <ele>2563</ele>
        <time>2018-12-26T11:28:27Z</time>
      </trkpt>
      <trkpt lat="45.32502" lon="6.58299">
        <ele>2564.6</ele>
        <time>2018-12-26T11:28:32Z</time>
      </trkpt>
      <trkpt lat="45.325" lon="6.583">
        <ele>2565.2</ele>
        <time>2018-12-26T11:28:37Z</time>
      </trkpt>
      <trkpt lat="45.32497" lon="6.58301">
        <ele>2564.2</ele>
        <time>2018-12-26T11:28:42Z</time>
      </trkpt>
      <trkpt lat="45.32495" lon="6.58302">
        <ele>2563.8</ele>
        <time>2018-12-26T11:28:47Z</time>
      </trkpt>
      <trkpt lat="45.32492" lon="6.58303">
        <ele>2564.8</ele>
        <time>2018-12-26T11:28:52Z</time>
      </trkpt>
      <trkpt lat="45.3249" lon="6.58303">
        <ele>2563.8</ele>
        <time>2018-12-26T11:28:57Z</time>
      </trkpt>
      <trkpt lat="45.32486" lon="6.58303">
        <ele>2565.4</ele>
        <time>2018-12-26T11:29:02Z</time>
      </trkpt>
      <trkpt lat="45.32483" lon="6.58303">
        <ele>2565.6</ele>
        <time>2018-12-26T11:29:07Z</time>
      </trkpt>
      <trkpt lat="45.3248" lon="6.58303">
        <ele>2565.6</ele>
        <time>2018-12-26T11:29:12Z</time>
      </trkpt>
      <trkpt lat="45.3248" lon="6.58303">
        <ele>2566</ele>
        <time>2018-12-26T11:29:17Z</time>
      </trkpt>
      <trkpt lat="45.3248" lon="6.58303">
        <ele>2566</ele>
        <time>2018-12-26T11:29:22Z</time>
      </trkpt>
      <trkpt lat="45.3248" lon="6.58303">
        <ele>2566</ele>
        <time>2018-12-26T11:29:27Z</time>
      </trkpt>
      <trkpt lat="45.3248" lon="6.58303">
        <ele>2566.2</ele>
        <time>2018-12-26T11:29:32Z</time>
      </trkpt>
      <trkpt lat="45.3248" lon="6.58303">
        <ele>2566.2</ele>
        <time>2018-12-26T11:29:37Z</time>
      </trkpt>
      <trkpt lat="45.3248" lon="6.58303">
        <ele>2566.2</ele>
        <time>2018-12-26T11:29:42Z</time>
      </trkpt>
      <trkpt lat="45.3248" lon="6.58303">
        <ele>2566.2</ele>
        <time>2018-12-26T11:29:47Z</time>
      </trkpt>
      <trkpt lat="45.3248" lon="6.58303">
        <ele>2566.2</ele>
        <time>2018-12-26T11:29:52Z</time>
      </trkpt>
      <trkpt lat="45.3248" lon="6.58303">
        <ele>2566.2</ele>
        <time>2018-12-26T11:29:57Z</time>
      </trkpt>
      <trkpt lat="45.3248" lon="6.58303">
        <ele>2566.2</ele>
        <time>2018-12-26T11:30:02Z</time>
      </trkpt>
      <trkpt lat="45.3248" lon="6.58303">
        <ele>2566.2</ele>
        <time>2018-12-26T11:30:07Z</time>
      </trkpt>
      <trkpt lat="45.3248" lon="6.58303">
        <ele>2566.2</ele>
        <time>2018-12-26T11:30:12Z</time>
      </trkpt>
      <trkpt lat="45.3248" lon="6.58303">
        <ele>2566.2</ele>
        <time>2018-12-26T11:30:17Z</time>
      </trkpt>
      <trkpt lat="45.32478" lon="6.58303">
        <ele>2566.6</ele>
        <time>2018-12-26T11:30:22Z</time>
      </trkpt>
      <trkpt lat="45.32477" lon="6.58303">
        <ele>2569</ele>
        <time>2018-12-26T11:30:27Z</time>
      </trkpt>
      <trkpt lat="45.32475" lon="6.58303">
        <ele>2570.8</ele>
        <time>2018-12-26T11:30:32Z</time>
      </trkpt>
      <trkpt lat="45.32472" lon="6.58303">
        <ele>2568.2</ele>
        <time>2018-12-26T11:30:37Z</time>
      </trkpt>
      <trkpt lat="45.32469" lon="6.58303">
        <ele>2568</ele>
        <time>2018-12-26T11:30:42Z</time>
      </trkpt>
      <trkpt lat="45.32466" lon="6.58303">
        <ele>2570.4</ele>
        <time>2018-12-26T11:30:47Z</time>
      </trkpt>
      <trkpt lat="45.32463" lon="6.58302">
        <ele>2567.8</ele>
        <time>2018-12-26T11:30:52Z</time>
      </trkpt>
      <trkpt lat="45.32459" lon="6.58301">
        <ele>2569.6</ele>
        <time>2018-12-26T11:30:57Z</time>
      </trkpt>
      <trkpt lat="45.32456" lon="6.58299">
        <ele>2566</ele>
        <time>2018-12-26T11:31:02Z</time>
      </trkpt>
      <trkpt lat="45.32452" lon="6.58298">
        <ele>2568.8</ele>
        <time>2018-12-26T11:31:07Z</time>
      </trkpt>
      <trkpt lat="45.32448" lon="6.58296">
        <ele>2569.2</ele>
        <time>2018-12-26T11:31:12Z</time>
      </trkpt>
      <trkpt lat="45.32445" lon="6.58295">
        <ele>2568.6</ele>
        <time>2018-12-26T11:31:17Z</time>
      </trkpt>
      <trkpt lat="45.32443" lon="6.58294">
        <ele>2571.8</ele>
        <time>2018-12-26T11:31:22Z</time>
      </trkpt>
      <trkpt lat="45.3244" lon="6.58295">
        <ele>2571.2</ele>
        <time>2018-12-26T11:31:27Z</time>
      </trkpt>
      <trkpt lat="45.32438" lon="6.58296">
        <ele>2574.8</ele>
        <time>2018-12-26T11:31:32Z</time>
      </trkpt>
      <trkpt lat="45.32436" lon="6.58298">
        <ele>2576.8</ele>
        <time>2018-12-26T11:31:37Z</time>
      </trkpt>
      <trkpt lat="45.32434" lon="6.583">
        <ele>2575</ele>
        <time>2018-12-26T11:31:42Z</time>
      </trkpt>
      <trkpt lat="45.32432" lon="6.58302">
        <ele>2574.2</ele>
        <time>2018-12-26T11:31:47Z</time>
      </trkpt>
      <trkpt lat="45.32429" lon="6.58302">
        <ele>2577</ele>
        <time>2018-12-26T11:31:52Z</time>
      </trkpt>
      <trkpt lat="45.32426" lon="6.58303">
        <ele>2578.2</ele>
        <time>2018-12-26T11:31:57Z</time>
      </trkpt>
      <trkpt lat="45.32423" lon="6.58304">
        <ele>2577.2</ele>
        <time>2018-12-26T11:32:02Z</time>
      </trkpt>
      <trkpt lat="45.3242" lon="6.58305">
        <ele>2577.4</ele>
        <time>2018-12-26T11:32:07Z</time>
      </trkpt>
      <trkpt lat="45.32418" lon="6.58305">
        <ele>2580.2</ele>
        <time>2018-12-26T11:32:12Z</time>
      </trkpt>
      <trkpt lat="45.32416" lon="6.58306">
        <ele>2579.6</ele>
        <time>2018-12-26T11:32:17Z</time>
      </trkpt>
      <trkpt lat="45.32414" lon="6.58308">
        <ele>2578.8</ele>
        <time>2018-12-26T11:32:22Z</time>
      </trkpt>
      <trkpt lat="45.32412" lon="6.5831">
        <ele>2581.2</ele>
        <time>2018-12-26T11:32:27Z</time>
      </trkpt>
      <trkpt lat="45.3241" lon="6.58312">
        <ele>2581.6</ele>
        <time>2018-12-26T11:32:32Z</time>
      </trkpt>
      <trkpt lat="45.32408" lon="6.58314">
        <ele>2582.4</ele>
        <time>2018-12-26T11:32:37Z</time>
      </trkpt>
      <trkpt lat="45.32406" lon="6.58315">
        <ele>2582</ele>
        <time>2018-12-26T11:32:42Z</time>
      </trkpt>
      <trkpt lat="45.32404" lon="6.58317">
        <ele>2585.4</ele>
        <time>2018-12-26T11:32:47Z</time>
      </trkpt>
      <trkpt lat="45.32402" lon="6.58318">
        <ele>2587.6</ele>
        <time>2018-12-26T11:32:52Z</time>
      </trkpt>
      <trkpt lat="45.324" lon="6.58319">
        <ele>2584.2</ele>
        <time>2018-12-26T11:32:57Z</time>
      </trkpt>
      <trkpt lat="45.32398" lon="6.58319">
        <ele>2585.4</ele>
        <time>2018-12-26T11:33:02Z</time>
      </trkpt>
      <trkpt lat="45.32396" lon="6.58321">
        <ele>2584.2</ele>
        <time>2018-12-26T11:33:07Z</time>
      </trkpt>
      <trkpt lat="45.32394" lon="6.58322">
        <ele>2588</ele>
        <time>2018-12-26T11:33:12Z</time>
      </trkpt>
      <trkpt lat="45.32392" lon="6.5832">
        <ele>2589</ele>
        <time>2018-12-26T11:33:17Z</time>
      </trkpt>
      <trkpt lat="45.32392" lon="6.58316">
        <ele>2590</ele>
        <time>2018-12-26T11:33:22Z</time>
      </trkpt>
      <trkpt lat="45.32389" lon="6.58316">
        <ele>2591.2</ele>
        <time>2018-12-26T11:33:27Z</time>
      </trkpt>
      <trkpt lat="45.32387" lon="6.58317">
        <ele>2589.2</ele>
        <time>2018-12-26T11:33:32Z</time>
      </trkpt>
      <trkpt lat="45.32384" lon="6.58319">
        <ele>2591.2</ele>
        <time>2018-12-26T11:33:37Z</time>
      </trkpt>
      <trkpt lat="45.32382" lon="6.58321">
        <ele>2589.8</ele>
        <time>2018-12-26T11:33:42Z</time>
      </trkpt>
      <trkpt lat="45.32381" lon="6.58322">
        <ele>2591.2</ele>
        <time>2018-12-26T11:33:47Z</time>
      </trkpt>
      <trkpt lat="45.32379" lon="6.58324">
        <ele>2592.2</ele>
        <time>2018-12-26T11:33:52Z</time>
      </trkpt>
      <trkpt lat="45.32377" lon="6.58325">
        <ele>2592.4</ele>
        <time>2018-12-26T11:33:57Z</time>
      </trkpt>
      <trkpt lat="45.32375" lon="6.58327">
        <ele>2594</ele>
        <time>2018-12-26T11:34:02Z</time>
      </trkpt>
      <trkpt lat="45.32373" lon="6.58329">
        <ele>2595.8</ele>
        <time>2018-12-26T11:34:07Z</time>
      </trkpt>
      <trkpt lat="45.32372" lon="6.58331">
        <ele>2593</ele>
        <time>2018-12-26T11:34:12Z</time>
      </trkpt>
      <trkpt lat="45.3237" lon="6.58332">
        <ele>2596</ele>
        <time>2018-12-26T11:34:17Z</time>
      </trkpt>
      <trkpt lat="45.32368" lon="6.58334">
        <ele>2599.4</ele>
        <time>2018-12-26T11:34:22Z</time>
      </trkpt>
      <trkpt lat="45.32366" lon="6.58336">
        <ele>2599.6</ele>
        <time>2018-12-26T11:34:27Z</time>
      </trkpt>
      <trkpt lat="45.32364" lon="6.58337">
        <ele>2601.2</ele>
        <time>2018-12-26T11:34:32Z</time>
      </trkpt>
      <trkpt lat="45.32363" lon="6.58335">
        <ele>2598.2</ele>
        <time>2018-12-26T11:34:37Z</time>
      </trkpt>
      <trkpt lat="45.32362" lon="6.58331">
        <ele>2600</ele>
        <time>2018-12-26T11:34:42Z</time>
      </trkpt>
      <trkpt lat="45.3236" lon="6.58329">
        <ele>2598.6</ele>
        <time>2018-12-26T11:34:47Z</time>
      </trkpt>
      <trkpt lat="45.32359" lon="6.58327">
        <ele>2599.4</ele>
        <time>2018-12-26T11:34:52Z</time>
      </trkpt>
      <trkpt lat="45.32357" lon="6.58324">
        <ele>2598.4</ele>
        <time>2018-12-26T11:34:57Z</time>
      </trkpt>
      <trkpt lat="45.32355" lon="6.58323">
        <ele>2601</ele>
        <time>2018-12-26T11:35:02Z</time>
      </trkpt>
      <trkpt lat="45.32354" lon="6.58324">
        <ele>2603.4</ele>
        <time>2018-12-26T11:35:07Z</time>
      </trkpt>
      <trkpt lat="45.32352" lon="6.58325">
        <ele>2603.8</ele>
        <time>2018-12-26T11:35:12Z</time>
      </trkpt>
      <trkpt lat="45.3235" lon="6.58326">
        <ele>2606.2</ele>
        <time>2018-12-26T11:35:17Z</time>
      </trkpt>
      <trkpt lat="45.32349" lon="6.58327">
        <ele>2608.2</ele>
        <time>2018-12-26T11:35:22Z</time>
      </trkpt>
      <trkpt lat="45.32347" lon="6.58328">
        <ele>2604.8</ele>
        <time>2018-12-26T11:35:27Z</time>
      </trkpt>
      <trkpt lat="45.32345" lon="6.5833">
        <ele>2611.6</ele>
        <time>2018-12-26T11:35:32Z</time>
      </trkpt>
      <trkpt lat="45.32344" lon="6.58332">
        <ele>2612.8</ele>
        <time>2018-12-26T11:35:37Z</time>
      </trkpt>
      <trkpt lat="45.32342" lon="6.58334">
        <ele>2611</ele>
        <time>2018-12-26T11:35:42Z</time>
      </trkpt>
      <trkpt lat="45.32342" lon="6.58335">
        <ele>2611.4</ele>
        <time>2018-12-26T11:35:47Z</time>
      </trkpt>
      <trkpt lat="45.3234" lon="6.58333">
        <ele>2612.2</ele>
        <time>2018-12-26T11:35:52Z</time>
      </trkpt>
      <trkpt lat="45.32339" lon="6.58331">
        <ele>2608.8</ele>
        <time>2018-12-26T11:35:57Z</time>
      </trkpt>
      <trkpt lat="45.32338" lon="6.58329">
        <ele>2609</ele>
        <time>2018-12-26T11:36:02Z</time>
      </trkpt>
      <trkpt lat="45.32336" lon="6.58326">
        <ele>2610.2</ele>
        <time>2018-12-26T11:36:07Z</time>
      </trkpt>
      <trkpt lat="45.32334" lon="6.58324">
        <ele>2610.8</ele>
        <time>2018-12-26T11:36:12Z</time>
      </trkpt>
      <trkpt lat="45.32333" lon="6.58322">
        <ele>2614.8</ele>
        <time>2018-12-26T11:36:17Z</time>
      </trkpt>
      <trkpt lat="45.32331" lon="6.5832">
        <ele>2610.8</ele>
        <time>2018-12-26T11:36:22Z</time>
      </trkpt>
      <trkpt lat="45.3233" lon="6.58319">
        <ele>2613.6</ele>
        <time>2018-12-26T11:36:27Z</time>
      </trkpt>
      <trkpt lat="45.32328" lon="6.58317">
        <ele>2613.6</ele>
        <time>2018-12-26T11:36:32Z</time>
      </trkpt>
      <trkpt lat="45.32326" lon="6.58316">
        <ele>2613.8</ele>
        <time>2018-12-26T11:36:37Z</time>
      </trkpt>
      <trkpt lat="45.32324" lon="6.58315">
        <ele>2613.2</ele>
        <time>2018-12-26T11:36:42Z</time>
      </trkpt>
      <trkpt lat="45.32323" lon="6.58317">
        <ele>2613.2</ele>
        <time>2018-12-26T11:36:47Z</time>
      </trkpt>
      <trkpt lat="45.32321" lon="6.5832">
        <ele>2620.4</ele>
        <time>2018-12-26T11:36:52Z</time>
      </trkpt>
      <trkpt lat="45.3232" lon="6.58322">
        <ele>2617.6</ele>
        <time>2018-12-26T11:36:57Z</time>
      </trkpt>
      <trkpt lat="45.32319" lon="6.58325">
        <ele>2617.6</ele>
        <time>2018-12-26T11:37:02Z</time>
      </trkpt>
      <trkpt lat="45.32318" lon="6.58328">
        <ele>2616.2</ele>
        <time>2018-12-26T11:37:07Z</time>
      </trkpt>
      <trkpt lat="45.32316" lon="6.5833">
        <ele>2613</ele>
        <time>2018-12-26T11:37:12Z</time>
      </trkpt>
      <trkpt lat="45.32314" lon="6.58333">
        <ele>2618.2</ele>
        <time>2018-12-26T11:37:17Z</time>
      </trkpt>
      <trkpt lat="45.32312" lon="6.58336">
        <ele>2618</ele>
        <time>2018-12-26T11:37:22Z</time>
      </trkpt>
      <trkpt lat="45.32309" lon="6.58337">
        <ele>2618.2</ele>
        <time>2018-12-26T11:37:27Z</time>
      </trkpt>
      <trkpt lat="45.32309" lon="6.58337">
        <ele>2619</ele>
        <time>2018-12-26T11:37:32Z</time>
      </trkpt>
      <trkpt lat="45.32306" lon="6.58337">
        <ele>2619</ele>
        <time>2018-12-26T11:37:37Z</time>
      </trkpt>
      <trkpt lat="45.32304" lon="6.58338">
        <ele>2618.4</ele>
        <time>2018-12-26T11:37:42Z</time>
      </trkpt>
      <trkpt lat="45.32302" lon="6.58338">
        <ele>2621.2</ele>
        <time>2018-12-26T11:37:47Z</time>
      </trkpt>
      <trkpt lat="45.323" lon="6.58338">
        <ele>2619</ele>
        <time>2018-12-26T11:37:52Z</time>
      </trkpt>
      <trkpt lat="45.32299" lon="6.58338">
        <ele>2620</ele>
        <time>2018-12-26T11:37:57Z</time>
      </trkpt>
      <trkpt lat="45.32297" lon="6.58338">
        <ele>2620</ele>
        <time>2018-12-26T11:38:02Z</time>
      </trkpt>
      <trkpt lat="45.32296" lon="6.58338">
        <ele>2621.4</ele>
        <time>2018-12-26T11:38:07Z</time>
      </trkpt>
      <trkpt lat="45.32294" lon="6.58338">
        <ele>2623</ele>
        <time>2018-12-26T11:38:12Z</time>
      </trkpt>
      <trkpt lat="45.32292" lon="6.58337">
        <ele>2623.4</ele>
        <time>2018-12-26T11:38:17Z</time>
      </trkpt>
      <trkpt lat="45.3229" lon="6.58335">
        <ele>2625</ele>
        <time>2018-12-26T11:38:22Z</time>
      </trkpt>
      <trkpt lat="45.32288" lon="6.58333">
        <ele>2623.4</ele>
        <time>2018-12-26T11:38:27Z</time>
      </trkpt>
      <trkpt lat="45.32286" lon="6.58333">
        <ele>2623.2</ele>
        <time>2018-12-26T11:38:32Z</time>
      </trkpt>
      <trkpt lat="45.32284" lon="6.58332">
        <ele>2624.6</ele>
        <time>2018-12-26T11:38:37Z</time>
      </trkpt>
      <trkpt lat="45.32282" lon="6.58332">
        <ele>2628.2</ele>
        <time>2018-12-26T11:38:42Z</time>
      </trkpt>
      <trkpt lat="45.3228" lon="6.58331">
        <ele>2629.6</ele>
        <time>2018-12-26T11:38:47Z</time>
      </trkpt>
      <trkpt lat="45.32278" lon="6.58331">
        <ele>2624.6</ele>
        <time>2018-12-26T11:38:52Z</time>
      </trkpt>
      <trkpt lat="45.32276" lon="6.58331">
        <ele>2630</ele>
        <time>2018-12-26T11:38:57Z</time>
      </trkpt>
      <trkpt lat="45.32275" lon="6.58333">
        <ele>2630</ele>
        <time>2018-12-26T11:39:02Z</time>
      </trkpt>
      <trkpt lat="45.32275" lon="6.58336">
        <ele>2634</ele>
        <time>2018-12-26T11:39:07Z</time>
      </trkpt>
      <trkpt lat="45.32275" lon="6.58338">
        <ele>2632.2</ele>
        <time>2018-12-26T11:39:12Z</time>
      </trkpt>
      <trkpt lat="45.32273" lon="6.58342">
        <ele>2632</ele>
        <time>2018-12-26T11:39:17Z</time>
      </trkpt>
      <trkpt lat="45.32272" lon="6.58346">
        <ele>2633.8</ele>
        <time>2018-12-26T11:39:22Z</time>
      </trkpt>
      <trkpt lat="45.3227" lon="6.58349">
        <ele>2635.2</ele>
        <time>2018-12-26T11:39:27Z</time>
      </trkpt>
      <trkpt lat="45.32268" lon="6.58351">
        <ele>2639.8</ele>
        <time>2018-12-26T11:39:32Z</time>
      </trkpt>
      <trkpt lat="45.32266" lon="6.5835">
        <ele>2635.8</ele>
        <time>2018-12-26T11:39:37Z</time>
      </trkpt>
      <trkpt lat="45.32264" lon="6.5835">
        <ele>2635.6</ele>
        <time>2018-12-26T11:39:42Z</time>
      </trkpt>
      <trkpt lat="45.32261" lon="6.58348">
        <ele>2637.2</ele>
        <time>2018-12-26T11:39:48Z</time>
      </trkpt>
      <trkpt lat="45.32258" lon="6.58347">
        <ele>2635.6</ele>
        <time>2018-12-26T11:39:54Z</time>
      </trkpt>
      <trkpt lat="45.32256" lon="6.58346">
        <ele>2637.2</ele>
        <time>2018-12-26T11:39:59Z</time>
      </trkpt>
      <trkpt lat="45.32254" lon="6.58345">
        <ele>2637.6</ele>
        <time>2018-12-26T11:40:04Z</time>
      </trkpt>
      <trkpt lat="45.32252" lon="6.58346">
        <ele>2638.4</ele>
        <time>2018-12-26T11:40:09Z</time>
      </trkpt>
      <trkpt lat="45.3225" lon="6.58347">
        <ele>2641</ele>
        <time>2018-12-26T11:40:14Z</time>
      </trkpt>
      <trkpt lat="45.32248" lon="6.58348">
        <ele>2642.6</ele>
        <time>2018-12-26T11:40:19Z</time>
      </trkpt>
      <trkpt lat="45.32245" lon="6.5835">
        <ele>2640.2</ele>
        <time>2018-12-26T11:40:24Z</time>
      </trkpt>
      <trkpt lat="45.32244" lon="6.58351">
        <ele>2642.8</ele>
        <time>2018-12-26T11:40:29Z</time>
      </trkpt>
      <trkpt lat="45.32242" lon="6.58353">
        <ele>2640.8</ele>
        <time>2018-12-26T11:40:34Z</time>
      </trkpt>
      <trkpt lat="45.32242" lon="6.58353">
        <ele>2642.2</ele>
        <time>2018-12-26T11:44:04Z</time>
      </trkpt>
      <trkpt lat="45.32239" lon="6.58356">
        <ele>2642</ele>
        <time>2018-12-26T11:44:09Z</time>
      </trkpt>
      <trkpt lat="45.32236" lon="6.58356">
        <ele>2642.6</ele>
        <time>2018-12-26T11:44:14Z</time>
      </trkpt>
      <trkpt lat="45.32234" lon="6.58357">
        <ele>2646</ele>
        <time>2018-12-26T11:44:19Z</time>
      </trkpt>
      <trkpt lat="45.32232" lon="6.58358">
        <ele>2645.6</ele>
        <time>2018-12-26T11:44:24Z</time>
      </trkpt>
      <trkpt lat="45.32229" lon="6.58359">
        <ele>2646.4</ele>
        <time>2018-12-26T11:44:29Z</time>
      </trkpt>
      <trkpt lat="45.32229" lon="6.5836">
        <ele>2647</ele>
        <time>2018-12-26T11:44:34Z</time>
      </trkpt>
      <trkpt lat="45.32227" lon="6.58361">
        <ele>2647.6</ele>
        <time>2018-12-26T11:44:39Z</time>
      </trkpt>
      <trkpt lat="45.32224" lon="6.58363">
        <ele>2648.4</ele>
        <time>2018-12-26T11:44:44Z</time>
      </trkpt>
      <trkpt lat="45.32221" lon="6.58365">
        <ele>2652</ele>
        <time>2018-12-26T11:44:49Z</time>
      </trkpt>
      <trkpt lat="45.32218" lon="6.58366">
        <ele>2652.8</ele>
        <time>2018-12-26T11:44:54Z</time>
      </trkpt>
      <trkpt lat="45.32215" lon="6.58367">
        <ele>2650.2</ele>
        <time>2018-12-26T11:44:59Z</time>
      </trkpt>
      <trkpt lat="45.32213" lon="6.58366">
        <ele>2653</ele>
        <time>2018-12-26T11:45:04Z</time>
      </trkpt>
      <trkpt lat="45.32211" lon="6.58364">
        <ele>2652.8</ele>
        <time>2018-12-26T11:45:09Z</time>
      </trkpt>
      <trkpt lat="45.32209" lon="6.58363">
        <ele>2655.2</ele>
        <time>2018-12-26T11:45:14Z</time>
      </trkpt>
      <trkpt lat="45.32207" lon="6.58363">
        <ele>2659</ele>
        <time>2018-12-26T11:45:19Z</time>
      </trkpt>
      <trkpt lat="45.32204" lon="6.58365">
        <ele>2660.8</ele>
        <time>2018-12-26T11:45:24Z</time>
      </trkpt>
      <trkpt lat="45.32201" lon="6.58367">
        <ele>2658.2</ele>
        <time>2018-12-26T11:45:29Z</time>
      </trkpt>
      <trkpt lat="45.32197" lon="6.58369">
        <ele>2656.2</ele>
        <time>2018-12-26T11:45:34Z</time>
      </trkpt>
      <trkpt lat="45.32194" lon="6.5837">
        <ele>2659.6</ele>
        <time>2018-12-26T11:45:39Z</time>
      </trkpt>
      <trkpt lat="45.32192" lon="6.58369">
        <ele>2656.8</ele>
        <time>2018-12-26T11:45:44Z</time>
      </trkpt>
      <trkpt lat="45.32189" lon="6.58367">
        <ele>2657.8</ele>
        <time>2018-12-26T11:45:49Z</time>
      </trkpt>
      <trkpt lat="45.32187" lon="6.58365">
        <ele>2661.2</ele>
        <time>2018-12-26T11:45:54Z</time>
      </trkpt>
      <trkpt lat="45.32187" lon="6.58363">
        <ele>2660</ele>
        <time>2018-12-26T11:45:59Z</time>
      </trkpt>
      <trkpt lat="45.32189" lon="6.58359">
        <ele>2659.4</ele>
        <time>2018-12-26T11:46:04Z</time>
      </trkpt>
      <trkpt lat="45.32189" lon="6.58358">
        <ele>2659.8</ele>
        <time>2018-12-26T11:46:09Z</time>
      </trkpt>
      <trkpt lat="45.32189" lon="6.58357">
        <ele>2660.2</ele>
        <time>2018-12-26T11:46:14Z</time>
      </trkpt>
      <trkpt lat="45.32188" lon="6.58354">
        <ele>2664</ele>
        <time>2018-12-26T11:46:19Z</time>
      </trkpt>
      <trkpt lat="45.32187" lon="6.58351">
        <ele>2662.2</ele>
        <time>2018-12-26T11:46:24Z</time>
      </trkpt>
      <trkpt lat="45.32185" lon="6.58349">
        <ele>2664.6</ele>
        <time>2018-12-26T11:46:29Z</time>
      </trkpt>
      <trkpt lat="45.32182" lon="6.58349">
        <ele>2667.2</ele>
        <time>2018-12-26T11:46:34Z</time>
      </trkpt>
      <trkpt lat="45.3218" lon="6.58349">
        <ele>2668.2</ele>
        <time>2018-12-26T11:46:39Z</time>
      </trkpt>
      <trkpt lat="45.32176" lon="6.5835">
        <ele>2666.4</ele>
        <time>2018-12-26T11:46:44Z</time>
      </trkpt>
      <trkpt lat="45.32175" lon="6.5835">
        <ele>2667.8</ele>
        <time>2018-12-26T11:46:49Z</time>
      </trkpt>
      <trkpt lat="45.32174" lon="6.5835">
        <ele>2670.4</ele>
        <time>2018-12-26T11:46:54Z</time>
      </trkpt>
      <trkpt lat="45.32173" lon="6.5835">
        <ele>2671</ele>
        <time>2018-12-26T11:46:59Z</time>
      </trkpt>
      <trkpt lat="45.32172" lon="6.58349">
        <ele>2672</ele>
        <time>2018-12-26T11:47:04Z</time>
      </trkpt>
      <trkpt lat="45.32172" lon="6.58349">
        <ele>2671.6</ele>
        <time>2018-12-26T11:47:09Z</time>
      </trkpt>
      <trkpt lat="45.32172" lon="6.58349">
        <ele>2671.2</ele>
        <time>2018-12-26T11:47:14Z</time>
      </trkpt>
      <trkpt lat="45.32172" lon="6.58349">
        <ele>2671</ele>
        <time>2018-12-26T11:47:19Z</time>
      </trkpt>
      <trkpt lat="45.32173" lon="6.58348">
        <ele>2671</ele>
        <time>2018-12-26T11:47:24Z</time>
      </trkpt>
      <trkpt lat="45.32176" lon="6.58345">
        <ele>2671.4</ele>
        <time>2018-12-26T11:47:29Z</time>
      </trkpt>
      <trkpt lat="45.32176" lon="6.58345">
        <ele>2671.4</ele>
        <time>2018-12-26T11:47:39Z</time>
      </trkpt>
      <trkpt lat="45.32177" lon="6.58344">
        <ele>2671.8</ele>
        <time>2018-12-26T11:47:44Z</time>
      </trkpt>
      <trkpt lat="45.32179" lon="6.58341">
        <ele>2669.8</ele>
        <time>2018-12-26T11:47:49Z</time>
      </trkpt>
      <trkpt lat="45.32182" lon="6.58336">
        <ele>2667.8</ele>
        <time>2018-12-26T11:47:54Z</time>
      </trkpt>
      <trkpt lat="45.32186" lon="6.58332">
        <ele>2671.2</ele>
        <time>2018-12-26T11:47:59Z</time>
      </trkpt>
      <trkpt lat="45.32189" lon="6.58328">
        <ele>2672.4</ele>
        <time>2018-12-26T11:48:04Z</time>
      </trkpt>
      <trkpt lat="45.32191" lon="6.58325">
        <ele>2671.6</ele>
        <time>2018-12-26T11:48:09Z</time>
      </trkpt>
      <trkpt lat="45.32194" lon="6.58321">
        <ele>2674</ele>
        <time>2018-12-26T11:48:14Z</time>
      </trkpt>
      <trkpt lat="45.32196" lon="6.58317">
        <ele>2672.4</ele>
        <time>2018-12-26T11:48:19Z</time>
      </trkpt>
      <trkpt lat="45.32199" lon="6.58313">
        <ele>2672.6</ele>
        <time>2018-12-26T11:48:24Z</time>
      </trkpt>
      <trkpt lat="45.322" lon="6.58309">
        <ele>2674.8</ele>
        <time>2018-12-26T11:48:29Z</time>
      </trkpt>
      <trkpt lat="45.32201" lon="6.58306">
        <ele>2673.2</ele>
        <time>2018-12-26T11:48:34Z</time>
      </trkpt>
      <trkpt lat="45.32203" lon="6.58302">
        <ele>2674.6</ele>
        <time>2018-12-26T11:48:39Z</time>
      </trkpt>
      <trkpt lat="45.32204" lon="6.58298">
        <ele>2673.4</ele>
        <time>2018-12-26T11:48:44Z</time>
      </trkpt>
      <trkpt lat="45.32206" lon="6.58295">
        <ele>2674</ele>
        <time>2018-12-26T11:48:49Z</time>
      </trkpt>
      <trkpt lat="45.32207" lon="6.58292">
        <ele>2674</ele>
        <time>2018-12-26T11:48:54Z</time>
      </trkpt>
      <trkpt lat="45.32208" lon="6.58288">
        <ele>2675.2</ele>
        <time>2018-12-26T11:48:59Z</time>
      </trkpt>
      <trkpt lat="45.32209" lon="6.58283">
        <ele>2674</ele>
        <time>2018-12-26T11:49:04Z</time>
      </trkpt>
      <trkpt lat="45.32209" lon="6.5828">
        <ele>2676.6</ele>
        <time>2018-12-26T11:49:09Z</time>
      </trkpt>
      <trkpt lat="45.32209" lon="6.58276">
        <ele>2679</ele>
        <time>2018-12-26T11:49:14Z</time>
      </trkpt>
      <trkpt lat="45.32209" lon="6.58272">
        <ele>2678.4</ele>
        <time>2018-12-26T11:49:19Z</time>
      </trkpt>
      <trkpt lat="45.32208" lon="6.58269">
        <ele>2676.6</ele>
        <time>2018-12-26T11:49:24Z</time>
      </trkpt>
      <trkpt lat="45.32208" lon="6.58265">
        <ele>2677.6</ele>
        <time>2018-12-26T11:49:29Z</time>
      </trkpt>
      <trkpt lat="45.32208" lon="6.58261">
        <ele>2676.8</ele>
        <time>2018-12-26T11:49:34Z</time>
      </trkpt>
      <trkpt lat="45.32208" lon="6.58258">
        <ele>2679.8</ele>
        <time>2018-12-26T11:49:39Z</time>
      </trkpt>
      <trkpt lat="45.32208" lon="6.58253">
        <ele>2680</ele>
        <time>2018-12-26T11:49:44Z</time>
      </trkpt>
      <trkpt lat="45.32208" lon="6.5825">
        <ele>2682</ele>
        <time>2018-12-26T11:49:49Z</time>
      </trkpt>
      <trkpt lat="45.32207" lon="6.58247">
        <ele>2682.6</ele>
        <time>2018-12-26T11:49:54Z</time>
      </trkpt>
      <trkpt lat="45.32207" lon="6.58244">
        <ele>2683.2</ele>
        <time>2018-12-26T11:49:59Z</time>
      </trkpt>
      <trkpt lat="45.32208" lon="6.58241">
        <ele>2685</ele>
        <time>2018-12-26T11:50:04Z</time>
      </trkpt>
      <trkpt lat="45.32208" lon="6.58238">
        <ele>2684.4</ele>
        <time>2018-12-26T11:50:09Z</time>
      </trkpt>
      <trkpt lat="45.32208" lon="6.58235">
        <ele>2682.8</ele>
        <time>2018-12-26T11:50:14Z</time>
      </trkpt>
      <trkpt lat="45.32208" lon="6.58234">
        <ele>2682.8</ele>
        <time>2018-12-26T11:50:19Z</time>
      </trkpt>
      <trkpt lat="45.32208" lon="6.58231">
        <ele>2683.8</ele>
        <time>2018-12-26T11:50:24Z</time>
      </trkpt>
      <trkpt lat="45.32208" lon="6.5823">
        <ele>2686.4</ele>
        <time>2018-12-26T11:50:29Z</time>
      </trkpt>
      <trkpt lat="45.32208" lon="6.58228">
        <ele>2684.4</ele>
        <time>2018-12-26T11:50:34Z</time>
      </trkpt>
      <trkpt lat="45.32208" lon="6.58225">
        <ele>2688.6</ele>
        <time>2018-12-26T11:50:39Z</time>
      </trkpt>
      <trkpt lat="45.32208" lon="6.58221">
        <ele>2687</ele>
        <time>2018-12-26T11:50:44Z</time>
      </trkpt>
      <trkpt lat="45.32208" lon="6.58217">
        <ele>2684.8</ele>
        <time>2018-12-26T11:50:49Z</time>
      </trkpt>
      <trkpt lat="45.32208" lon="6.58213">
        <ele>2691.2</ele>
        <time>2018-12-26T11:50:54Z</time>
      </trkpt>
      <trkpt lat="45.32207" lon="6.58209">
        <ele>2689.6</ele>
        <time>2018-12-26T11:50:59Z</time>
      </trkpt>
      <trkpt lat="45.32207" lon="6.58206">
        <ele>2689.6</ele>
        <time>2018-12-26T11:51:04Z</time>
      </trkpt>
      <trkpt lat="45.32206" lon="6.58202">
        <ele>2688.2</ele>
        <time>2018-12-26T11:51:09Z</time>
      </trkpt>
      <trkpt lat="45.32206" lon="6.58199">
        <ele>2691.2</ele>
        <time>2018-12-26T11:51:14Z</time>
      </trkpt>
      <trkpt lat="45.32205" lon="6.58196">
        <ele>2689</ele>
        <time>2018-12-26T11:51:19Z</time>
      </trkpt>
      <trkpt lat="45.32206" lon="6.58194">
        <ele>2686.4</ele>
        <time>2018-12-26T11:51:24Z</time>
      </trkpt>
      <trkpt lat="45.32206" lon="6.58191">
        <ele>2687.8</ele>
        <time>2018-12-26T11:51:29Z</time>
      </trkpt>
      <trkpt lat="45.32207" lon="6.58188">
        <ele>2687</ele>
        <time>2018-12-26T11:51:34Z</time>
      </trkpt>
      <trkpt lat="45.32207" lon="6.58185">
        <ele>2688.4</ele>
        <time>2018-12-26T11:51:39Z</time>
      </trkpt>
      <trkpt lat="45.32208" lon="6.58182">
        <ele>2688.8</ele>
        <time>2018-12-26T11:51:44Z</time>
      </trkpt>
      <trkpt lat="45.32208" lon="6.58179">
        <ele>2689</ele>
        <time>2018-12-26T11:51:49Z</time>
      </trkpt>
      <trkpt lat="45.32208" lon="6.58175">
        <ele>2689.6</ele>
        <time>2018-12-26T11:51:54Z</time>
      </trkpt>
      <trkpt lat="45.32208" lon="6.58171">
        <ele>2695.6</ele>
        <time>2018-12-26T11:51:59Z</time>
      </trkpt>
      <trkpt lat="45.32208" lon="6.5817">
        <ele>2695.8</ele>
        <time>2018-12-26T11:52:04Z</time>
      </trkpt>
      <trkpt lat="45.32208" lon="6.5817">
        <ele>2695.8</ele>
        <time>2018-12-26T11:52:09Z</time>
      </trkpt>
      <trkpt lat="45.32208" lon="6.5817">
        <ele>2695.8</ele>
        <time>2018-12-26T11:52:14Z</time>
      </trkpt>
      <trkpt lat="45.32208" lon="6.5817">
        <ele>2695.8</ele>
        <time>2018-12-26T11:52:19Z</time>
      </trkpt>
      <trkpt lat="45.32208" lon="6.58168">
        <ele>2694.6</ele>
        <time>2018-12-26T11:52:24Z</time>
      </trkpt>
      <trkpt lat="45.32207" lon="6.58165">
        <ele>2694.8</ele>
        <time>2018-12-26T11:52:29Z</time>
      </trkpt>
      <trkpt lat="45.32206" lon="6.58161">
        <ele>2694.8</ele>
        <time>2018-12-26T11:52:34Z</time>
      </trkpt>
      <trkpt lat="45.32206" lon="6.58161">
        <ele>2696</ele>
        <time>2018-12-26T11:52:39Z</time>
      </trkpt>
      <trkpt lat="45.32204" lon="6.58164">
        <ele>2695.4</ele>
        <time>2018-12-26T11:52:44Z</time>
      </trkpt>
      <trkpt lat="45.32203" lon="6.58166">
        <ele>2700</ele>
        <time>2018-12-26T11:52:49Z</time>
      </trkpt>
      <trkpt lat="45.32202" lon="6.58169">
        <ele>2699.8</ele>
        <time>2018-12-26T11:52:54Z</time>
      </trkpt>
      <trkpt lat="45.322" lon="6.58172">
        <ele>2698</ele>
        <time>2018-12-26T11:52:59Z</time>
      </trkpt>
      <trkpt lat="45.32199" lon="6.58175">
        <ele>2699.6</ele>
        <time>2018-12-26T11:53:04Z</time>
      </trkpt>
      <trkpt lat="45.32197" lon="6.58177">
        <ele>2703.2</ele>
        <time>2018-12-26T11:53:09Z</time>
      </trkpt>
      <trkpt lat="45.32195" lon="6.58179">
        <ele>2700.4</ele>
        <time>2018-12-26T11:53:14Z</time>
      </trkpt>
      <trkpt lat="45.32193" lon="6.58181">
        <ele>2702</ele>
        <time>2018-12-26T11:53:19Z</time>
      </trkpt>
      <trkpt lat="45.32192" lon="6.58182">
        <ele>2702.8</ele>
        <time>2018-12-26T11:53:24Z</time>
      </trkpt>
      <trkpt lat="45.3219" lon="6.58184">
        <ele>2706</ele>
        <time>2018-12-26T11:53:29Z</time>
      </trkpt>
      <trkpt lat="45.32188" lon="6.58187">
        <ele>2704.8</ele>
        <time>2018-12-26T11:53:34Z</time>
      </trkpt>
      <trkpt lat="45.32186" lon="6.58188">
        <ele>2702.2</ele>
        <time>2018-12-26T11:53:39Z</time>
      </trkpt>
      <trkpt lat="45.32184" lon="6.58191">
        <ele>2702.8</ele>
        <time>2018-12-26T11:53:45Z</time>
      </trkpt>
      <trkpt lat="45.32183" lon="6.58193">
        <ele>2704.8</ele>
        <time>2018-12-26T11:53:50Z</time>
      </trkpt>
      <trkpt lat="45.32181" lon="6.58194">
        <ele>2703</ele>
        <time>2018-12-26T11:53:55Z</time>
      </trkpt>
      <trkpt lat="45.3218" lon="6.58196">
        <ele>2705.8</ele>
        <time>2018-12-26T11:54:00Z</time>
      </trkpt>
      <trkpt lat="45.32178" lon="6.58198">
        <ele>2707</ele>
        <time>2018-12-26T11:54:05Z</time>
      </trkpt>
      <trkpt lat="45.32176" lon="6.58199">
        <ele>2707.6</ele>
        <time>2018-12-26T11:54:10Z</time>
      </trkpt>
      <trkpt lat="45.32174" lon="6.58201">
        <ele>2708.4</ele>
        <time>2018-12-26T11:54:15Z</time>
      </trkpt>
      <trkpt lat="45.32172" lon="6.582">
        <ele>2711.6</ele>
        <time>2018-12-26T11:54:20Z</time>
      </trkpt>
      <trkpt lat="45.32172" lon="6.58197">
        <ele>2711.6</ele>
        <time>2018-12-26T11:54:25Z</time>
      </trkpt>
      <trkpt lat="45.32172" lon="6.58194">
        <ele>2711.8</ele>
        <time>2018-12-26T11:54:30Z</time>
      </trkpt>
      <trkpt lat="45.32172" lon="6.5819">
        <ele>2708</ele>
        <time>2018-12-26T11:54:35Z</time>
      </trkpt>
      <trkpt lat="45.32171" lon="6.58187">
        <ele>2711.4</ele>
        <time>2018-12-26T11:54:40Z</time>
      </trkpt>
      <trkpt lat="45.32171" lon="6.58184">
        <ele>2713.4</ele>
        <time>2018-12-26T11:54:45Z</time>
      </trkpt>
      <trkpt lat="45.32171" lon="6.58181">
        <ele>2715.6</ele>
        <time>2018-12-26T11:54:50Z</time>
      </trkpt>
      <trkpt lat="45.3217" lon="6.58178">
        <ele>2714.6</ele>
        <time>2018-12-26T11:54:55Z</time>
      </trkpt>
      <trkpt lat="45.32169" lon="6.58175">
        <ele>2717.4</ele>
        <time>2018-12-26T11:55:00Z</time>
      </trkpt>
      <trkpt lat="45.32167" lon="6.58172">
        <ele>2716.6</ele>
        <time>2018-12-26T11:55:05Z</time>
      </trkpt>
      <trkpt lat="45.32165" lon="6.5817">
        <ele>2717.8</ele>
        <time>2018-12-26T11:55:10Z</time>
      </trkpt>
      <trkpt lat="45.32163" lon="6.58171">
        <ele>2720.6</ele>
        <time>2018-12-26T11:55:15Z</time>
      </trkpt>
      <trkpt lat="45.32161" lon="6.58172">
        <ele>2723.6</ele>
        <time>2018-12-26T11:55:20Z</time>
      </trkpt>
      <trkpt lat="45.32159" lon="6.58173">
        <ele>2722</ele>
        <time>2018-12-26T11:55:25Z</time>
      </trkpt>
      <trkpt lat="45.32157" lon="6.58175">
        <ele>2725</ele>
        <time>2018-12-26T11:55:30Z</time>
      </trkpt>
      <trkpt lat="45.32155" lon="6.58177">
        <ele>2728.4</ele>
        <time>2018-12-26T11:55:35Z</time>
      </trkpt>
      <trkpt lat="45.32153" lon="6.58179">
        <ele>2724</ele>
        <time>2018-12-26T11:55:40Z</time>
      </trkpt>
      <trkpt lat="45.32152" lon="6.58181">
        <ele>2723</ele>
        <time>2018-12-26T11:55:45Z</time>
      </trkpt>
      <trkpt lat="45.3215" lon="6.58183">
        <ele>2725.8</ele>
        <time>2018-12-26T11:55:50Z</time>
      </trkpt>
      <trkpt lat="45.32147" lon="6.58185">
        <ele>2725.6</ele>
        <time>2018-12-26T11:55:55Z</time>
      </trkpt>
      <trkpt lat="45.32145" lon="6.58186">
        <ele>2724</ele>
        <time>2018-12-26T11:56:00Z</time>
      </trkpt>
      <trkpt lat="45.32144" lon="6.58188">
        <ele>2726.2</ele>
        <time>2018-12-26T11:56:05Z</time>
      </trkpt>
      <trkpt lat="45.32143" lon="6.58185">
        <ele>2723.4</ele>
        <time>2018-12-26T11:56:10Z</time>
      </trkpt>
      <trkpt lat="45.32143" lon="6.58183">
        <ele>2726.8</ele>
        <time>2018-12-26T11:56:15Z</time>
      </trkpt>
      <trkpt lat="45.32142" lon="6.5818">
        <ele>2723.6</ele>
        <time>2018-12-26T11:56:20Z</time>
      </trkpt>
      <trkpt lat="45.32141" lon="6.58178">
        <ele>2728</ele>
        <time>2018-12-26T11:56:25Z</time>
      </trkpt>
      <trkpt lat="45.3214" lon="6.58175">
        <ele>2732</ele>
        <time>2018-12-26T11:56:30Z</time>
      </trkpt>
      <trkpt lat="45.32139" lon="6.58173">
        <ele>2730.8</ele>
        <time>2018-12-26T11:56:35Z</time>
      </trkpt>
      <trkpt lat="45.32138" lon="6.58171">
        <ele>2733.2</ele>
        <time>2018-12-26T11:56:40Z</time>
      </trkpt>
      <trkpt lat="45.32137" lon="6.58168">
        <ele>2733.2</ele>
        <time>2018-12-26T11:56:45Z</time>
      </trkpt>
      <trkpt lat="45.32137" lon="6.58168">
        <ele>2735</ele>
        <time>2018-12-26T11:56:50Z</time>
      </trkpt>
      <trkpt lat="45.32137" lon="6.58168">
        <ele>2735</ele>
        <time>2018-12-26T11:56:55Z</time>
      </trkpt>
      <trkpt lat="45.32137" lon="6.58168">
        <ele>2735</ele>
        <time>2018-12-26T11:57:00Z</time>
      </trkpt>
      <trkpt lat="45.32137" lon="6.58168">
        <ele>2735</ele>
        <time>2018-12-26T11:57:05Z</time>
      </trkpt>
      <trkpt lat="45.32137" lon="6.58168">
        <ele>2735</ele>
        <time>2018-12-26T11:57:10Z</time>
      </trkpt>
      <trkpt lat="45.32137" lon="6.58168">
        <ele>2735</ele>
        <time>2018-12-26T11:57:15Z</time>
      </trkpt>
      <trkpt lat="45.32137" lon="6.58168">
        <ele>2735</ele>
        <time>2018-12-26T11:57:20Z</time>
      </trkpt>
      <trkpt lat="45.32137" lon="6.58168">
        <ele>2735</ele>
        <time>2018-12-26T11:57:25Z</time>
      </trkpt>
      <trkpt lat="45.32137" lon="6.58168">
        <ele>2735</ele>
        <time>2018-12-26T11:57:30Z</time>
      </trkpt>
      <trkpt lat="45.32137" lon="6.58168">
        <ele>2735</ele>
        <time>2018-12-26T11:57:35Z</time>
      </trkpt>
      <trkpt lat="45.32137" lon="6.58168">
        <ele>2735</ele>
        <time>2018-12-26T11:57:40Z</time>
      </trkpt>
      <trkpt lat="45.32137" lon="6.58168">
        <ele>2735</ele>
        <time>2018-12-26T11:57:45Z</time>
      </trkpt>
      <trkpt lat="45.32137" lon="6.58167">
        <ele>2735</ele>
        <time>2018-12-26T11:57:50Z</time>
      </trkpt>
      <trkpt lat="45.32137" lon="6.58167">
        <ele>2735</ele>
        <time>2018-12-26T11:57:55Z</time>
      </trkpt>
      <trkpt lat="45.32137" lon="6.58167">
        <ele>2735</ele>
        <time>2018-12-26T11:58:00Z</time>
      </trkpt>
      <trkpt lat="45.32137" lon="6.58167">
        <ele>2735</ele>
        <time>2018-12-26T11:58:05Z</time>
      </trkpt>
      <trkpt lat="45.32137" lon="6.58167">
        <ele>2735</ele>
        <time>2018-12-26T11:58:10Z</time>
      </trkpt>
      <trkpt lat="45.32137" lon="6.58167">
        <ele>2735</ele>
        <time>2018-12-26T11:58:15Z</time>
      </trkpt>
      <trkpt lat="45.32137" lon="6.58167">
        <ele>2735</ele>
        <time>2018-12-26T11:58:20Z</time>
      </trkpt>
      <trkpt lat="45.32137" lon="6.58168">
        <ele>2735</ele>
        <time>2018-12-26T11:58:25Z</time>
      </trkpt>
      <trkpt lat="45.32137" lon="6.58168">
        <ele>2735</ele>
        <time>2018-12-26T11:58:30Z</time>
      </trkpt>
      <trkpt lat="45.32135" lon="6.58165">
        <ele>2736</ele>
        <time>2018-12-26T11:58:35Z</time>
      </trkpt>
      <trkpt lat="45.32134" lon="6.58162">
        <ele>2737</ele>
        <time>2018-12-26T11:58:40Z</time>
      </trkpt>
      <trkpt lat="45.32132" lon="6.58159">
        <ele>2738.4</ele>
        <time>2018-12-26T11:58:45Z</time>
      </trkpt>
      <trkpt lat="45.32131" lon="6.58157">
        <ele>2738.2</ele>
        <time>2018-12-26T11:58:50Z</time>
      </trkpt>
      <trkpt lat="45.32131" lon="6.58159">
        <ele>2738.4</ele>
        <time>2018-12-26T11:58:55Z</time>
      </trkpt>
      <trkpt lat="45.3213" lon="6.58162">
        <ele>2738.8</ele>
        <time>2018-12-26T11:59:00Z</time>
      </trkpt>
      <trkpt lat="45.32128" lon="6.58166">
        <ele>2739</ele>
        <time>2018-12-26T11:59:05Z</time>
      </trkpt>
      <trkpt lat="45.32127" lon="6.58169">
        <ele>2738.2</ele>
        <time>2018-12-26T11:59:10Z</time>
      </trkpt>
      <trkpt lat="45.32126" lon="6.58173">
        <ele>2739.2</ele>
        <time>2018-12-26T11:59:15Z</time>
      </trkpt>
      <trkpt lat="45.32126" lon="6.58175">
        <ele>2740</ele>
        <time>2018-12-26T11:59:20Z</time>
      </trkpt>
      <trkpt lat="45.32125" lon="6.58174">
        <ele>2736.2</ele>
        <time>2018-12-26T11:59:25Z</time>
      </trkpt>
      <trkpt lat="45.32124" lon="6.58171">
        <ele>2736.8</ele>
        <time>2018-12-26T11:59:30Z</time>
      </trkpt>
      <trkpt lat="45.32123" lon="6.58169">
        <ele>2735</ele>
        <time>2018-12-26T11:59:35Z</time>
      </trkpt>
      <trkpt lat="45.32123" lon="6.58165">
        <ele>2742.2</ele>
        <time>2018-12-26T11:59:40Z</time>
      </trkpt>
      <trkpt lat="45.32122" lon="6.58162">
        <ele>2743.8</ele>
        <time>2018-12-26T11:59:45Z</time>
      </trkpt>
      <trkpt lat="45.32122" lon="6.5816">
        <ele>2745.4</ele>
        <time>2018-12-26T11:59:50Z</time>
      </trkpt>
      <trkpt lat="45.32121" lon="6.58157">
        <ele>2744.4</ele>
        <time>2018-12-26T11:59:55Z</time>
      </trkpt>
      <trkpt lat="45.32121" lon="6.58154">
        <ele>2743.6</ele>
        <time>2018-12-26T12:00:00Z</time>
      </trkpt>
      <trkpt lat="45.3212" lon="6.58151">
        <ele>2745.4</ele>
        <time>2018-12-26T12:00:05Z</time>
      </trkpt>
      <trkpt lat="45.32119" lon="6.58149">
        <ele>2749.4</ele>
        <time>2018-12-26T12:00:10Z</time>
      </trkpt>
      <trkpt lat="45.32119" lon="6.58147">
        <ele>2748</ele>
        <time>2018-12-26T12:00:15Z</time>
      </trkpt>
      <trkpt lat="45.32119" lon="6.58147">
        <ele>2749.2</ele>
        <time>2018-12-26T12:00:20Z</time>
      </trkpt>
      <trkpt lat="45.32118" lon="6.58148">
        <ele>2752</ele>
        <time>2018-12-26T12:00:25Z</time>
      </trkpt>
      <trkpt lat="45.32117" lon="6.58151">
        <ele>2754</ele>
        <time>2018-12-26T12:00:30Z</time>
      </trkpt>
      <trkpt lat="45.32117" lon="6.58153">
        <ele>2752.4</ele>
        <time>2018-12-26T12:00:35Z</time>
      </trkpt>
      <trkpt lat="45.32116" lon="6.58156">
        <ele>2752.2</ele>
        <time>2018-12-26T12:00:40Z</time>
      </trkpt>
      <trkpt lat="45.32114" lon="6.58159">
        <ele>2751</ele>
        <time>2018-12-26T12:00:45Z</time>
      </trkpt>
      <trkpt lat="45.32112" lon="6.58162">
        <ele>2753</ele>
        <time>2018-12-26T12:00:50Z</time>
      </trkpt>
      <trkpt lat="45.32111" lon="6.58165">
        <ele>2751.4</ele>
        <time>2018-12-26T12:00:55Z</time>
      </trkpt>
      <trkpt lat="45.3211" lon="6.58167">
        <ele>2750.4</ele>
        <time>2018-12-26T12:01:00Z</time>
      </trkpt>
      <trkpt lat="45.3211" lon="6.58168">
        <ele>2752</ele>
        <time>2018-12-26T12:01:05Z</time>
      </trkpt>
      <trkpt lat="45.3211" lon="6.58168">
        <ele>2751.4</ele>
        <time>2018-12-26T12:01:10Z</time>
      </trkpt>
      <trkpt lat="45.3211" lon="6.58168">
        <ele>2750.8</ele>
        <time>2018-12-26T12:01:15Z</time>
      </trkpt>
      <trkpt lat="45.32109" lon="6.58171">
        <ele>2750.4</ele>
        <time>2018-12-26T12:01:20Z</time>
      </trkpt>
      <trkpt lat="45.32109" lon="6.58174">
        <ele>2750</ele>
        <time>2018-12-26T12:01:25Z</time>
      </trkpt>
      <trkpt lat="45.32108" lon="6.58176">
        <ele>2750</ele>
        <time>2018-12-26T12:01:30Z</time>
      </trkpt>
      <trkpt lat="45.32107" lon="6.58179">
        <ele>2752.8</ele>
        <time>2018-12-26T12:01:35Z</time>
      </trkpt>
      <trkpt lat="45.32107" lon="6.58182">
        <ele>2752</ele>
        <time>2018-12-26T12:01:40Z</time>
      </trkpt>
      <trkpt lat="45.32107" lon="6.58186">
        <ele>2752.2</ele>
        <time>2018-12-26T12:01:45Z</time>
      </trkpt>
      <trkpt lat="45.32106" lon="6.58189">
        <ele>2754.6</ele>
        <time>2018-12-26T12:01:50Z</time>
      </trkpt>
      <trkpt lat="45.32106" lon="6.58192">
        <ele>2754.6</ele>
        <time>2018-12-26T12:01:55Z</time>
      </trkpt>
      <trkpt lat="45.32105" lon="6.58189">
        <ele>2750</ele>
        <time>2018-12-26T12:02:00Z</time>
      </trkpt>
      <trkpt lat="45.32105" lon="6.58186">
        <ele>2752.2</ele>
        <time>2018-12-26T12:02:05Z</time>
      </trkpt>
      <trkpt lat="45.32104" lon="6.58184">
        <ele>2755</ele>
        <time>2018-12-26T12:02:10Z</time>
      </trkpt>
      <trkpt lat="45.32103" lon="6.58181">
        <ele>2754</ele>
        <time>2018-12-26T12:02:15Z</time>
      </trkpt>
      <trkpt lat="45.32102" lon="6.58179">
        <ele>2754</ele>
        <time>2018-12-26T12:02:20Z</time>
      </trkpt>
      <trkpt lat="45.32101" lon="6.58177">
        <ele>2755.4</ele>
        <time>2018-12-26T12:02:25Z</time>
      </trkpt>
      <trkpt lat="45.321" lon="6.58174">
        <ele>2756.8</ele>
        <time>2018-12-26T12:02:30Z</time>
      </trkpt>
      <trkpt lat="45.32099" lon="6.58171">
        <ele>2758.8</ele>
        <time>2018-12-26T12:02:35Z</time>
      </trkpt>
      <trkpt lat="45.32098" lon="6.58168">
        <ele>2760.6</ele>
        <time>2018-12-26T12:02:40Z</time>
      </trkpt>
      <trkpt lat="45.32097" lon="6.58165">
        <ele>2765.4</ele>
        <time>2018-12-26T12:02:45Z</time>
      </trkpt>
      <trkpt lat="45.32096" lon="6.58163">
        <ele>2763</ele>
        <time>2018-12-26T12:02:50Z</time>
      </trkpt>
      <trkpt lat="45.32096" lon="6.5816">
        <ele>2765.2</ele>
        <time>2018-12-26T12:02:55Z</time>
      </trkpt>
      <trkpt lat="45.32096" lon="6.58159">
        <ele>2765.6</ele>
        <time>2018-12-26T12:03:00Z</time>
      </trkpt>
      <trkpt lat="45.32095" lon="6.58157">
        <ele>2768.2</ele>
        <time>2018-12-26T12:03:05Z</time>
      </trkpt>
      <trkpt lat="45.32094" lon="6.58154">
        <ele>2770.4</ele>
        <time>2018-12-26T12:03:10Z</time>
      </trkpt>
      <trkpt lat="45.32093" lon="6.58151">
        <ele>2767.4</ele>
        <time>2018-12-26T12:03:15Z</time>
      </trkpt>
      <trkpt lat="45.32092" lon="6.58147">
        <ele>2768</ele>
        <time>2018-12-26T12:03:20Z</time>
      </trkpt>
      <trkpt lat="45.32091" lon="6.58144">
        <ele>2768</ele>
        <time>2018-12-26T12:03:25Z</time>
      </trkpt>
      <trkpt lat="45.32091" lon="6.58142">
        <ele>2768</ele>
        <time>2018-12-26T12:03:30Z</time>
      </trkpt>
      <trkpt lat="45.3209" lon="6.58142">
        <ele>2766</ele>
        <time>2018-12-26T12:03:35Z</time>
      </trkpt>
      <trkpt lat="45.3209" lon="6.58143">
        <ele>2766.4</ele>
        <time>2018-12-26T12:03:40Z</time>
      </trkpt>
      <trkpt lat="45.3209" lon="6.58143">
        <ele>2766.6</ele>
        <time>2018-12-26T12:03:45Z</time>
      </trkpt>
      <trkpt lat="45.3209" lon="6.58144">
        <ele>2765</ele>
        <time>2018-12-26T12:03:50Z</time>
      </trkpt>
      <trkpt lat="45.32089" lon="6.58146">
        <ele>2767</ele>
        <time>2018-12-26T12:03:55Z</time>
      </trkpt>
      <trkpt lat="45.32087" lon="6.58149">
        <ele>2766</ele>
        <time>2018-12-26T12:04:00Z</time>
      </trkpt>
      <trkpt lat="45.32086" lon="6.58151">
        <ele>2767.6</ele>
        <time>2018-12-26T12:04:05Z</time>
      </trkpt>
      <trkpt lat="45.32084" lon="6.58154">
        <ele>2769.8</ele>
        <time>2018-12-26T12:04:10Z</time>
      </trkpt>
      <trkpt lat="45.32082" lon="6.58157">
        <ele>2771.2</ele>
        <time>2018-12-26T12:04:15Z</time>
      </trkpt>
      <trkpt lat="45.32079" lon="6.5816">
        <ele>2771</ele>
        <time>2018-12-26T12:04:20Z</time>
      </trkpt>
      <trkpt lat="45.32078" lon="6.58162">
        <ele>2772.8</ele>
        <time>2018-12-26T12:04:25Z</time>
      </trkpt>
      <trkpt lat="45.32076" lon="6.58164">
        <ele>2776.4</ele>
        <time>2018-12-26T12:04:30Z</time>
      </trkpt>
      <trkpt lat="45.32074" lon="6.58168">
        <ele>2776.8</ele>
        <time>2018-12-26T12:04:36Z</time>
      </trkpt>
      <trkpt lat="45.32072" lon="6.5817">
        <ele>2774.6</ele>
        <time>2018-12-26T12:04:41Z</time>
      </trkpt>
      <trkpt lat="45.3207" lon="6.58172">
        <ele>2775.2</ele>
        <time>2018-12-26T12:04:46Z</time>
      </trkpt>
      <trkpt lat="45.32068" lon="6.58173">
        <ele>2776</ele>
        <time>2018-12-26T12:04:51Z</time>
      </trkpt>
      <trkpt lat="45.32066" lon="6.58174">
        <ele>2777</ele>
        <time>2018-12-26T12:04:56Z</time>
      </trkpt>
      <trkpt lat="45.32066" lon="6.58174">
        <ele>2776.2</ele>
        <time>2018-12-26T12:05:01Z</time>
      </trkpt>
      <trkpt lat="45.32066" lon="6.58175">
        <ele>2775.6</ele>
        <time>2018-12-26T12:05:06Z</time>
      </trkpt>
      <trkpt lat="45.32063" lon="6.58175">
        <ele>2776.6</ele>
        <time>2018-12-26T12:05:11Z</time>
      </trkpt>
      <trkpt lat="45.32061" lon="6.58175">
        <ele>2777.4</ele>
        <time>2018-12-26T12:05:16Z</time>
      </trkpt>
      <trkpt lat="45.32059" lon="6.58175">
        <ele>2778.6</ele>
        <time>2018-12-26T12:05:21Z</time>
      </trkpt>
      <trkpt lat="45.32058" lon="6.58174">
        <ele>2781.4</ele>
        <time>2018-12-26T12:05:26Z</time>
      </trkpt>
      <trkpt lat="45.32056" lon="6.58174">
        <ele>2779.6</ele>
        <time>2018-12-26T12:05:31Z</time>
      </trkpt>
      <trkpt lat="45.32054" lon="6.58173">
        <ele>2777.4</ele>
        <time>2018-12-26T12:05:36Z</time>
      </trkpt>
      <trkpt lat="45.32052" lon="6.58172">
        <ele>2778.2</ele>
        <time>2018-12-26T12:05:41Z</time>
      </trkpt>
      <trkpt lat="45.3205" lon="6.5817">
        <ele>2779</ele>
        <time>2018-12-26T12:05:46Z</time>
      </trkpt>
      <trkpt lat="45.32048" lon="6.58168">
        <ele>2781.4</ele>
        <time>2018-12-26T12:05:51Z</time>
      </trkpt>
      <trkpt lat="45.32045" lon="6.58165">
        <ele>2782</ele>
        <time>2018-12-26T12:05:56Z</time>
      </trkpt>
      <trkpt lat="45.32042" lon="6.58162">
        <ele>2778.6</ele>
        <time>2018-12-26T12:06:01Z</time>
      </trkpt>
      <trkpt lat="45.3204" lon="6.5816">
        <ele>2780.2</ele>
        <time>2018-12-26T12:06:06Z</time>
      </trkpt>
      <trkpt lat="45.32038" lon="6.58158">
        <ele>2784.4</ele>
        <time>2018-12-26T12:06:11Z</time>
      </trkpt>
      <trkpt lat="45.32036" lon="6.58156">
        <ele>2783</ele>
        <time>2018-12-26T12:06:16Z</time>
      </trkpt>
      <trkpt lat="45.32033" lon="6.58154">
        <ele>2782.4</ele>
        <time>2018-12-26T12:06:21Z</time>
      </trkpt>
      <trkpt lat="45.32031" lon="6.58152">
        <ele>2783.2</ele>
        <time>2018-12-26T12:06:26Z</time>
      </trkpt>
      <trkpt lat="45.3203" lon="6.5815">
        <ele>2782.6</ele>
        <time>2018-12-26T12:06:31Z</time>
      </trkpt>
      <trkpt lat="45.32029" lon="6.58147">
        <ele>2786.6</ele>
        <time>2018-12-26T12:06:36Z</time>
      </trkpt>
      <trkpt lat="45.32028" lon="6.58144">
        <ele>2784</ele>
        <time>2018-12-26T12:06:41Z</time>
      </trkpt>
      <trkpt lat="45.32026" lon="6.58141">
        <ele>2787.6</ele>
        <time>2018-12-26T12:06:46Z</time>
      </trkpt>
      <trkpt lat="45.32025" lon="6.58138">
        <ele>2785.6</ele>
        <time>2018-12-26T12:06:51Z</time>
      </trkpt>
      <trkpt lat="45.32024" lon="6.58135">
        <ele>2787.4</ele>
        <time>2018-12-26T12:06:56Z</time>
      </trkpt>
      <trkpt lat="45.32022" lon="6.58132">
        <ele>2788.4</ele>
        <time>2018-12-26T12:07:01Z</time>
      </trkpt>
      <trkpt lat="45.32021" lon="6.5813">
        <ele>2786.8</ele>
        <time>2018-12-26T12:07:06Z</time>
      </trkpt>
      <trkpt lat="45.3202" lon="6.58127">
        <ele>2788.8</ele>
        <time>2018-12-26T12:07:11Z</time>
      </trkpt>
      <trkpt lat="45.32019" lon="6.58124">
        <ele>2790.2</ele>
        <time>2018-12-26T12:07:16Z</time>
      </trkpt>
      <trkpt lat="45.32018" lon="6.58121">
        <ele>2792.2</ele>
        <time>2018-12-26T12:07:21Z</time>
      </trkpt>
      <trkpt lat="45.32017" lon="6.58119">
        <ele>2794</ele>
        <time>2018-12-26T12:07:26Z</time>
      </trkpt>
      <trkpt lat="45.32015" lon="6.58119">
        <ele>2793.4</ele>
        <time>2018-12-26T12:07:31Z</time>
      </trkpt>
      <trkpt lat="45.32013" lon="6.58122">
        <ele>2793.6</ele>
        <time>2018-12-26T12:07:36Z</time>
      </trkpt>
      <trkpt lat="45.32012" lon="6.58125">
        <ele>2793.6</ele>
        <time>2018-12-26T12:07:41Z</time>
      </trkpt>
      <trkpt lat="45.32012" lon="6.58128">
        <ele>2792.6</ele>
        <time>2018-12-26T12:07:46Z</time>
      </trkpt>
      <trkpt lat="45.32012" lon="6.5813">
        <ele>2793.6</ele>
        <time>2018-12-26T12:07:51Z</time>
      </trkpt>
      <trkpt lat="45.32011" lon="6.58133">
        <ele>2791</ele>
        <time>2018-12-26T12:07:56Z</time>
      </trkpt>
      <trkpt lat="45.32011" lon="6.58136">
        <ele>2792.8</ele>
        <time>2018-12-26T12:08:01Z</time>
      </trkpt>
      <trkpt lat="45.32011" lon="6.58136">
        <ele>2793.2</ele>
        <time>2018-12-26T12:08:06Z</time>
      </trkpt>
      <trkpt lat="45.3201" lon="6.58135">
        <ele>2796.6</ele>
        <time>2018-12-26T12:08:11Z</time>
      </trkpt>
      <trkpt lat="45.32008" lon="6.58132">
        <ele>2798.2</ele>
        <time>2018-12-26T12:08:16Z</time>
      </trkpt>
      <trkpt lat="45.32008" lon="6.58131">
        <ele>2793.8</ele>
        <time>2018-12-26T12:08:21Z</time>
      </trkpt>
      <trkpt lat="45.32006" lon="6.58129">
        <ele>2794.8</ele>
        <time>2018-12-26T12:08:26Z</time>
      </trkpt>
      <trkpt lat="45.32005" lon="6.58128">
        <ele>2794.4</ele>
        <time>2018-12-26T12:08:31Z</time>
      </trkpt>
      <trkpt lat="45.32003" lon="6.58126">
        <ele>2797</ele>
        <time>2018-12-26T12:08:36Z</time>
      </trkpt>
      <trkpt lat="45.32002" lon="6.58123">
        <ele>2797</ele>
        <time>2018-12-26T12:08:41Z</time>
      </trkpt>
      <trkpt lat="45.32" lon="6.58121">
        <ele>2800.2</ele>
        <time>2018-12-26T12:08:46Z</time>
      </trkpt>
      <trkpt lat="45.31998" lon="6.58119">
        <ele>2799</ele>
        <time>2018-12-26T12:08:51Z</time>
      </trkpt>
      <trkpt lat="45.31996" lon="6.58117">
        <ele>2799.2</ele>
        <time>2018-12-26T12:08:56Z</time>
      </trkpt>
      <trkpt lat="45.31994" lon="6.58114">
        <ele>2801</ele>
        <time>2018-12-26T12:09:01Z</time>
      </trkpt>
      <trkpt lat="45.31992" lon="6.58112">
        <ele>2802.4</ele>
        <time>2018-12-26T12:09:06Z</time>
      </trkpt>
      <trkpt lat="45.31991" lon="6.5811">
        <ele>2801.4</ele>
        <time>2018-12-26T12:09:11Z</time>
      </trkpt>
      <trkpt lat="45.31989" lon="6.58108">
        <ele>2802.8</ele>
        <time>2018-12-26T12:09:16Z</time>
      </trkpt>
      <trkpt lat="45.31987" lon="6.58106">
        <ele>2801.4</ele>
        <time>2018-12-26T12:09:21Z</time>
      </trkpt>
      <trkpt lat="45.31985" lon="6.58104">
        <ele>2801.2</ele>
        <time>2018-12-26T12:09:26Z</time>
      </trkpt>
      <trkpt lat="45.31984" lon="6.58101">
        <ele>2804.2</ele>
        <time>2018-12-26T12:09:31Z</time>
      </trkpt>
      <trkpt lat="45.31984" lon="6.58098">
        <ele>2803.4</ele>
        <time>2018-12-26T12:09:36Z</time>
      </trkpt>
      <trkpt lat="45.31982" lon="6.58098">
        <ele>2805.6</ele>
        <time>2018-12-26T12:09:41Z</time>
      </trkpt>
      <trkpt lat="45.3198" lon="6.58099">
        <ele>2808.6</ele>
        <time>2018-12-26T12:09:46Z</time>
      </trkpt>
      <trkpt lat="45.31979" lon="6.58099">
        <ele>2807.8</ele>
        <time>2018-12-26T12:09:51Z</time>
      </trkpt>
      <trkpt lat="45.31978" lon="6.58098">
        <ele>2806.2</ele>
        <time>2018-12-26T12:09:56Z</time>
      </trkpt>
      <trkpt lat="45.31976" lon="6.58095">
        <ele>2809.6</ele>
        <time>2018-12-26T12:10:01Z</time>
      </trkpt>
      <trkpt lat="45.31975" lon="6.58094">
        <ele>2810</ele>
        <time>2018-12-26T12:10:06Z</time>
      </trkpt>
      <trkpt lat="45.31973" lon="6.58094">
        <ele>2812</ele>
        <time>2018-12-26T12:10:11Z</time>
      </trkpt>
      <trkpt lat="45.31971" lon="6.58095">
        <ele>2812.8</ele>
        <time>2018-12-26T12:10:16Z</time>
      </trkpt>
      <trkpt lat="45.31969" lon="6.58096">
        <ele>2815.8</ele>
        <time>2018-12-26T12:10:21Z</time>
      </trkpt>
      <trkpt lat="45.31966" lon="6.58097">
        <ele>2814</ele>
        <time>2018-12-26T12:10:26Z</time>
      </trkpt>
      <trkpt lat="45.31964" lon="6.58096">
        <ele>2815.4</ele>
        <time>2018-12-26T12:10:31Z</time>
      </trkpt>
      <trkpt lat="45.31962" lon="6.58095">
        <ele>2816</ele>
        <time>2018-12-26T12:10:36Z</time>
      </trkpt>
      <trkpt lat="45.3196" lon="6.58094">
        <ele>2819.6</ele>
        <time>2018-12-26T12:10:41Z</time>
      </trkpt>
      <trkpt lat="45.31957" lon="6.58092">
        <ele>2818.4</ele>
        <time>2018-12-26T12:10:46Z</time>
      </trkpt>
      <trkpt lat="45.31956" lon="6.58091">
        <ele>2817.2</ele>
        <time>2018-12-26T12:10:51Z</time>
      </trkpt>
      <trkpt lat="45.31956" lon="6.58092">
        <ele>2817.6</ele>
        <time>2018-12-26T12:10:56Z</time>
      </trkpt>
      <trkpt lat="45.31956" lon="6.58092">
        <ele>2818</ele>
        <time>2018-12-26T12:11:01Z</time>
      </trkpt>
      <trkpt lat="45.31954" lon="6.58091">
        <ele>2818.2</ele>
        <time>2018-12-26T12:11:06Z</time>
      </trkpt>
      <trkpt lat="45.31953" lon="6.5809">
        <ele>2817.6</ele>
        <time>2018-12-26T12:11:11Z</time>
      </trkpt>
      <trkpt lat="45.31951" lon="6.58089">
        <ele>2819.4</ele>
        <time>2018-12-26T12:11:16Z</time>
      </trkpt>
      <trkpt lat="45.31949" lon="6.58087">
        <ele>2819.6</ele>
        <time>2018-12-26T12:11:21Z</time>
      </trkpt>
      <trkpt lat="45.31947" lon="6.58084">
        <ele>2820.8</ele>
        <time>2018-12-26T12:11:26Z</time>
      </trkpt>
      <trkpt lat="45.31945" lon="6.58082">
        <ele>2822.4</ele>
        <time>2018-12-26T12:11:31Z</time>
      </trkpt>
      <trkpt lat="45.31943" lon="6.5808">
        <ele>2822.2</ele>
        <time>2018-12-26T12:11:36Z</time>
      </trkpt>
      <trkpt lat="45.31941" lon="6.58077">
        <ele>2825.2</ele>
        <time>2018-12-26T12:11:41Z</time>
      </trkpt>
      <trkpt lat="45.31941" lon="6.58073">
        <ele>2825.4</ele>
        <time>2018-12-26T12:11:46Z</time>
      </trkpt>
      <trkpt lat="45.31939" lon="6.58069">
        <ele>2825.4</ele>
        <time>2018-12-26T12:11:51Z</time>
      </trkpt>
      <trkpt lat="45.31937" lon="6.58066">
        <ele>2827.6</ele>
        <time>2018-12-26T12:11:56Z</time>
      </trkpt>
      <trkpt lat="45.31935" lon="6.58065">
        <ele>2829.8</ele>
        <time>2018-12-26T12:12:01Z</time>
      </trkpt>
      <trkpt lat="45.31932" lon="6.58063">
        <ele>2827.6</ele>
        <time>2018-12-26T12:12:06Z</time>
      </trkpt>
      <trkpt lat="45.3193" lon="6.58061">
        <ele>2828.8</ele>
        <time>2018-12-26T12:12:11Z</time>
      </trkpt>
      <trkpt lat="45.31928" lon="6.58059">
        <ele>2827.4</ele>
        <time>2018-12-26T12:12:16Z</time>
      </trkpt>
      <trkpt lat="45.31927" lon="6.58057">
        <ele>2832.2</ele>
        <time>2018-12-26T12:12:21Z</time>
      </trkpt>
      <trkpt lat="45.31925" lon="6.58055">
        <ele>2834.6</ele>
        <time>2018-12-26T12:12:26Z</time>
      </trkpt>
      <trkpt lat="45.31923" lon="6.58054">
        <ele>2835.4</ele>
        <time>2018-12-26T12:12:31Z</time>
      </trkpt>
      <trkpt lat="45.3192" lon="6.58051">
        <ele>2833.2</ele>
        <time>2018-12-26T12:12:36Z</time>
      </trkpt>
      <trkpt lat="45.31918" lon="6.58049">
        <ele>2833.2</ele>
        <time>2018-12-26T12:12:41Z</time>
      </trkpt>
      <trkpt lat="45.31916" lon="6.58047">
        <ele>2836.4</ele>
        <time>2018-12-26T12:12:46Z</time>
      </trkpt>
      <trkpt lat="45.31913" lon="6.58046">
        <ele>2834.6</ele>
        <time>2018-12-26T12:12:51Z</time>
      </trkpt>
      <trkpt lat="45.31911" lon="6.58045">
        <ele>2835.8</ele>
        <time>2018-12-26T12:12:56Z</time>
      </trkpt>
      <trkpt lat="45.31909" lon="6.58044">
        <ele>2837</ele>
        <time>2018-12-26T12:13:01Z</time>
      </trkpt>
      <trkpt lat="45.31906" lon="6.58044">
        <ele>2839.8</ele>
        <time>2018-12-26T12:13:06Z</time>
      </trkpt>
      <trkpt lat="45.31903" lon="6.58044">
        <ele>2838.8</ele>
        <time>2018-12-26T12:13:11Z</time>
      </trkpt>
      <trkpt lat="45.319" lon="6.58044">
        <ele>2840.4</ele>
        <time>2018-12-26T12:13:16Z</time>
      </trkpt>
      <trkpt lat="45.31898" lon="6.58044">
        <ele>2840.4</ele>
        <time>2018-12-26T12:13:21Z</time>
      </trkpt>
      <trkpt lat="45.31895" lon="6.58044">
        <ele>2841</ele>
        <time>2018-12-26T12:13:26Z</time>
      </trkpt>
      <trkpt lat="45.31893" lon="6.58044">
        <ele>2841</ele>
        <time>2018-12-26T12:13:31Z</time>
      </trkpt>
      <trkpt lat="45.31891" lon="6.58043">
        <ele>2842.4</ele>
        <time>2018-12-26T12:13:36Z</time>
      </trkpt>
      <trkpt lat="45.31889" lon="6.58042">
        <ele>2840.4</ele>
        <time>2018-12-26T12:13:41Z</time>
      </trkpt>
      <trkpt lat="45.31888" lon="6.58038">
        <ele>2843</ele>
        <time>2018-12-26T12:13:46Z</time>
      </trkpt>
      <trkpt lat="45.31887" lon="6.58036">
        <ele>2844</ele>
        <time>2018-12-26T12:13:52Z</time>
      </trkpt>
      <trkpt lat="45.31887" lon="6.58036">
        <ele>2842.2</ele>
        <time>2018-12-26T12:13:57Z</time>
      </trkpt>
      <trkpt lat="45.31886" lon="6.58031">
        <ele>2844.2</ele>
        <time>2018-12-26T12:14:02Z</time>
      </trkpt>
      <trkpt lat="45.31885" lon="6.58026">
        <ele>2843.2</ele>
        <time>2018-12-26T12:14:07Z</time>
      </trkpt>
      <trkpt lat="45.31884" lon="6.58022">
        <ele>2845.8</ele>
        <time>2018-12-26T12:14:12Z</time>
      </trkpt>
      <trkpt lat="45.31885" lon="6.58016">
        <ele>2847.6</ele>
        <time>2018-12-26T12:14:17Z</time>
      </trkpt>
      <trkpt lat="45.31886" lon="6.58013">
        <ele>2848</ele>
        <time>2018-12-26T12:14:22Z</time>
      </trkpt>
      <trkpt lat="45.31887" lon="6.58011">
        <ele>2846.8</ele>
        <time>2018-12-26T12:24:32Z</time>
      </trkpt>
      <trkpt lat="45.31886" lon="6.58006">
        <ele>2846.8</ele>
        <time>2018-12-26T12:24:37Z</time>
      </trkpt>
      <trkpt lat="45.31886" lon="6.58006">
        <ele>2846.6</ele>
        <time>2018-12-26T12:24:42Z</time>
      </trkpt>
      <trkpt lat="45.31886" lon="6.58006">
        <ele>2846.4</ele>
        <time>2018-12-26T12:24:47Z</time>
      </trkpt>
      <trkpt lat="45.31885" lon="6.58002">
        <ele>2845</ele>
        <time>2018-12-26T12:24:52Z</time>
      </trkpt>
      <trkpt lat="45.31882" lon="6.57996">
        <ele>2845.6</ele>
        <time>2018-12-26T12:24:57Z</time>
      </trkpt>
      <trkpt lat="45.31875" lon="6.57979">
        <ele>2845.6</ele>
        <time>2018-12-26T12:25:02Z</time>
      </trkpt>
      <trkpt lat="45.31869" lon="6.57969">
        <ele>2844.8</ele>
        <time>2018-12-26T12:25:07Z</time>
      </trkpt>
      <trkpt lat="45.31865" lon="6.5796">
        <ele>2840.8</ele>
        <time>2018-12-26T12:25:12Z</time>
      </trkpt>
      <trkpt lat="45.31858" lon="6.5795">
        <ele>2841.2</ele>
        <time>2018-12-26T12:25:17Z</time>
      </trkpt>
      <trkpt lat="45.31845" lon="6.57941">
        <ele>2840.8</ele>
        <time>2018-12-26T12:25:22Z</time>
      </trkpt>
      <trkpt lat="45.31827" lon="6.57936">
        <ele>2838.8</ele>
        <time>2018-12-26T12:25:27Z</time>
      </trkpt>
      <trkpt lat="45.318" lon="6.57939">
        <ele>2832.4</ele>
        <time>2018-12-26T12:25:33Z</time>
      </trkpt>
      <trkpt lat="45.31784" lon="6.57942">
        <ele>2832</ele>
        <time>2018-12-26T12:25:38Z</time>
      </trkpt>
      <trkpt lat="45.31776" lon="6.57944">
        <ele>2833.4</ele>
        <time>2018-12-26T12:25:43Z</time>
      </trkpt>
      <trkpt lat="45.31767" lon="6.57947">
        <ele>2828</ele>
        <time>2018-12-26T12:25:48Z</time>
      </trkpt>
      <trkpt lat="45.31758" lon="6.57951">
        <ele>2827.6</ele>
        <time>2018-12-26T12:25:53Z</time>
      </trkpt>
      <trkpt lat="45.31745" lon="6.57958">
        <ele>2825.8</ele>
        <time>2018-12-26T12:25:58Z</time>
      </trkpt>
      <trkpt lat="45.31719" lon="6.57976">
        <ele>2819.2</ele>
        <time>2018-12-26T12:26:04Z</time>
      </trkpt>
      <trkpt lat="45.31688" lon="6.57997">
        <ele>2813.4</ele>
        <time>2018-12-26T12:26:09Z</time>
      </trkpt>
      <trkpt lat="45.31649" lon="6.58013">
        <ele>2805</ele>
        <time>2018-12-26T12:26:14Z</time>
      </trkpt>
      <trkpt lat="45.31618" lon="6.58022">
        <ele>2803</ele>
        <time>2018-12-26T12:26:19Z</time>
      </trkpt>
      <trkpt lat="45.31601" lon="6.58029">
        <ele>2799</ele>
        <time>2018-12-26T12:26:24Z</time>
      </trkpt>
      <trkpt lat="45.31594" lon="6.58032">
        <ele>2797.2</ele>
        <time>2018-12-26T12:26:29Z</time>
      </trkpt>
      <trkpt lat="45.31587" lon="6.58034">
        <ele>2799.8</ele>
        <time>2018-12-26T12:26:34Z</time>
      </trkpt>
      <trkpt lat="45.31581" lon="6.58036">
        <ele>2799.8</ele>
        <time>2018-12-26T12:26:39Z</time>
      </trkpt>
      <trkpt lat="45.31572" lon="6.58039">
        <ele>2798</ele>
        <time>2018-12-26T12:26:44Z</time>
      </trkpt>
      <trkpt lat="45.31563" lon="6.58041">
        <ele>2794.8</ele>
        <time>2018-12-26T12:26:49Z</time>
      </trkpt>
      <trkpt lat="45.31554" lon="6.58043">
        <ele>2792.8</ele>
        <time>2018-12-26T12:26:54Z</time>
      </trkpt>
      <trkpt lat="45.31547" lon="6.58043">
        <ele>2795</ele>
        <time>2018-12-26T12:26:59Z</time>
      </trkpt>
      <trkpt lat="45.31539" lon="6.58044">
        <ele>2797.6</ele>
        <time>2018-12-26T12:27:04Z</time>
      </trkpt>
      <trkpt lat="45.31531" lon="6.58042">
        <ele>2795</ele>
        <time>2018-12-26T12:27:09Z</time>
      </trkpt>
      <trkpt lat="45.31523" lon="6.5804">
        <ele>2794.2</ele>
        <time>2018-12-26T12:27:14Z</time>
      </trkpt>
      <trkpt lat="45.31515" lon="6.58039">
        <ele>2796</ele>
        <time>2018-12-26T12:27:19Z</time>
      </trkpt>
      <trkpt lat="45.31508" lon="6.58038">
        <ele>2793.6</ele>
        <time>2018-12-26T12:27:24Z</time>
      </trkpt>
      <trkpt lat="45.31499" lon="6.58037">
        <ele>2794</ele>
        <time>2018-12-26T12:27:29Z</time>
      </trkpt>
      <trkpt lat="45.31491" lon="6.58038">
        <ele>2792.6</ele>
        <time>2018-12-26T12:27:34Z</time>
      </trkpt>
      <trkpt lat="45.31482" lon="6.5804">
        <ele>2793</ele>
        <time>2018-12-26T12:27:39Z</time>
      </trkpt>
      <trkpt lat="45.31474" lon="6.58043">
        <ele>2790.6</ele>
        <time>2018-12-26T12:27:44Z</time>
      </trkpt>
      <trkpt lat="45.31465" lon="6.58048">
        <ele>2793</ele>
        <time>2018-12-26T12:27:49Z</time>
      </trkpt>
      <trkpt lat="45.31457" lon="6.58055">
        <ele>2792.8</ele>
        <time>2018-12-26T12:27:54Z</time>
      </trkpt>
      <trkpt lat="45.31451" lon="6.58063">
        <ele>2791.4</ele>
        <time>2018-12-26T12:27:59Z</time>
      </trkpt>
      <trkpt lat="45.31445" lon="6.58073">
        <ele>2789.4</ele>
        <time>2018-12-26T12:28:04Z</time>
      </trkpt>
      <trkpt lat="45.31441" lon="6.58082">
        <ele>2789.8</ele>
        <time>2018-12-26T12:28:09Z</time>
      </trkpt>
      <trkpt lat="45.31437" lon="6.58093">
        <ele>2788.4</ele>
        <time>2018-12-26T12:28:14Z</time>
      </trkpt>
      <trkpt lat="45.31433" lon="6.58103">
        <ele>2788.4</ele>
        <time>2018-12-26T12:28:19Z</time>
      </trkpt>
      <trkpt lat="45.31429" lon="6.5811">
        <ele>2790</ele>
        <time>2018-12-26T12:28:24Z</time>
      </trkpt>
      <trkpt lat="45.31425" lon="6.58118">
        <ele>2788.6</ele>
        <time>2018-12-26T12:28:29Z</time>
      </trkpt>
      <trkpt lat="45.31421" lon="6.58126">
        <ele>2787.8</ele>
        <time>2018-12-26T12:28:34Z</time>
      </trkpt>
      <trkpt lat="45.31418" lon="6.58134">
        <ele>2788.4</ele>
        <time>2018-12-26T12:28:39Z</time>
      </trkpt>
      <trkpt lat="45.31415" lon="6.58142">
        <ele>2788</ele>
        <time>2018-12-26T12:28:44Z</time>
      </trkpt>
      <trkpt lat="45.31411" lon="6.58148">
        <ele>2786.4</ele>
        <time>2018-12-26T12:28:49Z</time>
      </trkpt>
      <trkpt lat="45.3141" lon="6.58155">
        <ele>2789.2</ele>
        <time>2018-12-26T12:28:54Z</time>
      </trkpt>
      <trkpt lat="45.31408" lon="6.58162">
        <ele>2787.6</ele>
        <time>2018-12-26T12:28:59Z</time>
      </trkpt>
      <trkpt lat="45.31405" lon="6.58169">
        <ele>2788.2</ele>
        <time>2018-12-26T12:29:04Z</time>
      </trkpt>
      <trkpt lat="45.31403" lon="6.58175">
        <ele>2788.6</ele>
        <time>2018-12-26T12:29:09Z</time>
      </trkpt>
      <trkpt lat="45.31401" lon="6.58182">
        <ele>2786.8</ele>
        <time>2018-12-26T12:29:14Z</time>
      </trkpt>
      <trkpt lat="45.31399" lon="6.58189">
        <ele>2787.8</ele>
        <time>2018-12-26T12:29:19Z</time>
      </trkpt>
      <trkpt lat="45.31397" lon="6.58197">
        <ele>2787.8</ele>
        <time>2018-12-26T12:29:24Z</time>
      </trkpt>
      <trkpt lat="45.31395" lon="6.58202">
        <ele>2788.4</ele>
        <time>2018-12-26T12:29:29Z</time>
      </trkpt>
      <trkpt lat="45.31394" lon="6.58208">
        <ele>2788.6</ele>
        <time>2018-12-26T12:29:34Z</time>
      </trkpt>
      <trkpt lat="45.31392" lon="6.58214">
        <ele>2790.2</ele>
        <time>2018-12-26T12:29:39Z</time>
      </trkpt>
      <trkpt lat="45.31389" lon="6.5822">
        <ele>2789</ele>
        <time>2018-12-26T12:29:44Z</time>
      </trkpt>
      <trkpt lat="45.31387" lon="6.58227">
        <ele>2791.2</ele>
        <time>2018-12-26T12:29:49Z</time>
      </trkpt>
      <trkpt lat="45.31384" lon="6.58232">
        <ele>2789.6</ele>
        <time>2018-12-26T12:29:54Z</time>
      </trkpt>
      <trkpt lat="45.31382" lon="6.58238">
        <ele>2790.8</ele>
        <time>2018-12-26T12:29:59Z</time>
      </trkpt>
      <trkpt lat="45.31379" lon="6.58244">
        <ele>2791.8</ele>
        <time>2018-12-26T12:30:04Z</time>
      </trkpt>
      <trkpt lat="45.31377" lon="6.58249">
        <ele>2792</ele>
        <time>2018-12-26T12:30:09Z</time>
      </trkpt>
      <trkpt lat="45.31375" lon="6.58255">
        <ele>2795</ele>
        <time>2018-12-26T12:30:14Z</time>
      </trkpt>
      <trkpt lat="45.31373" lon="6.58261">
        <ele>2795.8</ele>
        <time>2018-12-26T12:30:19Z</time>
      </trkpt>
      <trkpt lat="45.31371" lon="6.58267">
        <ele>2792.8</ele>
        <time>2018-12-26T12:30:24Z</time>
      </trkpt>
      <trkpt lat="45.31368" lon="6.58273">
        <ele>2792.6</ele>
        <time>2018-12-26T12:30:29Z</time>
      </trkpt>
      <trkpt lat="45.31366" lon="6.58279">
        <ele>2797.2</ele>
        <time>2018-12-26T12:30:34Z</time>
      </trkpt>
      <trkpt lat="45.31364" lon="6.58285">
        <ele>2793.4</ele>
        <time>2018-12-26T12:30:39Z</time>
      </trkpt>
      <trkpt lat="45.31364" lon="6.58287">
        <ele>2794.6</ele>
        <time>2018-12-26T12:30:44Z</time>
      </trkpt>
      <trkpt lat="45.31364" lon="6.58287">
        <ele>2794.8</ele>
        <time>2018-12-26T12:30:49Z</time>
      </trkpt>
      <trkpt lat="45.31364" lon="6.58287">
        <ele>2794.8</ele>
        <time>2018-12-26T12:30:54Z</time>
      </trkpt>
      <trkpt lat="45.31364" lon="6.58287">
        <ele>2794.8</ele>
        <time>2018-12-26T12:30:59Z</time>
      </trkpt>
      <trkpt lat="45.31364" lon="6.58287">
        <ele>2794.8</ele>
        <time>2018-12-26T12:31:04Z</time>
      </trkpt>
      <trkpt lat="45.31364" lon="6.5829">
        <ele>2795</ele>
        <time>2018-12-26T12:31:09Z</time>
      </trkpt>
      <trkpt lat="45.31363" lon="6.58292">
        <ele>2791.6</ele>
        <time>2018-12-26T12:31:14Z</time>
      </trkpt>
      <trkpt lat="45.31362" lon="6.58297">
        <ele>2795.8</ele>
        <time>2018-12-26T12:31:20Z</time>
      </trkpt>
      <trkpt lat="45.3136" lon="6.58302">
        <ele>2793.8</ele>
        <time>2018-12-26T12:31:25Z</time>
      </trkpt>
      <trkpt lat="45.31357" lon="6.58307">
        <ele>2795.6</ele>
        <time>2018-12-26T12:31:30Z</time>
      </trkpt>
      <trkpt lat="45.31354" lon="6.58312">
        <ele>2796.8</ele>
        <time>2018-12-26T12:31:35Z</time>
      </trkpt>
      <trkpt lat="45.31353" lon="6.58317">
        <ele>2796.4</ele>
        <time>2018-12-26T12:31:40Z</time>
      </trkpt>
      <trkpt lat="45.3135" lon="6.58322">
        <ele>2798.2</ele>
        <time>2018-12-26T12:31:45Z</time>
      </trkpt>
      <trkpt lat="45.31348" lon="6.58327">
        <ele>2796.8</ele>
        <time>2018-12-26T12:31:50Z</time>
      </trkpt>
      <trkpt lat="45.31346" lon="6.58332">
        <ele>2797</ele>
        <time>2018-12-26T12:31:55Z</time>
      </trkpt>
      <trkpt lat="45.31345" lon="6.58337">
        <ele>2799.8</ele>
        <time>2018-12-26T12:32:00Z</time>
      </trkpt>
      <trkpt lat="45.31343" lon="6.58342">
        <ele>2800.8</ele>
        <time>2018-12-26T12:32:05Z</time>
      </trkpt>
      <trkpt lat="45.31341" lon="6.58347">
        <ele>2798.8</ele>
        <time>2018-12-26T12:32:10Z</time>
      </trkpt>
      <trkpt lat="45.3134" lon="6.58352">
        <ele>2798.8</ele>
        <time>2018-12-26T12:32:15Z</time>
      </trkpt>
      <trkpt lat="45.31338" lon="6.58357">
        <ele>2799</ele>
        <time>2018-12-26T12:32:20Z</time>
      </trkpt>
      <trkpt lat="45.31338" lon="6.58363">
        <ele>2800</ele>
        <time>2018-12-26T12:32:25Z</time>
      </trkpt>
      <trkpt lat="45.31337" lon="6.58369">
        <ele>2799.4</ele>
        <time>2018-12-26T12:32:30Z</time>
      </trkpt>
      <trkpt lat="45.31336" lon="6.58375">
        <ele>2804</ele>
        <time>2018-12-26T12:32:35Z</time>
      </trkpt>
      <trkpt lat="45.31335" lon="6.58381">
        <ele>2802.6</ele>
        <time>2018-12-26T12:32:40Z</time>
      </trkpt>
      <trkpt lat="45.31333" lon="6.58387">
        <ele>2799.4</ele>
        <time>2018-12-26T12:32:45Z</time>
      </trkpt>
      <trkpt lat="45.31332" lon="6.58393">
        <ele>2800.6</ele>
        <time>2018-12-26T12:32:50Z</time>
      </trkpt>
      <trkpt lat="45.31332" lon="6.58394">
        <ele>2804</ele>
        <time>2018-12-26T12:32:55Z</time>
      </trkpt>
      <trkpt lat="45.31332" lon="6.58394">
        <ele>2803.4</ele>
        <time>2018-12-26T12:33:00Z</time>
      </trkpt>
      <trkpt lat="45.31332" lon="6.58394">
        <ele>2803.2</ele>
        <time>2018-12-26T12:33:05Z</time>
      </trkpt>
      <trkpt lat="45.31332" lon="6.58394">
        <ele>2803</ele>
        <time>2018-12-26T12:33:10Z</time>
      </trkpt>
      <trkpt lat="45.31332" lon="6.58393">
        <ele>2802.8</ele>
        <time>2018-12-26T12:33:15Z</time>
      </trkpt>
      <trkpt lat="45.31332" lon="6.58395">
        <ele>2803.4</ele>
        <time>2018-12-26T12:33:20Z</time>
      </trkpt>
      <trkpt lat="45.3133" lon="6.58402">
        <ele>2803</ele>
        <time>2018-12-26T12:33:25Z</time>
      </trkpt>
      <trkpt lat="45.31329" lon="6.58408">
        <ele>2804</ele>
        <time>2018-12-26T12:33:30Z</time>
      </trkpt>
      <trkpt lat="45.31327" lon="6.58414">
        <ele>2804.6</ele>
        <time>2018-12-26T12:33:35Z</time>
      </trkpt>
      <trkpt lat="45.31325" lon="6.58421">
        <ele>2805</ele>
        <time>2018-12-26T12:33:40Z</time>
      </trkpt>
      <trkpt lat="45.31323" lon="6.58427">
        <ele>2806.2</ele>
        <time>2018-12-26T12:33:45Z</time>
      </trkpt>
      <trkpt lat="45.31321" lon="6.58434">
        <ele>2804.8</ele>
        <time>2018-12-26T12:33:50Z</time>
      </trkpt>
      <trkpt lat="45.31319" lon="6.58441">
        <ele>2807.4</ele>
        <time>2018-12-26T12:33:55Z</time>
      </trkpt>
      <trkpt lat="45.31317" lon="6.58447">
        <ele>2805.2</ele>
        <time>2018-12-26T12:34:00Z</time>
      </trkpt>
      <trkpt lat="45.31316" lon="6.58453">
        <ele>2805.4</ele>
        <time>2018-12-26T12:34:05Z</time>
      </trkpt>
      <trkpt lat="45.31314" lon="6.58459">
        <ele>2807.6</ele>
        <time>2018-12-26T12:34:10Z</time>
      </trkpt>
      <trkpt lat="45.31313" lon="6.58465">
        <ele>2807</ele>
        <time>2018-12-26T12:34:15Z</time>
      </trkpt>
      <trkpt lat="45.3131" lon="6.58471">
        <ele>2805.8</ele>
        <time>2018-12-26T12:34:20Z</time>
      </trkpt>
      <trkpt lat="45.31308" lon="6.58477">
        <ele>2807.6</ele>
        <time>2018-12-26T12:34:25Z</time>
      </trkpt>
      <trkpt lat="45.31306" lon="6.58482">
        <ele>2809.6</ele>
        <time>2018-12-26T12:34:30Z</time>
      </trkpt>
      <trkpt lat="45.31305" lon="6.58488">
        <ele>2810.4</ele>
        <time>2018-12-26T12:34:35Z</time>
      </trkpt>
      <trkpt lat="45.31305" lon="6.58492">
        <ele>2809.8</ele>
        <time>2018-12-26T12:34:40Z</time>
      </trkpt>
      <trkpt lat="45.31303" lon="6.58497">
        <ele>2810.2</ele>
        <time>2018-12-26T12:34:45Z</time>
      </trkpt>
      <trkpt lat="45.31301" lon="6.58501">
        <ele>2812.6</ele>
        <time>2018-12-26T12:34:50Z</time>
      </trkpt>
      <trkpt lat="45.313" lon="6.58505">
        <ele>2812.2</ele>
        <time>2018-12-26T12:34:55Z</time>
      </trkpt>
      <trkpt lat="45.31299" lon="6.5851">
        <ele>2813.6</ele>
        <time>2018-12-26T12:35:00Z</time>
      </trkpt>
      <trkpt lat="45.31298" lon="6.58515">
        <ele>2813</ele>
        <time>2018-12-26T12:35:05Z</time>
      </trkpt>
      <trkpt lat="45.31298" lon="6.5852">
        <ele>2815.4</ele>
        <time>2018-12-26T12:35:10Z</time>
      </trkpt>
      <trkpt lat="45.31297" lon="6.58525">
        <ele>2814.6</ele>
        <time>2018-12-26T12:35:15Z</time>
      </trkpt>
      <trkpt lat="45.31295" lon="6.5853">
        <ele>2815.2</ele>
        <time>2018-12-26T12:35:20Z</time>
      </trkpt>
      <trkpt lat="45.31295" lon="6.58535">
        <ele>2817</ele>
        <time>2018-12-26T12:35:25Z</time>
      </trkpt>
      <trkpt lat="45.31293" lon="6.5854">
        <ele>2814.6</ele>
        <time>2018-12-26T12:35:30Z</time>
      </trkpt>
      <trkpt lat="45.31292" lon="6.58544">
        <ele>2818.8</ele>
        <time>2018-12-26T12:35:35Z</time>
      </trkpt>
      <trkpt lat="45.31291" lon="6.58548">
        <ele>2815.8</ele>
        <time>2018-12-26T12:35:40Z</time>
      </trkpt>
      <trkpt lat="45.3129" lon="6.58553">
        <ele>2818</ele>
        <time>2018-12-26T12:35:45Z</time>
      </trkpt>
      <trkpt lat="45.31289" lon="6.58558">
        <ele>2818.8</ele>
        <time>2018-12-26T12:35:50Z</time>
      </trkpt>
      <trkpt lat="45.31289" lon="6.58564">
        <ele>2819</ele>
        <time>2018-12-26T12:35:55Z</time>
      </trkpt>
      <trkpt lat="45.31288" lon="6.58564">
        <ele>2819.2</ele>
        <time>2018-12-26T12:36:00Z</time>
      </trkpt>
      <trkpt lat="45.31287" lon="6.58569">
        <ele>2818.2</ele>
        <time>2018-12-26T12:36:05Z</time>
      </trkpt>
      <trkpt lat="45.31287" lon="6.58573">
        <ele>2820.6</ele>
        <time>2018-12-26T12:36:10Z</time>
      </trkpt>
      <trkpt lat="45.31286" lon="6.58578">
        <ele>2821.6</ele>
        <time>2018-12-26T12:36:15Z</time>
      </trkpt>
      <trkpt lat="45.31284" lon="6.58583">
        <ele>2822.6</ele>
        <time>2018-12-26T12:36:21Z</time>
      </trkpt>
      <trkpt lat="45.31284" lon="6.58588">
        <ele>2825.4</ele>
        <time>2018-12-26T12:36:26Z</time>
      </trkpt>
      <trkpt lat="45.31283" lon="6.58592">
        <ele>2824.4</ele>
        <time>2018-12-26T12:36:31Z</time>
      </trkpt>
      <trkpt lat="45.31282" lon="6.58597">
        <ele>2822.8</ele>
        <time>2018-12-26T12:36:36Z</time>
      </trkpt>
      <trkpt lat="45.3128" lon="6.58601">
        <ele>2822.2</ele>
        <time>2018-12-26T12:36:41Z</time>
      </trkpt>
      <trkpt lat="45.31278" lon="6.58605">
        <ele>2823</ele>
        <time>2018-12-26T12:36:46Z</time>
      </trkpt>
      <trkpt lat="45.31278" lon="6.58609">
        <ele>2825.8</ele>
        <time>2018-12-26T12:36:51Z</time>
      </trkpt>
      <trkpt lat="45.31276" lon="6.58614">
        <ele>2826.4</ele>
        <time>2018-12-26T12:36:56Z</time>
      </trkpt>
      <trkpt lat="45.31276" lon="6.58618">
        <ele>2827.6</ele>
        <time>2018-12-26T12:37:01Z</time>
      </trkpt>
      <trkpt lat="45.31275" lon="6.58621">
        <ele>2829.8</ele>
        <time>2018-12-26T12:37:36Z</time>
      </trkpt>
      <trkpt lat="45.31274" lon="6.58625">
        <ele>2828.6</ele>
        <time>2018-12-26T12:37:41Z</time>
      </trkpt>
      <trkpt lat="45.31273" lon="6.5863">
        <ele>2829</ele>
        <time>2018-12-26T12:37:46Z</time>
      </trkpt>
      <trkpt lat="45.31271" lon="6.58635">
        <ele>2828.6</ele>
        <time>2018-12-26T12:37:51Z</time>
      </trkpt>
      <trkpt lat="45.3127" lon="6.5864">
        <ele>2831.2</ele>
        <time>2018-12-26T12:37:56Z</time>
      </trkpt>
      <trkpt lat="45.31269" lon="6.58645">
        <ele>2830.2</ele>
        <time>2018-12-26T12:38:01Z</time>
      </trkpt>
      <trkpt lat="45.31269" lon="6.58651">
        <ele>2830</ele>
        <time>2018-12-26T12:38:06Z</time>
      </trkpt>
      <trkpt lat="45.31269" lon="6.58652">
        <ele>2830.2</ele>
        <time>2018-12-26T12:38:11Z</time>
      </trkpt>
      <trkpt lat="45.31268" lon="6.58654">
        <ele>2830.2</ele>
        <time>2018-12-26T12:38:16Z</time>
      </trkpt>
      <trkpt lat="45.31266" lon="6.5866">
        <ele>2832.4</ele>
        <time>2018-12-26T12:38:21Z</time>
      </trkpt>
      <trkpt lat="45.31264" lon="6.58665">
        <ele>2832.6</ele>
        <time>2018-12-26T12:38:26Z</time>
      </trkpt>
      <trkpt lat="45.31263" lon="6.5867">
        <ele>2833</ele>
        <time>2018-12-26T12:38:31Z</time>
      </trkpt>
      <trkpt lat="45.31263" lon="6.58677">
        <ele>2834.6</ele>
        <time>2018-12-26T12:38:36Z</time>
      </trkpt>
      <trkpt lat="45.31261" lon="6.58682">
        <ele>2835</ele>
        <time>2018-12-26T12:38:41Z</time>
      </trkpt>
      <trkpt lat="45.31258" lon="6.58687">
        <ele>2836.4</ele>
        <time>2018-12-26T12:38:46Z</time>
      </trkpt>
      <trkpt lat="45.31257" lon="6.58691">
        <ele>2837</ele>
        <time>2018-12-26T12:38:51Z</time>
      </trkpt>
      <trkpt lat="45.31255" lon="6.58697">
        <ele>2835.4</ele>
        <time>2018-12-26T12:38:56Z</time>
      </trkpt>
      <trkpt lat="45.31253" lon="6.58703">
        <ele>2837</ele>
        <time>2018-12-26T12:39:01Z</time>
      </trkpt>
      <trkpt lat="45.31251" lon="6.58709">
        <ele>2835.6</ele>
        <time>2018-12-26T12:39:06Z</time>
      </trkpt>
      <trkpt lat="45.31248" lon="6.58716">
        <ele>2837.2</ele>
        <time>2018-12-26T12:39:11Z</time>
      </trkpt>
      <trkpt lat="45.31245" lon="6.58724">
        <ele>2839</ele>
        <time>2018-12-26T12:39:16Z</time>
      </trkpt>
      <trkpt lat="45.31241" lon="6.58733">
        <ele>2838.2</ele>
        <time>2018-12-26T12:39:21Z</time>
      </trkpt>
      <trkpt lat="45.31237" lon="6.58744">
        <ele>2836.6</ele>
        <time>2018-12-26T12:39:26Z</time>
      </trkpt>
      <trkpt lat="45.31232" lon="6.58755">
        <ele>2837.2</ele>
        <time>2018-12-26T12:39:31Z</time>
      </trkpt>
      <trkpt lat="45.31229" lon="6.58763">
        <ele>2838.4</ele>
        <time>2018-12-26T12:39:36Z</time>
      </trkpt>
      <trkpt lat="45.31223" lon="6.58774">
        <ele>2835.4</ele>
        <time>2018-12-26T12:39:41Z</time>
      </trkpt>
      <trkpt lat="45.31219" lon="6.58784">
        <ele>2831.8</ele>
        <time>2018-12-26T12:39:46Z</time>
      </trkpt>
      <trkpt lat="45.31217" lon="6.58791">
        <ele>2833.8</ele>
        <time>2018-12-26T12:39:51Z</time>
      </trkpt>
      <trkpt lat="45.31217" lon="6.58797">
        <ele>2831.6</ele>
        <time>2018-12-26T12:39:56Z</time>
      </trkpt>
      <trkpt lat="45.31217" lon="6.58803">
        <ele>2832.8</ele>
        <time>2018-12-26T12:40:01Z</time>
      </trkpt>
      <trkpt lat="45.31217" lon="6.58804">
        <ele>2832.2</ele>
        <time>2018-12-26T12:40:06Z</time>
      </trkpt>
      <trkpt lat="45.31216" lon="6.58809">
        <ele>2833.6</ele>
        <time>2018-12-26T12:40:11Z</time>
      </trkpt>
      <trkpt lat="45.31215" lon="6.58815">
        <ele>2831.6</ele>
        <time>2018-12-26T12:40:16Z</time>
      </trkpt>
      <trkpt lat="45.31215" lon="6.58819">
        <ele>2829.4</ele>
        <time>2018-12-26T12:40:21Z</time>
      </trkpt>
      <trkpt lat="45.31214" lon="6.58823">
        <ele>2833.6</ele>
        <time>2018-12-26T12:40:26Z</time>
      </trkpt>
      <trkpt lat="45.31214" lon="6.58827">
        <ele>2833.4</ele>
        <time>2018-12-26T12:40:31Z</time>
      </trkpt>
      <trkpt lat="45.31213" lon="6.58831">
        <ele>2831.4</ele>
        <time>2018-12-26T12:40:36Z</time>
      </trkpt>
      <trkpt lat="45.31212" lon="6.58835">
        <ele>2833.8</ele>
        <time>2018-12-26T12:40:41Z</time>
      </trkpt>
      <trkpt lat="45.31212" lon="6.5884">
        <ele>2837.8</ele>
        <time>2018-12-26T12:40:46Z</time>
      </trkpt>
      <trkpt lat="45.31211" lon="6.58844">
        <ele>2834</ele>
        <time>2018-12-26T12:40:51Z</time>
      </trkpt>
      <trkpt lat="45.3121" lon="6.58848">
        <ele>2834.2</ele>
        <time>2018-12-26T12:40:56Z</time>
      </trkpt>
      <trkpt lat="45.3121" lon="6.58854">
        <ele>2836.4</ele>
        <time>2018-12-26T12:41:02Z</time>
      </trkpt>
      <trkpt lat="45.31209" lon="6.58858">
        <ele>2837.4</ele>
        <time>2018-12-26T12:41:07Z</time>
      </trkpt>
      <trkpt lat="45.31208" lon="6.58863">
        <ele>2837.6</ele>
        <time>2018-12-26T12:41:12Z</time>
      </trkpt>
      <trkpt lat="45.31207" lon="6.58867">
        <ele>2836.4</ele>
        <time>2018-12-26T12:41:17Z</time>
      </trkpt>
      <trkpt lat="45.31206" lon="6.58872">
        <ele>2838.4</ele>
        <time>2018-12-26T12:41:22Z</time>
      </trkpt>
      <trkpt lat="45.31206" lon="6.58876">
        <ele>2839.2</ele>
        <time>2018-12-26T12:41:27Z</time>
      </trkpt>
      <trkpt lat="45.31205" lon="6.5888">
        <ele>2839</ele>
        <time>2018-12-26T12:41:32Z</time>
      </trkpt>
      <trkpt lat="45.31204" lon="6.58884">
        <ele>2839.8</ele>
        <time>2018-12-26T12:41:37Z</time>
      </trkpt>
      <trkpt lat="45.31203" lon="6.58887">
        <ele>2842.4</ele>
        <time>2018-12-26T12:41:42Z</time>
      </trkpt>
      <trkpt lat="45.31202" lon="6.58891">
        <ele>2841.4</ele>
        <time>2018-12-26T12:41:47Z</time>
      </trkpt>
      <trkpt lat="45.31202" lon="6.58894">
        <ele>2843.2</ele>
        <time>2018-12-26T12:41:52Z</time>
      </trkpt>
      <trkpt lat="45.31201" lon="6.58898">
        <ele>2843</ele>
        <time>2018-12-26T12:41:57Z</time>
      </trkpt>
      <trkpt lat="45.312" lon="6.58901">
        <ele>2841.8</ele>
        <time>2018-12-26T12:42:02Z</time>
      </trkpt>
      <trkpt lat="45.312" lon="6.58903">
        <ele>2843.6</ele>
        <time>2018-12-26T12:42:07Z</time>
      </trkpt>
      <trkpt lat="45.312" lon="6.58905">
        <ele>2842.6</ele>
        <time>2018-12-26T12:42:12Z</time>
      </trkpt>
      <trkpt lat="45.312" lon="6.58909">
        <ele>2845.6</ele>
        <time>2018-12-26T12:42:17Z</time>
      </trkpt>
      <trkpt lat="45.31199" lon="6.58912">
        <ele>2848.2</ele>
        <time>2018-12-26T12:42:22Z</time>
      </trkpt>
      <trkpt lat="45.31199" lon="6.58915">
        <ele>2849</ele>
        <time>2018-12-26T12:42:27Z</time>
      </trkpt>
      <trkpt lat="45.31198" lon="6.58919">
        <ele>2851.4</ele>
        <time>2018-12-26T12:42:32Z</time>
      </trkpt>
      <trkpt lat="45.31198" lon="6.58922">
        <ele>2850.2</ele>
        <time>2018-12-26T12:42:37Z</time>
      </trkpt>
      <trkpt lat="45.31197" lon="6.58926">
        <ele>2845.4</ele>
        <time>2018-12-26T12:42:42Z</time>
      </trkpt>
      <trkpt lat="45.31196" lon="6.5893">
        <ele>2848.6</ele>
        <time>2018-12-26T12:42:47Z</time>
      </trkpt>
      <trkpt lat="45.31195" lon="6.58933">
        <ele>2851.4</ele>
        <time>2018-12-26T12:42:52Z</time>
      </trkpt>
      <trkpt lat="45.31195" lon="6.58936">
        <ele>2848.6</ele>
        <time>2018-12-26T12:42:57Z</time>
      </trkpt>
      <trkpt lat="45.31193" lon="6.5894">
        <ele>2850.2</ele>
        <time>2018-12-26T12:43:02Z</time>
      </trkpt>
      <trkpt lat="45.31192" lon="6.58943">
        <ele>2851.2</ele>
        <time>2018-12-26T12:43:07Z</time>
      </trkpt>
      <trkpt lat="45.31191" lon="6.58947">
        <ele>2852</ele>
        <time>2018-12-26T12:43:12Z</time>
      </trkpt>
      <trkpt lat="45.3119" lon="6.58951">
        <ele>2855.2</ele>
        <time>2018-12-26T12:43:17Z</time>
      </trkpt>
      <trkpt lat="45.3119" lon="6.5895">
        <ele>2854</ele>
        <time>2018-12-26T12:43:22Z</time>
      </trkpt>
      <trkpt lat="45.31187" lon="6.58947">
        <ele>2853.2</ele>
        <time>2018-12-26T12:43:27Z</time>
      </trkpt>
      <trkpt lat="45.31185" lon="6.58945">
        <ele>2854.6</ele>
        <time>2018-12-26T12:43:32Z</time>
      </trkpt>
      <trkpt lat="45.31183" lon="6.58944">
        <ele>2853.4</ele>
        <time>2018-12-26T12:43:37Z</time>
      </trkpt>
      <trkpt lat="45.3118" lon="6.58944">
        <ele>2854</ele>
        <time>2018-12-26T12:43:42Z</time>
      </trkpt>
      <trkpt lat="45.31178" lon="6.58944">
        <ele>2855.2</ele>
        <time>2018-12-26T12:43:47Z</time>
      </trkpt>
      <trkpt lat="45.31176" lon="6.58945">
        <ele>2857.2</ele>
        <time>2018-12-26T12:43:52Z</time>
      </trkpt>
      <trkpt lat="45.31173" lon="6.58946">
        <ele>2856.6</ele>
        <time>2018-12-26T12:43:57Z</time>
      </trkpt>
      <trkpt lat="45.31171" lon="6.58947">
        <ele>2856.4</ele>
        <time>2018-12-26T12:44:02Z</time>
      </trkpt>
      <trkpt lat="45.31168" lon="6.58949">
        <ele>2859.6</ele>
        <time>2018-12-26T12:44:07Z</time>
      </trkpt>
      <trkpt lat="45.31168" lon="6.58952">
        <ele>2854.6</ele>
        <time>2018-12-26T12:44:12Z</time>
      </trkpt>
      <trkpt lat="45.31168" lon="6.58956">
        <ele>2858.4</ele>
        <time>2018-12-26T12:44:17Z</time>
      </trkpt>
      <trkpt lat="45.31168" lon="6.58959">
        <ele>2857.8</ele>
        <time>2018-12-26T12:44:22Z</time>
      </trkpt>
      <trkpt lat="45.31169" lon="6.58963">
        <ele>2858.6</ele>
        <time>2018-12-26T12:44:27Z</time>
      </trkpt>
      <trkpt lat="45.31169" lon="6.58967">
        <ele>2858.8</ele>
        <time>2018-12-26T12:44:32Z</time>
      </trkpt>
      <trkpt lat="45.3117" lon="6.5897">
        <ele>2861.8</ele>
        <time>2018-12-26T12:44:37Z</time>
      </trkpt>
      <trkpt lat="45.3117" lon="6.5897">
        <ele>2861.4</ele>
        <time>2018-12-26T12:44:42Z</time>
      </trkpt>
      <trkpt lat="45.3117" lon="6.5897">
        <ele>2861</ele>
        <time>2018-12-26T12:44:47Z</time>
      </trkpt>
      <trkpt lat="45.3117" lon="6.58972">
        <ele>2860.6</ele>
        <time>2018-12-26T12:44:52Z</time>
      </trkpt>
      <trkpt lat="45.31171" lon="6.58975">
        <ele>2861.2</ele>
        <time>2018-12-26T12:44:57Z</time>
      </trkpt>
      <trkpt lat="45.31172" lon="6.58979">
        <ele>2861.8</ele>
        <time>2018-12-26T12:45:02Z</time>
      </trkpt>
      <trkpt lat="45.31172" lon="6.58982">
        <ele>2860.8</ele>
        <time>2018-12-26T12:45:07Z</time>
      </trkpt>
      <trkpt lat="45.31173" lon="6.58985">
        <ele>2860.4</ele>
        <time>2018-12-26T12:45:12Z</time>
      </trkpt>
      <trkpt lat="45.31174" lon="6.58988">
        <ele>2861.6</ele>
        <time>2018-12-26T12:45:17Z</time>
      </trkpt>
      <trkpt lat="45.31174" lon="6.58992">
        <ele>2863.8</ele>
        <time>2018-12-26T12:45:22Z</time>
      </trkpt>
      <trkpt lat="45.31175" lon="6.58995">
        <ele>2862.2</ele>
        <time>2018-12-26T12:45:27Z</time>
      </trkpt>
      <trkpt lat="45.31176" lon="6.58998">
        <ele>2867</ele>
        <time>2018-12-26T12:45:32Z</time>
      </trkpt>
      <trkpt lat="45.31177" lon="6.59002">
        <ele>2862.8</ele>
        <time>2018-12-26T12:45:37Z</time>
      </trkpt>
      <trkpt lat="45.31177" lon="6.59005">
        <ele>2866.8</ele>
        <time>2018-12-26T12:45:42Z</time>
      </trkpt>
      <trkpt lat="45.31178" lon="6.59008">
        <ele>2868.8</ele>
        <time>2018-12-26T12:45:47Z</time>
      </trkpt>
      <trkpt lat="45.31178" lon="6.59011">
        <ele>2866.8</ele>
        <time>2018-12-26T12:45:52Z</time>
      </trkpt>
      <trkpt lat="45.31179" lon="6.59014">
        <ele>2867.2</ele>
        <time>2018-12-26T12:45:57Z</time>
      </trkpt>
      <trkpt lat="45.3118" lon="6.59017">
        <ele>2868.4</ele>
        <time>2018-12-26T12:46:02Z</time>
      </trkpt>
      <trkpt lat="45.3118" lon="6.5902">
        <ele>2870.8</ele>
        <time>2018-12-26T12:46:07Z</time>
      </trkpt>
      <trkpt lat="45.31181" lon="6.59023">
        <ele>2868.8</ele>
        <time>2018-12-26T12:46:12Z</time>
      </trkpt>
      <trkpt lat="45.3118" lon="6.59026">
        <ele>2868.8</ele>
        <time>2018-12-26T12:46:17Z</time>
      </trkpt>
      <trkpt lat="45.3118" lon="6.59029">
        <ele>2868.8</ele>
        <time>2018-12-26T12:46:22Z</time>
      </trkpt>
      <trkpt lat="45.3118" lon="6.59032">
        <ele>2871.4</ele>
        <time>2018-12-26T12:46:27Z</time>
      </trkpt>
      <trkpt lat="45.31179" lon="6.59035">
        <ele>2869.8</ele>
        <time>2018-12-26T12:46:32Z</time>
      </trkpt>
      <trkpt lat="45.31178" lon="6.59039">
        <ele>2871.8</ele>
        <time>2018-12-26T12:46:37Z</time>
      </trkpt>
      <trkpt lat="45.31176" lon="6.5904">
        <ele>2872.4</ele>
        <time>2018-12-26T12:46:42Z</time>
      </trkpt>
      <trkpt lat="45.31174" lon="6.59039">
        <ele>2873</ele>
        <time>2018-12-26T12:46:47Z</time>
      </trkpt>
      <trkpt lat="45.31172" lon="6.59039">
        <ele>2874</ele>
        <time>2018-12-26T12:46:52Z</time>
      </trkpt>
      <trkpt lat="45.31169" lon="6.59039">
        <ele>2876.6</ele>
        <time>2018-12-26T12:46:57Z</time>
      </trkpt>
      <trkpt lat="45.31167" lon="6.59039">
        <ele>2876.2</ele>
        <time>2018-12-26T12:47:02Z</time>
      </trkpt>
      <trkpt lat="45.31165" lon="6.59039">
        <ele>2875.6</ele>
        <time>2018-12-26T12:47:07Z</time>
      </trkpt>
      <trkpt lat="45.31163" lon="6.59039">
        <ele>2879.2</ele>
        <time>2018-12-26T12:47:13Z</time>
      </trkpt>
      <trkpt lat="45.31162" lon="6.59039">
        <ele>2880.6</ele>
        <time>2018-12-26T12:47:18Z</time>
      </trkpt>
      <trkpt lat="45.3116" lon="6.59039">
        <ele>2880</ele>
        <time>2018-12-26T12:47:23Z</time>
      </trkpt>
      <trkpt lat="45.31158" lon="6.59038">
        <ele>2880.8</ele>
        <time>2018-12-26T12:47:28Z</time>
      </trkpt>
      <trkpt lat="45.31157" lon="6.59038">
        <ele>2880.8</ele>
        <time>2018-12-26T12:47:33Z</time>
      </trkpt>
      <trkpt lat="45.31155" lon="6.59037">
        <ele>2881</ele>
        <time>2018-12-26T12:47:38Z</time>
      </trkpt>
      <trkpt lat="45.31153" lon="6.59037">
        <ele>2877.8</ele>
        <time>2018-12-26T12:47:43Z</time>
      </trkpt>
      <trkpt lat="45.31151" lon="6.59036">
        <ele>2880.2</ele>
        <time>2018-12-26T12:47:48Z</time>
      </trkpt>
      <trkpt lat="45.3115" lon="6.59035">
        <ele>2882</ele>
        <time>2018-12-26T12:47:53Z</time>
      </trkpt>
      <trkpt lat="45.31148" lon="6.59035">
        <ele>2880.4</ele>
        <time>2018-12-26T12:47:58Z</time>
      </trkpt>
      <trkpt lat="45.31146" lon="6.59034">
        <ele>2884.2</ele>
        <time>2018-12-26T12:48:03Z</time>
      </trkpt>
      <trkpt lat="45.31144" lon="6.59033">
        <ele>2886.4</ele>
        <time>2018-12-26T12:48:08Z</time>
      </trkpt>
      <trkpt lat="45.31142" lon="6.59032">
        <ele>2887.4</ele>
        <time>2018-12-26T12:48:13Z</time>
      </trkpt>
      <trkpt lat="45.31141" lon="6.59032">
        <ele>2886.2</ele>
        <time>2018-12-26T12:48:18Z</time>
      </trkpt>
      <trkpt lat="45.31141" lon="6.59032">
        <ele>2886</ele>
        <time>2018-12-26T12:48:23Z</time>
      </trkpt>
      <trkpt lat="45.31141" lon="6.59032">
        <ele>2885.8</ele>
        <time>2018-12-26T12:48:28Z</time>
      </trkpt>
      <trkpt lat="45.31139" lon="6.59031">
        <ele>2887.6</ele>
        <time>2018-12-26T12:48:33Z</time>
      </trkpt>
      <trkpt lat="45.31137" lon="6.59031">
        <ele>2885.4</ele>
        <time>2018-12-26T12:48:38Z</time>
      </trkpt>
      <trkpt lat="45.31136" lon="6.5903">
        <ele>2885.8</ele>
        <time>2018-12-26T12:48:43Z</time>
      </trkpt>
      <trkpt lat="45.31136" lon="6.5903">
        <ele>2886</ele>
        <time>2018-12-26T12:48:48Z</time>
      </trkpt>
      <trkpt lat="45.31136" lon="6.5903">
        <ele>2886.2</ele>
        <time>2018-12-26T12:48:53Z</time>
      </trkpt>
      <trkpt lat="45.31136" lon="6.5903">
        <ele>2886.4</ele>
        <time>2018-12-26T12:48:58Z</time>
      </trkpt>
      <trkpt lat="45.31136" lon="6.5903">
        <ele>2886.4</ele>
        <time>2018-12-26T12:49:03Z</time>
      </trkpt>
      <trkpt lat="45.31135" lon="6.5903">
        <ele>2885.6</ele>
        <time>2018-12-26T12:49:08Z</time>
      </trkpt>
      <trkpt lat="45.31133" lon="6.59032">
        <ele>2887</ele>
        <time>2018-12-26T12:49:13Z</time>
      </trkpt>
      <trkpt lat="45.31131" lon="6.59033">
        <ele>2887.2</ele>
        <time>2018-12-26T12:49:18Z</time>
      </trkpt>
      <trkpt lat="45.31128" lon="6.59034">
        <ele>2889.2</ele>
        <time>2018-12-26T12:49:23Z</time>
      </trkpt>
      <trkpt lat="45.31125" lon="6.59035">
        <ele>2888</ele>
        <time>2018-12-26T12:49:28Z</time>
      </trkpt>
      <trkpt lat="45.31123" lon="6.59037">
        <ele>2891.2</ele>
        <time>2018-12-26T12:49:33Z</time>
      </trkpt>
      <trkpt lat="45.31122" lon="6.59038">
        <ele>2891.4</ele>
        <time>2018-12-26T12:49:38Z</time>
      </trkpt>
      <trkpt lat="45.31119" lon="6.59041">
        <ele>2894.4</ele>
        <time>2018-12-26T12:49:43Z</time>
      </trkpt>
      <trkpt lat="45.31119" lon="6.59044">
        <ele>2893.4</ele>
        <time>2018-12-26T12:49:48Z</time>
      </trkpt>
      <trkpt lat="45.31119" lon="6.59047">
        <ele>2893.4</ele>
        <time>2018-12-26T12:49:53Z</time>
      </trkpt>
      <trkpt lat="45.3112" lon="6.5905">
        <ele>2893.6</ele>
        <time>2018-12-26T12:49:58Z</time>
      </trkpt>
      <trkpt lat="45.31122" lon="6.59053">
        <ele>2896.6</ele>
        <time>2018-12-26T12:50:03Z</time>
      </trkpt>
      <trkpt lat="45.31124" lon="6.59054">
        <ele>2897.8</ele>
        <time>2018-12-26T12:50:08Z</time>
      </trkpt>
      <trkpt lat="45.31126" lon="6.59056">
        <ele>2894.4</ele>
        <time>2018-12-26T12:50:13Z</time>
      </trkpt>
      <trkpt lat="45.31129" lon="6.59058">
        <ele>2898.4</ele>
        <time>2018-12-26T12:50:18Z</time>
      </trkpt>
      <trkpt lat="45.3113" lon="6.59061">
        <ele>2897.8</ele>
        <time>2018-12-26T12:50:23Z</time>
      </trkpt>
      <trkpt lat="45.31131" lon="6.59063">
        <ele>2897.8</ele>
        <time>2018-12-26T12:50:28Z</time>
      </trkpt>
      <trkpt lat="45.31132" lon="6.59066">
        <ele>2899.2</ele>
        <time>2018-12-26T12:50:33Z</time>
      </trkpt>
      <trkpt lat="45.31131" lon="6.59068">
        <ele>2899.2</ele>
        <time>2018-12-26T12:50:38Z</time>
      </trkpt>
      <trkpt lat="45.31129" lon="6.59069">
        <ele>2901.4</ele>
        <time>2018-12-26T12:50:43Z</time>
      </trkpt>
      <trkpt lat="45.31129" lon="6.59069">
        <ele>2901</ele>
        <time>2018-12-26T12:50:48Z</time>
      </trkpt>
      <trkpt lat="45.31129" lon="6.59069">
        <ele>2900.6</ele>
        <time>2018-12-26T12:50:53Z</time>
      </trkpt>
      <trkpt lat="45.31127" lon="6.59072">
        <ele>2899.4</ele>
        <time>2018-12-26T12:50:58Z</time>
      </trkpt>
      <trkpt lat="45.31126" lon="6.59075">
        <ele>2899.8</ele>
        <time>2018-12-26T12:51:03Z</time>
      </trkpt>
      <trkpt lat="45.31126" lon="6.59078">
        <ele>2901</ele>
        <time>2018-12-26T12:51:08Z</time>
      </trkpt>
      <trkpt lat="45.31126" lon="6.59082">
        <ele>2900.2</ele>
        <time>2018-12-26T12:51:13Z</time>
      </trkpt>
      <trkpt lat="45.31126" lon="6.59086">
        <ele>2902.8</ele>
        <time>2018-12-26T12:51:18Z</time>
      </trkpt>
      <trkpt lat="45.31126" lon="6.59091">
        <ele>2905.2</ele>
        <time>2018-12-26T12:51:23Z</time>
      </trkpt>
      <trkpt lat="45.31126" lon="6.59095">
        <ele>2904.6</ele>
        <time>2018-12-26T12:51:28Z</time>
      </trkpt>
      <trkpt lat="45.31126" lon="6.59098">
        <ele>2905.8</ele>
        <time>2018-12-26T12:51:33Z</time>
      </trkpt>
      <trkpt lat="45.31125" lon="6.59102">
        <ele>2905.2</ele>
        <time>2018-12-26T12:51:38Z</time>
      </trkpt>
      <trkpt lat="45.31125" lon="6.59105">
        <ele>2902.6</ele>
        <time>2018-12-26T12:51:43Z</time>
      </trkpt>
      <trkpt lat="45.31124" lon="6.59108">
        <ele>2904.4</ele>
        <time>2018-12-26T12:51:48Z</time>
      </trkpt>
      <trkpt lat="45.31123" lon="6.59111">
        <ele>2905.2</ele>
        <time>2018-12-26T12:51:53Z</time>
      </trkpt>
      <trkpt lat="45.31122" lon="6.59114">
        <ele>2905.6</ele>
        <time>2018-12-26T12:51:58Z</time>
      </trkpt>
      <trkpt lat="45.31121" lon="6.59117">
        <ele>2909.4</ele>
        <time>2018-12-26T12:52:03Z</time>
      </trkpt>
      <trkpt lat="45.3112" lon="6.59119">
        <ele>2907.8</ele>
        <time>2018-12-26T12:52:08Z</time>
      </trkpt>
      <trkpt lat="45.31118" lon="6.59122">
        <ele>2913</ele>
        <time>2018-12-26T12:52:13Z</time>
      </trkpt>
      <trkpt lat="45.31117" lon="6.59126">
        <ele>2912.4</ele>
        <time>2018-12-26T12:52:19Z</time>
      </trkpt>
      <trkpt lat="45.31116" lon="6.59129">
        <ele>2911.6</ele>
        <time>2018-12-26T12:52:24Z</time>
      </trkpt>
      <trkpt lat="45.31115" lon="6.59132">
        <ele>2912.4</ele>
        <time>2018-12-26T12:52:29Z</time>
      </trkpt>
      <trkpt lat="45.31114" lon="6.59135">
        <ele>2909</ele>
        <time>2018-12-26T12:52:34Z</time>
      </trkpt>
      <trkpt lat="45.31113" lon="6.59138">
        <ele>2913</ele>
        <time>2018-12-26T12:52:39Z</time>
      </trkpt>
      <trkpt lat="45.31112" lon="6.59141">
        <ele>2912.4</ele>
        <time>2018-12-26T12:52:44Z</time>
      </trkpt>
      <trkpt lat="45.31111" lon="6.59145">
        <ele>2914</ele>
        <time>2018-12-26T12:52:49Z</time>
      </trkpt>
      <trkpt lat="45.31111" lon="6.59148">
        <ele>2913</ele>
        <time>2018-12-26T12:52:54Z</time>
      </trkpt>
      <trkpt lat="45.3111" lon="6.59151">
        <ele>2915.4</ele>
        <time>2018-12-26T12:52:59Z</time>
      </trkpt>
      <trkpt lat="45.3111" lon="6.59154">
        <ele>2914.8</ele>
        <time>2018-12-26T12:53:04Z</time>
      </trkpt>
      <trkpt lat="45.31111" lon="6.59158">
        <ele>2917.6</ele>
        <time>2018-12-26T12:53:09Z</time>
      </trkpt>
      <trkpt lat="45.31112" lon="6.59161">
        <ele>2917.4</ele>
        <time>2018-12-26T12:53:14Z</time>
      </trkpt>
      <trkpt lat="45.31113" lon="6.59164">
        <ele>2920.8</ele>
        <time>2018-12-26T12:53:19Z</time>
      </trkpt>
      <trkpt lat="45.31115" lon="6.59166">
        <ele>2918.6</ele>
        <time>2018-12-26T12:53:24Z</time>
      </trkpt>
      <trkpt lat="45.31116" lon="6.59169">
        <ele>2919</ele>
        <time>2018-12-26T12:53:29Z</time>
      </trkpt>
      <trkpt lat="45.31117" lon="6.59171">
        <ele>2918.4</ele>
        <time>2018-12-26T12:53:34Z</time>
      </trkpt>
      <trkpt lat="45.31118" lon="6.59174">
        <ele>2919.4</ele>
        <time>2018-12-26T12:53:39Z</time>
      </trkpt>
      <trkpt lat="45.3112" lon="6.59176">
        <ele>2921.6</ele>
        <time>2018-12-26T12:53:44Z</time>
      </trkpt>
      <trkpt lat="45.31121" lon="6.59179">
        <ele>2922.8</ele>
        <time>2018-12-26T12:53:49Z</time>
      </trkpt>
      <trkpt lat="45.31122" lon="6.59182">
        <ele>2921.4</ele>
        <time>2018-12-26T12:53:54Z</time>
      </trkpt>
      <trkpt lat="45.31123" lon="6.59185">
        <ele>2922.2</ele>
        <time>2018-12-26T12:53:59Z</time>
      </trkpt>
      <trkpt lat="45.31124" lon="6.59188">
        <ele>2927.2</ele>
        <time>2018-12-26T12:54:04Z</time>
      </trkpt>
      <trkpt lat="45.31125" lon="6.59191">
        <ele>2925.8</ele>
        <time>2018-12-26T12:54:09Z</time>
      </trkpt>
      <trkpt lat="45.31126" lon="6.59193">
        <ele>2925.4</ele>
        <time>2018-12-26T12:54:14Z</time>
      </trkpt>
      <trkpt lat="45.31127" lon="6.59196">
        <ele>2929</ele>
        <time>2018-12-26T12:54:19Z</time>
      </trkpt>
      <trkpt lat="45.31128" lon="6.59198">
        <ele>2929.4</ele>
        <time>2018-12-26T12:54:24Z</time>
      </trkpt>
      <trkpt lat="45.31128" lon="6.59198">
        <ele>2929</ele>
        <time>2018-12-26T12:54:29Z</time>
      </trkpt>
      <trkpt lat="45.31125" lon="6.59198">
        <ele>2926.8</ele>
        <time>2018-12-26T12:54:34Z</time>
      </trkpt>
      <trkpt lat="45.31123" lon="6.592">
        <ele>2930</ele>
        <time>2018-12-26T12:54:39Z</time>
      </trkpt>
      <trkpt lat="45.31121" lon="6.59201">
        <ele>2931.4</ele>
        <time>2018-12-26T12:54:44Z</time>
      </trkpt>
      <trkpt lat="45.31119" lon="6.59203">
        <ele>2928</ele>
        <time>2018-12-26T12:54:49Z</time>
      </trkpt>
      <trkpt lat="45.31117" lon="6.59204">
        <ele>2928</ele>
        <time>2018-12-26T12:54:54Z</time>
      </trkpt>
      <trkpt lat="45.31115" lon="6.59206">
        <ele>2931.4</ele>
        <time>2018-12-26T12:54:59Z</time>
      </trkpt>
      <trkpt lat="45.31113" lon="6.59208">
        <ele>2931.8</ele>
        <time>2018-12-26T12:55:04Z</time>
      </trkpt>
      <trkpt lat="45.31112" lon="6.5921">
        <ele>2931.6</ele>
        <time>2018-12-26T12:55:09Z</time>
      </trkpt>
      <trkpt lat="45.31112" lon="6.59213">
        <ele>2931.8</ele>
        <time>2018-12-26T12:55:14Z</time>
      </trkpt>
      <trkpt lat="45.31113" lon="6.59215">
        <ele>2931.6</ele>
        <time>2018-12-26T12:55:19Z</time>
      </trkpt>
      <trkpt lat="45.31115" lon="6.59217">
        <ele>2934.2</ele>
        <time>2018-12-26T12:55:24Z</time>
      </trkpt>
      <trkpt lat="45.31116" lon="6.5922">
        <ele>2934.6</ele>
        <time>2018-12-26T12:55:29Z</time>
      </trkpt>
      <trkpt lat="45.31117" lon="6.59222">
        <ele>2934.8</ele>
        <time>2018-12-26T12:55:34Z</time>
      </trkpt>
      <trkpt lat="45.31119" lon="6.59224">
        <ele>2934</ele>
        <time>2018-12-26T12:55:39Z</time>
      </trkpt>
      <trkpt lat="45.3112" lon="6.59226">
        <ele>2934.4</ele>
        <time>2018-12-26T12:55:44Z</time>
      </trkpt>
      <trkpt lat="45.31122" lon="6.59228">
        <ele>2937.6</ele>
        <time>2018-12-26T12:55:49Z</time>
      </trkpt>
      <trkpt lat="45.31123" lon="6.5923">
        <ele>2937</ele>
        <time>2018-12-26T12:55:54Z</time>
      </trkpt>
      <trkpt lat="45.31124" lon="6.59231">
        <ele>2939.2</ele>
        <time>2018-12-26T12:55:59Z</time>
      </trkpt>
      <trkpt lat="45.31125" lon="6.59233">
        <ele>2940</ele>
        <time>2018-12-26T12:56:04Z</time>
      </trkpt>
      <trkpt lat="45.31125" lon="6.59233">
        <ele>2938.2</ele>
        <time>2018-12-26T12:56:09Z</time>
      </trkpt>
      <trkpt lat="45.31125" lon="6.59233">
        <ele>2938.6</ele>
        <time>2018-12-26T12:56:14Z</time>
      </trkpt>
      <trkpt lat="45.31125" lon="6.59233">
        <ele>2938.6</ele>
        <time>2018-12-26T12:56:19Z</time>
      </trkpt>
      <trkpt lat="45.31122" lon="6.59234">
        <ele>2940.4</ele>
        <time>2018-12-26T12:56:24Z</time>
      </trkpt>
      <trkpt lat="45.3112" lon="6.59235">
        <ele>2941</ele>
        <time>2018-12-26T12:56:29Z</time>
      </trkpt>
      <trkpt lat="45.31118" lon="6.59236">
        <ele>2940.8</ele>
        <time>2018-12-26T12:56:34Z</time>
      </trkpt>
      <trkpt lat="45.31116" lon="6.59238">
        <ele>2939.8</ele>
        <time>2018-12-26T12:56:39Z</time>
      </trkpt>
      <trkpt lat="45.31114" lon="6.59239">
        <ele>2941.4</ele>
        <time>2018-12-26T12:56:44Z</time>
      </trkpt>
      <trkpt lat="45.31114" lon="6.5924">
        <ele>2940.8</ele>
        <time>2018-12-26T12:56:49Z</time>
      </trkpt>
      <trkpt lat="45.31115" lon="6.59242">
        <ele>2941.8</ele>
        <time>2018-12-26T12:56:54Z</time>
      </trkpt>
      <trkpt lat="45.31117" lon="6.59245">
        <ele>2941</ele>
        <time>2018-12-26T12:56:59Z</time>
      </trkpt>
      <trkpt lat="45.31119" lon="6.59247">
        <ele>2940.8</ele>
        <time>2018-12-26T12:57:04Z</time>
      </trkpt>
      <trkpt lat="45.31121" lon="6.59249">
        <ele>2943.8</ele>
        <time>2018-12-26T12:57:09Z</time>
      </trkpt>
      <trkpt lat="45.31122" lon="6.59251">
        <ele>2943.6</ele>
        <time>2018-12-26T12:57:14Z</time>
      </trkpt>
      <trkpt lat="45.31124" lon="6.59253">
        <ele>2945.2</ele>
        <time>2018-12-26T12:57:19Z</time>
      </trkpt>
      <trkpt lat="45.31124" lon="6.59253">
        <ele>2945.4</ele>
        <time>2018-12-26T12:57:24Z</time>
      </trkpt>
      <trkpt lat="45.31124" lon="6.59253">
        <ele>2945.4</ele>
        <time>2018-12-26T12:57:29Z</time>
      </trkpt>
      <trkpt lat="45.31124" lon="6.59253">
        <ele>2945.6</ele>
        <time>2018-12-26T12:57:34Z</time>
      </trkpt>
      <trkpt lat="45.31124" lon="6.59253">
        <ele>2945.8</ele>
        <time>2018-12-26T12:57:39Z</time>
      </trkpt>
      <trkpt lat="45.31124" lon="6.59253">
        <ele>2945.8</ele>
        <time>2018-12-26T12:57:44Z</time>
      </trkpt>
      <trkpt lat="45.31124" lon="6.59253">
        <ele>2945.8</ele>
        <time>2018-12-26T12:57:49Z</time>
      </trkpt>
      <trkpt lat="45.31126" lon="6.59255">
        <ele>2945.6</ele>
        <time>2018-12-26T12:57:54Z</time>
      </trkpt>
      <trkpt lat="45.31128" lon="6.59257">
        <ele>2949.4</ele>
        <time>2018-12-26T12:57:59Z</time>
      </trkpt>
      <trkpt lat="45.3113" lon="6.59259">
        <ele>2952.4</ele>
        <time>2018-12-26T12:58:05Z</time>
      </trkpt>
      <trkpt lat="45.31133" lon="6.5926">
        <ele>2951.2</ele>
        <time>2018-12-26T12:58:10Z</time>
      </trkpt>
      <trkpt lat="45.31135" lon="6.59262">
        <ele>2949.8</ele>
        <time>2018-12-26T12:58:15Z</time>
      </trkpt>
      <trkpt lat="45.31136" lon="6.59263">
        <ele>2950</ele>
        <time>2018-12-26T12:58:20Z</time>
      </trkpt>
      <trkpt lat="45.31136" lon="6.59263">
        <ele>2950.6</ele>
        <time>2018-12-26T12:58:25Z</time>
      </trkpt>
      <trkpt lat="45.31135" lon="6.59265">
        <ele>2953.2</ele>
        <time>2018-12-26T12:58:30Z</time>
      </trkpt>
      <trkpt lat="45.31133" lon="6.59266">
        <ele>2951.8</ele>
        <time>2018-12-26T12:58:35Z</time>
      </trkpt>
      <trkpt lat="45.31132" lon="6.59268">
        <ele>2953.8</ele>
        <time>2018-12-26T12:58:40Z</time>
      </trkpt>
      <trkpt lat="45.3113" lon="6.59269">
        <ele>2955</ele>
        <time>2018-12-26T12:58:45Z</time>
      </trkpt>
      <trkpt lat="45.31129" lon="6.59271">
        <ele>2955</ele>
        <time>2018-12-26T12:58:50Z</time>
      </trkpt>
      <trkpt lat="45.31128" lon="6.59273">
        <ele>2954</ele>
        <time>2018-12-26T12:58:55Z</time>
      </trkpt>
      <trkpt lat="45.31127" lon="6.59275">
        <ele>2954.6</ele>
        <time>2018-12-26T12:59:00Z</time>
      </trkpt>
      <trkpt lat="45.31126" lon="6.59278">
        <ele>2955.8</ele>
        <time>2018-12-26T12:59:05Z</time>
      </trkpt>
      <trkpt lat="45.31125" lon="6.5928">
        <ele>2954.8</ele>
        <time>2018-12-26T12:59:10Z</time>
      </trkpt>
      <trkpt lat="45.31124" lon="6.59282">
        <ele>2955.2</ele>
        <time>2018-12-26T12:59:15Z</time>
      </trkpt>
      <trkpt lat="45.31123" lon="6.59284">
        <ele>2958</ele>
        <time>2018-12-26T12:59:20Z</time>
      </trkpt>
      <trkpt lat="45.31121" lon="6.59286">
        <ele>2958</ele>
        <time>2018-12-26T12:59:25Z</time>
      </trkpt>
      <trkpt lat="45.31121" lon="6.59288">
        <ele>2956.6</ele>
        <time>2018-12-26T12:59:30Z</time>
      </trkpt>
      <trkpt lat="45.31121" lon="6.59288">
        <ele>2957.6</ele>
        <time>2018-12-26T12:59:35Z</time>
      </trkpt>
      <trkpt lat="45.31121" lon="6.59289">
        <ele>2955.2</ele>
        <time>2018-12-26T12:59:40Z</time>
      </trkpt>
      <trkpt lat="45.31123" lon="6.5929">
        <ele>2958.4</ele>
        <time>2018-12-26T12:59:45Z</time>
      </trkpt>
      <trkpt lat="45.31125" lon="6.59291">
        <ele>2960</ele>
        <time>2018-12-26T12:59:50Z</time>
      </trkpt>
      <trkpt lat="45.31126" lon="6.59292">
        <ele>2961</ele>
        <time>2018-12-26T12:59:55Z</time>
      </trkpt>
      <trkpt lat="45.31128" lon="6.59293">
        <ele>2962</ele>
        <time>2018-12-26T13:00:00Z</time>
      </trkpt>
      <trkpt lat="45.3113" lon="6.59294">
        <ele>2962</ele>
        <time>2018-12-26T13:00:05Z</time>
      </trkpt>
      <trkpt lat="45.31132" lon="6.59295">
        <ele>2962.4</ele>
        <time>2018-12-26T13:00:10Z</time>
      </trkpt>
      <trkpt lat="45.31134" lon="6.59297">
        <ele>2962.8</ele>
        <time>2018-12-26T13:00:15Z</time>
      </trkpt>
      <trkpt lat="45.31136" lon="6.59298">
        <ele>2963</ele>
        <time>2018-12-26T13:00:20Z</time>
      </trkpt>
      <trkpt lat="45.31138" lon="6.59299">
        <ele>2964.4</ele>
        <time>2018-12-26T13:00:25Z</time>
      </trkpt>
      <trkpt lat="45.31139" lon="6.593">
        <ele>2965.2</ele>
        <time>2018-12-26T13:00:30Z</time>
      </trkpt>
      <trkpt lat="45.31141" lon="6.59302">
        <ele>2964</ele>
        <time>2018-12-26T13:00:35Z</time>
      </trkpt>
      <trkpt lat="45.31143" lon="6.59303">
        <ele>2964.8</ele>
        <time>2018-12-26T13:00:40Z</time>
      </trkpt>
      <trkpt lat="45.31145" lon="6.59305">
        <ele>2965.8</ele>
        <time>2018-12-26T13:00:45Z</time>
      </trkpt>
      <trkpt lat="45.31147" lon="6.59307">
        <ele>2966.8</ele>
        <time>2018-12-26T13:00:50Z</time>
      </trkpt>
      <trkpt lat="45.31148" lon="6.59309">
        <ele>2967.8</ele>
        <time>2018-12-26T13:00:55Z</time>
      </trkpt>
      <trkpt lat="45.3115" lon="6.5931">
        <ele>2969</ele>
        <time>2018-12-26T13:01:00Z</time>
      </trkpt>
      <trkpt lat="45.31151" lon="6.59312">
        <ele>2971.4</ele>
        <time>2018-12-26T13:01:05Z</time>
      </trkpt>
      <trkpt lat="45.31153" lon="6.59314">
        <ele>2976.2</ele>
        <time>2018-12-26T13:01:10Z</time>
      </trkpt>
      <trkpt lat="45.31155" lon="6.59316">
        <ele>2972.8</ele>
        <time>2018-12-26T13:01:15Z</time>
      </trkpt>
      <trkpt lat="45.31156" lon="6.59316">
        <ele>2972.4</ele>
        <time>2018-12-26T13:01:20Z</time>
      </trkpt>
      <trkpt lat="45.31155" lon="6.59316">
        <ele>2972.2</ele>
        <time>2018-12-26T13:01:25Z</time>
      </trkpt>
      <trkpt lat="45.31155" lon="6.59316">
        <ele>2972</ele>
        <time>2018-12-26T13:01:30Z</time>
      </trkpt>
      <trkpt lat="45.31155" lon="6.59316">
        <ele>2972</ele>
        <time>2018-12-26T13:01:35Z</time>
      </trkpt>
      <trkpt lat="45.31154" lon="6.59318">
        <ele>2972</ele>
        <time>2018-12-26T13:01:40Z</time>
      </trkpt>
      <trkpt lat="45.31153" lon="6.5932">
        <ele>2971.8</ele>
        <time>2018-12-26T13:01:45Z</time>
      </trkpt>
      <trkpt lat="45.31152" lon="6.59322">
        <ele>2971.8</ele>
        <time>2018-12-26T13:01:50Z</time>
      </trkpt>
      <trkpt lat="45.31151" lon="6.59324">
        <ele>2972.2</ele>
        <time>2018-12-26T13:01:55Z</time>
      </trkpt>
      <trkpt lat="45.31149" lon="6.59326">
        <ele>2972</ele>
        <time>2018-12-26T13:02:00Z</time>
      </trkpt>
      <trkpt lat="45.31147" lon="6.59328">
        <ele>2971.2</ele>
        <time>2018-12-26T13:02:05Z</time>
      </trkpt>
      <trkpt lat="45.31146" lon="6.5933">
        <ele>2973.4</ele>
        <time>2018-12-26T13:02:10Z</time>
      </trkpt>
      <trkpt lat="45.31145" lon="6.59332">
        <ele>2972.6</ele>
        <time>2018-12-26T13:02:15Z</time>
      </trkpt>
      <trkpt lat="45.31143" lon="6.59335">
        <ele>2973.6</ele>
        <time>2018-12-26T13:02:20Z</time>
      </trkpt>
      <trkpt lat="45.31142" lon="6.59337">
        <ele>2975.8</ele>
        <time>2018-12-26T13:02:25Z</time>
      </trkpt>
      <trkpt lat="45.3114" lon="6.59339">
        <ele>2977.8</ele>
        <time>2018-12-26T13:02:30Z</time>
      </trkpt>
      <trkpt lat="45.31139" lon="6.59341">
        <ele>2978.4</ele>
        <time>2018-12-26T13:02:35Z</time>
      </trkpt>
      <trkpt lat="45.31138" lon="6.59343">
        <ele>2980</ele>
        <time>2018-12-26T13:02:40Z</time>
      </trkpt>
      <trkpt lat="45.31138" lon="6.59346">
        <ele>2980.2</ele>
        <time>2018-12-26T13:02:45Z</time>
      </trkpt>
      <trkpt lat="45.3114" lon="6.59348">
        <ele>2982.6</ele>
        <time>2018-12-26T13:02:50Z</time>
      </trkpt>
      <trkpt lat="45.31142" lon="6.5935">
        <ele>2983.6</ele>
        <time>2018-12-26T13:02:55Z</time>
      </trkpt>
      <trkpt lat="45.31143" lon="6.59351">
        <ele>2982.2</ele>
        <time>2018-12-26T13:03:00Z</time>
      </trkpt>
      <trkpt lat="45.31145" lon="6.59352">
        <ele>2985.6</ele>
        <time>2018-12-26T13:03:05Z</time>
      </trkpt>
      <trkpt lat="45.31147" lon="6.59354">
        <ele>2984</ele>
        <time>2018-12-26T13:03:10Z</time>
      </trkpt>
      <trkpt lat="45.31149" lon="6.59355">
        <ele>2984.8</ele>
        <time>2018-12-26T13:03:15Z</time>
      </trkpt>
      <trkpt lat="45.31152" lon="6.59356">
        <ele>2987.2</ele>
        <time>2018-12-26T13:03:21Z</time>
      </trkpt>
      <trkpt lat="45.31154" lon="6.59358">
        <ele>2984.8</ele>
        <time>2018-12-26T13:03:26Z</time>
      </trkpt>
      <trkpt lat="45.31155" lon="6.59359">
        <ele>2986.8</ele>
        <time>2018-12-26T13:03:31Z</time>
      </trkpt>
      <trkpt lat="45.31157" lon="6.5936">
        <ele>2990</ele>
        <time>2018-12-26T13:03:36Z</time>
      </trkpt>
      <trkpt lat="45.31157" lon="6.5936">
        <ele>2988.8</ele>
        <time>2018-12-26T13:03:41Z</time>
      </trkpt>
      <trkpt lat="45.31157" lon="6.5936">
        <ele>2988.2</ele>
        <time>2018-12-26T13:03:46Z</time>
      </trkpt>
      <trkpt lat="45.31157" lon="6.5936">
        <ele>2987.6</ele>
        <time>2018-12-26T13:03:51Z</time>
      </trkpt>
      <trkpt lat="45.31159" lon="6.59361">
        <ele>2986.6</ele>
        <time>2018-12-26T13:03:56Z</time>
      </trkpt>
      <trkpt lat="45.31161" lon="6.59362">
        <ele>2989</ele>
        <time>2018-12-26T13:04:01Z</time>
      </trkpt>
      <trkpt lat="45.31163" lon="6.59363">
        <ele>2990.2</ele>
        <time>2018-12-26T13:04:06Z</time>
      </trkpt>
      <trkpt lat="45.31165" lon="6.59364">
        <ele>2992.4</ele>
        <time>2018-12-26T13:04:11Z</time>
      </trkpt>
      <trkpt lat="45.31166" lon="6.59365">
        <ele>2992.4</ele>
        <time>2018-12-26T13:04:16Z</time>
      </trkpt>
      <trkpt lat="45.31168" lon="6.59366">
        <ele>2990</ele>
        <time>2018-12-26T13:04:21Z</time>
      </trkpt>
      <trkpt lat="45.3117" lon="6.59367">
        <ele>2990.4</ele>
        <time>2018-12-26T13:04:26Z</time>
      </trkpt>
      <trkpt lat="45.31172" lon="6.59368">
        <ele>2991.8</ele>
        <time>2018-12-26T13:04:31Z</time>
      </trkpt>
      <trkpt lat="45.31172" lon="6.59369">
        <ele>2994</ele>
        <time>2018-12-26T13:04:36Z</time>
      </trkpt>
      <trkpt lat="45.31171" lon="6.59371">
        <ele>2993.2</ele>
        <time>2018-12-26T13:04:41Z</time>
      </trkpt>
      <trkpt lat="45.31171" lon="6.59371">
        <ele>2993</ele>
        <time>2018-12-26T13:04:46Z</time>
      </trkpt>
      <trkpt lat="45.31171" lon="6.59371">
        <ele>2992.8</ele>
        <time>2018-12-26T13:04:51Z</time>
      </trkpt>
      <trkpt lat="45.3117" lon="6.59374">
        <ele>2991.4</ele>
        <time>2018-12-26T13:04:56Z</time>
      </trkpt>
      <trkpt lat="45.31168" lon="6.59376">
        <ele>2993.6</ele>
        <time>2018-12-26T13:05:01Z</time>
      </trkpt>
      <trkpt lat="45.31167" lon="6.59379">
        <ele>2996</ele>
        <time>2018-12-26T13:05:06Z</time>
      </trkpt>
      <trkpt lat="45.31166" lon="6.59381">
        <ele>2992.6</ele>
        <time>2018-12-26T13:05:11Z</time>
      </trkpt>
      <trkpt lat="45.31165" lon="6.59384">
        <ele>2995.6</ele>
        <time>2018-12-26T13:05:16Z</time>
      </trkpt>
      <trkpt lat="45.31164" lon="6.59385">
        <ele>2996.4</ele>
        <time>2018-12-26T13:05:21Z</time>
      </trkpt>
      <trkpt lat="45.31164" lon="6.59387">
        <ele>2995.4</ele>
        <time>2018-12-26T13:05:26Z</time>
      </trkpt>
      <trkpt lat="45.31164" lon="6.5939">
        <ele>2994.6</ele>
        <time>2018-12-26T13:05:31Z</time>
      </trkpt>
      <trkpt lat="45.31163" lon="6.59392">
        <ele>2996</ele>
        <time>2018-12-26T13:05:36Z</time>
      </trkpt>
      <trkpt lat="45.31163" lon="6.59395">
        <ele>2996</ele>
        <time>2018-12-26T13:05:41Z</time>
      </trkpt>
      <trkpt lat="45.31163" lon="6.59398">
        <ele>3000</ele>
        <time>2018-12-26T13:05:46Z</time>
      </trkpt>
      <trkpt lat="45.31162" lon="6.59401">
        <ele>2998.8</ele>
        <time>2018-12-26T13:05:51Z</time>
      </trkpt>
      <trkpt lat="45.31162" lon="6.59405">
        <ele>2999</ele>
        <time>2018-12-26T13:05:56Z</time>
      </trkpt>
      <trkpt lat="45.31162" lon="6.59408">
        <ele>3000.6</ele>
        <time>2018-12-26T13:06:01Z</time>
      </trkpt>
      <trkpt lat="45.31162" lon="6.59412">
        <ele>2997.8</ele>
        <time>2018-12-26T13:06:06Z</time>
      </trkpt>
      <trkpt lat="45.31162" lon="6.59415">
        <ele>3000.2</ele>
        <time>2018-12-26T13:06:11Z</time>
      </trkpt>
      <trkpt lat="45.31162" lon="6.59418">
        <ele>3001.6</ele>
        <time>2018-12-26T13:06:16Z</time>
      </trkpt>
      <trkpt lat="45.31163" lon="6.59422">
        <ele>3002.8</ele>
        <time>2018-12-26T13:06:21Z</time>
      </trkpt>
      <trkpt lat="45.31164" lon="6.59426">
        <ele>3005</ele>
        <time>2018-12-26T13:06:26Z</time>
      </trkpt>
      <trkpt lat="45.31165" lon="6.59429">
        <ele>3003.8</ele>
        <time>2018-12-26T13:06:31Z</time>
      </trkpt>
      <trkpt lat="45.31165" lon="6.59432">
        <ele>3003.6</ele>
        <time>2018-12-26T13:06:36Z</time>
      </trkpt>
      <trkpt lat="45.31166" lon="6.59435">
        <ele>3005.2</ele>
        <time>2018-12-26T13:06:41Z</time>
      </trkpt>
      <trkpt lat="45.31168" lon="6.59438">
        <ele>3004.6</ele>
        <time>2018-12-26T13:06:46Z</time>
      </trkpt>
      <trkpt lat="45.31169" lon="6.59441">
        <ele>3006</ele>
        <time>2018-12-26T13:06:51Z</time>
      </trkpt>
      <trkpt lat="45.3117" lon="6.59443">
        <ele>3005.8</ele>
        <time>2018-12-26T13:06:56Z</time>
      </trkpt>
      <trkpt lat="45.3117" lon="6.59443">
        <ele>3006.2</ele>
        <time>2018-12-26T13:07:01Z</time>
      </trkpt>
      <trkpt lat="45.31171" lon="6.59446">
        <ele>3007.6</ele>
        <time>2018-12-26T13:07:06Z</time>
      </trkpt>
      <trkpt lat="45.31172" lon="6.59448">
        <ele>3006.6</ele>
        <time>2018-12-26T13:07:11Z</time>
      </trkpt>
      <trkpt lat="45.31172" lon="6.59451">
        <ele>3012.4</ele>
        <time>2018-12-26T13:07:16Z</time>
      </trkpt>
      <trkpt lat="45.31173" lon="6.59455">
        <ele>3012.2</ele>
        <time>2018-12-26T13:07:21Z</time>
      </trkpt>
      <trkpt lat="45.31174" lon="6.59458">
        <ele>3010.6</ele>
        <time>2018-12-26T13:07:26Z</time>
      </trkpt>
      <trkpt lat="45.31174" lon="6.59461">
        <ele>3011.6</ele>
        <time>2018-12-26T13:07:31Z</time>
      </trkpt>
      <trkpt lat="45.31174" lon="6.59465">
        <ele>3011.8</ele>
        <time>2018-12-26T13:07:36Z</time>
      </trkpt>
      <trkpt lat="45.31174" lon="6.59469">
        <ele>3010.8</ele>
        <time>2018-12-26T13:07:41Z</time>
      </trkpt>
      <trkpt lat="45.31175" lon="6.59472">
        <ele>3012.8</ele>
        <time>2018-12-26T13:07:46Z</time>
      </trkpt>
      <trkpt lat="45.31175" lon="6.59475">
        <ele>3014</ele>
        <time>2018-12-26T13:07:51Z</time>
      </trkpt>
      <trkpt lat="45.31175" lon="6.59478">
        <ele>3012.4</ele>
        <time>2018-12-26T13:07:56Z</time>
      </trkpt>
      <trkpt lat="45.31175" lon="6.5948">
        <ele>3014.6</ele>
        <time>2018-12-26T13:08:01Z</time>
      </trkpt>
      <trkpt lat="45.31175" lon="6.59483">
        <ele>3014.6</ele>
        <time>2018-12-26T13:08:06Z</time>
      </trkpt>
      <trkpt lat="45.31175" lon="6.59486">
        <ele>3013.8</ele>
        <time>2018-12-26T13:08:11Z</time>
      </trkpt>
      <trkpt lat="45.31175" lon="6.59486">
        <ele>3014.2</ele>
        <time>2018-12-26T13:08:16Z</time>
      </trkpt>
      <trkpt lat="45.31173" lon="6.59483">
        <ele>3016.6</ele>
        <time>2018-12-26T13:11:02Z</time>
      </trkpt>
      <trkpt lat="45.31172" lon="6.59482">
        <ele>3016.6</ele>
        <time>2018-12-26T13:11:07Z</time>
      </trkpt>
      <trkpt lat="45.31172" lon="6.59482">
        <ele>3016.4</ele>
        <time>2018-12-26T13:11:12Z</time>
      </trkpt>
      <trkpt lat="45.31173" lon="6.5948">
        <ele>3015</ele>
        <time>2018-12-26T13:26:25Z</time>
      </trkpt>
      <trkpt lat="45.31175" lon="6.59481">
        <ele>3014.6</ele>
        <time>2018-12-26T13:26:45Z</time>
      </trkpt>
      <trkpt lat="45.31176" lon="6.5948">
        <ele>3013.6</ele>
        <time>2018-12-26T13:26:50Z</time>
      </trkpt>
      <trkpt lat="45.31176" lon="6.5948">
        <ele>3013.8</ele>
        <time>2018-12-26T13:26:55Z</time>
      </trkpt>
      <trkpt lat="45.31177" lon="6.5948">
        <ele>3013.8</ele>
        <time>2018-12-26T13:27:00Z</time>
      </trkpt>
      <trkpt lat="45.31173" lon="6.59465">
        <ele>3010.8</ele>
        <time>2018-12-26T13:27:05Z</time>
      </trkpt>
      <trkpt lat="45.31164" lon="6.59442">
        <ele>3006.8</ele>
        <time>2018-12-26T13:27:10Z</time>
      </trkpt>
      <trkpt lat="45.31172" lon="6.5942">
        <ele>2998.8</ele>
        <time>2018-12-26T13:27:15Z</time>
      </trkpt>
      <trkpt lat="45.31186" lon="6.59394">
        <ele>2992.4</ele>
        <time>2018-12-26T13:27:20Z</time>
      </trkpt>
      <trkpt lat="45.31174" lon="6.59376">
        <ele>2992.4</ele>
        <time>2018-12-26T13:27:25Z</time>
      </trkpt>
      <trkpt lat="45.31169" lon="6.59372">
        <ele>2992.6</ele>
        <time>2018-12-26T13:27:30Z</time>
      </trkpt>
      <trkpt lat="45.31154" lon="6.59368">
        <ele>2991.4</ele>
        <time>2018-12-26T13:27:35Z</time>
      </trkpt>
      <trkpt lat="45.31161" lon="6.59346">
        <ele>2981.4</ele>
        <time>2018-12-26T13:27:40Z</time>
      </trkpt>
      <trkpt lat="45.31148" lon="6.59323">
        <ele>2976.8</ele>
        <time>2018-12-26T13:27:45Z</time>
      </trkpt>
      <trkpt lat="45.31156" lon="6.59304">
        <ele>2969.4</ele>
        <time>2018-12-26T13:27:50Z</time>
      </trkpt>
      <trkpt lat="45.3116" lon="6.59302">
        <ele>2969.4</ele>
        <time>2018-12-26T13:27:55Z</time>
      </trkpt>
      <trkpt lat="45.31163" lon="6.59302">
        <ele>2968.6</ele>
        <time>2018-12-26T13:28:00Z</time>
      </trkpt>
      <trkpt lat="45.31167" lon="6.59304">
        <ele>2965</ele>
        <time>2018-12-26T13:28:05Z</time>
      </trkpt>
      <trkpt lat="45.3118" lon="6.59309">
        <ele>2963</ele>
        <time>2018-12-26T13:28:10Z</time>
      </trkpt>
      <trkpt lat="45.3119" lon="6.59301">
        <ele>2956.8</ele>
        <time>2018-12-26T13:28:15Z</time>
      </trkpt>
      <trkpt lat="45.31189" lon="6.59271">
        <ele>2947</ele>
        <time>2018-12-26T13:28:20Z</time>
      </trkpt>
      <trkpt lat="45.31183" lon="6.5925">
        <ele>2936.8</ele>
        <time>2018-12-26T13:28:25Z</time>
      </trkpt>
      <trkpt lat="45.31188" lon="6.5923">
        <ele>2929</ele>
        <time>2018-12-26T13:28:30Z</time>
      </trkpt>
      <trkpt lat="45.31191" lon="6.59204">
        <ele>2915.2</ele>
        <time>2018-12-26T13:28:35Z</time>
      </trkpt>
      <trkpt lat="45.31194" lon="6.59198">
        <ele>2915</ele>
        <time>2018-12-26T13:28:40Z</time>
      </trkpt>
      <trkpt lat="45.31194" lon="6.59198">
        <ele>2915.6</ele>
        <time>2018-12-26T13:28:45Z</time>
      </trkpt>
      <trkpt lat="45.31194" lon="6.59198">
        <ele>2916</ele>
        <time>2018-12-26T13:28:50Z</time>
      </trkpt>
      <trkpt lat="45.31194" lon="6.59198">
        <ele>2916.2</ele>
        <time>2018-12-26T13:28:55Z</time>
      </trkpt>
      <trkpt lat="45.31193" lon="6.59198">
        <ele>2916.4</ele>
        <time>2018-12-26T13:29:00Z</time>
      </trkpt>
      <trkpt lat="45.31193" lon="6.59199">
        <ele>2916.8</ele>
        <time>2018-12-26T13:29:05Z</time>
      </trkpt>
      <trkpt lat="45.31193" lon="6.59199">
        <ele>2917</ele>
        <time>2018-12-26T13:29:10Z</time>
      </trkpt>
      <trkpt lat="45.31193" lon="6.59199">
        <ele>2917</ele>
        <time>2018-12-26T13:29:15Z</time>
      </trkpt>
      <trkpt lat="45.31194" lon="6.59199">
        <ele>2916</ele>
        <time>2018-12-26T13:29:20Z</time>
      </trkpt>
      <trkpt lat="45.312" lon="6.59185">
        <ele>2912.6</ele>
        <time>2018-12-26T13:29:25Z</time>
      </trkpt>
      <trkpt lat="45.31217" lon="6.59163">
        <ele>2904.8</ele>
        <time>2018-12-26T13:29:30Z</time>
      </trkpt>
      <trkpt lat="45.31242" lon="6.59163">
        <ele>2897.6</ele>
        <time>2018-12-26T13:29:35Z</time>
      </trkpt>
      <trkpt lat="45.31249" lon="6.59138">
        <ele>2891.2</ele>
        <time>2018-12-26T13:29:40Z</time>
      </trkpt>
      <trkpt lat="45.31264" lon="6.59114">
        <ele>2880.6</ele>
        <time>2018-12-26T13:29:45Z</time>
      </trkpt>
      <trkpt lat="45.31276" lon="6.59105">
        <ele>2879.6</ele>
        <time>2018-12-26T13:29:55Z</time>
      </trkpt>
      <trkpt lat="45.31276" lon="6.59105">
        <ele>2879.2</ele>
        <time>2018-12-26T13:30:00Z</time>
      </trkpt>
      <trkpt lat="45.31278" lon="6.59105">
        <ele>2877.2</ele>
        <time>2018-12-26T13:30:35Z</time>
      </trkpt>
      <trkpt lat="45.31287" lon="6.59112">
        <ele>2874.8</ele>
        <time>2018-12-26T13:30:40Z</time>
      </trkpt>
      <trkpt lat="45.31288" lon="6.59115">
        <ele>2876.2</ele>
        <time>2018-12-26T13:30:45Z</time>
      </trkpt>
      <trkpt lat="45.31291" lon="6.59108">
        <ele>2873.8</ele>
        <time>2018-12-26T13:30:50Z</time>
      </trkpt>
      <trkpt lat="45.31286" lon="6.59082">
        <ele>2871.8</ele>
        <time>2018-12-26T13:30:55Z</time>
      </trkpt>
      <trkpt lat="45.31275" lon="6.59053">
        <ele>2865.8</ele>
        <time>2018-12-26T13:31:00Z</time>
      </trkpt>
      <trkpt lat="45.31286" lon="6.59018">
        <ele>2855.6</ele>
        <time>2018-12-26T13:31:05Z</time>
      </trkpt>
      <trkpt lat="45.31295" lon="6.58984">
        <ele>2846</ele>
        <time>2018-12-26T13:31:10Z</time>
      </trkpt>
      <trkpt lat="45.31294" lon="6.58948">
        <ele>2831.2</ele>
        <time>2018-12-26T13:31:15Z</time>
      </trkpt>
      <trkpt lat="45.31299" lon="6.58933">
        <ele>2823.4</ele>
        <time>2018-12-26T13:31:20Z</time>
      </trkpt>
      <trkpt lat="45.31308" lon="6.58939">
        <ele>2821.6</ele>
        <time>2018-12-26T13:31:25Z</time>
      </trkpt>
      <trkpt lat="45.31332" lon="6.58936">
        <ele>2821.2</ele>
        <time>2018-12-26T13:31:30Z</time>
      </trkpt>
      <trkpt lat="45.31351" lon="6.58932">
        <ele>2816.4</ele>
        <time>2018-12-26T13:31:35Z</time>
      </trkpt>
      <trkpt lat="45.31372" lon="6.58934">
        <ele>2816.2</ele>
        <time>2018-12-26T13:31:40Z</time>
      </trkpt>
      <trkpt lat="45.31392" lon="6.58941">
        <ele>2809</ele>
        <time>2018-12-26T13:31:45Z</time>
      </trkpt>
      <trkpt lat="45.31402" lon="6.58941">
        <ele>2807.2</ele>
        <time>2018-12-26T13:31:50Z</time>
      </trkpt>
      <trkpt lat="45.31403" lon="6.58908">
        <ele>2802.4</ele>
        <time>2018-12-26T13:31:56Z</time>
      </trkpt>
      <trkpt lat="45.31419" lon="6.58881">
        <ele>2792.6</ele>
        <time>2018-12-26T13:32:01Z</time>
      </trkpt>
      <trkpt lat="45.3144" lon="6.58887">
        <ele>2781.2</ele>
        <time>2018-12-26T13:32:06Z</time>
      </trkpt>
      <trkpt lat="45.31458" lon="6.58872">
        <ele>2771.6</ele>
        <time>2018-12-26T13:32:11Z</time>
      </trkpt>
      <trkpt lat="45.31464" lon="6.5887">
        <ele>2766</ele>
        <time>2018-12-26T13:32:16Z</time>
      </trkpt>
      <trkpt lat="45.31465" lon="6.58871">
        <ele>2765.4</ele>
        <time>2018-12-26T13:32:21Z</time>
      </trkpt>
      <trkpt lat="45.31464" lon="6.58892">
        <ele>2762.6</ele>
        <time>2018-12-26T13:32:26Z</time>
      </trkpt>
      <trkpt lat="45.31464" lon="6.58918">
        <ele>2760.4</ele>
        <time>2018-12-26T13:32:31Z</time>
      </trkpt>
      <trkpt lat="45.31464" lon="6.58927">
        <ele>2756.8</ele>
        <time>2018-12-26T13:32:36Z</time>
      </trkpt>
      <trkpt lat="45.31464" lon="6.58926">
        <ele>2757</ele>
        <time>2018-12-26T13:32:41Z</time>
      </trkpt>
      <trkpt lat="45.31473" lon="6.58905">
        <ele>2752.8</ele>
        <time>2018-12-26T13:32:46Z</time>
      </trkpt>
      <trkpt lat="45.31482" lon="6.58912">
        <ele>2747.4</ele>
        <time>2018-12-26T13:32:51Z</time>
      </trkpt>
      <trkpt lat="45.31482" lon="6.58935">
        <ele>2737.4</ele>
        <time>2018-12-26T13:32:56Z</time>
      </trkpt>
      <trkpt lat="45.31507" lon="6.58922">
        <ele>2727</ele>
        <time>2018-12-26T13:33:01Z</time>
      </trkpt>
      <trkpt lat="45.3152" lon="6.58884">
        <ele>2718</ele>
        <time>2018-12-26T13:33:06Z</time>
      </trkpt>
      <trkpt lat="45.31536" lon="6.58913">
        <ele>2707.4</ele>
        <time>2018-12-26T13:33:11Z</time>
      </trkpt>
      <trkpt lat="45.31575" lon="6.58907">
        <ele>2693.8</ele>
        <time>2018-12-26T13:33:16Z</time>
      </trkpt>
      <trkpt lat="45.31599" lon="6.58926">
        <ele>2694</ele>
        <time>2018-12-26T13:33:21Z</time>
      </trkpt>
      <trkpt lat="45.31598" lon="6.58932">
        <ele>2695.4</ele>
        <time>2018-12-26T13:33:26Z</time>
      </trkpt>
      <trkpt lat="45.31603" lon="6.58935">
        <ele>2692.6</ele>
        <time>2018-12-26T13:33:31Z</time>
      </trkpt>
      <trkpt lat="45.3161" lon="6.58926">
        <ele>2692.8</ele>
        <time>2018-12-26T13:33:36Z</time>
      </trkpt>
      <trkpt lat="45.31609" lon="6.58916">
        <ele>2693</ele>
        <time>2018-12-26T13:33:41Z</time>
      </trkpt>
      <trkpt lat="45.31601" lon="6.58897">
        <ele>2690.6</ele>
        <time>2018-12-26T13:33:46Z</time>
      </trkpt>
      <trkpt lat="45.31616" lon="6.58885">
        <ele>2684.4</ele>
        <time>2018-12-26T13:33:51Z</time>
      </trkpt>
      <trkpt lat="45.31621" lon="6.58881">
        <ele>2677.6</ele>
        <time>2018-12-26T13:33:56Z</time>
      </trkpt>
      <trkpt lat="45.31635" lon="6.58912">
        <ele>2675.6</ele>
        <time>2018-12-26T13:34:01Z</time>
      </trkpt>
      <trkpt lat="45.3164" lon="6.58899">
        <ele>2667.8</ele>
        <time>2018-12-26T13:34:06Z</time>
      </trkpt>
      <trkpt lat="45.31637" lon="6.58858">
        <ele>2661.2</ele>
        <time>2018-12-26T13:34:11Z</time>
      </trkpt>
      <trkpt lat="45.31652" lon="6.58846">
        <ele>2658.2</ele>
        <time>2018-12-26T13:34:16Z</time>
      </trkpt>
      <trkpt lat="45.31668" lon="6.58871">
        <ele>2647.2</ele>
        <time>2018-12-26T13:34:21Z</time>
      </trkpt>
      <trkpt lat="45.31685" lon="6.58887">
        <ele>2642.2</ele>
        <time>2018-12-26T13:34:26Z</time>
      </trkpt>
      <trkpt lat="45.317" lon="6.58907">
        <ele>2633.6</ele>
        <time>2018-12-26T13:34:31Z</time>
      </trkpt>
      <trkpt lat="45.31696" lon="6.5888">
        <ele>2627.6</ele>
        <time>2018-12-26T13:34:36Z</time>
      </trkpt>
      <trkpt lat="45.31714" lon="6.58886">
        <ele>2617.6</ele>
        <time>2018-12-26T13:34:41Z</time>
      </trkpt>
      <trkpt lat="45.31726" lon="6.58875">
        <ele>2611.2</ele>
        <time>2018-12-26T13:34:46Z</time>
      </trkpt>
      <trkpt lat="45.31741" lon="6.58871">
        <ele>2599</ele>
        <time>2018-12-26T13:34:51Z</time>
      </trkpt>
      <trkpt lat="45.31755" lon="6.58841">
        <ele>2594.6</ele>
        <time>2018-12-26T13:34:56Z</time>
      </trkpt>
      <trkpt lat="45.31769" lon="6.58826">
        <ele>2594.6</ele>
        <time>2018-12-26T13:35:01Z</time>
      </trkpt>
      <trkpt lat="45.31786" lon="6.58827">
        <ele>2585.4</ele>
        <time>2018-12-26T13:35:06Z</time>
      </trkpt>
      <trkpt lat="45.3181" lon="6.58798">
        <ele>2580.8</ele>
        <time>2018-12-26T13:35:11Z</time>
      </trkpt>
      <trkpt lat="45.31842" lon="6.58813">
        <ele>2573.2</ele>
        <time>2018-12-26T13:35:16Z</time>
      </trkpt>
      <trkpt lat="45.3187" lon="6.58812">
        <ele>2571.6</ele>
        <time>2018-12-26T13:35:21Z</time>
      </trkpt>
      <trkpt lat="45.31881" lon="6.58822">
        <ele>2572.6</ele>
        <time>2018-12-26T13:35:26Z</time>
      </trkpt>
      <trkpt lat="45.31883" lon="6.58827">
        <ele>2571.4</ele>
        <time>2018-12-26T13:35:31Z</time>
      </trkpt>
      <trkpt lat="45.31888" lon="6.58832">
        <ele>2566.6</ele>
        <time>2018-12-26T13:35:36Z</time>
      </trkpt>
      <trkpt lat="45.31889" lon="6.58842">
        <ele>2567.6</ele>
        <time>2018-12-26T13:35:41Z</time>
      </trkpt>
      <trkpt lat="45.31895" lon="6.58856">
        <ele>2565.8</ele>
        <time>2018-12-26T13:35:46Z</time>
      </trkpt>
      <trkpt lat="45.31904" lon="6.58876">
        <ele>2564</ele>
        <time>2018-12-26T13:35:51Z</time>
      </trkpt>
      <trkpt lat="45.3192" lon="6.58898">
        <ele>2559.4</ele>
        <time>2018-12-26T13:35:56Z</time>
      </trkpt>
      <trkpt lat="45.31934" lon="6.58924">
        <ele>2557.8</ele>
        <time>2018-12-26T13:36:01Z</time>
      </trkpt>
      <trkpt lat="45.31941" lon="6.58952">
        <ele>2553.6</ele>
        <time>2018-12-26T13:36:06Z</time>
      </trkpt>
      <trkpt lat="45.31959" lon="6.58976">
        <ele>2547</ele>
        <time>2018-12-26T13:36:11Z</time>
      </trkpt>
      <trkpt lat="45.31977" lon="6.59004">
        <ele>2543.4</ele>
        <time>2018-12-26T13:36:16Z</time>
      </trkpt>
      <trkpt lat="45.31999" lon="6.59021">
        <ele>2537.2</ele>
        <time>2018-12-26T13:36:21Z</time>
      </trkpt>
      <trkpt lat="45.32014" lon="6.59028">
        <ele>2535.8</ele>
        <time>2018-12-26T13:36:26Z</time>
      </trkpt>
      <trkpt lat="45.32015" lon="6.5903">
        <ele>2533.8</ele>
        <time>2018-12-26T13:36:31Z</time>
      </trkpt>
      <trkpt lat="45.32013" lon="6.59043">
        <ele>2532.2</ele>
        <time>2018-12-26T13:36:36Z</time>
      </trkpt>
      <trkpt lat="45.3202" lon="6.59066">
        <ele>2521.6</ele>
        <time>2018-12-26T13:36:41Z</time>
      </trkpt>
      <trkpt lat="45.32021" lon="6.59098">
        <ele>2517.8</ele>
        <time>2018-12-26T13:36:46Z</time>
      </trkpt>
      <trkpt lat="45.32035" lon="6.59122">
        <ele>2506.8</ele>
        <time>2018-12-26T13:36:51Z</time>
      </trkpt>
      <trkpt lat="45.32048" lon="6.59144">
        <ele>2504.8</ele>
        <time>2018-12-26T13:36:56Z</time>
      </trkpt>
      <trkpt lat="45.32052" lon="6.59139">
        <ele>2500.2</ele>
        <time>2018-12-26T13:37:01Z</time>
      </trkpt>
      <trkpt lat="45.32057" lon="6.59161">
        <ele>2494.2</ele>
        <time>2018-12-26T13:37:06Z</time>
      </trkpt>
      <trkpt lat="45.32067" lon="6.59191">
        <ele>2485</ele>
        <time>2018-12-26T13:37:11Z</time>
      </trkpt>
      <trkpt lat="45.32087" lon="6.59209">
        <ele>2475.6</ele>
        <time>2018-12-26T13:37:16Z</time>
      </trkpt>
      <trkpt lat="45.32106" lon="6.59227">
        <ele>2464.8</ele>
        <time>2018-12-26T13:37:21Z</time>
      </trkpt>
      <trkpt lat="45.32126" lon="6.59223">
        <ele>2458</ele>
        <time>2018-12-26T13:37:26Z</time>
      </trkpt>
      <trkpt lat="45.32139" lon="6.59245">
        <ele>2451.6</ele>
        <time>2018-12-26T13:37:31Z</time>
      </trkpt>
      <trkpt lat="45.32152" lon="6.59274">
        <ele>2447</ele>
        <time>2018-12-26T13:37:36Z</time>
      </trkpt>
      <trkpt lat="45.3215" lon="6.59297">
        <ele>2440</ele>
        <time>2018-12-26T13:37:41Z</time>
      </trkpt>
      <trkpt lat="45.32174" lon="6.59289">
        <ele>2431.4</ele>
        <time>2018-12-26T13:37:46Z</time>
      </trkpt>
      <trkpt lat="45.32211" lon="6.59269">
        <ele>2432</ele>
        <time>2018-12-26T13:37:51Z</time>
      </trkpt>
      <trkpt lat="45.32273" lon="6.59251">
        <ele>2413.8</ele>
        <time>2018-12-26T13:37:57Z</time>
      </trkpt>
      <trkpt lat="45.32334" lon="6.59244">
        <ele>2402.6</ele>
        <time>2018-12-26T13:38:02Z</time>
      </trkpt>
      <trkpt lat="45.32389" lon="6.59205">
        <ele>2396</ele>
        <time>2018-12-26T13:38:07Z</time>
      </trkpt>
      <trkpt lat="45.32429" lon="6.59163">
        <ele>2392</ele>
        <time>2018-12-26T13:38:12Z</time>
      </trkpt>
      <trkpt lat="45.32462" lon="6.59116">
        <ele>2389.2</ele>
        <time>2018-12-26T13:38:17Z</time>
      </trkpt>
      <trkpt lat="45.32496" lon="6.59058">
        <ele>2380.4</ele>
        <time>2018-12-26T13:38:22Z</time>
      </trkpt>
      <trkpt lat="45.32531" lon="6.59011">
        <ele>2376</ele>
        <time>2018-12-26T13:38:27Z</time>
      </trkpt>
      <trkpt lat="45.32551" lon="6.58979">
        <ele>2372.2</ele>
        <time>2018-12-26T13:38:32Z</time>
      </trkpt>
      <trkpt lat="45.32572" lon="6.58946">
        <ele>2367.4</ele>
        <time>2018-12-26T13:38:37Z</time>
      </trkpt>
      <trkpt lat="45.3259" lon="6.58918">
        <ele>2366.2</ele>
        <time>2018-12-26T13:38:42Z</time>
      </trkpt>
      <trkpt lat="45.32611" lon="6.58885">
        <ele>2365.6</ele>
        <time>2018-12-26T13:38:47Z</time>
      </trkpt>
      <trkpt lat="45.32633" lon="6.58847">
        <ele>2363</ele>
        <time>2018-12-26T13:38:52Z</time>
      </trkpt>
      <trkpt lat="45.32651" lon="6.5882">
        <ele>2359.2</ele>
        <time>2018-12-26T13:38:57Z</time>
      </trkpt>
      <trkpt lat="45.32665" lon="6.5879">
        <ele>2357</ele>
        <time>2018-12-26T13:39:02Z</time>
      </trkpt>
      <trkpt lat="45.32685" lon="6.5876">
        <ele>2355.6</ele>
        <time>2018-12-26T13:39:07Z</time>
      </trkpt>
      <trkpt lat="45.32708" lon="6.58731">
        <ele>2353</ele>
        <time>2018-12-26T13:39:12Z</time>
      </trkpt>
      <trkpt lat="45.32733" lon="6.58705">
        <ele>2349.8</ele>
        <time>2018-12-26T13:39:17Z</time>
      </trkpt>
      <trkpt lat="45.3276" lon="6.58693">
        <ele>2344.2</ele>
        <time>2018-12-26T13:39:22Z</time>
      </trkpt>
      <trkpt lat="45.32786" lon="6.58684">
        <ele>2338</ele>
        <time>2018-12-26T13:39:27Z</time>
      </trkpt>
      <trkpt lat="45.32812" lon="6.58672">
        <ele>2333</ele>
        <time>2018-12-26T13:39:32Z</time>
      </trkpt>
      <trkpt lat="45.32839" lon="6.58659">
        <ele>2325.2</ele>
        <time>2018-12-26T13:39:37Z</time>
      </trkpt>
      <trkpt lat="45.32864" lon="6.58648">
        <ele>2319</ele>
        <time>2018-12-26T13:39:42Z</time>
      </trkpt>
      <trkpt lat="45.32891" lon="6.5864">
        <ele>2312.8</ele>
        <time>2018-12-26T13:39:47Z</time>
      </trkpt>
      <trkpt lat="45.32921" lon="6.58641">
        <ele>2305</ele>
        <time>2018-12-26T13:39:52Z</time>
      </trkpt>
      <trkpt lat="45.32945" lon="6.58661">
        <ele>2296.4</ele>
        <time>2018-12-26T13:39:57Z</time>
      </trkpt>
      <trkpt lat="45.32981" lon="6.5868">
        <ele>2288.6</ele>
        <time>2018-12-26T13:40:02Z</time>
      </trkpt>
      <trkpt lat="45.33017" lon="6.58682">
        <ele>2287.4</ele>
        <time>2018-12-26T13:40:07Z</time>
      </trkpt>
      <trkpt lat="45.33053" lon="6.5867">
        <ele>2281.6</ele>
        <time>2018-12-26T13:40:12Z</time>
      </trkpt>
      <trkpt lat="45.33087" lon="6.58648">
        <ele>2275.2</ele>
        <time>2018-12-26T13:40:17Z</time>
      </trkpt>
      <trkpt lat="45.33117" lon="6.58612">
        <ele>2270.2</ele>
        <time>2018-12-26T13:40:22Z</time>
      </trkpt>
      <trkpt lat="45.33148" lon="6.58581">
        <ele>2270.4</ele>
        <time>2018-12-26T13:40:27Z</time>
      </trkpt>
      <trkpt lat="45.33182" lon="6.58561">
        <ele>2268.8</ele>
        <time>2018-12-26T13:40:32Z</time>
      </trkpt>
      <trkpt lat="45.33214" lon="6.58542">
        <ele>2267.2</ele>
        <time>2018-12-26T13:40:37Z</time>
      </trkpt>
      <trkpt lat="45.33241" lon="6.58522">
        <ele>2260.8</ele>
        <time>2018-12-26T13:40:42Z</time>
      </trkpt>
      <trkpt lat="45.33267" lon="6.58516">
        <ele>2259.6</ele>
        <time>2018-12-26T13:40:47Z</time>
      </trkpt>
      <trkpt lat="45.33293" lon="6.58497">
        <ele>2256.8</ele>
        <time>2018-12-26T13:40:52Z</time>
      </trkpt>
      <trkpt lat="45.33318" lon="6.58466">
        <ele>2255.2</ele>
        <time>2018-12-26T13:40:57Z</time>
      </trkpt>
      <trkpt lat="45.33342" lon="6.58437">
        <ele>2250</ele>
        <time>2018-12-26T13:41:02Z</time>
      </trkpt>
      <trkpt lat="45.33367" lon="6.58416">
        <ele>2244.8</ele>
        <time>2018-12-26T13:41:07Z</time>
      </trkpt>
      <trkpt lat="45.33392" lon="6.58412">
        <ele>2247.6</ele>
        <time>2018-12-26T13:41:12Z</time>
      </trkpt>
      <trkpt lat="45.33416" lon="6.58405">
        <ele>2245.2</ele>
        <time>2018-12-26T13:41:17Z</time>
      </trkpt>
      <trkpt lat="45.33442" lon="6.58395">
        <ele>2243.8</ele>
        <time>2018-12-26T13:41:22Z</time>
      </trkpt>
      <trkpt lat="45.33469" lon="6.58384">
        <ele>2242.2</ele>
        <time>2018-12-26T13:41:27Z</time>
      </trkpt>
      <trkpt lat="45.33499" lon="6.58377">
        <ele>2240.4</ele>
        <time>2018-12-26T13:41:32Z</time>
      </trkpt>
      <trkpt lat="45.33533" lon="6.5837">
        <ele>2236</ele>
        <time>2018-12-26T13:41:37Z</time>
      </trkpt>
      <trkpt lat="45.3357" lon="6.58366">
        <ele>2231.8</ele>
        <time>2018-12-26T13:41:42Z</time>
      </trkpt>
      <trkpt lat="45.33605" lon="6.58367">
        <ele>2234.2</ele>
        <time>2018-12-26T13:41:47Z</time>
      </trkpt>
      <trkpt lat="45.3364" lon="6.5836">
        <ele>2228.8</ele>
        <time>2018-12-26T13:41:52Z</time>
      </trkpt>
      <trkpt lat="45.33679" lon="6.58355">
        <ele>2224</ele>
        <time>2018-12-26T13:41:57Z</time>
      </trkpt>
      <trkpt lat="45.33707" lon="6.58382">
        <ele>2224.2</ele>
        <time>2018-12-26T13:42:02Z</time>
      </trkpt>
      <trkpt lat="45.33728" lon="6.58416">
        <ele>2225.2</ele>
        <time>2018-12-26T13:42:07Z</time>
      </trkpt>
      <trkpt lat="45.33744" lon="6.58426">
        <ele>2221.2</ele>
        <time>2018-12-26T13:42:12Z</time>
      </trkpt>
      <trkpt lat="45.33751" lon="6.58433">
        <ele>2220.8</ele>
        <time>2018-12-26T13:42:17Z</time>
      </trkpt>
      <trkpt lat="45.33759" lon="6.58441">
        <ele>2222</ele>
        <time>2018-12-26T13:42:22Z</time>
      </trkpt>
      <trkpt lat="45.33778" lon="6.58473">
        <ele>2217</ele>
        <time>2018-12-26T13:42:27Z</time>
      </trkpt>
      <trkpt lat="45.33807" lon="6.58495">
        <ele>2215</ele>
        <time>2018-12-26T13:42:32Z</time>
      </trkpt>
      <trkpt lat="45.33837" lon="6.58514">
        <ele>2214</ele>
        <time>2018-12-26T13:42:37Z</time>
      </trkpt>
      <trkpt lat="45.33866" lon="6.58529">
        <ele>2211</ele>
        <time>2018-12-26T13:42:42Z</time>
      </trkpt>
      <trkpt lat="45.3389" lon="6.58527">
        <ele>2211.4</ele>
        <time>2018-12-26T13:42:47Z</time>
      </trkpt>
      <trkpt lat="45.33906" lon="6.58522">
        <ele>2208.4</ele>
        <time>2018-12-26T13:42:52Z</time>
      </trkpt>
      <trkpt lat="45.33924" lon="6.58526">
        <ele>2204.6</ele>
        <time>2018-12-26T13:42:57Z</time>
      </trkpt>
      <trkpt lat="45.33947" lon="6.58549">
        <ele>2198.6</ele>
        <time>2018-12-26T13:43:02Z</time>
      </trkpt>
      <trkpt lat="45.33972" lon="6.5858">
        <ele>2194.4</ele>
        <time>2018-12-26T13:43:07Z</time>
      </trkpt>
      <trkpt lat="45.34001" lon="6.5861">
        <ele>2192.6</ele>
        <time>2018-12-26T13:43:12Z</time>
      </trkpt>
      <trkpt lat="45.34026" lon="6.58616">
        <ele>2184.2</ele>
        <time>2018-12-26T13:43:17Z</time>
      </trkpt>
      <trkpt lat="45.34052" lon="6.58621">
        <ele>2182.6</ele>
        <time>2018-12-26T13:43:22Z</time>
      </trkpt>
      <trkpt lat="45.34077" lon="6.5864">
        <ele>2175.2</ele>
        <time>2018-12-26T13:43:27Z</time>
      </trkpt>
      <trkpt lat="45.34094" lon="6.58667">
        <ele>2169.6</ele>
        <time>2018-12-26T13:43:32Z</time>
      </trkpt>
      <trkpt lat="45.34112" lon="6.5869">
        <ele>2163</ele>
        <time>2018-12-26T13:43:37Z</time>
      </trkpt>
      <trkpt lat="45.34116" lon="6.58734">
        <ele>2156</ele>
        <time>2018-12-26T13:43:42Z</time>
      </trkpt>
      <trkpt lat="45.3411" lon="6.58801">
        <ele>2148</ele>
        <time>2018-12-26T13:43:47Z</time>
      </trkpt>
      <trkpt lat="45.34126" lon="6.58879">
        <ele>2141</ele>
        <time>2018-12-26T13:43:52Z</time>
      </trkpt>
      <trkpt lat="45.34154" lon="6.58917">
        <ele>2138</ele>
        <time>2018-12-26T13:43:57Z</time>
      </trkpt>
      <trkpt lat="45.34177" lon="6.58942">
        <ele>2135.2</ele>
        <time>2018-12-26T13:44:02Z</time>
      </trkpt>
      <trkpt lat="45.34198" lon="6.58957">
        <ele>2132.4</ele>
        <time>2018-12-26T13:44:07Z</time>
      </trkpt>
      <trkpt lat="45.34211" lon="6.58957">
        <ele>2127.4</ele>
        <time>2018-12-26T13:44:12Z</time>
      </trkpt>
      <trkpt lat="45.34215" lon="6.58955">
        <ele>2128.4</ele>
        <time>2018-12-26T13:44:17Z</time>
      </trkpt>
      <trkpt lat="45.34218" lon="6.58954">
        <ele>2127.8</ele>
        <time>2018-12-26T13:44:22Z</time>
      </trkpt>
      <trkpt lat="45.3422" lon="6.58954">
        <ele>2129.6</ele>
        <time>2018-12-26T13:44:27Z</time>
      </trkpt>
      <trkpt lat="45.34223" lon="6.58953">
        <ele>2124.4</ele>
        <time>2018-12-26T13:44:32Z</time>
      </trkpt>
      <trkpt lat="45.34226" lon="6.58953">
        <ele>2128.8</ele>
        <time>2018-12-26T13:44:37Z</time>
      </trkpt>
      <trkpt lat="45.34229" lon="6.58953">
        <ele>2127.6</ele>
        <time>2018-12-26T13:44:42Z</time>
      </trkpt>
      <trkpt lat="45.34231" lon="6.58957">
        <ele>2126.2</ele>
        <time>2018-12-26T13:44:47Z</time>
      </trkpt>
      <trkpt lat="45.34236" lon="6.58969">
        <ele>2126.8</ele>
        <time>2018-12-26T13:44:52Z</time>
      </trkpt>
      <trkpt lat="45.34248" lon="6.58974">
        <ele>2124.8</ele>
        <time>2018-12-26T13:44:57Z</time>
      </trkpt>
      <trkpt lat="45.34262" lon="6.58976">
        <ele>2123</ele>
        <time>2018-12-26T13:45:02Z</time>
      </trkpt>
      <trkpt lat="45.34278" lon="6.5897">
        <ele>2122</ele>
        <time>2018-12-26T13:45:07Z</time>
      </trkpt>
      <trkpt lat="45.34289" lon="6.58967">
        <ele>2120.8</ele>
        <time>2018-12-26T13:45:12Z</time>
      </trkpt>
      <trkpt lat="45.34303" lon="6.58959">
        <ele>2120.4</ele>
        <time>2018-12-26T13:45:17Z</time>
      </trkpt>
      <trkpt lat="45.34313" lon="6.58952">
        <ele>2119.6</ele>
        <time>2018-12-26T13:45:22Z</time>
      </trkpt>
      <trkpt lat="45.34331" lon="6.58941">
        <ele>2119</ele>
        <time>2018-12-26T13:45:27Z</time>
      </trkpt>
      <trkpt lat="45.34345" lon="6.58921">
        <ele>2116.4</ele>
        <time>2018-12-26T13:45:32Z</time>
      </trkpt>
      <trkpt lat="45.34365" lon="6.58912">
        <ele>2110.4</ele>
        <time>2018-12-26T13:45:37Z</time>
      </trkpt>
      <trkpt lat="45.34386" lon="6.5887">
        <ele>2104</ele>
        <time>2018-12-26T13:45:42Z</time>
      </trkpt>
      <trkpt lat="45.3441" lon="6.58873">
        <ele>2102.4</ele>
        <time>2018-12-26T13:45:47Z</time>
      </trkpt>
      <trkpt lat="45.3444" lon="6.5888">
        <ele>2094.2</ele>
        <time>2018-12-26T13:45:52Z</time>
      </trkpt>
      <trkpt lat="45.34436" lon="6.58928">
        <ele>2089.4</ele>
        <time>2018-12-26T13:45:57Z</time>
      </trkpt>
      <trkpt lat="45.3443" lon="6.58976">
        <ele>2078.4</ele>
        <time>2018-12-26T13:46:02Z</time>
      </trkpt>
      <trkpt lat="45.34422" lon="6.59022">
        <ele>2077</ele>
        <time>2018-12-26T13:46:07Z</time>
      </trkpt>
      <trkpt lat="45.34429" lon="6.59075">
        <ele>2060.6</ele>
        <time>2018-12-26T13:46:12Z</time>
      </trkpt>
      <trkpt lat="45.34442" lon="6.59103">
        <ele>2057.4</ele>
        <time>2018-12-26T13:46:17Z</time>
      </trkpt>
      <trkpt lat="45.34472" lon="6.59139">
        <ele>2044.6</ele>
        <time>2018-12-26T13:46:22Z</time>
      </trkpt>
      <trkpt lat="45.34523" lon="6.5916">
        <ele>2034.6</ele>
        <time>2018-12-26T13:46:27Z</time>
      </trkpt>
      <trkpt lat="45.34566" lon="6.59167">
        <ele>2031.2</ele>
        <time>2018-12-26T13:46:32Z</time>
      </trkpt>
      <trkpt lat="45.34589" lon="6.59185">
        <ele>2024.4</ele>
        <time>2018-12-26T13:46:37Z</time>
      </trkpt>
      <trkpt lat="45.34615" lon="6.59174">
        <ele>2017</ele>
        <time>2018-12-26T13:46:42Z</time>
      </trkpt>
      <trkpt lat="45.34632" lon="6.59197">
        <ele>2009.6</ele>
        <time>2018-12-26T13:46:47Z</time>
      </trkpt>
      <trkpt lat="45.34655" lon="6.59204">
        <ele>2003.8</ele>
        <time>2018-12-26T13:46:52Z</time>
      </trkpt>
      <trkpt lat="45.34685" lon="6.59208">
        <ele>1996.2</ele>
        <time>2018-12-26T13:46:57Z</time>
      </trkpt>
      <trkpt lat="45.34712" lon="6.59225">
        <ele>1994.2</ele>
        <time>2018-12-26T13:47:02Z</time>
      </trkpt>
      <trkpt lat="45.34738" lon="6.59239">
        <ele>1988.2</ele>
        <time>2018-12-26T13:47:07Z</time>
      </trkpt>
      <trkpt lat="45.34763" lon="6.59241">
        <ele>1980.6</ele>
        <time>2018-12-26T13:47:12Z</time>
      </trkpt>
      <trkpt lat="45.34794" lon="6.59235">
        <ele>1973.8</ele>
        <time>2018-12-26T13:47:17Z</time>
      </trkpt>
      <trkpt lat="45.34821" lon="6.59251">
        <ele>1968.6</ele>
        <time>2018-12-26T13:47:22Z</time>
      </trkpt>
      <trkpt lat="45.34847" lon="6.59251">
        <ele>1967.2</ele>
        <time>2018-12-26T13:47:27Z</time>
      </trkpt>
      <trkpt lat="45.34877" lon="6.5925">
        <ele>1958.2</ele>
        <time>2018-12-26T13:47:32Z</time>
      </trkpt>
      <trkpt lat="45.34905" lon="6.59213">
        <ele>1948.6</ele>
        <time>2018-12-26T13:47:37Z</time>
      </trkpt>
      <trkpt lat="45.34942" lon="6.59174">
        <ele>1938</ele>
        <time>2018-12-26T13:47:42Z</time>
      </trkpt>
      <trkpt lat="45.3498" lon="6.59146">
        <ele>1936.4</ele>
        <time>2018-12-26T13:47:47Z</time>
      </trkpt>
      <trkpt lat="45.3502" lon="6.59145">
        <ele>1933</ele>
        <time>2018-12-26T13:47:52Z</time>
      </trkpt>
      <trkpt lat="45.35054" lon="6.59139">
        <ele>1931.8</ele>
        <time>2018-12-26T13:47:57Z</time>
      </trkpt>
      <trkpt lat="45.35084" lon="6.59136">
        <ele>1925.8</ele>
        <time>2018-12-26T13:48:02Z</time>
      </trkpt>
      <trkpt lat="45.35104" lon="6.59132">
        <ele>1919.6</ele>
        <time>2018-12-26T13:48:07Z</time>
      </trkpt>
      <trkpt lat="45.35127" lon="6.59128">
        <ele>1916.6</ele>
        <time>2018-12-26T13:48:12Z</time>
      </trkpt>
      <trkpt lat="45.35154" lon="6.59124">
        <ele>1907</ele>
        <time>2018-12-26T13:48:17Z</time>
      </trkpt>
      <trkpt lat="45.35186" lon="6.59114">
        <ele>1905.2</ele>
        <time>2018-12-26T13:48:22Z</time>
      </trkpt>
      <trkpt lat="45.35227" lon="6.59091">
        <ele>1906.2</ele>
        <time>2018-12-26T13:48:27Z</time>
      </trkpt>
      <trkpt lat="45.35265" lon="6.59059">
        <ele>1905.4</ele>
        <time>2018-12-26T13:48:32Z</time>
      </trkpt>
      <trkpt lat="45.35302" lon="6.5903">
        <ele>1900.4</ele>
        <time>2018-12-26T13:48:37Z</time>
      </trkpt>
      <trkpt lat="45.35341" lon="6.5901">
        <ele>1892.2</ele>
        <time>2018-12-26T13:48:42Z</time>
      </trkpt>
      <trkpt lat="45.35376" lon="6.58974">
        <ele>1886.4</ele>
        <time>2018-12-26T13:48:47Z</time>
      </trkpt>
      <trkpt lat="45.3541" lon="6.58932">
        <ele>1877.8</ele>
        <time>2018-12-26T13:48:52Z</time>
      </trkpt>
      <trkpt lat="45.35442" lon="6.58882">
        <ele>1871.2</ele>
        <time>2018-12-26T13:48:57Z</time>
      </trkpt>
      <trkpt lat="45.35484" lon="6.58848">
        <ele>1864.8</ele>
        <time>2018-12-26T13:49:02Z</time>
      </trkpt>
      <trkpt lat="45.35531" lon="6.58823">
        <ele>1855</ele>
        <time>2018-12-26T13:49:07Z</time>
      </trkpt>
      <trkpt lat="45.35573" lon="6.58784">
        <ele>1849</ele>
        <time>2018-12-26T13:49:12Z</time>
      </trkpt>
      <trkpt lat="45.35618" lon="6.58744">
        <ele>1842.4</ele>
        <time>2018-12-26T13:49:17Z</time>
      </trkpt>
      <trkpt lat="45.35665" lon="6.58716">
        <ele>1833.8</ele>
        <time>2018-12-26T13:49:22Z</time>
      </trkpt>
      <trkpt lat="45.35709" lon="6.58682">
        <ele>1827.4</ele>
        <time>2018-12-26T13:49:27Z</time>
      </trkpt>
      <trkpt lat="45.35754" lon="6.58652">
        <ele>1819.4</ele>
        <time>2018-12-26T13:49:32Z</time>
      </trkpt>
      <trkpt lat="45.35793" lon="6.58619">
        <ele>1815</ele>
        <time>2018-12-26T13:49:37Z</time>
      </trkpt>
      <trkpt lat="45.35829" lon="6.58594">
        <ele>1814.6</ele>
        <time>2018-12-26T13:49:42Z</time>
      </trkpt>
      <trkpt lat="45.35862" lon="6.58568">
        <ele>1815.4</ele>
        <time>2018-12-26T13:49:47Z</time>
      </trkpt>
      <trkpt lat="45.35893" lon="6.58545">
        <ele>1811</ele>
        <time>2018-12-26T13:49:52Z</time>
      </trkpt>
      <trkpt lat="45.35923" lon="6.58523">
        <ele>1805.4</ele>
        <time>2018-12-26T13:49:57Z</time>
      </trkpt>
      <trkpt lat="45.35958" lon="6.58509">
        <ele>1803.6</ele>
        <time>2018-12-26T13:50:02Z</time>
      </trkpt>
      <trkpt lat="45.35992" lon="6.58499">
        <ele>1801</ele>
        <time>2018-12-26T13:50:07Z</time>
      </trkpt>
      <trkpt lat="45.3602" lon="6.58492">
        <ele>1799.4</ele>
        <time>2018-12-26T13:50:12Z</time>
      </trkpt>
      <trkpt lat="45.36045" lon="6.58474">
        <ele>1794.4</ele>
        <time>2018-12-26T13:50:17Z</time>
      </trkpt>
      <trkpt lat="45.36064" lon="6.58448">
        <ele>1796.2</ele>
        <time>2018-12-26T13:50:22Z</time>
      </trkpt>
      <trkpt lat="45.36079" lon="6.58421">
        <ele>1792.6</ele>
        <time>2018-12-26T13:50:27Z</time>
      </trkpt>
      <trkpt lat="45.36094" lon="6.58392">
        <ele>1791</ele>
        <time>2018-12-26T13:50:32Z</time>
      </trkpt>
      <trkpt lat="45.3611" lon="6.5837">
        <ele>1790.4</ele>
        <time>2018-12-26T13:50:37Z</time>
      </trkpt>
      <trkpt lat="45.36129" lon="6.58357">
        <ele>1789.2</ele>
        <time>2018-12-26T13:50:42Z</time>
      </trkpt>
      <trkpt lat="45.36148" lon="6.58346">
        <ele>1790.4</ele>
        <time>2018-12-26T13:50:47Z</time>
      </trkpt>
      <trkpt lat="45.36169" lon="6.58331">
        <ele>1789</ele>
        <time>2018-12-26T13:50:52Z</time>
      </trkpt>
      <trkpt lat="45.36191" lon="6.58314">
        <ele>1788.4</ele>
        <time>2018-12-26T13:50:57Z</time>
      </trkpt>
      <trkpt lat="45.36213" lon="6.58298">
        <ele>1786.6</ele>
        <time>2018-12-26T13:51:02Z</time>
      </trkpt>
      <trkpt lat="45.36236" lon="6.58284">
        <ele>1784.4</ele>
        <time>2018-12-26T13:51:07Z</time>
      </trkpt>
      <trkpt lat="45.36262" lon="6.58272">
        <ele>1781</ele>
        <time>2018-12-26T13:51:12Z</time>
      </trkpt>
      <trkpt lat="45.3629" lon="6.58268">
        <ele>1783.4</ele>
        <time>2018-12-26T13:51:17Z</time>
      </trkpt>
      <trkpt lat="45.36317" lon="6.58262">
        <ele>1779.4</ele>
        <time>2018-12-26T13:51:22Z</time>
      </trkpt>
      <trkpt lat="45.36343" lon="6.58264">
        <ele>1778.4</ele>
        <time>2018-12-26T13:51:27Z</time>
      </trkpt>
      <trkpt lat="45.36367" lon="6.58281">
        <ele>1780.4</ele>
        <time>2018-12-26T13:51:32Z</time>
      </trkpt>
      <trkpt lat="45.36391" lon="6.58295">
        <ele>1777.6</ele>
        <time>2018-12-26T13:51:37Z</time>
      </trkpt>
      <trkpt lat="45.36414" lon="6.583">
        <ele>1773.4</ele>
        <time>2018-12-26T13:51:42Z</time>
      </trkpt>
      <trkpt lat="45.36436" lon="6.58296">
        <ele>1772.4</ele>
        <time>2018-12-26T13:51:47Z</time>
      </trkpt>
      <trkpt lat="45.36458" lon="6.58293">
        <ele>1772.2</ele>
        <time>2018-12-26T13:51:52Z</time>
      </trkpt>
      <trkpt lat="45.36484" lon="6.58292">
        <ele>1770</ele>
        <time>2018-12-26T13:51:57Z</time>
      </trkpt>
      <trkpt lat="45.3651" lon="6.58288">
        <ele>1769.6</ele>
        <time>2018-12-26T13:52:02Z</time>
      </trkpt>
      <trkpt lat="45.3653" lon="6.58279">
        <ele>1766.4</ele>
        <time>2018-12-26T13:52:07Z</time>
      </trkpt>
      <trkpt lat="45.36547" lon="6.58263">
        <ele>1767.8</ele>
        <time>2018-12-26T13:52:12Z</time>
      </trkpt>
      <trkpt lat="45.36563" lon="6.58247">
        <ele>1766</ele>
        <time>2018-12-26T13:52:17Z</time>
      </trkpt>
      <trkpt lat="45.36581" lon="6.58229">
        <ele>1765.4</ele>
        <time>2018-12-26T13:52:22Z</time>
      </trkpt>
      <trkpt lat="45.36602" lon="6.58208">
        <ele>1764.2</ele>
        <time>2018-12-26T13:52:27Z</time>
      </trkpt>
      <trkpt lat="45.36625" lon="6.58187">
        <ele>1760.8</ele>
        <time>2018-12-26T13:52:32Z</time>
      </trkpt>
      <trkpt lat="45.3665" lon="6.58163">
        <ele>1760.4</ele>
        <time>2018-12-26T13:52:37Z</time>
      </trkpt>
      <trkpt lat="45.3667" lon="6.58156">
        <ele>1763</ele>
        <time>2018-12-26T13:52:42Z</time>
      </trkpt>
      <trkpt lat="45.36686" lon="6.58156">
        <ele>1758</ele>
        <time>2018-12-26T13:52:47Z</time>
      </trkpt>
      <trkpt lat="45.36702" lon="6.58153">
        <ele>1758.8</ele>
        <time>2018-12-26T13:52:52Z</time>
      </trkpt>
      <trkpt lat="45.36716" lon="6.58146">
        <ele>1759</ele>
        <time>2018-12-26T13:52:57Z</time>
      </trkpt>
      <trkpt lat="45.3673" lon="6.5814">
        <ele>1757.6</ele>
        <time>2018-12-26T13:53:02Z</time>
      </trkpt>
      <trkpt lat="45.36752" lon="6.58143">
        <ele>1755.6</ele>
        <time>2018-12-26T13:53:07Z</time>
      </trkpt>
      <trkpt lat="45.36793" lon="6.58142">
        <ele>1750</ele>
        <time>2018-12-26T13:53:12Z</time>
      </trkpt>
      <trkpt lat="45.36845" lon="6.58136">
        <ele>1744.6</ele>
        <time>2018-12-26T13:53:17Z</time>
      </trkpt>
      <trkpt lat="45.36898" lon="6.58118">
        <ele>1739</ele>
        <time>2018-12-26T13:53:22Z</time>
      </trkpt>
      <trkpt lat="45.36945" lon="6.58103">
        <ele>1739.8</ele>
        <time>2018-12-26T13:53:27Z</time>
      </trkpt>
      <trkpt lat="45.36988" lon="6.58078">
        <ele>1732.4</ele>
        <time>2018-12-26T13:53:32Z</time>
      </trkpt>
      <trkpt lat="45.37027" lon="6.58048">
        <ele>1724.4</ele>
        <time>2018-12-26T13:53:37Z</time>
      </trkpt>
      <trkpt lat="45.37067" lon="6.58025">
        <ele>1722</ele>
        <time>2018-12-26T13:53:42Z</time>
      </trkpt>
      <trkpt lat="45.37106" lon="6.58003">
        <ele>1719.4</ele>
        <time>2018-12-26T13:53:47Z</time>
      </trkpt>
      <trkpt lat="45.37134" lon="6.57972">
        <ele>1717.8</ele>
        <time>2018-12-26T13:53:52Z</time>
      </trkpt>
      <trkpt lat="45.37152" lon="6.57967">
        <ele>1711.2</ele>
        <time>2018-12-26T13:53:57Z</time>
      </trkpt>
      <trkpt lat="45.37155" lon="6.58">
        <ele>1703.6</ele>
        <time>2018-12-26T13:54:02Z</time>
      </trkpt>
      <trkpt lat="45.37162" lon="6.58035">
        <ele>1701.2</ele>
        <time>2018-12-26T13:54:07Z</time>
      </trkpt>
      <trkpt lat="45.37193" lon="6.58052">
        <ele>1697.8</ele>
        <time>2018-12-26T13:54:12Z</time>
      </trkpt>
      <trkpt lat="45.37221" lon="6.58059">
        <ele>1697.2</ele>
        <time>2018-12-26T13:54:17Z</time>
      </trkpt>
      <trkpt lat="45.37242" lon="6.58057">
        <ele>1697.4</ele>
        <time>2018-12-26T13:54:22Z</time>
      </trkpt>
      <trkpt lat="45.37257" lon="6.58058">
        <ele>1695.8</ele>
        <time>2018-12-26T13:54:27Z</time>
      </trkpt>
      <trkpt lat="45.37266" lon="6.58051">
        <ele>1695</ele>
        <time>2018-12-26T13:54:32Z</time>
      </trkpt>
      <trkpt lat="45.37266" lon="6.5805">
        <ele>1694.4</ele>
        <time>2018-12-26T13:54:37Z</time>
      </trkpt>
      <trkpt lat="45.37266" lon="6.58049">
        <ele>1693.8</ele>
        <time>2018-12-26T13:54:42Z</time>
      </trkpt>
      <trkpt lat="45.37266" lon="6.58049">
        <ele>1693.4</ele>
        <time>2018-12-26T13:54:47Z</time>
      </trkpt>
    </trkseg>
  </trk>
</gpx>